<?xml version='1.0' encoding='UTF-8'?><gpx version="1.1" creator="JPX - https://github.com/jenetics/jpx" xmlns="http://www.topografix.com/GPX/1/1"><trk><trkseg><trkpt lat="46.0273533" lon="11.9132359"><ele>285.99999999999994</ele><time>2026-03-28T10:48:50.78Z</time></trkpt><trkpt lat="46.0274164" lon="11.9132169"><ele>286.0</ele><time>2026-03-28T10:49:00.781Z</time></trkpt><trkpt lat="46.0273549" lon="11.9131833"><ele>286.0</ele><time>2026-03-28T10:50:27.785Z</time></trkpt><trkpt lat="46.0273525" lon="11.9130864"><ele>286.0</ele><time>2026-03-28T10:50:34.783Z</time></trkpt><trkpt lat="46.0273687" lon="11.9129985"><ele>286.0</ele><time>2026-03-28T10:50:44.785Z</time></trkpt><trkpt lat="46.0274265" lon="11.9129485"><ele>285.99999999999994</ele><time>2026-03-28T10:51:02.783Z</time></trkpt><trkpt lat="46.0274332" lon="11.9128426"><ele>286.0</ele><time>2026-03-28T10:51:06.782Z</time></trkpt><trkpt lat="46.0274118" lon="11.9127284"><ele>286.0</ele><time>2026-03-28T10:51:10.781Z</time></trkpt><trkpt lat="46.0274429" lon="11.9128404"><ele>286.0</ele><time>2026-03-28T10:51:20.784Z</time></trkpt><trkpt lat="46.0274686" lon="11.912956"><ele>286.0</ele><time>2026-03-28T10:51:23.781Z</time></trkpt><trkpt lat="46.0274768" lon="11.913076"><ele>286.0</ele><time>2026-03-28T10:51:26.783Z</time></trkpt><trkpt lat="46.0274877" lon="11.9131808"><ele>286.0</ele><time>2026-03-28T10:51:29.783Z</time></trkpt><trkpt lat="46.0275072" lon="11.9132862"><ele>286.0</ele><time>2026-03-28T10:51:32.784Z</time></trkpt><trkpt lat="46.0275218" lon="11.9133976"><ele>286.2857142857143</ele><time>2026-03-28T10:51:35.785Z</time></trkpt><trkpt lat="46.0275229" lon="11.9134972"><ele>286.57142857142856</ele><time>2026-03-28T10:51:38.784Z</time></trkpt><trkpt lat="46.027532" lon="11.9136167"><ele>286.8571428571429</ele><time>2026-03-28T10:51:42.785Z</time></trkpt><trkpt lat="46.0275972" lon="11.9136642"><ele>287.1428571428571</ele><time>2026-03-28T10:51:47.783Z</time></trkpt><trkpt lat="46.0276598" lon="11.91363"><ele>287.42857142857144</ele><time>2026-03-28T10:51:52.783Z</time></trkpt><trkpt lat="46.0275857" lon="11.9136486"><ele>287.7142857142857</ele><time>2026-03-28T10:52:06.784Z</time></trkpt><trkpt lat="46.0275174" lon="11.9136158"><ele>288.0</ele><time>2026-03-28T10:52:12.785Z</time></trkpt><trkpt lat="46.0275127" lon="11.9135029"><ele>287.8333333333333</ele><time>2026-03-28T10:52:16.781Z</time></trkpt><trkpt lat="46.027501" lon="11.9133869"><ele>287.6666666666667</ele><time>2026-03-28T10:52:19.783Z</time></trkpt><trkpt lat="46.0274916" lon="11.9132581"><ele>287.5</ele><time>2026-03-28T10:52:22.783Z</time></trkpt><trkpt lat="46.0274699" lon="11.913134"><ele>287.33333333333337</ele><time>2026-03-28T10:52:25.783Z</time></trkpt><trkpt lat="46.0274603" lon="11.91302"><ele>287.1666666666667</ele><time>2026-03-28T10:52:28.782Z</time></trkpt><trkpt lat="46.0274552" lon="11.9128997"><ele>287.0</ele><time>2026-03-28T10:52:31.784Z</time></trkpt><trkpt lat="46.0274495" lon="11.9127664"><ele>287.0</ele><time>2026-03-28T10:52:34.784Z</time></trkpt><trkpt lat="46.0274782" lon="11.912656"><ele>287.0</ele><time>2026-03-28T10:52:37.786Z</time></trkpt><trkpt lat="46.0275634" lon="11.9126162"><ele>287.0</ele><time>2026-03-28T10:52:40.785Z</time></trkpt><trkpt lat="46.027632" lon="11.912604"><ele>287.0</ele><time>2026-03-28T10:52:42.787Z</time></trkpt><trkpt lat="46.0277015" lon="11.9125958"><ele>287.0</ele><time>2026-03-28T10:52:44.784Z</time></trkpt><trkpt lat="46.0277763" lon="11.9125844"><ele>287.0</ele><time>2026-03-28T10:52:46.784Z</time></trkpt><trkpt lat="46.0278441" lon="11.9125766"><ele>287.0</ele><time>2026-03-28T10:52:48.782Z</time></trkpt><trkpt lat="46.0279382" lon="11.9125636"><ele>287.0</ele><time>2026-03-28T10:52:51.781Z</time></trkpt><trkpt lat="46.0280149" lon="11.9125469"><ele>287.0</ele><time>2026-03-28T10:52:53.783Z</time></trkpt><trkpt lat="46.0280956" lon="11.9125385"><ele>287.0</ele><time>2026-03-28T10:52:55.782Z</time></trkpt><trkpt lat="46.0282872" lon="11.9125324"><ele>287.0</ele><time>2026-03-28T10:53:00.785Z</time></trkpt><trkpt lat="46.0283743" lon="11.9125113"><ele>287.0</ele><time>2026-03-28T10:53:02.785Z</time></trkpt><trkpt lat="46.0285398" lon="11.9125012"><ele>287.0</ele><time>2026-03-28T10:53:06.783Z</time></trkpt><trkpt lat="46.028631" lon="11.9124931"><ele>287.0</ele><time>2026-03-28T10:53:08.783Z</time></trkpt><trkpt lat="46.0286913" lon="11.9124536"><ele>287.0</ele><time>2026-03-28T10:53:10.783Z</time></trkpt><trkpt lat="46.0287011" lon="11.9123176"><ele>287.0</ele><time>2026-03-28T10:53:13.784Z</time></trkpt><trkpt lat="46.0286869" lon="11.9122166"><ele>287.0</ele><time>2026-03-28T10:53:15.783Z</time></trkpt><trkpt lat="46.0286744" lon="11.9121151"><ele>287.0</ele><time>2026-03-28T10:53:17.784Z</time></trkpt><trkpt lat="46.0286632" lon="11.9120021"><ele>287.0</ele><time>2026-03-28T10:53:19.784Z</time></trkpt><trkpt lat="46.0286499" lon="11.9118899"><ele>287.0</ele><time>2026-03-28T10:53:21.783Z</time></trkpt><trkpt lat="46.0286404" lon="11.9117769"><ele>287.0</ele><time>2026-03-28T10:53:23.785Z</time></trkpt><trkpt lat="46.0286312" lon="11.9116628"><ele>287.0</ele><time>2026-03-28T10:53:25.782Z</time></trkpt><trkpt lat="46.0286168" lon="11.9115531"><ele>287.0</ele><time>2026-03-28T10:53:27.785Z</time></trkpt><trkpt lat="46.0286076" lon="11.9114441"><ele>287.0</ele><time>2026-03-28T10:53:29.782Z</time></trkpt><trkpt lat="46.0285981" lon="11.9113248"><ele>287.0</ele><time>2026-03-28T10:53:31.783Z</time></trkpt><trkpt lat="46.0285906" lon="11.9112043"><ele>287.0</ele><time>2026-03-28T10:53:33.784Z</time></trkpt><trkpt lat="46.0285718" lon="11.9110508"><ele>287.0</ele><time>2026-03-28T10:53:35.783Z</time></trkpt><trkpt lat="46.0285623" lon="11.9109027"><ele>287.0</ele><time>2026-03-28T10:53:37.781Z</time></trkpt><trkpt lat="46.0285588" lon="11.9107618"><ele>287.0</ele><time>2026-03-28T10:53:39.785Z</time></trkpt><trkpt lat="46.0285583" lon="11.9106345"><ele>287.0</ele><time>2026-03-28T10:53:41.785Z</time></trkpt><trkpt lat="46.0285533" lon="11.9105007"><ele>287.0</ele><time>2026-03-28T10:53:43.785Z</time></trkpt><trkpt lat="46.0285499" lon="11.9103706"><ele>287.0</ele><time>2026-03-28T10:53:45.783Z</time></trkpt><trkpt lat="46.0285468" lon="11.9102407"><ele>287.0</ele><time>2026-03-28T10:53:47.783Z</time></trkpt><trkpt lat="46.0285409" lon="11.9101081"><ele>287.0</ele><time>2026-03-28T10:53:49.784Z</time></trkpt><trkpt lat="46.0285307" lon="11.9099782"><ele>287.0</ele><time>2026-03-28T10:53:51.782Z</time></trkpt><trkpt lat="46.028519" lon="11.9098488"><ele>287.0</ele><time>2026-03-28T10:53:53.785Z</time></trkpt><trkpt lat="46.0285033" lon="11.9097248"><ele>287.0</ele><time>2026-03-28T10:53:55.783Z</time></trkpt><trkpt lat="46.0284913" lon="11.9096056"><ele>287.0</ele><time>2026-03-28T10:53:57.785Z</time></trkpt><trkpt lat="46.0284855" lon="11.9094884"><ele>286.83333333333337</ele><time>2026-03-28T10:53:59.782Z</time></trkpt><trkpt lat="46.0284842" lon="11.9093766"><ele>286.6666666666667</ele><time>2026-03-28T10:54:01.783Z</time></trkpt><trkpt lat="46.0284809" lon="11.9092587"><ele>286.5</ele><time>2026-03-28T10:54:03.783Z</time></trkpt><trkpt lat="46.0284745" lon="11.9091479"><ele>286.3333333333333</ele><time>2026-03-28T10:54:05.783Z</time></trkpt><trkpt lat="46.0284602" lon="11.9090364"><ele>286.16666666666663</ele><time>2026-03-28T10:54:07.783Z</time></trkpt><trkpt lat="46.0284548" lon="11.9089195"><ele>286.0</ele><time>2026-03-28T10:54:09.783Z</time></trkpt><trkpt lat="46.0284458" lon="11.908814"><ele>286.0</ele><time>2026-03-28T10:54:11.783Z</time></trkpt><trkpt lat="46.0284292" lon="11.9087026"><ele>286.0</ele><time>2026-03-28T10:54:13.782Z</time></trkpt><trkpt lat="46.0284061" lon="11.9085869"><ele>286.0</ele><time>2026-03-28T10:54:15.78Z</time></trkpt><trkpt lat="46.0283754" lon="11.9084753"><ele>286.0</ele><time>2026-03-28T10:54:17.784Z</time></trkpt><trkpt lat="46.0283382" lon="11.9083597"><ele>286.0</ele><time>2026-03-28T10:54:19.783Z</time></trkpt><trkpt lat="46.0283163" lon="11.9082376"><ele>286.0</ele><time>2026-03-28T10:54:21.784Z</time></trkpt><trkpt lat="46.0282984" lon="11.9081122"><ele>286.0</ele><time>2026-03-28T10:54:23.782Z</time></trkpt><trkpt lat="46.028285" lon="11.9079838"><ele>286.0</ele><time>2026-03-28T10:54:25.783Z</time></trkpt><trkpt lat="46.028286" lon="11.907867"><ele>286.0</ele><time>2026-03-28T10:54:27.783Z</time></trkpt><trkpt lat="46.028298" lon="11.9077495"><ele>286.0</ele><time>2026-03-28T10:54:29.784Z</time></trkpt><trkpt lat="46.0283375" lon="11.9076409"><ele>286.0</ele><time>2026-03-28T10:54:31.783Z</time></trkpt><trkpt lat="46.028397" lon="11.9075498"><ele>286.0</ele><time>2026-03-28T10:54:33.783Z</time></trkpt><trkpt lat="46.0284603" lon="11.907484"><ele>286.0</ele><time>2026-03-28T10:54:35.785Z</time></trkpt><trkpt lat="46.0285267" lon="11.9074176"><ele>286.0</ele><time>2026-03-28T10:54:37.783Z</time></trkpt><trkpt lat="46.0285983" lon="11.9073617"><ele>286.0</ele><time>2026-03-28T10:54:39.783Z</time></trkpt><trkpt lat="46.0286634" lon="11.9073212"><ele>286.0</ele><time>2026-03-28T10:54:41.783Z</time></trkpt><trkpt lat="46.0287335" lon="11.9072897"><ele>286.0</ele><time>2026-03-28T10:54:43.783Z</time></trkpt><trkpt lat="46.0288251" lon="11.9072789"><ele>286.0</ele><time>2026-03-28T10:54:46.783Z</time></trkpt><trkpt lat="46.0289088" lon="11.9072872"><ele>286.0</ele><time>2026-03-28T10:54:49.782Z</time></trkpt><trkpt lat="46.0289953" lon="11.9072953"><ele>286.0</ele><time>2026-03-28T10:54:52.783Z</time></trkpt><trkpt lat="46.0290826" lon="11.9072848"><ele>286.0</ele><time>2026-03-28T10:54:55.783Z</time></trkpt><trkpt lat="46.0291514" lon="11.9072688"><ele>286.0</ele><time>2026-03-28T10:54:57.785Z</time></trkpt><trkpt lat="46.0292204" lon="11.9072455"><ele>286.0</ele><time>2026-03-28T10:54:59.784Z</time></trkpt><trkpt lat="46.0292923" lon="11.9072357"><ele>286.0</ele><time>2026-03-28T10:55:01.783Z</time></trkpt><trkpt lat="46.0294387" lon="11.907236"><ele>286.4285714285714</ele><time>2026-03-28T10:55:06.783Z</time></trkpt><trkpt lat="46.0295092" lon="11.9072413"><ele>286.85714285714283</ele><time>2026-03-28T10:55:08.783Z</time></trkpt><trkpt lat="46.0295798" lon="11.9072445"><ele>287.2857142857143</ele><time>2026-03-28T10:55:10.783Z</time></trkpt><trkpt lat="46.0296491" lon="11.9072512"><ele>287.71428571428567</ele><time>2026-03-28T10:55:12.785Z</time></trkpt><trkpt lat="46.0297256" lon="11.9072537"><ele>288.1428571428571</ele><time>2026-03-28T10:55:14.783Z</time></trkpt><trkpt lat="46.02979" lon="11.9072655"><ele>288.57142857142856</ele><time>2026-03-28T10:55:16.783Z</time></trkpt><trkpt lat="46.0298529" lon="11.9072809"><ele>289.0</ele><time>2026-03-28T10:55:18.78Z</time></trkpt><trkpt lat="46.0299439" lon="11.907301"><ele>289.25</ele><time>2026-03-28T10:55:21.781Z</time></trkpt><trkpt lat="46.0300287" lon="11.907326"><ele>289.5</ele><time>2026-03-28T10:55:24.78Z</time></trkpt><trkpt lat="46.0302441" lon="11.9073375"><ele>289.75</ele><time>2026-03-28T10:55:35.785Z</time></trkpt><trkpt lat="46.0303644" lon="11.9073335"><ele>290.0</ele><time>2026-03-28T10:55:39.783Z</time></trkpt><trkpt lat="46.0304513" lon="11.9073235"><ele>290.0</ele><time>2026-03-28T10:55:41.785Z</time></trkpt><trkpt lat="46.0305389" lon="11.9073139"><ele>290.0</ele><time>2026-03-28T10:55:43.785Z</time></trkpt><trkpt lat="46.0306313" lon="11.9073096"><ele>290.0</ele><time>2026-03-28T10:55:45.781Z</time></trkpt><trkpt lat="46.0307209" lon="11.9073017"><ele>290.0</ele><time>2026-03-28T10:55:47.783Z</time></trkpt><trkpt lat="46.0308131" lon="11.9072928"><ele>290.0</ele><time>2026-03-28T10:55:49.784Z</time></trkpt><trkpt lat="46.0308997" lon="11.9072848"><ele>290.0</ele><time>2026-03-28T10:55:51.784Z</time></trkpt><trkpt lat="46.0309904" lon="11.9072814"><ele>290.0</ele><time>2026-03-28T10:55:53.78Z</time></trkpt><trkpt lat="46.0310636" lon="11.9072839"><ele>290.0</ele><time>2026-03-28T10:55:55.785Z</time></trkpt><trkpt lat="46.0312044" lon="11.9072855"><ele>290.0</ele><time>2026-03-28T10:55:58.783Z</time></trkpt><trkpt lat="46.0312834" lon="11.9072785"><ele>290.0</ele><time>2026-03-28T10:56:00.785Z</time></trkpt><trkpt lat="46.0313671" lon="11.9072757"><ele>290.0</ele><time>2026-03-28T10:56:02.782Z</time></trkpt><trkpt lat="46.031445" lon="11.9072724"><ele>290.0</ele><time>2026-03-28T10:56:04.782Z</time></trkpt><trkpt lat="46.0315151" lon="11.9072632"><ele>290.0</ele><time>2026-03-28T10:56:06.784Z</time></trkpt><trkpt lat="46.0315871" lon="11.9072515"><ele>290.0</ele><time>2026-03-28T10:56:08.785Z</time></trkpt><trkpt lat="46.0316551" lon="11.9072452"><ele>290.0</ele><time>2026-03-28T10:56:10.783Z</time></trkpt><trkpt lat="46.0317217" lon="11.9072544"><ele>290.0</ele><time>2026-03-28T10:56:12.782Z</time></trkpt><trkpt lat="46.0317859" lon="11.9072725"><ele>290.0</ele><time>2026-03-28T10:56:14.783Z</time></trkpt><trkpt lat="46.0318578" lon="11.9072837"><ele>290.0</ele><time>2026-03-28T10:56:16.781Z</time></trkpt><trkpt lat="46.0319326" lon="11.9072918"><ele>290.2857142857143</ele><time>2026-03-28T10:56:18.784Z</time></trkpt><trkpt lat="46.0320018" lon="11.9073083"><ele>290.5714285714286</ele><time>2026-03-28T10:56:20.783Z</time></trkpt><trkpt lat="46.0320726" lon="11.9073227"><ele>290.8571428571429</ele><time>2026-03-28T10:56:22.782Z</time></trkpt><trkpt lat="46.0321434" lon="11.9073301"><ele>291.14285714285717</ele><time>2026-03-28T10:56:24.784Z</time></trkpt><trkpt lat="46.0322205" lon="11.9073325"><ele>291.42857142857144</ele><time>2026-03-28T10:56:26.783Z</time></trkpt><trkpt lat="46.0322895" lon="11.9073416"><ele>291.7142857142857</ele><time>2026-03-28T10:56:28.785Z</time></trkpt><trkpt lat="46.0323529" lon="11.9073554"><ele>292.0</ele><time>2026-03-28T10:56:30.783Z</time></trkpt><trkpt lat="46.0324219" lon="11.9073648"><ele>292.66666666666663</ele><time>2026-03-28T10:56:32.784Z</time></trkpt><trkpt lat="46.0324885" lon="11.9073692"><ele>293.3333333333333</ele><time>2026-03-28T10:56:34.783Z</time></trkpt><trkpt lat="46.0325921" lon="11.907366"><ele>294.0</ele><time>2026-03-28T10:56:37.785Z</time></trkpt><trkpt lat="46.032662" lon="11.9073558"><ele>294.6666666666667</ele><time>2026-03-28T10:56:39.784Z</time></trkpt><trkpt lat="46.0327342" lon="11.9073511"><ele>295.33333333333337</ele><time>2026-03-28T10:56:41.782Z</time></trkpt><trkpt lat="46.032808" lon="11.9073538"><ele>296.0</ele><time>2026-03-28T10:56:43.783Z</time></trkpt><trkpt lat="46.032874" lon="11.9073658"><ele>296.0</ele><time>2026-03-28T10:56:45.783Z</time></trkpt><trkpt lat="46.0329417" lon="11.9073681"><ele>296.0</ele><time>2026-03-28T10:56:47.781Z</time></trkpt><trkpt lat="46.0330058" lon="11.9073716"><ele>296.0</ele><time>2026-03-28T10:56:49.782Z</time></trkpt><trkpt lat="46.0330701" lon="11.907373"><ele>296.0</ele><time>2026-03-28T10:56:51.783Z</time></trkpt><trkpt lat="46.0331418" lon="11.907378"><ele>296.0</ele><time>2026-03-28T10:56:53.782Z</time></trkpt><trkpt lat="46.0332128" lon="11.9073827"><ele>296.0</ele><time>2026-03-28T10:56:55.783Z</time></trkpt><trkpt lat="46.03328" lon="11.9073972"><ele>296.0</ele><time>2026-03-28T10:56:57.783Z</time></trkpt><trkpt lat="46.033347" lon="11.9074015"><ele>296.0</ele><time>2026-03-28T10:56:59.783Z</time></trkpt><trkpt lat="46.0334213" lon="11.9074045"><ele>296.0</ele><time>2026-03-28T10:57:01.783Z</time></trkpt><trkpt lat="46.0334942" lon="11.9074227"><ele>296.0</ele><time>2026-03-28T10:57:03.782Z</time></trkpt><trkpt lat="46.0335656" lon="11.9074391"><ele>296.0</ele><time>2026-03-28T10:57:05.783Z</time></trkpt><trkpt lat="46.0336323" lon="11.9074607"><ele>296.0</ele><time>2026-03-28T10:57:07.782Z</time></trkpt><trkpt lat="46.0336968" lon="11.9074734"><ele>296.0</ele><time>2026-03-28T10:57:09.784Z</time></trkpt><trkpt lat="46.0337646" lon="11.9074749"><ele>296.0</ele><time>2026-03-28T10:57:11.784Z</time></trkpt><trkpt lat="46.0338324" lon="11.9074556"><ele>296.0</ele><time>2026-03-28T10:57:13.785Z</time></trkpt><trkpt lat="46.0339034" lon="11.9074381"><ele>296.0</ele><time>2026-03-28T10:57:15.782Z</time></trkpt><trkpt lat="46.0339787" lon="11.9074235"><ele>296.0</ele><time>2026-03-28T10:57:17.783Z</time></trkpt><trkpt lat="46.0340512" lon="11.9074112"><ele>296.0</ele><time>2026-03-28T10:57:19.782Z</time></trkpt><trkpt lat="46.0342368" lon="11.9074051"><ele>296.0</ele><time>2026-03-28T10:57:24.783Z</time></trkpt><trkpt lat="46.0343126" lon="11.9073978"><ele>296.14285714285717</ele><time>2026-03-28T10:57:26.783Z</time></trkpt><trkpt lat="46.0343832" lon="11.9073945"><ele>296.2857142857143</ele><time>2026-03-28T10:57:28.78Z</time></trkpt><trkpt lat="46.0344549" lon="11.9073942"><ele>296.42857142857144</ele><time>2026-03-28T10:57:30.783Z</time></trkpt><trkpt lat="46.0345282" lon="11.9073936"><ele>296.57142857142856</ele><time>2026-03-28T10:57:32.783Z</time></trkpt><trkpt lat="46.0346019" lon="11.9073981"><ele>296.7142857142857</ele><time>2026-03-28T10:57:34.785Z</time></trkpt><trkpt lat="46.0346814" lon="11.9074079"><ele>296.8571428571429</ele><time>2026-03-28T10:57:36.783Z</time></trkpt><trkpt lat="46.0347541" lon="11.9074208"><ele>297.0</ele><time>2026-03-28T10:57:38.783Z</time></trkpt><trkpt lat="46.0348263" lon="11.9074397"><ele>297.0</ele><time>2026-03-28T10:57:40.782Z</time></trkpt><trkpt lat="46.0348964" lon="11.9074562"><ele>297.0</ele><time>2026-03-28T10:57:42.785Z</time></trkpt><trkpt lat="46.0349722" lon="11.9074659"><ele>297.0</ele><time>2026-03-28T10:57:44.782Z</time></trkpt><trkpt lat="46.0350514" lon="11.907464"><ele>297.0</ele><time>2026-03-28T10:57:46.784Z</time></trkpt><trkpt lat="46.0351298" lon="11.9074548"><ele>297.0</ele><time>2026-03-28T10:57:48.784Z</time></trkpt><trkpt lat="46.0352067" lon="11.9074487"><ele>297.0</ele><time>2026-03-28T10:57:50.783Z</time></trkpt><trkpt lat="46.0352844" lon="11.9074406"><ele>297.1666666666667</ele><time>2026-03-28T10:57:52.782Z</time></trkpt><trkpt lat="46.0353538" lon="11.9074287"><ele>297.3333333333333</ele><time>2026-03-28T10:57:54.78Z</time></trkpt><trkpt lat="46.0354284" lon="11.907412"><ele>297.5</ele><time>2026-03-28T10:57:56.782Z</time></trkpt><trkpt lat="46.0355059" lon="11.9073986"><ele>297.66666666666663</ele><time>2026-03-28T10:57:58.782Z</time></trkpt><trkpt lat="46.0355851" lon="11.9073905"><ele>297.8333333333333</ele><time>2026-03-28T10:58:00.782Z</time></trkpt><trkpt lat="46.035663" lon="11.9073916"><ele>298.0</ele><time>2026-03-28T10:58:02.783Z</time></trkpt><trkpt lat="46.035742" lon="11.9073981"><ele>298.3333333333333</ele><time>2026-03-28T10:58:04.782Z</time></trkpt><trkpt lat="46.0358178" lon="11.907406"><ele>298.66666666666663</ele><time>2026-03-28T10:58:06.785Z</time></trkpt><trkpt lat="46.0358937" lon="11.9074139"><ele>299.0</ele><time>2026-03-28T10:58:08.785Z</time></trkpt><trkpt lat="46.0359692" lon="11.9074251"><ele>299.3333333333333</ele><time>2026-03-28T10:58:10.783Z</time></trkpt><trkpt lat="46.0360435" lon="11.9074302"><ele>299.6666666666667</ele><time>2026-03-28T10:58:12.783Z</time></trkpt><trkpt lat="46.0361171" lon="11.9074356"><ele>300.0</ele><time>2026-03-28T10:58:14.783Z</time></trkpt><trkpt lat="46.0361949" lon="11.9074338"><ele>300.0</ele><time>2026-03-28T10:58:16.783Z</time></trkpt><trkpt lat="46.036273" lon="11.9074282"><ele>300.0</ele><time>2026-03-28T10:58:18.782Z</time></trkpt><trkpt lat="46.0363518" lon="11.9074198"><ele>300.0</ele><time>2026-03-28T10:58:20.782Z</time></trkpt><trkpt lat="46.0364291" lon="11.9074042"><ele>300.0</ele><time>2026-03-28T10:58:22.782Z</time></trkpt><trkpt lat="46.0365042" lon="11.9073944"><ele>300.0</ele><time>2026-03-28T10:58:24.781Z</time></trkpt><trkpt lat="46.0365878" lon="11.9073861"><ele>300.0</ele><time>2026-03-28T10:58:26.784Z</time></trkpt><trkpt lat="46.0367287" lon="11.9073812"><ele>300.4</ele><time>2026-03-28T10:58:30.782Z</time></trkpt><trkpt lat="46.036809" lon="11.9073801"><ele>300.8</ele><time>2026-03-28T10:58:32.782Z</time></trkpt><trkpt lat="46.0369672" lon="11.9073813"><ele>301.2</ele><time>2026-03-28T10:58:36.782Z</time></trkpt><trkpt lat="46.0370454" lon="11.9073901"><ele>301.6</ele><time>2026-03-28T10:58:38.782Z</time></trkpt><trkpt lat="46.0371233" lon="11.907407"><ele>302.0</ele><time>2026-03-28T10:58:40.783Z</time></trkpt><trkpt lat="46.0371998" lon="11.9074101"><ele>302.00000000000006</ele><time>2026-03-28T10:58:42.784Z</time></trkpt><trkpt lat="46.037276" lon="11.9074166"><ele>302.0</ele><time>2026-03-28T10:58:44.782Z</time></trkpt><trkpt lat="46.0373495" lon="11.9074225"><ele>302.0</ele><time>2026-03-28T10:58:46.782Z</time></trkpt><trkpt lat="46.0374195" lon="11.9074361"><ele>302.0</ele><time>2026-03-28T10:58:48.785Z</time></trkpt><trkpt lat="46.0374889" lon="11.9074442"><ele>302.0</ele><time>2026-03-28T10:58:50.782Z</time></trkpt><trkpt lat="46.037558" lon="11.9074507"><ele>302.00000000000006</ele><time>2026-03-28T10:58:52.782Z</time></trkpt><trkpt lat="46.037634" lon="11.9074591"><ele>302.0</ele><time>2026-03-28T10:58:54.783Z</time></trkpt><trkpt lat="46.0377039" lon="11.9074609"><ele>302.33333333333337</ele><time>2026-03-28T10:58:56.785Z</time></trkpt><trkpt lat="46.037778" lon="11.9074512"><ele>302.6666666666667</ele><time>2026-03-28T10:58:58.782Z</time></trkpt><trkpt lat="46.0378532" lon="11.9074382"><ele>303.0</ele><time>2026-03-28T10:59:00.785Z</time></trkpt><trkpt lat="46.0379228" lon="11.9074219"><ele>303.3333333333333</ele><time>2026-03-28T10:59:02.783Z</time></trkpt><trkpt lat="46.0379991" lon="11.9074089"><ele>303.66666666666663</ele><time>2026-03-28T10:59:04.785Z</time></trkpt><trkpt lat="46.0380708" lon="11.9074094"><ele>304.0</ele><time>2026-03-28T10:59:06.784Z</time></trkpt><trkpt lat="46.0381611" lon="11.9074051"><ele>304.0</ele><time>2026-03-28T10:59:09.785Z</time></trkpt><trkpt lat="46.038243" lon="11.9074135"><ele>304.0</ele><time>2026-03-28T10:59:12.783Z</time></trkpt><trkpt lat="46.0383276" lon="11.9074201"><ele>304.0</ele><time>2026-03-28T10:59:15.785Z</time></trkpt><trkpt lat="46.0383924" lon="11.9074322"><ele>304.0</ele><time>2026-03-28T10:59:17.78Z</time></trkpt><trkpt lat="46.0384614" lon="11.9074439"><ele>304.0</ele><time>2026-03-28T10:59:19.781Z</time></trkpt><trkpt lat="46.0385323" lon="11.9074545"><ele>304.0</ele><time>2026-03-28T10:59:21.78Z</time></trkpt><trkpt lat="46.0386003" lon="11.9074652"><ele>304.0</ele><time>2026-03-28T10:59:23.783Z</time></trkpt><trkpt lat="46.0386716" lon="11.9074754"><ele>304.4</ele><time>2026-03-28T10:59:25.784Z</time></trkpt><trkpt lat="46.0387428" lon="11.9074837"><ele>304.79999999999995</ele><time>2026-03-28T10:59:27.781Z</time></trkpt><trkpt lat="46.0388091" lon="11.907491"><ele>305.20000000000005</ele><time>2026-03-28T10:59:29.782Z</time></trkpt><trkpt lat="46.0388776" lon="11.9075"><ele>305.6</ele><time>2026-03-28T10:59:32.784Z</time></trkpt><trkpt lat="46.0390816" lon="11.9075049"><ele>306.0</ele><time>2026-03-28T10:59:44.782Z</time></trkpt><trkpt lat="46.0392228" lon="11.907508"><ele>306.0</ele><time>2026-03-28T10:59:48.783Z</time></trkpt><trkpt lat="46.0392874" lon="11.9075189"><ele>306.0</ele><time>2026-03-28T10:59:50.785Z</time></trkpt><trkpt lat="46.0393535" lon="11.907535"><ele>306.0</ele><time>2026-03-28T10:59:52.782Z</time></trkpt><trkpt lat="46.0394476" lon="11.9075512"><ele>306.0</ele><time>2026-03-28T10:59:55.785Z</time></trkpt><trkpt lat="46.0395129" lon="11.9075524"><ele>306.0</ele><time>2026-03-28T10:59:57.785Z</time></trkpt><trkpt lat="46.0395766" lon="11.9075593"><ele>306.0</ele><time>2026-03-28T10:59:59.782Z</time></trkpt><trkpt lat="46.0396449" lon="11.9075623"><ele>306.0</ele><time>2026-03-28T11:00:01.781Z</time></trkpt><trkpt lat="46.0398109" lon="11.9075663"><ele>306.0</ele><time>2026-03-28T11:00:06.785Z</time></trkpt><trkpt lat="46.0398819" lon="11.9075596"><ele>306.0</ele><time>2026-03-28T11:00:09.783Z</time></trkpt><trkpt lat="46.0399512" lon="11.9075336"><ele>306.0</ele><time>2026-03-28T11:00:12.783Z</time></trkpt><trkpt lat="46.0400183" lon="11.9075067"><ele>306.0</ele><time>2026-03-28T11:00:14.782Z</time></trkpt><trkpt lat="46.0400816" lon="11.907491"><ele>306.0</ele><time>2026-03-28T11:00:16.784Z</time></trkpt><trkpt lat="46.0401669" lon="11.9074425"><ele>306.0</ele><time>2026-03-28T11:00:19.783Z</time></trkpt><trkpt lat="46.0402286" lon="11.9074208"><ele>306.0</ele><time>2026-03-28T11:00:21.78Z</time></trkpt><trkpt lat="46.0402918" lon="11.9074077"><ele>307.0</ele><time>2026-03-28T11:00:23.78Z</time></trkpt><trkpt lat="46.0403562" lon="11.9074193"><ele>308.0</ele><time>2026-03-28T11:00:25.782Z</time></trkpt><trkpt lat="46.040494" lon="11.9074537"><ele>309.0</ele><time>2026-03-28T11:00:30.783Z</time></trkpt><trkpt lat="46.0406713" lon="11.9074554"><ele>310.0</ele><time>2026-03-28T11:00:36.78Z</time></trkpt><trkpt lat="46.0407376" lon="11.9075451"><ele>310.8333333333333</ele><time>2026-03-28T11:00:39.784Z</time></trkpt><trkpt lat="46.0408166" lon="11.9076084"><ele>311.66666666666663</ele><time>2026-03-28T11:00:42.784Z</time></trkpt><trkpt lat="46.0408769" lon="11.9076712"><ele>312.5</ele><time>2026-03-28T11:00:45.784Z</time></trkpt><trkpt lat="46.0409424" lon="11.907636"><ele>313.3333333333333</ele><time>2026-03-28T11:00:48.782Z</time></trkpt><trkpt lat="46.0409631" lon="11.9075124"><ele>314.1666666666667</ele><time>2026-03-28T11:00:51.784Z</time></trkpt><trkpt lat="46.0409811" lon="11.9073833"><ele>315.0</ele><time>2026-03-28T11:00:54.782Z</time></trkpt><trkpt lat="46.0409918" lon="11.9072865"><ele>315.2857142857143</ele><time>2026-03-28T11:00:56.784Z</time></trkpt><trkpt lat="46.0409962" lon="11.907194"><ele>315.57142857142856</ele><time>2026-03-28T11:00:58.782Z</time></trkpt><trkpt lat="46.0409826" lon="11.9070685"><ele>315.8571428571429</ele><time>2026-03-28T11:01:01.782Z</time></trkpt><trkpt lat="46.0409582" lon="11.9069807"><ele>316.1428571428571</ele><time>2026-03-28T11:01:03.784Z</time></trkpt><trkpt lat="46.0409302" lon="11.9068947"><ele>316.42857142857144</ele><time>2026-03-28T11:01:05.782Z</time></trkpt><trkpt lat="46.0408989" lon="11.9068122"><ele>316.7142857142857</ele><time>2026-03-28T11:01:07.782Z</time></trkpt><trkpt lat="46.04087" lon="11.9067209"><ele>317.0</ele><time>2026-03-28T11:01:09.785Z</time></trkpt><trkpt lat="46.0408464" lon="11.9066367"><ele>317.6666666666667</ele><time>2026-03-28T11:01:11.785Z</time></trkpt><trkpt lat="46.0408263" lon="11.9065455"><ele>318.33333333333337</ele><time>2026-03-28T11:01:13.783Z</time></trkpt><trkpt lat="46.0408023" lon="11.906453"><ele>319.0</ele><time>2026-03-28T11:01:15.783Z</time></trkpt><trkpt lat="46.0407826" lon="11.9063643"><ele>319.6666666666667</ele><time>2026-03-28T11:01:17.784Z</time></trkpt><trkpt lat="46.0407481" lon="11.9062461"><ele>320.3333333333333</ele><time>2026-03-28T11:01:20.784Z</time></trkpt><trkpt lat="46.0407207" lon="11.9061252"><ele>321.0</ele><time>2026-03-28T11:01:23.782Z</time></trkpt><trkpt lat="46.0407078" lon="11.9060013"><ele>320.1666666666667</ele><time>2026-03-28T11:01:26.782Z</time></trkpt><trkpt lat="46.0407204" lon="11.9058706"><ele>319.3333333333333</ele><time>2026-03-28T11:01:29.784Z</time></trkpt><trkpt lat="46.0407343" lon="11.9057599"><ele>318.5</ele><time>2026-03-28T11:01:32.785Z</time></trkpt><trkpt lat="46.0407489" lon="11.905641"><ele>317.66666666666663</ele><time>2026-03-28T11:01:35.783Z</time></trkpt><trkpt lat="46.0407639" lon="11.9055517"><ele>316.8333333333333</ele><time>2026-03-28T11:01:37.782Z</time></trkpt><trkpt lat="46.0407771" lon="11.9054292"><ele>316.0</ele><time>2026-03-28T11:01:40.782Z</time></trkpt><trkpt lat="46.0407872" lon="11.9053314"><ele>317.5</ele><time>2026-03-28T11:01:42.783Z</time></trkpt><trkpt lat="46.0408113" lon="11.9052045"><ele>319.0</ele><time>2026-03-28T11:01:45.784Z</time></trkpt><trkpt lat="46.0408243" lon="11.90511"><ele>320.5</ele><time>2026-03-28T11:01:47.781Z</time></trkpt><trkpt lat="46.0408282" lon="11.9049775"><ele>322.0</ele><time>2026-03-28T11:01:50.782Z</time></trkpt><trkpt lat="46.040832" lon="11.9048758"><ele>323.5</ele><time>2026-03-28T11:01:52.782Z</time></trkpt><trkpt lat="46.0408271" lon="11.904776"><ele>325.0</ele><time>2026-03-28T11:01:54.784Z</time></trkpt><trkpt lat="46.0408105" lon="11.9046829"><ele>325.0</ele><time>2026-03-28T11:01:56.783Z</time></trkpt><trkpt lat="46.0407881" lon="11.9045903"><ele>325.0</ele><time>2026-03-28T11:01:58.782Z</time></trkpt><trkpt lat="46.0407769" lon="11.9044955"><ele>325.0</ele><time>2026-03-28T11:02:00.781Z</time></trkpt><trkpt lat="46.0407577" lon="11.9043948"><ele>325.0</ele><time>2026-03-28T11:02:02.782Z</time></trkpt><trkpt lat="46.0407359" lon="11.9042929"><ele>325.0</ele><time>2026-03-28T11:02:04.783Z</time></trkpt><trkpt lat="46.0407212" lon="11.9041901"><ele>325.0</ele><time>2026-03-28T11:02:06.784Z</time></trkpt><trkpt lat="46.0407054" lon="11.9040879"><ele>325.0</ele><time>2026-03-28T11:02:08.783Z</time></trkpt><trkpt lat="46.0406968" lon="11.9039839"><ele>325.0</ele><time>2026-03-28T11:02:10.781Z</time></trkpt><trkpt lat="46.0407025" lon="11.9038763"><ele>325.0</ele><time>2026-03-28T11:02:12.782Z</time></trkpt><trkpt lat="46.040723" lon="11.9037709"><ele>325.0</ele><time>2026-03-28T11:02:14.783Z</time></trkpt><trkpt lat="46.0407478" lon="11.9036697"><ele>325.0</ele><time>2026-03-28T11:02:16.781Z</time></trkpt><trkpt lat="46.0407784" lon="11.9035632"><ele>325.0</ele><time>2026-03-28T11:02:18.782Z</time></trkpt><trkpt lat="46.0408212" lon="11.9034718"><ele>325.0</ele><time>2026-03-28T11:02:20.782Z</time></trkpt><trkpt lat="46.0408701" lon="11.9033826"><ele>326.5</ele><time>2026-03-28T11:02:22.784Z</time></trkpt><trkpt lat="46.0409201" lon="11.9032906"><ele>328.0</ele><time>2026-03-28T11:02:24.782Z</time></trkpt><trkpt lat="46.0409724" lon="11.9032075"><ele>329.5</ele><time>2026-03-28T11:02:26.783Z</time></trkpt><trkpt lat="46.0410276" lon="11.9031272"><ele>331.0</ele><time>2026-03-28T11:02:28.781Z</time></trkpt><trkpt lat="46.041086" lon="11.9030567"><ele>332.5</ele><time>2026-03-28T11:02:30.782Z</time></trkpt><trkpt lat="46.0411327" lon="11.9029753"><ele>334.0</ele><time>2026-03-28T11:02:32.783Z</time></trkpt><trkpt lat="46.0411828" lon="11.9028703"><ele>334.0</ele><time>2026-03-28T11:02:34.782Z</time></trkpt><trkpt lat="46.0412359" lon="11.9027603"><ele>334.0</ele><time>2026-03-28T11:02:36.784Z</time></trkpt><trkpt lat="46.0412811" lon="11.902645"><ele>334.0</ele><time>2026-03-28T11:02:38.783Z</time></trkpt><trkpt lat="46.0413246" lon="11.9025439"><ele>334.0</ele><time>2026-03-28T11:02:40.781Z</time></trkpt><trkpt lat="46.0413709" lon="11.902438"><ele>334.0</ele><time>2026-03-28T11:02:42.782Z</time></trkpt><trkpt lat="46.0414112" lon="11.9023308"><ele>334.0</ele><time>2026-03-28T11:02:44.782Z</time></trkpt><trkpt lat="46.0414499" lon="11.9022173"><ele>333.66666666666663</ele><time>2026-03-28T11:02:46.782Z</time></trkpt><trkpt lat="46.0414928" lon="11.9021158"><ele>333.3333333333333</ele><time>2026-03-28T11:02:48.782Z</time></trkpt><trkpt lat="46.0415319" lon="11.9020087"><ele>333.0</ele><time>2026-03-28T11:02:50.782Z</time></trkpt><trkpt lat="46.0415723" lon="11.9019002"><ele>332.6666666666667</ele><time>2026-03-28T11:02:52.782Z</time></trkpt><trkpt lat="46.0416129" lon="11.9018018"><ele>332.33333333333337</ele><time>2026-03-28T11:02:54.782Z</time></trkpt><trkpt lat="46.0416518" lon="11.9017028"><ele>332.0</ele><time>2026-03-28T11:02:56.783Z</time></trkpt><trkpt lat="46.0416935" lon="11.9015965"><ele>332.83333333333337</ele><time>2026-03-28T11:02:58.782Z</time></trkpt><trkpt lat="46.041729" lon="11.9014837"><ele>333.6666666666667</ele><time>2026-03-28T11:03:00.782Z</time></trkpt><trkpt lat="46.0417542" lon="11.9013686"><ele>334.5</ele><time>2026-03-28T11:03:02.781Z</time></trkpt><trkpt lat="46.0417687" lon="11.9012556"><ele>335.3333333333333</ele><time>2026-03-28T11:03:04.784Z</time></trkpt><trkpt lat="46.0417812" lon="11.9011476"><ele>336.16666666666663</ele><time>2026-03-28T11:03:06.783Z</time></trkpt><trkpt lat="46.0417819" lon="11.9010399"><ele>337.0</ele><time>2026-03-28T11:03:08.781Z</time></trkpt><trkpt lat="46.0417756" lon="11.9009236"><ele>337.16666666666663</ele><time>2026-03-28T11:03:10.784Z</time></trkpt><trkpt lat="46.0417666" lon="11.9008052"><ele>337.3333333333333</ele><time>2026-03-28T11:03:12.783Z</time></trkpt><trkpt lat="46.0417585" lon="11.9006915"><ele>337.5</ele><time>2026-03-28T11:03:14.782Z</time></trkpt><trkpt lat="46.0417476" lon="11.90058"><ele>337.6666666666667</ele><time>2026-03-28T11:03:16.78Z</time></trkpt><trkpt lat="46.0417417" lon="11.9004749"><ele>337.83333333333337</ele><time>2026-03-28T11:03:18.782Z</time></trkpt><trkpt lat="46.0417388" lon="11.9003717"><ele>338.0</ele><time>2026-03-28T11:03:20.783Z</time></trkpt><trkpt lat="46.0417501" lon="11.9002772"><ele>338.0</ele><time>2026-03-28T11:03:22.783Z</time></trkpt><trkpt lat="46.0418223" lon="11.9001968"><ele>338.0</ele><time>2026-03-28T11:03:25.782Z</time></trkpt><trkpt lat="46.0418949" lon="11.900178"><ele>338.0</ele><time>2026-03-28T11:03:27.783Z</time></trkpt><trkpt lat="46.0419649" lon="11.9001566"><ele>338.0</ele><time>2026-03-28T11:03:29.783Z</time></trkpt><trkpt lat="46.0420266" lon="11.9001296"><ele>338.0</ele><time>2026-03-28T11:03:31.783Z</time></trkpt><trkpt lat="46.0420889" lon="11.9001052"><ele>338.0</ele><time>2026-03-28T11:03:33.783Z</time></trkpt><trkpt lat="46.0421511" lon="11.9000705"><ele>338.0</ele><time>2026-03-28T11:03:35.782Z</time></trkpt><trkpt lat="46.0422069" lon="11.9000203"><ele>338.0</ele><time>2026-03-28T11:03:37.784Z</time></trkpt><trkpt lat="46.0422594" lon="11.899965"><ele>338.0</ele><time>2026-03-28T11:03:39.782Z</time></trkpt><trkpt lat="46.0423091" lon="11.8998937"><ele>338.0</ele><time>2026-03-28T11:03:41.784Z</time></trkpt><trkpt lat="46.0423482" lon="11.899807"><ele>338.0</ele><time>2026-03-28T11:03:43.782Z</time></trkpt><trkpt lat="46.0423753" lon="11.8997152"><ele>338.0</ele><time>2026-03-28T11:03:45.784Z</time></trkpt><trkpt lat="46.0423959" lon="11.899617"><ele>338.0</ele><time>2026-03-28T11:03:47.782Z</time></trkpt><trkpt lat="46.0424099" lon="11.8995222"><ele>338.0</ele><time>2026-03-28T11:03:49.782Z</time></trkpt><trkpt lat="46.0424242" lon="11.8994294"><ele>338.0</ele><time>2026-03-28T11:03:51.784Z</time></trkpt><trkpt lat="46.0424465" lon="11.8993436"><ele>338.0</ele><time>2026-03-28T11:03:53.783Z</time></trkpt><trkpt lat="46.0425082" lon="11.8992799"><ele>338.0</ele><time>2026-03-28T11:03:56.785Z</time></trkpt><trkpt lat="46.0425776" lon="11.8993531"><ele>338.0</ele><time>2026-03-28T11:03:59.784Z</time></trkpt><trkpt lat="46.0426223" lon="11.8994261"><ele>338.0</ele><time>2026-03-28T11:04:01.784Z</time></trkpt><trkpt lat="46.0426561" lon="11.8995095"><ele>338.0</ele><time>2026-03-28T11:04:03.783Z</time></trkpt><trkpt lat="46.0426947" lon="11.8996236"><ele>338.0</ele><time>2026-03-28T11:04:06.785Z</time></trkpt><trkpt lat="46.0427133" lon="11.8997507"><ele>339.5</ele><time>2026-03-28T11:04:09.787Z</time></trkpt><trkpt lat="46.0427421" lon="11.8998768"><ele>341.0</ele><time>2026-03-28T11:04:12.785Z</time></trkpt><trkpt lat="46.0427962" lon="11.899982"><ele>342.5</ele><time>2026-03-28T11:04:15.786Z</time></trkpt><trkpt lat="46.042874" lon="11.9000007"><ele>344.0</ele><time>2026-03-28T11:04:18.783Z</time></trkpt><trkpt lat="46.0429399" lon="11.8999472"><ele>345.5</ele><time>2026-03-28T11:04:21.784Z</time></trkpt><trkpt lat="46.042997" lon="11.8998612"><ele>347.0</ele><time>2026-03-28T11:04:24.782Z</time></trkpt><trkpt lat="46.0430529" lon="11.8997672"><ele>347.0</ele><time>2026-03-28T11:04:27.783Z</time></trkpt><trkpt lat="46.0431034" lon="11.8996831"><ele>347.0</ele><time>2026-03-28T11:04:30.783Z</time></trkpt><trkpt lat="46.0431518" lon="11.8995937"><ele>347.0</ele><time>2026-03-28T11:04:33.783Z</time></trkpt><trkpt lat="46.0432025" lon="11.8995159"><ele>347.0</ele><time>2026-03-28T11:04:36.783Z</time></trkpt><trkpt lat="46.0432428" lon="11.8994251"><ele>347.0</ele><time>2026-03-28T11:04:39.785Z</time></trkpt><trkpt lat="46.0433003" lon="11.8993375"><ele>347.0</ele><time>2026-03-28T11:04:43.783Z</time></trkpt><trkpt lat="46.0433418" lon="11.89924"><ele>350.0</ele><time>2026-03-28T11:04:46.785Z</time></trkpt><trkpt lat="46.0433853" lon="11.8991397"><ele>353.0</ele><time>2026-03-28T11:04:49.783Z</time></trkpt><trkpt lat="46.0434317" lon="11.8990497"><ele>356.0</ele><time>2026-03-28T11:04:52.782Z</time></trkpt><trkpt lat="46.0434712" lon="11.8989677"><ele>359.0</ele><time>2026-03-28T11:04:55.784Z</time></trkpt><trkpt lat="46.043513" lon="11.8988773"><ele>362.0</ele><time>2026-03-28T11:04:58.783Z</time></trkpt><trkpt lat="46.0435552" lon="11.8987961"><ele>365.0</ele><time>2026-03-28T11:05:01.782Z</time></trkpt><trkpt lat="46.0435982" lon="11.8987123"><ele>368.0</ele><time>2026-03-28T11:05:04.785Z</time></trkpt><trkpt lat="46.0436329" lon="11.8986354"><ele>368.0</ele><time>2026-03-28T11:05:07.783Z</time></trkpt><trkpt lat="46.043667" lon="11.8985542"><ele>368.0</ele><time>2026-03-28T11:05:10.784Z</time></trkpt><trkpt lat="46.0436929" lon="11.8984627"><ele>368.0</ele><time>2026-03-28T11:05:13.785Z</time></trkpt><trkpt lat="46.0437282" lon="11.8983584"><ele>368.0</ele><time>2026-03-28T11:05:16.782Z</time></trkpt><trkpt lat="46.0437704" lon="11.8982663"><ele>368.0</ele><time>2026-03-28T11:05:19.785Z</time></trkpt><trkpt lat="46.0438027" lon="11.898177"><ele>368.0</ele><time>2026-03-28T11:05:22.783Z</time></trkpt><trkpt lat="46.0438398" lon="11.8980721"><ele>368.0</ele><time>2026-03-28T11:05:25.785Z</time></trkpt><trkpt lat="46.0438595" lon="11.8979838"><ele>368.1666666666667</ele><time>2026-03-28T11:05:27.786Z</time></trkpt><trkpt lat="46.0438976" lon="11.8978835"><ele>368.33333333333337</ele><time>2026-03-28T11:05:30.785Z</time></trkpt><trkpt lat="46.0439389" lon="11.8977835"><ele>368.5</ele><time>2026-03-28T11:05:33.786Z</time></trkpt><trkpt lat="46.0439699" lon="11.8976723"><ele>368.6666666666667</ele><time>2026-03-28T11:05:36.786Z</time></trkpt><trkpt lat="46.0440031" lon="11.8975631"><ele>368.8333333333333</ele><time>2026-03-28T11:05:39.786Z</time></trkpt><trkpt lat="46.0440368" lon="11.8974541"><ele>369.0</ele><time>2026-03-28T11:05:42.786Z</time></trkpt><trkpt lat="46.0440695" lon="11.8973502"><ele>369.0</ele><time>2026-03-28T11:05:45.783Z</time></trkpt><trkpt lat="46.0440997" lon="11.8972613"><ele>369.0</ele><time>2026-03-28T11:05:48.785Z</time></trkpt><trkpt lat="46.0441469" lon="11.8971929"><ele>369.0</ele><time>2026-03-28T11:05:51.782Z</time></trkpt><trkpt lat="46.0442083" lon="11.8971577"><ele>369.0</ele><time>2026-03-28T11:05:54.782Z</time></trkpt><trkpt lat="46.044288" lon="11.897202"><ele>369.0</ele><time>2026-03-28T11:05:58.78Z</time></trkpt><trkpt lat="46.0443476" lon="11.8972882"><ele>369.0</ele><time>2026-03-28T11:06:01.781Z</time></trkpt><trkpt lat="46.0443928" lon="11.8973745"><ele>369.0</ele><time>2026-03-28T11:06:04.78Z</time></trkpt><trkpt lat="46.0444199" lon="11.8974609"><ele>371.1428571428571</ele><time>2026-03-28T11:06:07.782Z</time></trkpt><trkpt lat="46.0444486" lon="11.8975755"><ele>373.2857142857143</ele><time>2026-03-28T11:06:11.782Z</time></trkpt><trkpt lat="46.0444638" lon="11.8976696"><ele>375.42857142857144</ele><time>2026-03-28T11:06:14.784Z</time></trkpt><trkpt lat="46.0444903" lon="11.8977569"><ele>377.57142857142856</ele><time>2026-03-28T11:06:17.782Z</time></trkpt><trkpt lat="46.0445232" lon="11.8978486"><ele>379.7142857142857</ele><time>2026-03-28T11:06:20.783Z</time></trkpt><trkpt lat="46.0445554" lon="11.897943"><ele>381.85714285714283</ele><time>2026-03-28T11:06:23.783Z</time></trkpt><trkpt lat="46.0445849" lon="11.8980418"><ele>384.0</ele><time>2026-03-28T11:06:26.784Z</time></trkpt><trkpt lat="46.0446103" lon="11.8981381"><ele>384.6666666666667</ele><time>2026-03-28T11:06:29.784Z</time></trkpt><trkpt lat="46.0446432" lon="11.8982308"><ele>385.33333333333337</ele><time>2026-03-28T11:06:32.784Z</time></trkpt><trkpt lat="46.0446832" lon="11.8983163"><ele>386.0</ele><time>2026-03-28T11:06:35.781Z</time></trkpt><trkpt lat="46.0447106" lon="11.8984274"><ele>386.6666666666667</ele><time>2026-03-28T11:06:39.784Z</time></trkpt><trkpt lat="46.0447501" lon="11.8985249"><ele>387.33333333333337</ele><time>2026-03-28T11:06:43.784Z</time></trkpt><trkpt lat="46.0447957" lon="11.8986204"><ele>388.0</ele><time>2026-03-28T11:06:47.783Z</time></trkpt><trkpt lat="46.0448354" lon="11.8987272"><ele>388.2857142857143</ele><time>2026-03-28T11:06:51.784Z</time></trkpt><trkpt lat="46.0448569" lon="11.8988149"><ele>388.5714285714286</ele><time>2026-03-28T11:06:54.783Z</time></trkpt><trkpt lat="46.0448555" lon="11.8989125"><ele>388.8571428571429</ele><time>2026-03-28T11:06:57.785Z</time></trkpt><trkpt lat="46.0448923" lon="11.899017"><ele>389.1428571428571</ele><time>2026-03-28T11:07:01.784Z</time></trkpt><trkpt lat="46.0449322" lon="11.8991145"><ele>389.42857142857144</ele><time>2026-03-28T11:07:04.785Z</time></trkpt><trkpt lat="46.0449638" lon="11.8992256"><ele>389.7142857142857</ele><time>2026-03-28T11:07:08.784Z</time></trkpt><trkpt lat="46.0449892" lon="11.8993146"><ele>390.0</ele><time>2026-03-28T11:07:11.783Z</time></trkpt><trkpt lat="46.0450288" lon="11.8993946"><ele>392.85714285714283</ele><time>2026-03-28T11:07:15.783Z</time></trkpt><trkpt lat="46.0450534" lon="11.8995036"><ele>395.71428571428567</ele><time>2026-03-28T11:07:19.785Z</time></trkpt><trkpt lat="46.0450721" lon="11.8996084"><ele>398.57142857142856</ele><time>2026-03-28T11:07:23.782Z</time></trkpt><trkpt lat="46.0450829" lon="11.8997056"><ele>401.42857142857144</ele><time>2026-03-28T11:07:27.784Z</time></trkpt><trkpt lat="46.0450811" lon="11.8997986"><ele>404.2857142857143</ele><time>2026-03-28T11:07:30.783Z</time></trkpt><trkpt lat="46.0450819" lon="11.8999199"><ele>407.14285714285717</ele><time>2026-03-28T11:07:34.783Z</time></trkpt><trkpt lat="46.0450744" lon="11.9000181"><ele>410.0</ele><time>2026-03-28T11:07:38.783Z</time></trkpt><trkpt lat="46.0450543" lon="11.9001195"><ele>410.66666666666663</ele><time>2026-03-28T11:07:41.783Z</time></trkpt><trkpt lat="46.0450191" lon="11.9002288"><ele>411.3333333333333</ele><time>2026-03-28T11:07:44.783Z</time></trkpt><trkpt lat="46.0449995" lon="11.9003279"><ele>412.0</ele><time>2026-03-28T11:07:47.783Z</time></trkpt><trkpt lat="46.0449977" lon="11.9004261"><ele>412.66666666666663</ele><time>2026-03-28T11:07:50.783Z</time></trkpt><trkpt lat="46.0450004" lon="11.9005223"><ele>413.3333333333333</ele><time>2026-03-28T11:07:53.784Z</time></trkpt><trkpt lat="46.0449926" lon="11.9006326"><ele>414.0</ele><time>2026-03-28T11:07:56.785Z</time></trkpt><trkpt lat="46.04499" lon="11.9007598"><ele>414.0</ele><time>2026-03-28T11:07:59.782Z</time></trkpt><trkpt lat="46.0450055" lon="11.90088"><ele>414.0</ele><time>2026-03-28T11:08:02.783Z</time></trkpt><trkpt lat="46.0450311" lon="11.9010079"><ele>414.0</ele><time>2026-03-28T11:08:05.783Z</time></trkpt><trkpt lat="46.0450397" lon="11.9010997"><ele>414.0</ele><time>2026-03-28T11:08:07.783Z</time></trkpt><trkpt lat="46.0450413" lon="11.9012017"><ele>414.0</ele><time>2026-03-28T11:08:09.782Z</time></trkpt><trkpt lat="46.0450459" lon="11.9012972"><ele>414.0</ele><time>2026-03-28T11:08:11.785Z</time></trkpt><trkpt lat="46.0450622" lon="11.9014322"><ele>414.14285714285717</ele><time>2026-03-28T11:08:14.783Z</time></trkpt><trkpt lat="46.0450792" lon="11.9015519"><ele>414.2857142857143</ele><time>2026-03-28T11:08:17.783Z</time></trkpt><trkpt lat="46.0450932" lon="11.9016413"><ele>414.42857142857144</ele><time>2026-03-28T11:08:19.783Z</time></trkpt><trkpt lat="46.0451091" lon="11.9017374"><ele>414.57142857142856</ele><time>2026-03-28T11:08:21.785Z</time></trkpt><trkpt lat="46.0451234" lon="11.9018313"><ele>414.7142857142857</ele><time>2026-03-28T11:08:23.781Z</time></trkpt><trkpt lat="46.0451409" lon="11.9019256"><ele>414.8571428571429</ele><time>2026-03-28T11:08:25.782Z</time></trkpt><trkpt lat="46.0451685" lon="11.9020112"><ele>415.0</ele><time>2026-03-28T11:08:27.782Z</time></trkpt><trkpt lat="46.0451992" lon="11.9020975"><ele>415.14285714285717</ele><time>2026-03-28T11:08:29.785Z</time></trkpt><trkpt lat="46.0452318" lon="11.9021778"><ele>415.28571428571433</ele><time>2026-03-28T11:08:31.783Z</time></trkpt><trkpt lat="46.0452814" lon="11.9022688"><ele>415.42857142857144</ele><time>2026-03-28T11:08:34.783Z</time></trkpt><trkpt lat="46.0453168" lon="11.9023453"><ele>415.57142857142856</ele><time>2026-03-28T11:08:36.782Z</time></trkpt><trkpt lat="46.0453482" lon="11.9024314"><ele>415.7142857142857</ele><time>2026-03-28T11:08:38.783Z</time></trkpt><trkpt lat="46.0453816" lon="11.9025135"><ele>415.85714285714283</ele><time>2026-03-28T11:08:40.783Z</time></trkpt><trkpt lat="46.0454079" lon="11.9026021"><ele>416.0</ele><time>2026-03-28T11:08:42.781Z</time></trkpt><trkpt lat="46.0454261" lon="11.9026974"><ele>416.3333333333333</ele><time>2026-03-28T11:08:44.783Z</time></trkpt><trkpt lat="46.0454467" lon="11.9027894"><ele>416.66666666666663</ele><time>2026-03-28T11:08:46.783Z</time></trkpt><trkpt lat="46.0454585" lon="11.9029141"><ele>417.0</ele><time>2026-03-28T11:08:49.782Z</time></trkpt><trkpt lat="46.0454621" lon="11.90304"><ele>417.33333333333337</ele><time>2026-03-28T11:08:52.786Z</time></trkpt><trkpt lat="46.0454764" lon="11.9031612"><ele>417.6666666666667</ele><time>2026-03-28T11:08:55.783Z</time></trkpt><trkpt lat="46.0454834" lon="11.9032782"><ele>418.0</ele><time>2026-03-28T11:08:58.783Z</time></trkpt><trkpt lat="46.0454858" lon="11.9033711"><ele>418.0</ele><time>2026-03-28T11:09:00.785Z</time></trkpt><trkpt lat="46.0454918" lon="11.9034753"><ele>418.0</ele><time>2026-03-28T11:09:02.782Z</time></trkpt><trkpt lat="46.0455016" lon="11.9035808"><ele>418.0</ele><time>2026-03-28T11:09:04.784Z</time></trkpt><trkpt lat="46.0455067" lon="11.9036917"><ele>418.0</ele><time>2026-03-28T11:09:06.783Z</time></trkpt><trkpt lat="46.0455243" lon="11.903788"><ele>418.0</ele><time>2026-03-28T11:09:08.785Z</time></trkpt><trkpt lat="46.0455683" lon="11.9038718"><ele>418.0</ele><time>2026-03-28T11:09:10.783Z</time></trkpt><trkpt lat="46.0456121" lon="11.9039638"><ele>418.0</ele><time>2026-03-28T11:09:12.785Z</time></trkpt><trkpt lat="46.045652" lon="11.9040376"><ele>418.00000000000006</ele><time>2026-03-28T11:09:14.783Z</time></trkpt><trkpt lat="46.045705" lon="11.9041301"><ele>418.0</ele><time>2026-03-28T11:09:17.783Z</time></trkpt><trkpt lat="46.0457642" lon="11.9042214"><ele>418.0</ele><time>2026-03-28T11:09:20.783Z</time></trkpt><trkpt lat="46.0458008" lon="11.9042983"><ele>418.0</ele><time>2026-03-28T11:09:22.783Z</time></trkpt><trkpt lat="46.0458369" lon="11.9043735"><ele>418.00000000000006</ele><time>2026-03-28T11:09:24.784Z</time></trkpt><trkpt lat="46.0458822" lon="11.9044572"><ele>418.0</ele><time>2026-03-28T11:09:26.783Z</time></trkpt><trkpt lat="46.0459353" lon="11.9045436"><ele>418.50000000000006</ele><time>2026-03-28T11:09:28.783Z</time></trkpt><trkpt lat="46.0459826" lon="11.904649"><ele>419.0</ele><time>2026-03-28T11:09:31.784Z</time></trkpt><trkpt lat="46.0460254" lon="11.9047364"><ele>419.5</ele><time>2026-03-28T11:09:34.782Z</time></trkpt><trkpt lat="46.0460694" lon="11.9048428"><ele>420.0</ele><time>2026-03-28T11:09:37.782Z</time></trkpt><trkpt lat="46.0461197" lon="11.9049145"><ele>420.50000000000006</ele><time>2026-03-28T11:09:40.783Z</time></trkpt><trkpt lat="46.0461864" lon="11.9049735"><ele>421.0</ele><time>2026-03-28T11:09:43.785Z</time></trkpt><trkpt lat="46.0462473" lon="11.9050541"><ele>420.83333333333337</ele><time>2026-03-28T11:09:47.785Z</time></trkpt><trkpt lat="46.0462971" lon="11.9051537"><ele>420.6666666666667</ele><time>2026-03-28T11:09:51.783Z</time></trkpt><trkpt lat="46.0463451" lon="11.905233"><ele>420.5</ele><time>2026-03-28T11:09:54.783Z</time></trkpt><trkpt lat="46.0463913" lon="11.9053134"><ele>420.33333333333337</ele><time>2026-03-28T11:09:57.784Z</time></trkpt><trkpt lat="46.0464436" lon="11.9053852"><ele>420.1666666666667</ele><time>2026-03-28T11:10:00.784Z</time></trkpt><trkpt lat="46.0464872" lon="11.9054684"><ele>420.0</ele><time>2026-03-28T11:10:03.783Z</time></trkpt><trkpt lat="46.046514" lon="11.905591"><ele>420.0</ele><time>2026-03-28T11:10:06.783Z</time></trkpt><trkpt lat="46.0465299" lon="11.9057183"><ele>420.0</ele><time>2026-03-28T11:10:09.785Z</time></trkpt><trkpt lat="46.0465565" lon="11.9058364"><ele>420.0</ele><time>2026-03-28T11:10:12.785Z</time></trkpt><trkpt lat="46.046597" lon="11.9059457"><ele>420.0</ele><time>2026-03-28T11:10:15.782Z</time></trkpt><trkpt lat="46.0466382" lon="11.906036"><ele>420.0</ele><time>2026-03-28T11:10:18.782Z</time></trkpt><trkpt lat="46.0466726" lon="11.9061337"><ele>420.0</ele><time>2026-03-28T11:10:21.781Z</time></trkpt><trkpt lat="46.0467047" lon="11.9062476"><ele>421.3333333333333</ele><time>2026-03-28T11:10:24.78Z</time></trkpt><trkpt lat="46.0467575" lon="11.9063233"><ele>422.66666666666663</ele><time>2026-03-28T11:10:27.78Z</time></trkpt><trkpt lat="46.0468195" lon="11.9063997"><ele>424.0</ele><time>2026-03-28T11:10:30.784Z</time></trkpt><trkpt lat="46.0468782" lon="11.9064824"><ele>425.3333333333333</ele><time>2026-03-28T11:10:33.783Z</time></trkpt><trkpt lat="46.0469387" lon="11.9065507"><ele>426.66666666666663</ele><time>2026-03-28T11:10:36.784Z</time></trkpt><trkpt lat="46.0470128" lon="11.9065895"><ele>428.0</ele><time>2026-03-28T11:10:39.785Z</time></trkpt><trkpt lat="46.0470815" lon="11.9066162"><ele>428.00000000000006</ele><time>2026-03-28T11:10:42.782Z</time></trkpt><trkpt lat="46.0471472" lon="11.9066504"><ele>428.0</ele><time>2026-03-28T11:10:45.782Z</time></trkpt><trkpt lat="46.047216" lon="11.9067033"><ele>428.0</ele><time>2026-03-28T11:10:48.785Z</time></trkpt><trkpt lat="46.0472825" lon="11.906736"><ele>428.0</ele><time>2026-03-28T11:10:50.783Z</time></trkpt><trkpt lat="46.0473483" lon="11.906756"><ele>428.0</ele><time>2026-03-28T11:10:52.785Z</time></trkpt><trkpt lat="46.0474147" lon="11.9067776"><ele>428.00000000000006</ele><time>2026-03-28T11:10:54.783Z</time></trkpt><trkpt lat="46.0474825" lon="11.9068144"><ele>428.0</ele><time>2026-03-28T11:10:57.783Z</time></trkpt><trkpt lat="46.0475607" lon="11.9068082"><ele>429.16666666666663</ele><time>2026-03-28T11:11:00.785Z</time></trkpt><trkpt lat="46.0476488" lon="11.9067972"><ele>430.3333333333333</ele><time>2026-03-28T11:11:03.782Z</time></trkpt><trkpt lat="46.0477297" lon="11.9067719"><ele>431.5</ele><time>2026-03-28T11:11:06.783Z</time></trkpt><trkpt lat="46.0478032" lon="11.9067477"><ele>432.66666666666663</ele><time>2026-03-28T11:11:09.784Z</time></trkpt><trkpt lat="46.0478788" lon="11.9066853"><ele>433.8333333333333</ele><time>2026-03-28T11:11:12.783Z</time></trkpt><trkpt lat="46.047934" lon="11.9065804"><ele>435.0</ele><time>2026-03-28T11:11:15.782Z</time></trkpt><trkpt lat="46.0479698" lon="11.9064802"><ele>435.0</ele><time>2026-03-28T11:11:18.782Z</time></trkpt><trkpt lat="46.0479934" lon="11.9063604"><ele>435.0</ele><time>2026-03-28T11:11:21.783Z</time></trkpt><trkpt lat="46.0480091" lon="11.9062621"><ele>435.0</ele><time>2026-03-28T11:11:23.784Z</time></trkpt><trkpt lat="46.0480141" lon="11.9061671"><ele>435.0</ele><time>2026-03-28T11:11:25.783Z</time></trkpt><trkpt lat="46.0480119" lon="11.9060337"><ele>435.0</ele><time>2026-03-28T11:11:28.782Z</time></trkpt><trkpt lat="46.0480019" lon="11.9059136"><ele>435.0</ele><time>2026-03-28T11:11:31.785Z</time></trkpt><trkpt lat="46.0479921" lon="11.9057909"><ele>436.5</ele><time>2026-03-28T11:11:34.783Z</time></trkpt><trkpt lat="46.0479872" lon="11.9056829"><ele>438.0</ele><time>2026-03-28T11:11:37.782Z</time></trkpt><trkpt lat="46.0479825" lon="11.9055627"><ele>439.5</ele><time>2026-03-28T11:11:40.783Z</time></trkpt><trkpt lat="46.0479821" lon="11.9054486"><ele>441.0</ele><time>2026-03-28T11:11:43.785Z</time></trkpt><trkpt lat="46.0479954" lon="11.9053314"><ele>442.5</ele><time>2026-03-28T11:11:46.782Z</time></trkpt><trkpt lat="46.0480168" lon="11.905236"><ele>444.0</ele><time>2026-03-28T11:11:49.782Z</time></trkpt><trkpt lat="46.0480477" lon="11.9051363"><ele>443.6666666666667</ele><time>2026-03-28T11:11:52.782Z</time></trkpt><trkpt lat="46.0480704" lon="11.9050436"><ele>443.33333333333337</ele><time>2026-03-28T11:11:55.783Z</time></trkpt><trkpt lat="46.0480697" lon="11.9049337"><ele>443.0</ele><time>2026-03-28T11:11:58.783Z</time></trkpt><trkpt lat="46.0480808" lon="11.904823"><ele>442.6666666666667</ele><time>2026-03-28T11:12:01.782Z</time></trkpt><trkpt lat="46.0481012" lon="11.9047064"><ele>442.33333333333337</ele><time>2026-03-28T11:12:04.783Z</time></trkpt><trkpt lat="46.0481165" lon="11.9045995"><ele>442.0</ele><time>2026-03-28T11:12:07.785Z</time></trkpt><trkpt lat="46.048155" lon="11.9045073"><ele>442.00000000000006</ele><time>2026-03-28T11:12:11.784Z</time></trkpt><trkpt lat="46.0481973" lon="11.9044385"><ele>442.0</ele><time>2026-03-28T11:12:14.785Z</time></trkpt><trkpt lat="46.04825" lon="11.9043585"><ele>442.0</ele><time>2026-03-28T11:12:17.783Z</time></trkpt><trkpt lat="46.0482837" lon="11.9042792"><ele>442.0</ele><time>2026-03-28T11:12:20.783Z</time></trkpt><trkpt lat="46.0483029" lon="11.9041772"><ele>442.0</ele><time>2026-03-28T11:12:23.782Z</time></trkpt><trkpt lat="46.048325" lon="11.9040687"><ele>442.00000000000006</ele><time>2026-03-28T11:12:26.783Z</time></trkpt><trkpt lat="46.0483649" lon="11.9039751"><ele>442.0</ele><time>2026-03-28T11:12:29.784Z</time></trkpt><trkpt lat="46.0483974" lon="11.9038791"><ele>443.1666666666667</ele><time>2026-03-28T11:12:32.783Z</time></trkpt><trkpt lat="46.0484641" lon="11.9037905"><ele>444.33333333333337</ele><time>2026-03-28T11:12:35.782Z</time></trkpt><trkpt lat="46.0485193" lon="11.9037408"><ele>445.5</ele><time>2026-03-28T11:12:37.783Z</time></trkpt><trkpt lat="46.0485916" lon="11.9037012"><ele>446.66666666666663</ele><time>2026-03-28T11:12:39.784Z</time></trkpt><trkpt lat="46.0486695" lon="11.9036861"><ele>447.8333333333333</ele><time>2026-03-28T11:12:41.782Z</time></trkpt><trkpt lat="46.0487472" lon="11.9036947"><ele>449.0</ele><time>2026-03-28T11:12:43.785Z</time></trkpt><trkpt lat="46.0488172" lon="11.9037056"><ele>449.0</ele><time>2026-03-28T11:12:45.781Z</time></trkpt><trkpt lat="46.0488966" lon="11.9036926"><ele>449.0</ele><time>2026-03-28T11:12:47.786Z</time></trkpt><trkpt lat="46.0490265" lon="11.9036839"><ele>449.0</ele><time>2026-03-28T11:12:51.782Z</time></trkpt><trkpt lat="46.0491122" lon="11.9036766"><ele>449.0</ele><time>2026-03-28T11:12:54.783Z</time></trkpt><trkpt lat="46.0491953" lon="11.9036662"><ele>449.0</ele><time>2026-03-28T11:12:57.782Z</time></trkpt><trkpt lat="46.0492803" lon="11.9036467"><ele>449.3333333333333</ele><time>2026-03-28T11:13:00.785Z</time></trkpt><trkpt lat="46.049352" lon="11.9035652"><ele>449.66666666666663</ele><time>2026-03-28T11:13:03.784Z</time></trkpt><trkpt lat="46.0493895" lon="11.903488"><ele>450.0</ele><time>2026-03-28T11:13:05.782Z</time></trkpt><trkpt lat="46.0494331" lon="11.9033775"><ele>450.33333333333337</ele><time>2026-03-28T11:13:08.783Z</time></trkpt><trkpt lat="46.0494849" lon="11.9032664"><ele>450.6666666666667</ele><time>2026-03-28T11:13:11.783Z</time></trkpt><trkpt lat="46.0495223" lon="11.9031609"><ele>451.0</ele><time>2026-03-28T11:13:14.781Z</time></trkpt><trkpt lat="46.0495635" lon="11.9030656"><ele>451.00000000000006</ele><time>2026-03-28T11:13:17.782Z</time></trkpt><trkpt lat="46.0496115" lon="11.9029709"><ele>451.0</ele><time>2026-03-28T11:13:20.782Z</time></trkpt><trkpt lat="46.0496597" lon="11.9028736"><ele>451.0</ele><time>2026-03-28T11:13:23.785Z</time></trkpt><trkpt lat="46.0497125" lon="11.9027796"><ele>451.0</ele><time>2026-03-28T11:13:26.782Z</time></trkpt><trkpt lat="46.04977" lon="11.9026875"><ele>451.00000000000006</ele><time>2026-03-28T11:13:29.784Z</time></trkpt><trkpt lat="46.0498333" lon="11.9026021"><ele>451.0</ele><time>2026-03-28T11:13:32.783Z</time></trkpt><trkpt lat="46.0498856" lon="11.9025185"><ele>450.6666666666667</ele><time>2026-03-28T11:13:35.783Z</time></trkpt><trkpt lat="46.0499442" lon="11.9024553"><ele>450.33333333333337</ele><time>2026-03-28T11:13:38.783Z</time></trkpt><trkpt lat="46.0500266" lon="11.9024372"><ele>450.0</ele><time>2026-03-28T11:13:42.782Z</time></trkpt><trkpt lat="46.0500765" lon="11.9023584"><ele>449.66666666666663</ele><time>2026-03-28T11:13:46.782Z</time></trkpt><trkpt lat="46.0501262" lon="11.9022848"><ele>449.3333333333333</ele><time>2026-03-28T11:13:49.784Z</time></trkpt><trkpt lat="46.0501631" lon="11.9021533"><ele>449.0</ele><time>2026-03-28T11:13:52.785Z</time></trkpt><trkpt lat="46.0501764" lon="11.9020576"><ele>450.4285714285714</ele><time>2026-03-28T11:13:54.784Z</time></trkpt><trkpt lat="46.0501629" lon="11.9019449"><ele>451.8571428571428</ele><time>2026-03-28T11:13:57.785Z</time></trkpt><trkpt lat="46.0501511" lon="11.9018439"><ele>453.2857142857143</ele><time>2026-03-28T11:14:00.784Z</time></trkpt><trkpt lat="46.0501362" lon="11.901744"><ele>454.71428571428567</ele><time>2026-03-28T11:14:04.782Z</time></trkpt><trkpt lat="46.0501231" lon="11.9016454"><ele>456.1428571428571</ele><time>2026-03-28T11:14:07.784Z</time></trkpt><trkpt lat="46.0501124" lon="11.9015375"><ele>457.57142857142856</ele><time>2026-03-28T11:14:11.782Z</time></trkpt><trkpt lat="46.0500887" lon="11.9014238"><ele>459.0</ele><time>2026-03-28T11:14:15.782Z</time></trkpt><trkpt lat="46.0500696" lon="11.9013126"><ele>459.14285714285717</ele><time>2026-03-28T11:14:18.782Z</time></trkpt><trkpt lat="46.0500495" lon="11.9011972"><ele>459.2857142857142</ele><time>2026-03-28T11:14:21.784Z</time></trkpt><trkpt lat="46.0500342" lon="11.9011015"><ele>459.4285714285714</ele><time>2026-03-28T11:14:24.783Z</time></trkpt><trkpt lat="46.0500176" lon="11.901014"><ele>459.57142857142856</ele><time>2026-03-28T11:14:27.782Z</time></trkpt><trkpt lat="46.0500074" lon="11.9009201"><ele>459.71428571428567</ele><time>2026-03-28T11:14:29.785Z</time></trkpt><trkpt lat="46.0499907" lon="11.9007888"><ele>459.8571428571428</ele><time>2026-03-28T11:14:32.783Z</time></trkpt><trkpt lat="46.0499801" lon="11.9006945"><ele>459.99999999999994</ele><time>2026-03-28T11:14:34.782Z</time></trkpt><trkpt lat="46.0499581" lon="11.9005665"><ele>457.33333333333337</ele><time>2026-03-28T11:14:37.782Z</time></trkpt><trkpt lat="46.0499443" lon="11.9004411"><ele>454.6666666666667</ele><time>2026-03-28T11:14:40.784Z</time></trkpt><trkpt lat="46.0499302" lon="11.9003126"><ele>452.0</ele><time>2026-03-28T11:14:43.782Z</time></trkpt><trkpt lat="46.0499141" lon="11.9001879"><ele>449.33333333333337</ele><time>2026-03-28T11:14:46.782Z</time></trkpt><trkpt lat="46.0498948" lon="11.9000633"><ele>446.6666666666667</ele><time>2026-03-28T11:14:49.782Z</time></trkpt><trkpt lat="46.0498855" lon="11.8999709"><ele>444.0</ele><time>2026-03-28T11:14:51.784Z</time></trkpt><trkpt lat="46.0498752" lon="11.8998676"><ele>444.0</ele><time>2026-03-28T11:14:53.782Z</time></trkpt><trkpt lat="46.0498634" lon="11.8997744"><ele>444.0</ele><time>2026-03-28T11:14:55.781Z</time></trkpt><trkpt lat="46.0498476" lon="11.8996835"><ele>444.0</ele><time>2026-03-28T11:14:57.783Z</time></trkpt><trkpt lat="46.0498267" lon="11.8995793"><ele>444.0</ele><time>2026-03-28T11:14:59.783Z</time></trkpt><trkpt lat="46.0498015" lon="11.8994782"><ele>444.0</ele><time>2026-03-28T11:15:01.781Z</time></trkpt><trkpt lat="46.0497782" lon="11.8993799"><ele>444.0</ele><time>2026-03-28T11:15:03.781Z</time></trkpt><trkpt lat="46.0497566" lon="11.8992845"><ele>444.0</ele><time>2026-03-28T11:15:05.782Z</time></trkpt><trkpt lat="46.0497336" lon="11.8991914"><ele>444.8333333333333</ele><time>2026-03-28T11:15:07.783Z</time></trkpt><trkpt lat="46.0497076" lon="11.8991078"><ele>445.66666666666663</ele><time>2026-03-28T11:15:09.785Z</time></trkpt><trkpt lat="46.0496807" lon="11.8989892"><ele>446.5</ele><time>2026-03-28T11:15:12.783Z</time></trkpt><trkpt lat="46.0497065" lon="11.8988858"><ele>447.3333333333333</ele><time>2026-03-28T11:15:15.782Z</time></trkpt><trkpt lat="46.0497821" lon="11.8988468"><ele>448.16666666666663</ele><time>2026-03-28T11:15:18.784Z</time></trkpt><trkpt lat="46.0498703" lon="11.8988515"><ele>449.0</ele><time>2026-03-28T11:15:21.782Z</time></trkpt><trkpt lat="46.0499499" lon="11.8988706"><ele>450.25</ele><time>2026-03-28T11:15:24.784Z</time></trkpt><trkpt lat="46.0500133" lon="11.8988715"><ele>451.5</ele><time>2026-03-28T11:15:26.785Z</time></trkpt><trkpt lat="46.0502174" lon="11.8988762"><ele>452.75</ele><time>2026-03-28T11:15:30.783Z</time></trkpt><trkpt lat="46.0503341" lon="11.8989155"><ele>454.0</ele><time>2026-03-28T11:15:32.782Z</time></trkpt><trkpt lat="46.0504365" lon="11.8989579"><ele>454.0</ele><time>2026-03-28T11:15:34.781Z</time></trkpt><trkpt lat="46.0505265" lon="11.8989897"><ele>454.0</ele><time>2026-03-28T11:15:36.784Z</time></trkpt><trkpt lat="46.0506152" lon="11.8990247"><ele>454.0</ele><time>2026-03-28T11:15:38.782Z</time></trkpt><trkpt lat="46.0507094" lon="11.8990516"><ele>454.0</ele><time>2026-03-28T11:15:40.783Z</time></trkpt><trkpt lat="46.0508078" lon="11.8990614"><ele>454.0</ele><time>2026-03-28T11:15:42.784Z</time></trkpt><trkpt lat="46.0508923" lon="11.8990752"><ele>455.2</ele><time>2026-03-28T11:15:44.784Z</time></trkpt><trkpt lat="46.0509669" lon="11.8991019"><ele>456.4</ele><time>2026-03-28T11:15:46.784Z</time></trkpt><trkpt lat="46.0510472" lon="11.8991867"><ele>457.6</ele><time>2026-03-28T11:15:48.784Z</time></trkpt><trkpt lat="46.0511315" lon="11.8992832"><ele>458.8</ele><time>2026-03-28T11:15:50.781Z</time></trkpt><trkpt lat="46.051229" lon="11.8993785"><ele>460.0</ele><time>2026-03-28T11:15:52.784Z</time></trkpt><trkpt lat="46.0513288" lon="11.8994613"><ele>460.0</ele><time>2026-03-28T11:15:54.781Z</time></trkpt><trkpt lat="46.0514303" lon="11.8995444"><ele>460.0</ele><time>2026-03-28T11:15:56.782Z</time></trkpt><trkpt lat="46.0515051" lon="11.8996434"><ele>460.0</ele><time>2026-03-28T11:15:58.782Z</time></trkpt><trkpt lat="46.0515583" lon="11.8997525"><ele>460.0</ele><time>2026-03-28T11:16:00.782Z</time></trkpt><trkpt lat="46.0516167" lon="11.8998705"><ele>460.0</ele><time>2026-03-28T11:16:02.782Z</time></trkpt><trkpt lat="46.0516579" lon="11.8999682"><ele>458.33333333333337</ele><time>2026-03-28T11:16:04.782Z</time></trkpt><trkpt lat="46.0517313" lon="11.8999951"><ele>456.6666666666667</ele><time>2026-03-28T11:16:06.782Z</time></trkpt><trkpt lat="46.051799" lon="11.8999584"><ele>455.0</ele><time>2026-03-28T11:16:08.783Z</time></trkpt><trkpt lat="46.0518533" lon="11.8999006"><ele>453.33333333333337</ele><time>2026-03-28T11:16:10.782Z</time></trkpt><trkpt lat="46.0518598" lon="11.8997896"><ele>451.6666666666667</ele><time>2026-03-28T11:16:13.781Z</time></trkpt><trkpt lat="46.051834" lon="11.8996778"><ele>450.0</ele><time>2026-03-28T11:16:16.781Z</time></trkpt><trkpt lat="46.0518226" lon="11.8995684"><ele>450.0</ele><time>2026-03-28T11:16:19.782Z</time></trkpt><trkpt lat="46.0518192" lon="11.8994641"><ele>450.0</ele><time>2026-03-28T11:16:22.783Z</time></trkpt><trkpt lat="46.0518538" lon="11.8993834"><ele>450.0</ele><time>2026-03-28T11:16:25.783Z</time></trkpt><trkpt lat="46.0519008" lon="11.8992849"><ele>450.0</ele><time>2026-03-28T11:16:28.781Z</time></trkpt><trkpt lat="46.0519622" lon="11.8991884"><ele>450.0</ele><time>2026-03-28T11:16:31.783Z</time></trkpt><trkpt lat="46.0520021" lon="11.8990719"><ele>450.0</ele><time>2026-03-28T11:16:34.782Z</time></trkpt><trkpt lat="46.0520292" lon="11.8989558"><ele>447.8333333333333</ele><time>2026-03-28T11:16:37.783Z</time></trkpt><trkpt lat="46.052047" lon="11.8988497"><ele>445.66666666666663</ele><time>2026-03-28T11:16:40.783Z</time></trkpt><trkpt lat="46.0520512" lon="11.8987117"><ele>443.5</ele><time>2026-03-28T11:16:43.783Z</time></trkpt><trkpt lat="46.052047" lon="11.898591"><ele>441.3333333333333</ele><time>2026-03-28T11:16:45.782Z</time></trkpt><trkpt lat="46.0520338" lon="11.8984797"><ele>439.16666666666663</ele><time>2026-03-28T11:16:47.779Z</time></trkpt><trkpt lat="46.0520143" lon="11.8983784"><ele>437.0</ele><time>2026-03-28T11:16:49.779Z</time></trkpt><trkpt lat="46.0519893" lon="11.898279"><ele>436.4285714285714</ele><time>2026-03-28T11:16:51.78Z</time></trkpt><trkpt lat="46.0519656" lon="11.8981835"><ele>435.8571428571429</ele><time>2026-03-28T11:16:53.779Z</time></trkpt><trkpt lat="46.0519355" lon="11.8980997"><ele>435.2857142857143</ele><time>2026-03-28T11:16:55.784Z</time></trkpt><trkpt lat="46.0518985" lon="11.8980217"><ele>434.71428571428567</ele><time>2026-03-28T11:16:57.786Z</time></trkpt><trkpt lat="46.0518587" lon="11.897945"><ele>434.1428571428571</ele><time>2026-03-28T11:16:59.785Z</time></trkpt><trkpt lat="46.0518163" lon="11.8978757"><ele>433.57142857142856</ele><time>2026-03-28T11:17:01.782Z</time></trkpt><trkpt lat="46.0517808" lon="11.8977985"><ele>433.0</ele><time>2026-03-28T11:17:03.786Z</time></trkpt><trkpt lat="46.051738" lon="11.8976865"><ele>433.00000000000006</ele><time>2026-03-28T11:17:06.786Z</time></trkpt><trkpt lat="46.0517135" lon="11.8976016"><ele>433.0</ele><time>2026-03-28T11:17:08.786Z</time></trkpt><trkpt lat="46.0516901" lon="11.8974725"><ele>433.0</ele><time>2026-03-28T11:17:11.785Z</time></trkpt><trkpt lat="46.0516737" lon="11.8973741"><ele>433.0</ele><time>2026-03-28T11:17:13.784Z</time></trkpt><trkpt lat="46.0516377" lon="11.8972554"><ele>433.00000000000006</ele><time>2026-03-28T11:17:16.782Z</time></trkpt><trkpt lat="46.0515936" lon="11.8971729"><ele>433.0</ele><time>2026-03-28T11:17:18.786Z</time></trkpt><trkpt lat="46.0515522" lon="11.8970984"><ele>433.00000000000006</ele><time>2026-03-28T11:17:20.784Z</time></trkpt><trkpt lat="46.0514872" lon="11.8970091"><ele>433.0</ele><time>2026-03-28T11:17:23.785Z</time></trkpt><trkpt lat="46.0514323" lon="11.8969472"><ele>433.0</ele><time>2026-03-28T11:17:25.783Z</time></trkpt><trkpt lat="46.0513846" lon="11.8968644"><ele>433.0</ele><time>2026-03-28T11:17:27.786Z</time></trkpt><trkpt lat="46.0513453" lon="11.8967684"><ele>433.00000000000006</ele><time>2026-03-28T11:17:29.783Z</time></trkpt><trkpt lat="46.0513094" lon="11.8966751"><ele>433.0</ele><time>2026-03-28T11:17:31.784Z</time></trkpt><trkpt lat="46.051272" lon="11.8965418"><ele>433.00000000000006</ele><time>2026-03-28T11:17:34.783Z</time></trkpt><trkpt lat="46.0512649" lon="11.8964468"><ele>433.0</ele><time>2026-03-28T11:17:37.786Z</time></trkpt><trkpt lat="46.0512837" lon="11.896342"><ele>433.0</ele><time>2026-03-28T11:17:41.785Z</time></trkpt><trkpt lat="46.051278" lon="11.8961955"><ele>433.0</ele><time>2026-03-28T11:17:44.786Z</time></trkpt><trkpt lat="46.0512804" lon="11.8960744"><ele>433.00000000000006</ele><time>2026-03-28T11:17:47.785Z</time></trkpt><trkpt lat="46.0512484" lon="11.895996"><ele>433.0</ele><time>2026-03-28T11:17:50.781Z</time></trkpt><trkpt lat="46.0512027" lon="11.8959151"><ele>434.50000000000006</ele><time>2026-03-28T11:17:53.781Z</time></trkpt><trkpt lat="46.0511734" lon="11.895799"><ele>436.0</ele><time>2026-03-28T11:17:57.786Z</time></trkpt><trkpt lat="46.051132" lon="11.895693"><ele>437.5</ele><time>2026-03-28T11:18:00.786Z</time></trkpt><trkpt lat="46.0510929" lon="11.8956086"><ele>439.0</ele><time>2026-03-28T11:18:03.784Z</time></trkpt><trkpt lat="46.0510417" lon="11.895548"><ele>440.50000000000006</ele><time>2026-03-28T11:18:06.786Z</time></trkpt><trkpt lat="46.0509859" lon="11.8954894"><ele>442.0</ele><time>2026-03-28T11:18:09.784Z</time></trkpt><trkpt lat="46.0509126" lon="11.8954034"><ele>442.00000000000006</ele><time>2026-03-28T11:18:12.785Z</time></trkpt><trkpt lat="46.0508687" lon="11.8953085"><ele>442.0</ele><time>2026-03-28T11:18:15.786Z</time></trkpt><trkpt lat="46.050823" lon="11.8952102"><ele>442.0</ele><time>2026-03-28T11:18:18.784Z</time></trkpt><trkpt lat="46.0507934" lon="11.8951014"><ele>442.0</ele><time>2026-03-28T11:18:21.782Z</time></trkpt><trkpt lat="46.0507687" lon="11.8949971"><ele>442.00000000000006</ele><time>2026-03-28T11:18:24.784Z</time></trkpt><trkpt lat="46.0507539" lon="11.8948893"><ele>442.0</ele><time>2026-03-28T11:18:27.782Z</time></trkpt><trkpt lat="46.0507313" lon="11.8947726"><ele>441.6666666666667</ele><time>2026-03-28T11:18:30.783Z</time></trkpt><trkpt lat="46.0506726" lon="11.8946817"><ele>441.33333333333337</ele><time>2026-03-28T11:18:33.785Z</time></trkpt><trkpt lat="46.0506252" lon="11.8945787"><ele>441.0</ele><time>2026-03-28T11:18:36.784Z</time></trkpt><trkpt lat="46.0506069" lon="11.8944576"><ele>440.66666666666663</ele><time>2026-03-28T11:18:39.783Z</time></trkpt><trkpt lat="46.0505868" lon="11.8943405"><ele>440.3333333333333</ele><time>2026-03-28T11:18:42.782Z</time></trkpt><trkpt lat="46.0505804" lon="11.894245"><ele>440.0</ele><time>2026-03-28T11:18:44.784Z</time></trkpt><trkpt lat="46.0505839" lon="11.8941463"><ele>441.16666666666663</ele><time>2026-03-28T11:18:46.782Z</time></trkpt><trkpt lat="46.0505889" lon="11.8940535"><ele>442.3333333333333</ele><time>2026-03-28T11:18:48.782Z</time></trkpt><trkpt lat="46.0505962" lon="11.8939612"><ele>443.5</ele><time>2026-03-28T11:18:50.782Z</time></trkpt><trkpt lat="46.0506035" lon="11.8938641"><ele>444.66666666666663</ele><time>2026-03-28T11:18:52.782Z</time></trkpt><trkpt lat="46.0505983" lon="11.8937284"><ele>445.8333333333333</ele><time>2026-03-28T11:18:55.781Z</time></trkpt><trkpt lat="46.0505796" lon="11.8936037"><ele>447.0</ele><time>2026-03-28T11:18:58.782Z</time></trkpt><trkpt lat="46.0505505" lon="11.8934849"><ele>447.5</ele><time>2026-03-28T11:19:01.783Z</time></trkpt><trkpt lat="46.0505156" lon="11.8933655"><ele>448.0</ele><time>2026-03-28T11:19:04.783Z</time></trkpt><trkpt lat="46.0504841" lon="11.8932722"><ele>448.5</ele><time>2026-03-28T11:19:06.783Z</time></trkpt><trkpt lat="46.0504392" lon="11.8931664"><ele>449.0</ele><time>2026-03-28T11:19:09.783Z</time></trkpt><trkpt lat="46.0503943" lon="11.8930872"><ele>449.5</ele><time>2026-03-28T11:19:12.785Z</time></trkpt><trkpt lat="46.0503294" lon="11.8929996"><ele>450.0</ele><time>2026-03-28T11:19:15.783Z</time></trkpt><trkpt lat="46.0502861" lon="11.8928935"><ele>450.0</ele><time>2026-03-28T11:19:18.783Z</time></trkpt><trkpt lat="46.0502589" lon="11.8927871"><ele>450.0</ele><time>2026-03-28T11:19:21.785Z</time></trkpt><trkpt lat="46.05024" lon="11.8926841"><ele>450.0</ele><time>2026-03-28T11:19:24.783Z</time></trkpt><trkpt lat="46.0502117" lon="11.8925839"><ele>450.0</ele><time>2026-03-28T11:19:27.785Z</time></trkpt><trkpt lat="46.0501773" lon="11.89249"><ele>450.0</ele><time>2026-03-28T11:19:30.783Z</time></trkpt><trkpt lat="46.0501452" lon="11.8923912"><ele>450.0</ele><time>2026-03-28T11:19:33.783Z</time></trkpt><trkpt lat="46.0501078" lon="11.8922983"><ele>451.0</ele><time>2026-03-28T11:19:36.784Z</time></trkpt><trkpt lat="46.0500861" lon="11.8921865"><ele>452.0</ele><time>2026-03-28T11:19:39.783Z</time></trkpt><trkpt lat="46.0500705" lon="11.8920794"><ele>453.0</ele><time>2026-03-28T11:19:42.786Z</time></trkpt><trkpt lat="46.0500743" lon="11.8919619"><ele>454.0</ele><time>2026-03-28T11:19:45.781Z</time></trkpt><trkpt lat="46.0501043" lon="11.8918602"><ele>455.0</ele><time>2026-03-28T11:19:48.782Z</time></trkpt><trkpt lat="46.0501394" lon="11.8917783"><ele>456.0</ele><time>2026-03-28T11:19:51.785Z</time></trkpt><trkpt lat="46.0501856" lon="11.8916834"><ele>457.2857142857143</ele><time>2026-03-28T11:19:54.781Z</time></trkpt><trkpt lat="46.0502227" lon="11.8915926"><ele>458.57142857142856</ele><time>2026-03-28T11:19:57.782Z</time></trkpt><trkpt lat="46.0502658" lon="11.8915112"><ele>459.85714285714283</ele><time>2026-03-28T11:20:00.784Z</time></trkpt><trkpt lat="46.0503104" lon="11.891419"><ele>461.1428571428571</ele><time>2026-03-28T11:20:03.785Z</time></trkpt><trkpt lat="46.0503511" lon="11.891332"><ele>462.42857142857144</ele><time>2026-03-28T11:20:06.784Z</time></trkpt><trkpt lat="46.0504" lon="11.8912444"><ele>463.71428571428567</ele><time>2026-03-28T11:20:09.782Z</time></trkpt><trkpt lat="46.0504382" lon="11.8911697"><ele>465.0</ele><time>2026-03-28T11:20:12.783Z</time></trkpt><trkpt lat="46.0504903" lon="11.8911032"><ele>465.0</ele><time>2026-03-28T11:20:15.785Z</time></trkpt><trkpt lat="46.0505686" lon="11.8910774"><ele>465.0</ele><time>2026-03-28T11:20:18.783Z</time></trkpt><trkpt lat="46.0506316" lon="11.8911082"><ele>465.0</ele><time>2026-03-28T11:20:21.785Z</time></trkpt><trkpt lat="46.0506961" lon="11.8911386"><ele>465.0</ele><time>2026-03-28T11:20:24.785Z</time></trkpt><trkpt lat="46.0507464" lon="11.8911948"><ele>465.0</ele><time>2026-03-28T11:20:28.78Z</time></trkpt><trkpt lat="46.0508019" lon="11.8912751"><ele>465.0</ele><time>2026-03-28T11:20:33.783Z</time></trkpt><trkpt lat="46.0508486" lon="11.8913466"><ele>465.0</ele><time>2026-03-28T11:20:37.782Z</time></trkpt><trkpt lat="46.0509232" lon="11.8914052"><ele>468.4</ele><time>2026-03-28T11:20:41.783Z</time></trkpt><trkpt lat="46.0510006" lon="11.8914128"><ele>471.8</ele><time>2026-03-28T11:20:44.782Z</time></trkpt><trkpt lat="46.0510639" lon="11.8914173"><ele>475.20000000000005</ele><time>2026-03-28T11:20:46.783Z</time></trkpt><trkpt lat="46.0512792" lon="11.8914178"><ele>478.6</ele><time>2026-03-28T11:20:53.783Z</time></trkpt><trkpt lat="46.0513582" lon="11.8914201"><ele>482.0</ele><time>2026-03-28T11:20:56.783Z</time></trkpt><trkpt lat="46.051438" lon="11.8914416"><ele>482.0</ele><time>2026-03-28T11:21:00.785Z</time></trkpt><trkpt lat="46.0515082" lon="11.8914828"><ele>482.00000000000006</ele><time>2026-03-28T11:21:05.784Z</time></trkpt><trkpt lat="46.0515674" lon="11.8915212"><ele>482.0</ele><time>2026-03-28T11:21:08.785Z</time></trkpt><trkpt lat="46.0516233" lon="11.8915695"><ele>482.0</ele><time>2026-03-28T11:21:11.783Z</time></trkpt><trkpt lat="46.0516823" lon="11.891631"><ele>482.00000000000006</ele><time>2026-03-28T11:21:15.783Z</time></trkpt><trkpt lat="46.0517401" lon="11.8916816"><ele>482.0</ele><time>2026-03-28T11:21:19.783Z</time></trkpt><trkpt lat="46.051798" lon="11.8917312"><ele>482.0</ele><time>2026-03-28T11:21:23.785Z</time></trkpt><trkpt lat="46.0518631" lon="11.8917927"><ele>482.49999999999994</ele><time>2026-03-28T11:21:27.783Z</time></trkpt><trkpt lat="46.0519165" lon="11.8918737"><ele>483.0</ele><time>2026-03-28T11:21:31.783Z</time></trkpt><trkpt lat="46.0519759" lon="11.8919388"><ele>483.5</ele><time>2026-03-28T11:21:34.782Z</time></trkpt><trkpt lat="46.0520584" lon="11.8919802"><ele>484.0</ele><time>2026-03-28T11:21:37.784Z</time></trkpt><trkpt lat="46.0521254" lon="11.8920104"><ele>484.49999999999994</ele><time>2026-03-28T11:21:40.783Z</time></trkpt><trkpt lat="46.0521906" lon="11.8920324"><ele>485.0</ele><time>2026-03-28T11:21:43.783Z</time></trkpt><trkpt lat="46.0523463" lon="11.8920426"><ele>484.99999999999994</ele><time>2026-03-28T11:21:51.78Z</time></trkpt><trkpt lat="46.0524171" lon="11.8920483"><ele>485.0</ele><time>2026-03-28T11:21:55.781Z</time></trkpt><trkpt lat="46.0524817" lon="11.8920772"><ele>485.0</ele><time>2026-03-28T11:22:00.78Z</time></trkpt><trkpt lat="46.0525959" lon="11.8921063"><ele>485.0</ele><time>2026-03-28T11:22:07.785Z</time></trkpt><trkpt lat="46.0526799" lon="11.892093"><ele>484.99999999999994</ele><time>2026-03-28T11:22:10.782Z</time></trkpt><trkpt lat="46.0527582" lon="11.8921025"><ele>485.0</ele><time>2026-03-28T11:22:13.783Z</time></trkpt><trkpt lat="46.0528324" lon="11.8921324"><ele>487.57142857142867</ele><time>2026-03-28T11:22:16.783Z</time></trkpt><trkpt lat="46.0529048" lon="11.8921569"><ele>490.14285714285717</ele><time>2026-03-28T11:22:19.783Z</time></trkpt><trkpt lat="46.0529776" lon="11.892168"><ele>492.7142857142858</ele><time>2026-03-28T11:22:22.783Z</time></trkpt><trkpt lat="46.0530406" lon="11.8921837"><ele>495.28571428571433</ele><time>2026-03-28T11:22:25.785Z</time></trkpt><trkpt lat="46.0531156" lon="11.892209"><ele>497.8571428571429</ele><time>2026-03-28T11:22:29.782Z</time></trkpt><trkpt lat="46.0532018" lon="11.8922481"><ele>500.42857142857144</ele><time>2026-03-28T11:22:32.781Z</time></trkpt><trkpt lat="46.0532622" lon="11.8922777"><ele>503.0</ele><time>2026-03-28T11:22:34.783Z</time></trkpt><trkpt lat="46.0533511" lon="11.8923147"><ele>505.3333333333333</ele><time>2026-03-28T11:22:37.781Z</time></trkpt><trkpt lat="46.0534361" lon="11.8923317"><ele>507.66666666666663</ele><time>2026-03-28T11:22:40.779Z</time></trkpt><trkpt lat="46.0535099" lon="11.8923395"><ele>510.0</ele><time>2026-03-28T11:22:42.783Z</time></trkpt><trkpt lat="46.0535769" lon="11.8923429"><ele>512.3333333333334</ele><time>2026-03-28T11:22:44.783Z</time></trkpt><trkpt lat="46.0536531" lon="11.8923576"><ele>514.6666666666667</ele><time>2026-03-28T11:22:46.784Z</time></trkpt><trkpt lat="46.0537182" lon="11.8923722"><ele>517.0</ele><time>2026-03-28T11:22:48.78Z</time></trkpt><trkpt lat="46.0537922" lon="11.8924162"><ele>517.0</ele><time>2026-03-28T11:22:51.782Z</time></trkpt><trkpt lat="46.0538487" lon="11.8924564"><ele>517.0</ele><time>2026-03-28T11:22:53.783Z</time></trkpt><trkpt lat="46.053906" lon="11.8925021"><ele>517.0</ele><time>2026-03-28T11:22:55.782Z</time></trkpt><trkpt lat="46.0539692" lon="11.8925329"><ele>517.0</ele><time>2026-03-28T11:22:57.781Z</time></trkpt><trkpt lat="46.0540298" lon="11.8925603"><ele>517.0</ele><time>2026-03-28T11:22:59.783Z</time></trkpt><trkpt lat="46.0540925" lon="11.8925922"><ele>517.0</ele><time>2026-03-28T11:23:01.785Z</time></trkpt><trkpt lat="46.0541754" lon="11.8926281"><ele>517.0</ele><time>2026-03-28T11:23:04.783Z</time></trkpt><trkpt lat="46.0542398" lon="11.8926712"><ele>517.0</ele><time>2026-03-28T11:23:07.786Z</time></trkpt><trkpt lat="46.054278" lon="11.8927566"><ele>517.0</ele><time>2026-03-28T11:23:12.781Z</time></trkpt><trkpt lat="46.0542447" lon="11.8928615"><ele>517.0</ele><time>2026-03-28T11:23:15.785Z</time></trkpt><trkpt lat="46.0541986" lon="11.8929543"><ele>517.0</ele><time>2026-03-28T11:23:17.783Z</time></trkpt><trkpt lat="46.0541666" lon="11.8930478"><ele>517.0</ele><time>2026-03-28T11:23:19.781Z</time></trkpt><trkpt lat="46.0541596" lon="11.8931431"><ele>517.0</ele><time>2026-03-28T11:23:21.782Z</time></trkpt><trkpt lat="46.0541646" lon="11.8932744"><ele>517.0</ele><time>2026-03-28T11:23:24.784Z</time></trkpt><trkpt lat="46.0541692" lon="11.8933667"><ele>517.0</ele><time>2026-03-28T11:23:26.782Z</time></trkpt><trkpt lat="46.0541742" lon="11.8934685"><ele>517.0</ele><time>2026-03-28T11:23:28.781Z</time></trkpt><trkpt lat="46.0541837" lon="11.8935668"><ele>517.0</ele><time>2026-03-28T11:23:30.782Z</time></trkpt><trkpt lat="46.0541931" lon="11.8936769"><ele>517.0</ele><time>2026-03-28T11:23:32.782Z</time></trkpt><trkpt lat="46.0542018" lon="11.8937721"><ele>517.0</ele><time>2026-03-28T11:23:34.782Z</time></trkpt><trkpt lat="46.0542111" lon="11.8939106"><ele>517.0</ele><time>2026-03-28T11:23:37.782Z</time></trkpt><trkpt lat="46.0542135" lon="11.8940025"><ele>516.8571428571429</ele><time>2026-03-28T11:23:39.783Z</time></trkpt><trkpt lat="46.0542206" lon="11.8940992"><ele>516.7142857142858</ele><time>2026-03-28T11:23:41.782Z</time></trkpt><trkpt lat="46.0542298" lon="11.8941931"><ele>516.5714285714286</ele><time>2026-03-28T11:23:43.783Z</time></trkpt><trkpt lat="46.054242" lon="11.8942862"><ele>516.4285714285714</ele><time>2026-03-28T11:23:45.782Z</time></trkpt><trkpt lat="46.0542539" lon="11.8943862"><ele>516.2857142857142</ele><time>2026-03-28T11:23:47.782Z</time></trkpt><trkpt lat="46.0542687" lon="11.8944791"><ele>516.1428571428571</ele><time>2026-03-28T11:23:49.782Z</time></trkpt><trkpt lat="46.0542978" lon="11.8946105"><ele>516.0</ele><time>2026-03-28T11:23:52.785Z</time></trkpt><trkpt lat="46.0543195" lon="11.8947056"><ele>515.9999999999999</ele><time>2026-03-28T11:23:54.783Z</time></trkpt><trkpt lat="46.0543512" lon="11.8947956"><ele>516.0</ele><time>2026-03-28T11:23:56.783Z</time></trkpt><trkpt lat="46.0543876" lon="11.8948752"><ele>516.0</ele><time>2026-03-28T11:23:58.784Z</time></trkpt><trkpt lat="46.0544243" lon="11.8949504"><ele>516.0</ele><time>2026-03-28T11:24:00.783Z</time></trkpt><trkpt lat="46.0544566" lon="11.8950302"><ele>516.0</ele><time>2026-03-28T11:24:02.781Z</time></trkpt><trkpt lat="46.054494" lon="11.895113"><ele>515.9999999999999</ele><time>2026-03-28T11:24:04.781Z</time></trkpt><trkpt lat="46.0545356" lon="11.8951909"><ele>516.0</ele><time>2026-03-28T11:24:06.783Z</time></trkpt><trkpt lat="46.0545845" lon="11.8952666"><ele>515.9999999999999</ele><time>2026-03-28T11:24:08.783Z</time></trkpt><trkpt lat="46.0546187" lon="11.8953547"><ele>516.0</ele><time>2026-03-28T11:24:10.781Z</time></trkpt><trkpt lat="46.0546576" lon="11.895438"><ele>516.0</ele><time>2026-03-28T11:24:12.782Z</time></trkpt><trkpt lat="46.0546948" lon="11.8955166"><ele>516.0</ele><time>2026-03-28T11:24:14.781Z</time></trkpt><trkpt lat="46.0547253" lon="11.8956006"><ele>516.0</ele><time>2026-03-28T11:24:16.781Z</time></trkpt><trkpt lat="46.0547584" lon="11.8956887"><ele>515.9999999999999</ele><time>2026-03-28T11:24:18.781Z</time></trkpt><trkpt lat="46.0548021" lon="11.8957694"><ele>516.0</ele><time>2026-03-28T11:24:20.783Z</time></trkpt><trkpt lat="46.0548423" lon="11.8958472"><ele>515.9999999999999</ele><time>2026-03-28T11:24:22.783Z</time></trkpt><trkpt lat="46.0548792" lon="11.8959312"><ele>516.0</ele><time>2026-03-28T11:24:24.782Z</time></trkpt><trkpt lat="46.0549204" lon="11.8959999"><ele>516.0</ele><time>2026-03-28T11:24:26.784Z</time></trkpt><trkpt lat="46.0549645" lon="11.8960711"><ele>516.0</ele><time>2026-03-28T11:24:28.781Z</time></trkpt><trkpt lat="46.0550264" lon="11.8961377"><ele>516.0</ele><time>2026-03-28T11:24:30.782Z</time></trkpt><trkpt lat="46.0550977" lon="11.8961751"><ele>515.9999999999999</ele><time>2026-03-28T11:24:32.783Z</time></trkpt><trkpt lat="46.0551663" lon="11.8961948"><ele>516.0</ele><time>2026-03-28T11:24:34.782Z</time></trkpt><trkpt lat="46.0552535" lon="11.8961856"><ele>516.0</ele><time>2026-03-28T11:24:37.784Z</time></trkpt><trkpt lat="46.0554389" lon="11.8961655"><ele>516.0</ele><time>2026-03-28T11:24:46.782Z</time></trkpt><trkpt lat="46.0555041" lon="11.8961122"><ele>516.0</ele><time>2026-03-28T11:24:49.781Z</time></trkpt><trkpt lat="46.055565" lon="11.8960699"><ele>516.0</ele><time>2026-03-28T11:24:52.783Z</time></trkpt><trkpt lat="46.055639" lon="11.8960189"><ele>516.0</ele><time>2026-03-28T11:24:55.783Z</time></trkpt><trkpt lat="46.0557218" lon="11.8959722"><ele>515.9999999999999</ele><time>2026-03-28T11:24:58.783Z</time></trkpt><trkpt lat="46.0557802" lon="11.8959337"><ele>516.0</ele><time>2026-03-28T11:25:00.781Z</time></trkpt><trkpt lat="46.0558351" lon="11.895886"><ele>516.0</ele><time>2026-03-28T11:25:02.783Z</time></trkpt><trkpt lat="46.0558993" lon="11.895844"><ele>516.0</ele><time>2026-03-28T11:25:04.783Z</time></trkpt><trkpt lat="46.0559645" lon="11.8958029"><ele>516.0</ele><time>2026-03-28T11:25:06.781Z</time></trkpt><trkpt lat="46.0560305" lon="11.8957674"><ele>515.9999999999999</ele><time>2026-03-28T11:25:08.785Z</time></trkpt><trkpt lat="46.0560964" lon="11.8957306"><ele>516.0</ele><time>2026-03-28T11:25:10.783Z</time></trkpt><trkpt lat="46.0561656" lon="11.8957033"><ele>516.2857142857142</ele><time>2026-03-28T11:25:12.782Z</time></trkpt><trkpt lat="46.0562318" lon="11.8956822"><ele>516.5714285714286</ele><time>2026-03-28T11:25:14.783Z</time></trkpt><trkpt lat="46.0563007" lon="11.8956664"><ele>516.8571428571429</ele><time>2026-03-28T11:25:16.784Z</time></trkpt><trkpt lat="46.0563702" lon="11.8956539"><ele>517.1428571428571</ele><time>2026-03-28T11:25:18.783Z</time></trkpt><trkpt lat="46.0564339" lon="11.8956271"><ele>517.4285714285714</ele><time>2026-03-28T11:25:20.783Z</time></trkpt><trkpt lat="46.0565342" lon="11.8956181"><ele>517.7142857142857</ele><time>2026-03-28T11:25:23.782Z</time></trkpt><trkpt lat="46.0566003" lon="11.8955912"><ele>518.0</ele><time>2026-03-28T11:25:25.783Z</time></trkpt><trkpt lat="46.0566718" lon="11.8955584"><ele>518.6666666666666</ele><time>2026-03-28T11:25:27.782Z</time></trkpt><trkpt lat="46.0567452" lon="11.8955152"><ele>519.3333333333333</ele><time>2026-03-28T11:25:29.783Z</time></trkpt><trkpt lat="46.0568153" lon="11.895475"><ele>520.0</ele><time>2026-03-28T11:25:31.784Z</time></trkpt><trkpt lat="46.0569063" lon="11.8954461"><ele>520.6666666666666</ele><time>2026-03-28T11:25:34.782Z</time></trkpt><trkpt lat="46.0569809" lon="11.8954199"><ele>521.3333333333334</ele><time>2026-03-28T11:25:36.785Z</time></trkpt><trkpt lat="46.0570437" lon="11.8953932"><ele>522.0</ele><time>2026-03-28T11:25:38.783Z</time></trkpt><trkpt lat="46.0571028" lon="11.8953406"><ele>522.0</ele><time>2026-03-28T11:25:40.78Z</time></trkpt><trkpt lat="46.0571631" lon="11.8953109"><ele>522.0</ele><time>2026-03-28T11:25:42.782Z</time></trkpt><trkpt lat="46.0572341" lon="11.8952819"><ele>522.0</ele><time>2026-03-28T11:25:44.782Z</time></trkpt><trkpt lat="46.0573098" lon="11.8952508"><ele>522.0</ele><time>2026-03-28T11:25:46.781Z</time></trkpt><trkpt lat="46.0573912" lon="11.8952055"><ele>522.0</ele><time>2026-03-28T11:25:48.784Z</time></trkpt><trkpt lat="46.0574623" lon="11.8951792"><ele>522.0</ele><time>2026-03-28T11:25:50.785Z</time></trkpt><trkpt lat="46.0575273" lon="11.8951871"><ele>522.0</ele><time>2026-03-28T11:25:52.781Z</time></trkpt><trkpt lat="46.0575987" lon="11.8952419"><ele>522.6666666666666</ele><time>2026-03-28T11:25:54.783Z</time></trkpt><trkpt lat="46.0576674" lon="11.895314"><ele>523.3333333333334</ele><time>2026-03-28T11:25:56.781Z</time></trkpt><trkpt lat="46.0577432" lon="11.8953832"><ele>524.0</ele><time>2026-03-28T11:25:58.781Z</time></trkpt><trkpt lat="46.0578211" lon="11.895445"><ele>524.6666666666667</ele><time>2026-03-28T11:26:00.783Z</time></trkpt><trkpt lat="46.0579012" lon="11.8954981"><ele>525.3333333333334</ele><time>2026-03-28T11:26:02.782Z</time></trkpt><trkpt lat="46.0579838" lon="11.8955511"><ele>526.0</ele><time>2026-03-28T11:26:04.781Z</time></trkpt><trkpt lat="46.0580611" lon="11.8956009"><ele>526.0</ele><time>2026-03-28T11:26:06.783Z</time></trkpt><trkpt lat="46.0581328" lon="11.8956498"><ele>526.0</ele><time>2026-03-28T11:26:08.782Z</time></trkpt><trkpt lat="46.0582059" lon="11.895701"><ele>526.0</ele><time>2026-03-28T11:26:10.782Z</time></trkpt><trkpt lat="46.058274" lon="11.8957519"><ele>526.0</ele><time>2026-03-28T11:26:12.781Z</time></trkpt><trkpt lat="46.0583379" lon="11.8957983"><ele>526.0</ele><time>2026-03-28T11:26:14.782Z</time></trkpt><trkpt lat="46.0584008" lon="11.8958406"><ele>526.0</ele><time>2026-03-28T11:26:16.781Z</time></trkpt><trkpt lat="46.058465" lon="11.8958831"><ele>526.0</ele><time>2026-03-28T11:26:18.781Z</time></trkpt><trkpt lat="46.0585276" lon="11.8959268"><ele>525.6666666666667</ele><time>2026-03-28T11:26:20.782Z</time></trkpt><trkpt lat="46.0585902" lon="11.8959667"><ele>525.3333333333334</ele><time>2026-03-28T11:26:22.781Z</time></trkpt><trkpt lat="46.0586522" lon="11.8960128"><ele>525.0</ele><time>2026-03-28T11:26:24.782Z</time></trkpt><trkpt lat="46.0587187" lon="11.8960608"><ele>524.6666666666666</ele><time>2026-03-28T11:26:26.783Z</time></trkpt><trkpt lat="46.058795" lon="11.8961127"><ele>524.3333333333333</ele><time>2026-03-28T11:26:28.781Z</time></trkpt><trkpt lat="46.0588673" lon="11.8961606"><ele>524.0</ele><time>2026-03-28T11:26:30.782Z</time></trkpt><trkpt lat="46.0589364" lon="11.896208"><ele>524.0</ele><time>2026-03-28T11:26:32.782Z</time></trkpt><trkpt lat="46.0590053" lon="11.8962579"><ele>524.0</ele><time>2026-03-28T11:26:34.783Z</time></trkpt><trkpt lat="46.0590734" lon="11.8963222"><ele>524.0</ele><time>2026-03-28T11:26:36.785Z</time></trkpt><trkpt lat="46.0591495" lon="11.8963852"><ele>524.0</ele><time>2026-03-28T11:26:38.781Z</time></trkpt><trkpt lat="46.0592213" lon="11.8964593"><ele>524.0</ele><time>2026-03-28T11:26:40.783Z</time></trkpt><trkpt lat="46.0593005" lon="11.8965324"><ele>524.0</ele><time>2026-03-28T11:26:42.782Z</time></trkpt><trkpt lat="46.0593876" lon="11.8966118"><ele>523.4</ele><time>2026-03-28T11:26:44.783Z</time></trkpt><trkpt lat="46.0594832" lon="11.8967039"><ele>522.8</ele><time>2026-03-28T11:26:46.78Z</time></trkpt><trkpt lat="46.0595858" lon="11.8968093"><ele>522.2</ele><time>2026-03-28T11:26:48.784Z</time></trkpt><trkpt lat="46.0596406" lon="11.8968599"><ele>521.6</ele><time>2026-03-28T11:26:49.782Z</time></trkpt><trkpt lat="46.0597153" lon="11.8969586"><ele>521.0</ele><time>2026-03-28T11:26:51.784Z</time></trkpt><trkpt lat="46.0597587" lon="11.8970711"><ele>521.0</ele><time>2026-03-28T11:26:53.782Z</time></trkpt><trkpt lat="46.0598037" lon="11.8971746"><ele>521.0</ele><time>2026-03-28T11:26:55.783Z</time></trkpt><trkpt lat="46.0598645" lon="11.8972473"><ele>521.0</ele><time>2026-03-28T11:26:57.783Z</time></trkpt><trkpt lat="46.0599485" lon="11.8973006"><ele>521.0</ele><time>2026-03-28T11:26:59.783Z</time></trkpt><trkpt lat="46.0600349" lon="11.8973356"><ele>521.0</ele><time>2026-03-28T11:27:01.783Z</time></trkpt><trkpt lat="46.0601401" lon="11.8973643"><ele>521.8333333333333</ele><time>2026-03-28T11:27:03.781Z</time></trkpt><trkpt lat="46.0602111" lon="11.897389"><ele>522.6666666666666</ele><time>2026-03-28T11:27:04.781Z</time></trkpt><trkpt lat="46.0603025" lon="11.8974554"><ele>523.5</ele><time>2026-03-28T11:27:06.782Z</time></trkpt><trkpt lat="46.0603454" lon="11.8975464"><ele>524.3333333333334</ele><time>2026-03-28T11:27:08.781Z</time></trkpt><trkpt lat="46.0603821" lon="11.897631"><ele>525.1666666666667</ele><time>2026-03-28T11:27:10.783Z</time></trkpt><trkpt lat="46.0604368" lon="11.8977124"><ele>526.0</ele><time>2026-03-28T11:27:12.784Z</time></trkpt><trkpt lat="46.0604805" lon="11.8978177"><ele>526.3333333333334</ele><time>2026-03-28T11:27:14.781Z</time></trkpt><trkpt lat="46.0605312" lon="11.8978979"><ele>526.6666666666667</ele><time>2026-03-28T11:27:16.783Z</time></trkpt><trkpt lat="46.0605789" lon="11.8979843"><ele>527.0</ele><time>2026-03-28T11:27:18.783Z</time></trkpt><trkpt lat="46.0606388" lon="11.8980536"><ele>527.3333333333334</ele><time>2026-03-28T11:27:20.783Z</time></trkpt><trkpt lat="46.0606835" lon="11.8981234"><ele>527.6666666666666</ele><time>2026-03-28T11:27:22.783Z</time></trkpt><trkpt lat="46.0607412" lon="11.8981765"><ele>528.0</ele><time>2026-03-28T11:27:24.784Z</time></trkpt><trkpt lat="46.0608298" lon="11.8982155"><ele>528.1428571428571</ele><time>2026-03-28T11:27:27.784Z</time></trkpt><trkpt lat="46.0609204" lon="11.8982334"><ele>528.2857142857143</ele><time>2026-03-28T11:27:30.783Z</time></trkpt><trkpt lat="46.0609874" lon="11.8982158"><ele>528.4285714285714</ele><time>2026-03-28T11:27:32.784Z</time></trkpt><trkpt lat="46.0610522" lon="11.8981841"><ele>528.5714285714286</ele><time>2026-03-28T11:27:34.785Z</time></trkpt><trkpt lat="46.0611163" lon="11.8981551"><ele>528.7142857142857</ele><time>2026-03-28T11:27:36.781Z</time></trkpt><trkpt lat="46.0611781" lon="11.8981328"><ele>528.8571428571429</ele><time>2026-03-28T11:27:38.782Z</time></trkpt><trkpt lat="46.0612387" lon="11.8981042"><ele>529.0</ele><time>2026-03-28T11:27:40.78Z</time></trkpt><trkpt lat="46.0613325" lon="11.8980678"><ele>529.0</ele><time>2026-03-28T11:27:43.783Z</time></trkpt><trkpt lat="46.0613973" lon="11.8980544"><ele>529.0</ele><time>2026-03-28T11:27:45.782Z</time></trkpt><trkpt lat="46.0614877" lon="11.8980274"><ele>529.0</ele><time>2026-03-28T11:27:48.784Z</time></trkpt><trkpt lat="46.0615512" lon="11.8980041"><ele>529.0</ele><time>2026-03-28T11:27:50.783Z</time></trkpt><trkpt lat="46.0616427" lon="11.8979941"><ele>529.0</ele><time>2026-03-28T11:27:53.784Z</time></trkpt><trkpt lat="46.0617127" lon="11.8979902"><ele>529.0</ele><time>2026-03-28T11:27:56.783Z</time></trkpt><trkpt lat="46.0617782" lon="11.8979931"><ele>530.4</ele><time>2026-03-28T11:27:59.781Z</time></trkpt><trkpt lat="46.0618456" lon="11.8980099"><ele>531.8</ele><time>2026-03-28T11:28:02.782Z</time></trkpt><trkpt lat="46.0620462" lon="11.8980164"><ele>533.2</ele><time>2026-03-28T11:28:10.782Z</time></trkpt><trkpt lat="46.0621208" lon="11.8980081"><ele>534.6</ele><time>2026-03-28T11:28:13.783Z</time></trkpt><trkpt lat="46.0622019" lon="11.8979988"><ele>536.0</ele><time>2026-03-28T11:28:16.781Z</time></trkpt><trkpt lat="46.0622819" lon="11.8980018"><ele>536.0</ele><time>2026-03-28T11:28:19.784Z</time></trkpt><trkpt lat="46.0623631" lon="11.897985"><ele>536.0</ele><time>2026-03-28T11:28:22.782Z</time></trkpt><trkpt lat="46.0624385" lon="11.8979657"><ele>536.0</ele><time>2026-03-28T11:28:25.782Z</time></trkpt><trkpt lat="46.0625112" lon="11.8979581"><ele>536.0</ele><time>2026-03-28T11:28:28.783Z</time></trkpt><trkpt lat="46.0625858" lon="11.8979399"><ele>536.0</ele><time>2026-03-28T11:28:31.783Z</time></trkpt><trkpt lat="46.0626633" lon="11.8979498"><ele>536.0</ele><time>2026-03-28T11:28:35.784Z</time></trkpt><trkpt lat="46.062726" lon="11.897968"><ele>536.0</ele><time>2026-03-28T11:28:38.783Z</time></trkpt><trkpt lat="46.0627894" lon="11.8979726"><ele>537.1666666666666</ele><time>2026-03-28T11:28:40.784Z</time></trkpt><trkpt lat="46.0628599" lon="11.8979308"><ele>538.3333333333333</ele><time>2026-03-28T11:28:43.783Z</time></trkpt><trkpt lat="46.0628916" lon="11.8978318"><ele>539.5</ele><time>2026-03-28T11:28:46.782Z</time></trkpt><trkpt lat="46.0628852" lon="11.8977288"><ele>540.6666666666666</ele><time>2026-03-28T11:28:49.782Z</time></trkpt><trkpt lat="46.0628536" lon="11.8976156"><ele>541.8333333333334</ele><time>2026-03-28T11:28:52.781Z</time></trkpt><trkpt lat="46.0628362" lon="11.8975019"><ele>543.0</ele><time>2026-03-28T11:28:56.784Z</time></trkpt><trkpt lat="46.0628389" lon="11.8973972"><ele>544.0</ele><time>2026-03-28T11:28:59.783Z</time></trkpt><trkpt lat="46.0628519" lon="11.8972876"><ele>545.0</ele><time>2026-03-28T11:29:03.784Z</time></trkpt><trkpt lat="46.0628478" lon="11.8971811"><ele>546.0</ele><time>2026-03-28T11:29:07.783Z</time></trkpt><trkpt lat="46.0628258" lon="11.8970885"><ele>547.0</ele><time>2026-03-28T11:29:10.783Z</time></trkpt><trkpt lat="46.062823" lon="11.8969843"><ele>548.0</ele><time>2026-03-28T11:29:14.784Z</time></trkpt><trkpt lat="46.0628082" lon="11.8968728"><ele>549.0</ele><time>2026-03-28T11:29:17.784Z</time></trkpt><trkpt lat="46.0627879" lon="11.8967412"><ele>550.2857142857142</ele><time>2026-03-28T11:29:20.782Z</time></trkpt><trkpt lat="46.0627659" lon="11.8966381"><ele>551.5714285714286</ele><time>2026-03-28T11:29:23.783Z</time></trkpt><trkpt lat="46.0627481" lon="11.8965321"><ele>552.8571428571429</ele><time>2026-03-28T11:29:26.783Z</time></trkpt><trkpt lat="46.0627255" lon="11.8964167"><ele>554.1428571428571</ele><time>2026-03-28T11:29:30.784Z</time></trkpt><trkpt lat="46.0627139" lon="11.8963126"><ele>555.4285714285714</ele><time>2026-03-28T11:29:34.784Z</time></trkpt><trkpt lat="46.0627107" lon="11.8962173"><ele>556.7142857142857</ele><time>2026-03-28T11:29:37.783Z</time></trkpt><trkpt lat="46.0626806" lon="11.8961222"><ele>558.0</ele><time>2026-03-28T11:29:40.782Z</time></trkpt><trkpt lat="46.0626508" lon="11.8960042"><ele>560.0</ele><time>2026-03-28T11:29:43.784Z</time></trkpt><trkpt lat="46.0626316" lon="11.89589"><ele>562.0</ele><time>2026-03-28T11:29:46.783Z</time></trkpt><trkpt lat="46.0626155" lon="11.8957953"><ele>564.0</ele><time>2026-03-28T11:29:49.782Z</time></trkpt><trkpt lat="46.0625965" lon="11.8956779"><ele>566.0</ele><time>2026-03-28T11:29:52.783Z</time></trkpt><trkpt lat="46.062579" lon="11.8955753"><ele>568.0</ele><time>2026-03-28T11:29:54.784Z</time></trkpt><trkpt lat="46.0625753" lon="11.8954523"><ele>570.0</ele><time>2026-03-28T11:29:57.783Z</time></trkpt><trkpt lat="46.062576" lon="11.8953508"><ele>570.0</ele><time>2026-03-28T11:30:01.782Z</time></trkpt><trkpt lat="46.0625524" lon="11.8952598"><ele>570.0</ele><time>2026-03-28T11:30:04.783Z</time></trkpt><trkpt lat="46.0625041" lon="11.8951925"><ele>570.0</ele><time>2026-03-28T11:30:07.783Z</time></trkpt><trkpt lat="46.0624559" lon="11.8951023"><ele>570.0</ele><time>2026-03-28T11:30:10.779Z</time></trkpt><trkpt lat="46.0624047" lon="11.8950282"><ele>570.0</ele><time>2026-03-28T11:30:13.783Z</time></trkpt><trkpt lat="46.0623551" lon="11.8949447"><ele>570.0</ele><time>2026-03-28T11:30:17.783Z</time></trkpt><trkpt lat="46.0623102" lon="11.8948769"><ele>570.0</ele><time>2026-03-28T11:30:27.785Z</time></trkpt><trkpt lat="46.0622688" lon="11.8947958"><ele>570.0</ele><time>2026-03-28T11:30:37.782Z</time></trkpt><trkpt lat="46.0622282" lon="11.8947007"><ele>570.0</ele><time>2026-03-28T11:30:48.782Z</time></trkpt><trkpt lat="46.0622132" lon="11.8945999"><ele>570.0</ele><time>2026-03-28T11:30:54.783Z</time></trkpt><trkpt lat="46.0621776" lon="11.8945029"><ele>570.0</ele><time>2026-03-28T11:30:59.783Z</time></trkpt><trkpt lat="46.0621427" lon="11.8944196"><ele>570.0</ele><time>2026-03-28T11:31:03.784Z</time></trkpt><trkpt lat="46.0621184" lon="11.8943106"><ele>570.0</ele><time>2026-03-28T11:31:07.782Z</time></trkpt><trkpt lat="46.062089" lon="11.8942228"><ele>570.0</ele><time>2026-03-28T11:31:10.782Z</time></trkpt><trkpt lat="46.0620656" lon="11.8941384"><ele>570.5</ele><time>2026-03-28T11:31:13.783Z</time></trkpt><trkpt lat="46.0620585" lon="11.8940193"><ele>571.0</ele><time>2026-03-28T11:31:17.782Z</time></trkpt><trkpt lat="46.0620619" lon="11.8939134"><ele>571.5</ele><time>2026-03-28T11:31:20.784Z</time></trkpt><trkpt lat="46.0620618" lon="11.8937975"><ele>572.0</ele><time>2026-03-28T11:31:24.782Z</time></trkpt><trkpt lat="46.06209" lon="11.8936959"><ele>572.5</ele><time>2026-03-28T11:31:28.785Z</time></trkpt><trkpt lat="46.062141" lon="11.8936182"><ele>573.0</ele><time>2026-03-28T11:31:32.783Z</time></trkpt><trkpt lat="46.062183" lon="11.8935303"><ele>573.0</ele><time>2026-03-28T11:31:36.784Z</time></trkpt><trkpt lat="46.0621496" lon="11.8934337"><ele>573.0</ele><time>2026-03-28T11:31:39.785Z</time></trkpt><trkpt lat="46.0620909" lon="11.893349"><ele>573.0</ele><time>2026-03-28T11:31:42.786Z</time></trkpt><trkpt lat="46.0620329" lon="11.8932614"><ele>573.0</ele><time>2026-03-28T11:31:45.782Z</time></trkpt><trkpt lat="46.0619695" lon="11.8931822"><ele>573.0</ele><time>2026-03-28T11:31:48.782Z</time></trkpt><trkpt lat="46.061905" lon="11.8930978"><ele>573.0</ele><time>2026-03-28T11:31:51.781Z</time></trkpt><trkpt lat="46.0618525" lon="11.8930079"><ele>574.8333333333334</ele><time>2026-03-28T11:31:54.782Z</time></trkpt><trkpt lat="46.0617927" lon="11.8929141"><ele>576.6666666666666</ele><time>2026-03-28T11:31:57.782Z</time></trkpt><trkpt lat="46.0617477" lon="11.892825"><ele>578.5</ele><time>2026-03-28T11:32:00.785Z</time></trkpt><trkpt lat="46.0617099" lon="11.8927264"><ele>580.3333333333333</ele><time>2026-03-28T11:32:03.783Z</time></trkpt><trkpt lat="46.0616685" lon="11.8926214"><ele>582.1666666666666</ele><time>2026-03-28T11:32:06.782Z</time></trkpt><trkpt lat="46.0616243" lon="11.8925155"><ele>584.0</ele><time>2026-03-28T11:32:09.784Z</time></trkpt><trkpt lat="46.0615751" lon="11.8924101"><ele>584.0</ele><time>2026-03-28T11:32:12.784Z</time></trkpt><trkpt lat="46.0615285" lon="11.8923079"><ele>584.0</ele><time>2026-03-28T11:32:15.784Z</time></trkpt><trkpt lat="46.0614707" lon="11.8922125"><ele>584.0</ele><time>2026-03-28T11:32:18.782Z</time></trkpt><trkpt lat="46.0614244" lon="11.8921104"><ele>584.0</ele><time>2026-03-28T11:32:21.784Z</time></trkpt><trkpt lat="46.0613779" lon="11.8920101"><ele>584.0</ele><time>2026-03-28T11:32:24.784Z</time></trkpt><trkpt lat="46.0613298" lon="11.891915"><ele>584.0</ele><time>2026-03-28T11:32:27.784Z</time></trkpt><trkpt lat="46.0612879" lon="11.8918191"><ele>585.1666666666666</ele><time>2026-03-28T11:32:30.785Z</time></trkpt><trkpt lat="46.061245" lon="11.8917251"><ele>586.3333333333333</ele><time>2026-03-28T11:32:33.781Z</time></trkpt><trkpt lat="46.0612473" lon="11.891614"><ele>587.5</ele><time>2026-03-28T11:32:36.781Z</time></trkpt><trkpt lat="46.0612889" lon="11.8915078"><ele>588.6666666666666</ele><time>2026-03-28T11:32:39.782Z</time></trkpt><trkpt lat="46.0612997" lon="11.8913907"><ele>589.8333333333334</ele><time>2026-03-28T11:32:42.783Z</time></trkpt><trkpt lat="46.0612822" lon="11.8912896"><ele>591.0</ele><time>2026-03-28T11:32:45.784Z</time></trkpt><trkpt lat="46.0612409" lon="11.8912209"><ele>591.0</ele><time>2026-03-28T11:32:48.781Z</time></trkpt><trkpt lat="46.0611777" lon="11.8911809"><ele>591.0</ele><time>2026-03-28T11:32:51.783Z</time></trkpt><trkpt lat="46.0611052" lon="11.891151"><ele>591.0</ele><time>2026-03-28T11:32:54.781Z</time></trkpt><trkpt lat="46.0610231" lon="11.8910945"><ele>591.0</ele><time>2026-03-28T11:32:57.783Z</time></trkpt><trkpt lat="46.0609603" lon="11.8910303"><ele>591.0</ele><time>2026-03-28T11:32:59.782Z</time></trkpt><trkpt lat="46.0608936" lon="11.890945"><ele>591.0</ele><time>2026-03-28T11:33:01.784Z</time></trkpt><trkpt lat="46.0608181" lon="11.8908533"><ele>590.4</ele><time>2026-03-28T11:33:03.783Z</time></trkpt><trkpt lat="46.0607432" lon="11.8907635"><ele>589.8</ele><time>2026-03-28T11:33:05.782Z</time></trkpt><trkpt lat="46.0606653" lon="11.8906751"><ele>589.1999999999999</ele><time>2026-03-28T11:33:07.782Z</time></trkpt><trkpt lat="46.0605914" lon="11.8905919"><ele>588.6</ele><time>2026-03-28T11:33:09.785Z</time></trkpt><trkpt lat="46.0605195" lon="11.8905237"><ele>588.0</ele><time>2026-03-28T11:33:11.784Z</time></trkpt><trkpt lat="46.0604493" lon="11.8904626"><ele>588.0</ele><time>2026-03-28T11:33:13.78Z</time></trkpt><trkpt lat="46.060387" lon="11.8904034"><ele>588.0</ele><time>2026-03-28T11:33:15.781Z</time></trkpt><trkpt lat="46.0603339" lon="11.8903419"><ele>588.0</ele><time>2026-03-28T11:33:17.782Z</time></trkpt><trkpt lat="46.0602871" lon="11.8902776"><ele>588.0</ele><time>2026-03-28T11:33:19.782Z</time></trkpt><trkpt lat="46.0602402" lon="11.8901565"><ele>588.0</ele><time>2026-03-28T11:33:22.782Z</time></trkpt><trkpt lat="46.0602153" lon="11.8900639"><ele>588.0</ele><time>2026-03-28T11:33:24.782Z</time></trkpt><trkpt lat="46.0601911" lon="11.8899758"><ele>588.0</ele><time>2026-03-28T11:33:26.782Z</time></trkpt><trkpt lat="46.0601562" lon="11.8898988"><ele>588.1666666666666</ele><time>2026-03-28T11:33:28.78Z</time></trkpt><trkpt lat="46.0601106" lon="11.8897999"><ele>588.3333333333334</ele><time>2026-03-28T11:33:31.781Z</time></trkpt><trkpt lat="46.0600686" lon="11.8896941"><ele>588.5</ele><time>2026-03-28T11:33:35.782Z</time></trkpt><trkpt lat="46.0600206" lon="11.8896153"><ele>588.6666666666667</ele><time>2026-03-28T11:33:38.782Z</time></trkpt><trkpt lat="46.0599778" lon="11.8895421"><ele>588.8333333333334</ele><time>2026-03-28T11:33:41.78Z</time></trkpt><trkpt lat="46.0599339" lon="11.8894289"><ele>589.0</ele><time>2026-03-28T11:35:22.781Z</time></trkpt><trkpt lat="46.0598692" lon="11.8893764"><ele>589.0</ele><time>2026-03-28T11:35:25.785Z</time></trkpt><trkpt lat="46.0597905" lon="11.8893065"><ele>589.0</ele><time>2026-03-28T11:35:28.783Z</time></trkpt><trkpt lat="46.059739" lon="11.8892541"><ele>589.0</ele><time>2026-03-28T11:35:30.784Z</time></trkpt><trkpt lat="46.0596657" lon="11.8891812"><ele>589.0</ele><time>2026-03-28T11:35:33.783Z</time></trkpt><trkpt lat="46.0595946" lon="11.8891014"><ele>589.0</ele><time>2026-03-28T11:35:36.782Z</time></trkpt><trkpt lat="46.0595415" lon="11.8890471"><ele>589.0</ele><time>2026-03-28T11:35:38.783Z</time></trkpt><trkpt lat="46.0594845" lon="11.8889768"><ele>589.6666666666667</ele><time>2026-03-28T11:35:40.783Z</time></trkpt><trkpt lat="46.0594237" lon="11.8889187"><ele>590.3333333333334</ele><time>2026-03-28T11:35:42.783Z</time></trkpt><trkpt lat="46.0593637" lon="11.8888651"><ele>591.0</ele><time>2026-03-28T11:35:44.783Z</time></trkpt><trkpt lat="46.0593018" lon="11.8888198"><ele>591.6666666666666</ele><time>2026-03-28T11:35:46.783Z</time></trkpt><trkpt lat="46.0592424" lon="11.8887663"><ele>592.3333333333333</ele><time>2026-03-28T11:35:48.783Z</time></trkpt><trkpt lat="46.0591685" lon="11.8886895"><ele>593.0</ele><time>2026-03-28T11:35:51.785Z</time></trkpt><trkpt lat="46.0591059" lon="11.8885937"><ele>591.8333333333333</ele><time>2026-03-28T11:35:54.783Z</time></trkpt><trkpt lat="46.0590488" lon="11.8885174"><ele>590.6666666666666</ele><time>2026-03-28T11:35:56.783Z</time></trkpt><trkpt lat="46.0589785" lon="11.8884526"><ele>589.5</ele><time>2026-03-28T11:35:58.785Z</time></trkpt><trkpt lat="46.058917" lon="11.8883523"><ele>588.3333333333334</ele><time>2026-03-28T11:36:00.782Z</time></trkpt><trkpt lat="46.0588656" lon="11.8882451"><ele>587.1666666666667</ele><time>2026-03-28T11:36:02.783Z</time></trkpt><trkpt lat="46.0588254" lon="11.8881298"><ele>586.0</ele><time>2026-03-28T11:36:04.783Z</time></trkpt><trkpt lat="46.0587856" lon="11.8879928"><ele>586.0</ele><time>2026-03-28T11:36:06.781Z</time></trkpt><trkpt lat="46.0587476" lon="11.8878792"><ele>586.0</ele><time>2026-03-28T11:36:08.783Z</time></trkpt><trkpt lat="46.0587092" lon="11.8877565"><ele>586.0</ele><time>2026-03-28T11:36:10.783Z</time></trkpt><trkpt lat="46.0586717" lon="11.8876383"><ele>586.0</ele><time>2026-03-28T11:36:12.783Z</time></trkpt><trkpt lat="46.058653" lon="11.8875272"><ele>586.0</ele><time>2026-03-28T11:36:14.782Z</time></trkpt><trkpt lat="46.0586587" lon="11.8874207"><ele>586.0</ele><time>2026-03-28T11:36:16.784Z</time></trkpt><trkpt lat="46.058698" lon="11.8873265"><ele>586.1428571428571</ele><time>2026-03-28T11:36:18.781Z</time></trkpt><trkpt lat="46.0587482" lon="11.8872609"><ele>586.2857142857142</ele><time>2026-03-28T11:36:20.783Z</time></trkpt><trkpt lat="46.0588039" lon="11.8872163"><ele>586.4285714285714</ele><time>2026-03-28T11:36:22.782Z</time></trkpt><trkpt lat="46.0588754" lon="11.8871491"><ele>586.5714285714286</ele><time>2026-03-28T11:36:25.783Z</time></trkpt><trkpt lat="46.05893" lon="11.8871036"><ele>586.7142857142858</ele><time>2026-03-28T11:36:27.784Z</time></trkpt><trkpt lat="46.0590083" lon="11.8870494"><ele>586.8571428571429</ele><time>2026-03-28T11:36:30.785Z</time></trkpt><trkpt lat="46.059071" lon="11.8869985"><ele>587.0</ele><time>2026-03-28T11:36:33.783Z</time></trkpt><trkpt lat="46.059138" lon="11.8869467"><ele>588.0</ele><time>2026-03-28T11:36:37.785Z</time></trkpt><trkpt lat="46.0591934" lon="11.8868939"><ele>589.0</ele><time>2026-03-28T11:36:39.784Z</time></trkpt><trkpt lat="46.0592755" lon="11.8868357"><ele>590.0</ele><time>2026-03-28T11:36:42.783Z</time></trkpt><trkpt lat="46.059327" lon="11.8867817"><ele>591.0</ele><time>2026-03-28T11:36:44.783Z</time></trkpt><trkpt lat="46.0593816" lon="11.8867158"><ele>592.0</ele><time>2026-03-28T11:36:46.783Z</time></trkpt><trkpt lat="46.0594488" lon="11.8866216"><ele>593.0</ele><time>2026-03-28T11:36:49.783Z</time></trkpt><trkpt lat="46.0595085" lon="11.8865239"><ele>593.0</ele><time>2026-03-28T11:36:52.782Z</time></trkpt><trkpt lat="46.0595478" lon="11.8864492"><ele>593.0</ele><time>2026-03-28T11:36:54.783Z</time></trkpt><trkpt lat="46.059603" lon="11.886344"><ele>593.0</ele><time>2026-03-28T11:36:57.783Z</time></trkpt><trkpt lat="46.0596416" lon="11.8862376"><ele>593.0</ele><time>2026-03-28T11:37:00.785Z</time></trkpt><trkpt lat="46.0596848" lon="11.8861198"><ele>593.0</ele><time>2026-03-28T11:37:03.783Z</time></trkpt><trkpt lat="46.0597482" lon="11.8860211"><ele>593.0</ele><time>2026-03-28T11:37:06.781Z</time></trkpt><trkpt lat="46.0598098" lon="11.8859364"><ele>593.0</ele><time>2026-03-28T11:37:09.781Z</time></trkpt><trkpt lat="46.0598711" lon="11.8858639"><ele>593.0</ele><time>2026-03-28T11:37:12.783Z</time></trkpt><trkpt lat="46.0599424" lon="11.885803"><ele>593.0</ele><time>2026-03-28T11:37:15.783Z</time></trkpt><trkpt lat="46.0600033" lon="11.8857308"><ele>593.0</ele><time>2026-03-28T11:37:18.782Z</time></trkpt><trkpt lat="46.0600669" lon="11.8856605"><ele>593.0</ele><time>2026-03-28T11:37:21.783Z</time></trkpt><trkpt lat="46.060116" lon="11.8855533"><ele>593.0</ele><time>2026-03-28T11:37:24.783Z</time></trkpt><trkpt lat="46.0601141" lon="11.8854329"><ele>595.5</ele><time>2026-03-28T11:37:27.782Z</time></trkpt><trkpt lat="46.0600985" lon="11.8853193"><ele>598.0</ele><time>2026-03-28T11:37:30.78Z</time></trkpt><trkpt lat="46.0600596" lon="11.8852216"><ele>600.5</ele><time>2026-03-28T11:37:33.78Z</time></trkpt><trkpt lat="46.0600356" lon="11.8851136"><ele>603.0</ele><time>2026-03-28T11:37:36.781Z</time></trkpt><trkpt lat="46.0600399" lon="11.8849963"><ele>605.5</ele><time>2026-03-28T11:37:39.781Z</time></trkpt><trkpt lat="46.060082" lon="11.8848764"><ele>608.0</ele><time>2026-03-28T11:37:42.781Z</time></trkpt><trkpt lat="46.0601147" lon="11.8847927"><ele>608.6666666666666</ele><time>2026-03-28T11:37:44.78Z</time></trkpt><trkpt lat="46.060143" lon="11.884683"><ele>609.3333333333333</ele><time>2026-03-28T11:37:47.782Z</time></trkpt><trkpt lat="46.0601769" lon="11.8845806"><ele>610.0</ele><time>2026-03-28T11:37:50.783Z</time></trkpt><trkpt lat="46.0602056" lon="11.8844591"><ele>610.6666666666666</ele><time>2026-03-28T11:37:53.783Z</time></trkpt><trkpt lat="46.0602359" lon="11.8843359"><ele>611.3333333333334</ele><time>2026-03-28T11:37:56.784Z</time></trkpt><trkpt lat="46.060252" lon="11.8842469"><ele>612.0</ele><time>2026-03-28T11:37:58.78Z</time></trkpt><trkpt lat="46.0602685" lon="11.8841575"><ele>612.4285714285714</ele><time>2026-03-28T11:38:00.781Z</time></trkpt><trkpt lat="46.0602872" lon="11.8840258"><ele>612.8571428571429</ele><time>2026-03-28T11:38:03.782Z</time></trkpt><trkpt lat="46.0602991" lon="11.8839358"><ele>613.2857142857142</ele><time>2026-03-28T11:38:05.785Z</time></trkpt><trkpt lat="46.060309" lon="11.8838414"><ele>613.7142857142858</ele><time>2026-03-28T11:38:07.782Z</time></trkpt><trkpt lat="46.0603209" lon="11.8837512"><ele>614.1428571428572</ele><time>2026-03-28T11:38:09.782Z</time></trkpt><trkpt lat="46.0603296" lon="11.88366"><ele>614.5714285714286</ele><time>2026-03-28T11:38:11.78Z</time></trkpt><trkpt lat="46.0603371" lon="11.8835346"><ele>615.0</ele><time>2026-03-28T11:38:14.782Z</time></trkpt><trkpt lat="46.0603348" lon="11.8834149"><ele>615.5</ele><time>2026-03-28T11:38:17.782Z</time></trkpt><trkpt lat="46.0603408" lon="11.8832938"><ele>616.0</ele><time>2026-03-28T11:38:20.782Z</time></trkpt><trkpt lat="46.06036" lon="11.8831707"><ele>616.5</ele><time>2026-03-28T11:38:23.783Z</time></trkpt><trkpt lat="46.0603789" lon="11.8830496"><ele>617.0</ele><time>2026-03-28T11:38:26.784Z</time></trkpt><trkpt lat="46.0604051" lon="11.8829431"><ele>617.5</ele><time>2026-03-28T11:38:29.783Z</time></trkpt><trkpt lat="46.0604303" lon="11.8828394"><ele>618.0</ele><time>2026-03-28T11:38:32.784Z</time></trkpt><trkpt lat="46.0604429" lon="11.8827339"><ele>618.0</ele><time>2026-03-28T11:38:35.783Z</time></trkpt><trkpt lat="46.0604575" lon="11.8826198"><ele>618.0</ele><time>2026-03-28T11:38:38.785Z</time></trkpt><trkpt lat="46.0604631" lon="11.882515"><ele>618.0</ele><time>2026-03-28T11:38:41.782Z</time></trkpt><trkpt lat="46.0604743" lon="11.8824054"><ele>618.0</ele><time>2026-03-28T11:38:44.783Z</time></trkpt><trkpt lat="46.0604792" lon="11.8822726"><ele>618.0</ele><time>2026-03-28T11:38:47.782Z</time></trkpt><trkpt lat="46.0604913" lon="11.8821576"><ele>618.0</ele><time>2026-03-28T11:38:50.783Z</time></trkpt><trkpt lat="46.0605182" lon="11.8820608"><ele>618.3333333333334</ele><time>2026-03-28T11:38:53.785Z</time></trkpt><trkpt lat="46.0605619" lon="11.8819706"><ele>618.6666666666666</ele><time>2026-03-28T11:38:56.781Z</time></trkpt><trkpt lat="46.0606084" lon="11.8819083"><ele>619.0</ele><time>2026-03-28T11:38:59.782Z</time></trkpt><trkpt lat="46.060659" lon="11.8818055"><ele>619.3333333333333</ele><time>2026-03-28T11:39:02.783Z</time></trkpt><trkpt lat="46.0606857" lon="11.8816935"><ele>619.6666666666666</ele><time>2026-03-28T11:39:05.783Z</time></trkpt><trkpt lat="46.060705" lon="11.8815635"><ele>620.0</ele><time>2026-03-28T11:39:08.786Z</time></trkpt><trkpt lat="46.0607037" lon="11.8814669"><ele>620.4285714285714</ele><time>2026-03-28T11:39:10.785Z</time></trkpt><trkpt lat="46.0606932" lon="11.8813704"><ele>620.8571428571429</ele><time>2026-03-28T11:39:12.783Z</time></trkpt><trkpt lat="46.0606755" lon="11.8812399"><ele>621.2857142857142</ele><time>2026-03-28T11:39:15.782Z</time></trkpt><trkpt lat="46.0606681" lon="11.8811421"><ele>621.7142857142858</ele><time>2026-03-28T11:39:17.783Z</time></trkpt><trkpt lat="46.0606505" lon="11.8810324"><ele>622.1428571428571</ele><time>2026-03-28T11:39:20.783Z</time></trkpt><trkpt lat="46.0606537" lon="11.8809309"><ele>622.5714285714286</ele><time>2026-03-28T11:39:23.783Z</time></trkpt><trkpt lat="46.0606437" lon="11.880837"><ele>623.0</ele><time>2026-03-28T11:39:25.782Z</time></trkpt><trkpt lat="46.0606347" lon="11.8807403"><ele>623.1666666666666</ele><time>2026-03-28T11:39:27.781Z</time></trkpt><trkpt lat="46.0606283" lon="11.880615"><ele>623.3333333333333</ele><time>2026-03-28T11:39:30.782Z</time></trkpt><trkpt lat="46.0606233" lon="11.8804985"><ele>623.5</ele><time>2026-03-28T11:39:33.785Z</time></trkpt><trkpt lat="46.0606248" lon="11.8803975"><ele>623.6666666666666</ele><time>2026-03-28T11:39:35.783Z</time></trkpt><trkpt lat="46.0606443" lon="11.8802697"><ele>623.8333333333334</ele><time>2026-03-28T11:39:38.783Z</time></trkpt><trkpt lat="46.0606592" lon="11.8801581"><ele>624.0</ele><time>2026-03-28T11:39:41.783Z</time></trkpt><trkpt lat="46.0606742" lon="11.8800367"><ele>624.5714285714286</ele><time>2026-03-28T11:39:44.782Z</time></trkpt><trkpt lat="46.0606974" lon="11.8799344"><ele>625.1428571428571</ele><time>2026-03-28T11:39:47.782Z</time></trkpt><trkpt lat="46.0607183" lon="11.8798355"><ele>625.7142857142857</ele><time>2026-03-28T11:39:50.784Z</time></trkpt><trkpt lat="46.0607373" lon="11.8797334"><ele>626.2857142857142</ele><time>2026-03-28T11:39:53.783Z</time></trkpt><trkpt lat="46.0607489" lon="11.8796376"><ele>626.8571428571429</ele><time>2026-03-28T11:39:56.783Z</time></trkpt><trkpt lat="46.0607697" lon="11.8795391"><ele>627.4285714285713</ele><time>2026-03-28T11:39:59.783Z</time></trkpt><trkpt lat="46.0607798" lon="11.879437"><ele>628.0</ele><time>2026-03-28T11:40:02.783Z</time></trkpt><trkpt lat="46.0607859" lon="11.8793338"><ele>634.5714285714286</ele><time>2026-03-28T11:40:05.782Z</time></trkpt><trkpt lat="46.0607924" lon="11.8792295"><ele>641.1428571428571</ele><time>2026-03-28T11:40:08.783Z</time></trkpt><trkpt lat="46.0608005" lon="11.8791184"><ele>647.7142857142858</ele><time>2026-03-28T11:40:11.783Z</time></trkpt><trkpt lat="46.0608318" lon="11.8790288"><ele>654.2857142857142</ele><time>2026-03-28T11:40:14.783Z</time></trkpt><trkpt lat="46.0608697" lon="11.8789453"><ele>660.8571428571429</ele><time>2026-03-28T11:40:17.783Z</time></trkpt><trkpt lat="46.0608991" lon="11.8788523"><ele>667.4285714285714</ele><time>2026-03-28T11:40:20.783Z</time></trkpt><trkpt lat="46.060957" lon="11.8787561"><ele>674.0</ele><time>2026-03-28T11:40:23.78Z</time></trkpt><trkpt lat="46.0609993" lon="11.8786704"><ele>674.0</ele><time>2026-03-28T11:40:26.783Z</time></trkpt><trkpt lat="46.0610417" lon="11.8785944"><ele>674.0</ele><time>2026-03-28T11:40:29.782Z</time></trkpt><trkpt lat="46.0610924" lon="11.8784868"><ele>674.0</ele><time>2026-03-28T11:40:32.783Z</time></trkpt><trkpt lat="46.0611505" lon="11.8784006"><ele>674.0</ele><time>2026-03-28T11:40:35.783Z</time></trkpt><trkpt lat="46.0612004" lon="11.8782977"><ele>674.0</ele><time>2026-03-28T11:40:38.783Z</time></trkpt><trkpt lat="46.0612466" lon="11.8782042"><ele>674.0</ele><time>2026-03-28T11:40:41.783Z</time></trkpt><trkpt lat="46.0612965" lon="11.8781253"><ele>672.3333333333333</ele><time>2026-03-28T11:40:44.785Z</time></trkpt><trkpt lat="46.061349" lon="11.878038"><ele>670.6666666666666</ele><time>2026-03-28T11:40:47.783Z</time></trkpt><trkpt lat="46.0613921" lon="11.877937"><ele>669.0</ele><time>2026-03-28T11:40:50.783Z</time></trkpt><trkpt lat="46.0614519" lon="11.8778745"><ele>667.3333333333334</ele><time>2026-03-28T11:40:53.784Z</time></trkpt><trkpt lat="46.0615062" lon="11.8777997"><ele>665.6666666666667</ele><time>2026-03-28T11:40:56.784Z</time></trkpt><trkpt lat="46.0615607" lon="11.8777245"><ele>664.0</ele><time>2026-03-28T11:40:59.782Z</time></trkpt><trkpt lat="46.061617" lon="11.8776564"><ele>668.1666666666667</ele><time>2026-03-28T11:41:02.783Z</time></trkpt><trkpt lat="46.0616812" lon="11.8776062"><ele>672.3333333333334</ele><time>2026-03-28T11:41:05.785Z</time></trkpt><trkpt lat="46.0617432" lon="11.8775336"><ele>676.5</ele><time>2026-03-28T11:41:08.783Z</time></trkpt><trkpt lat="46.061788" lon="11.8774689"><ele>680.6666666666666</ele><time>2026-03-28T11:41:10.782Z</time></trkpt><trkpt lat="46.0618421" lon="11.8773698"><ele>684.8333333333333</ele><time>2026-03-28T11:41:13.785Z</time></trkpt><trkpt lat="46.0619114" lon="11.87729"><ele>689.0</ele><time>2026-03-28T11:41:17.783Z</time></trkpt><trkpt lat="46.0619733" lon="11.877208"><ele>689.0</ele><time>2026-03-28T11:41:20.783Z</time></trkpt><trkpt lat="46.0620304" lon="11.877149"><ele>689.0</ele><time>2026-03-28T11:41:23.784Z</time></trkpt><trkpt lat="46.0620928" lon="11.8771083"><ele>689.0</ele><time>2026-03-28T11:41:26.782Z</time></trkpt><trkpt lat="46.0621541" lon="11.8770302"><ele>689.0</ele><time>2026-03-28T11:41:30.785Z</time></trkpt><trkpt lat="46.0622176" lon="11.8769977"><ele>689.0</ele><time>2026-03-28T11:41:33.782Z</time></trkpt><trkpt lat="46.0622809" lon="11.876964"><ele>689.0</ele><time>2026-03-28T11:41:36.784Z</time></trkpt><trkpt lat="46.0623639" lon="11.8769238"><ele>689.0</ele><time>2026-03-28T11:41:40.784Z</time></trkpt><trkpt lat="46.062439" lon="11.8768685"><ele>692.1666666666666</ele><time>2026-03-28T11:41:43.784Z</time></trkpt><trkpt lat="46.0625066" lon="11.8768309"><ele>695.3333333333333</ele><time>2026-03-28T11:41:46.785Z</time></trkpt><trkpt lat="46.0625677" lon="11.8767737"><ele>698.5</ele><time>2026-03-28T11:41:49.785Z</time></trkpt><trkpt lat="46.0626299" lon="11.8767304"><ele>701.6666666666666</ele><time>2026-03-28T11:41:52.785Z</time></trkpt><trkpt lat="46.0626933" lon="11.8766845"><ele>704.8333333333334</ele><time>2026-03-28T11:41:55.781Z</time></trkpt><trkpt lat="46.0627647" lon="11.876632"><ele>708.0</ele><time>2026-03-28T11:41:58.784Z</time></trkpt><trkpt lat="46.0628446" lon="11.8765929"><ele>708.0</ele><time>2026-03-28T11:42:01.782Z</time></trkpt><trkpt lat="46.0629193" lon="11.8765476"><ele>708.0</ele><time>2026-03-28T11:42:04.783Z</time></trkpt><trkpt lat="46.0629962" lon="11.8765164"><ele>708.0</ele><time>2026-03-28T11:42:07.782Z</time></trkpt><trkpt lat="46.0630689" lon="11.8764876"><ele>708.0</ele><time>2026-03-28T11:42:10.783Z</time></trkpt><trkpt lat="46.063149" lon="11.8765189"><ele>708.0</ele><time>2026-03-28T11:42:14.783Z</time></trkpt><trkpt lat="46.0632347" lon="11.8765321"><ele>708.0</ele><time>2026-03-28T11:42:17.785Z</time></trkpt><trkpt lat="46.0632989" lon="11.87655"><ele>711.1666666666666</ele><time>2026-03-28T11:42:20.784Z</time></trkpt><trkpt lat="46.0633728" lon="11.8765758"><ele>714.3333333333334</ele><time>2026-03-28T11:42:23.783Z</time></trkpt><trkpt lat="46.0634349" lon="11.8765959"><ele>717.5</ele><time>2026-03-28T11:42:25.782Z</time></trkpt><trkpt lat="46.0635047" lon="11.8766078"><ele>720.6666666666667</ele><time>2026-03-28T11:42:27.784Z</time></trkpt><trkpt lat="46.0635988" lon="11.8766187"><ele>723.8333333333334</ele><time>2026-03-28T11:42:29.782Z</time></trkpt><trkpt lat="46.0636795" lon="11.8766295"><ele>727.0</ele><time>2026-03-28T11:42:31.783Z</time></trkpt><trkpt lat="46.0637743" lon="11.8766376"><ele>727.0</ele><time>2026-03-28T11:42:33.783Z</time></trkpt><trkpt lat="46.0639518" lon="11.8766503"><ele>727.0</ele><time>2026-03-28T11:42:37.783Z</time></trkpt><trkpt lat="46.0640364" lon="11.8766891"><ele>727.0</ele><time>2026-03-28T11:42:39.782Z</time></trkpt><trkpt lat="46.0641247" lon="11.8767141"><ele>727.0</ele><time>2026-03-28T11:42:41.782Z</time></trkpt><trkpt lat="46.0642105" lon="11.8767293"><ele>727.0</ele><time>2026-03-28T11:42:43.782Z</time></trkpt><trkpt lat="46.0642808" lon="11.8767495"><ele>730.6666666666667</ele><time>2026-03-28T11:42:45.784Z</time></trkpt><trkpt lat="46.0643613" lon="11.8767755"><ele>734.3333333333334</ele><time>2026-03-28T11:42:47.783Z</time></trkpt><trkpt lat="46.0644406" lon="11.876797"><ele>738.0</ele><time>2026-03-28T11:42:49.783Z</time></trkpt><trkpt lat="46.0645178" lon="11.8767993"><ele>741.6666666666666</ele><time>2026-03-28T11:42:51.782Z</time></trkpt><trkpt lat="46.0645968" lon="11.8768012"><ele>745.3333333333333</ele><time>2026-03-28T11:42:53.782Z</time></trkpt><trkpt lat="46.0646751" lon="11.8768115"><ele>749.0</ele><time>2026-03-28T11:42:55.783Z</time></trkpt><trkpt lat="46.0647534" lon="11.876818"><ele>749.0</ele><time>2026-03-28T11:42:57.784Z</time></trkpt><trkpt lat="46.0649259" lon="11.8768172"><ele>749.0</ele><time>2026-03-28T11:43:01.782Z</time></trkpt><trkpt lat="46.0650089" lon="11.8768124"><ele>749.0</ele><time>2026-03-28T11:43:03.782Z</time></trkpt><trkpt lat="46.0650961" lon="11.8768051"><ele>749.0</ele><time>2026-03-28T11:43:05.783Z</time></trkpt><trkpt lat="46.065265" lon="11.8768054"><ele>747.75</ele><time>2026-03-28T11:43:09.784Z</time></trkpt><trkpt lat="46.0653485" lon="11.8768111"><ele>746.5</ele><time>2026-03-28T11:43:11.783Z</time></trkpt><trkpt lat="46.0655223" lon="11.8768059"><ele>745.25</ele><time>2026-03-28T11:43:15.783Z</time></trkpt><trkpt lat="46.0656515" lon="11.8768012"><ele>744.0</ele><time>2026-03-28T11:43:18.782Z</time></trkpt><trkpt lat="46.0657385" lon="11.8767974"><ele>744.8000000000001</ele><time>2026-03-28T11:43:20.782Z</time></trkpt><trkpt lat="46.0659115" lon="11.8767939"><ele>745.6</ele><time>2026-03-28T11:43:24.782Z</time></trkpt><trkpt lat="46.0659938" lon="11.8767717"><ele>746.4</ele><time>2026-03-28T11:43:26.781Z</time></trkpt><trkpt lat="46.0660808" lon="11.8767643"><ele>747.2</ele><time>2026-03-28T11:43:28.78Z</time></trkpt><trkpt lat="46.0661747" lon="11.876754"><ele>748.0</ele><time>2026-03-28T11:43:30.785Z</time></trkpt><trkpt lat="46.0662749" lon="11.8767271"><ele>742.8</ele><time>2026-03-28T11:43:32.782Z</time></trkpt><trkpt lat="46.0663759" lon="11.8766966"><ele>737.5999999999999</ele><time>2026-03-28T11:43:34.785Z</time></trkpt><trkpt lat="46.0664693" lon="11.8766659"><ele>732.4000000000001</ele><time>2026-03-28T11:43:36.781Z</time></trkpt><trkpt lat="46.0665591" lon="11.8766265"><ele>727.2</ele><time>2026-03-28T11:43:38.782Z</time></trkpt><trkpt lat="46.0666424" lon="11.8765766"><ele>722.0</ele><time>2026-03-28T11:43:40.782Z</time></trkpt><trkpt lat="46.066724" lon="11.8765296"><ele>722.0</ele><time>2026-03-28T11:43:42.785Z</time></trkpt><trkpt lat="46.0668145" lon="11.8765008"><ele>722.0</ele><time>2026-03-28T11:43:44.781Z</time></trkpt><trkpt lat="46.0668976" lon="11.8764783"><ele>722.0</ele><time>2026-03-28T11:43:46.782Z</time></trkpt><trkpt lat="46.0669799" lon="11.8764672"><ele>722.0</ele><time>2026-03-28T11:43:48.782Z</time></trkpt><trkpt lat="46.0670555" lon="11.8764595"><ele>722.0</ele><time>2026-03-28T11:43:50.783Z</time></trkpt><trkpt lat="46.0671298" lon="11.8764484"><ele>722.0</ele><time>2026-03-28T11:43:52.78Z</time></trkpt><trkpt lat="46.0672013" lon="11.8764301"><ele>722.0</ele><time>2026-03-28T11:43:54.782Z</time></trkpt><trkpt lat="46.06728" lon="11.8764095"><ele>722.0</ele><time>2026-03-28T11:43:56.786Z</time></trkpt><trkpt lat="46.0673564" lon="11.8763884"><ele>722.0</ele><time>2026-03-28T11:43:58.782Z</time></trkpt><trkpt lat="46.0674283" lon="11.8763708"><ele>722.0</ele><time>2026-03-28T11:44:00.782Z</time></trkpt><trkpt lat="46.0675092" lon="11.8763517"><ele>722.0</ele><time>2026-03-28T11:44:02.783Z</time></trkpt><trkpt lat="46.0675899" lon="11.8763224"><ele>722.0</ele><time>2026-03-28T11:44:04.782Z</time></trkpt><trkpt lat="46.0676748" lon="11.8762996"><ele>722.8333333333333</ele><time>2026-03-28T11:44:06.781Z</time></trkpt><trkpt lat="46.0677769" lon="11.8762763"><ele>723.6666666666666</ele><time>2026-03-28T11:44:08.783Z</time></trkpt><trkpt lat="46.0678648" lon="11.8762465"><ele>724.5</ele><time>2026-03-28T11:44:10.783Z</time></trkpt><trkpt lat="46.0679414" lon="11.8762205"><ele>725.3333333333334</ele><time>2026-03-28T11:44:12.784Z</time></trkpt><trkpt lat="46.0680178" lon="11.8761874"><ele>726.1666666666667</ele><time>2026-03-28T11:44:14.786Z</time></trkpt><trkpt lat="46.0680984" lon="11.8761579"><ele>727.0</ele><time>2026-03-28T11:44:16.785Z</time></trkpt><trkpt lat="46.0681764" lon="11.8761207"><ele>727.0</ele><time>2026-03-28T11:44:18.782Z</time></trkpt><trkpt lat="46.068261" lon="11.8760778"><ele>727.0</ele><time>2026-03-28T11:44:20.783Z</time></trkpt><trkpt lat="46.0683378" lon="11.8760428"><ele>727.0</ele><time>2026-03-28T11:44:22.783Z</time></trkpt><trkpt lat="46.068413" lon="11.8760068"><ele>727.0</ele><time>2026-03-28T11:44:24.781Z</time></trkpt><trkpt lat="46.0684811" lon="11.8759626"><ele>727.0</ele><time>2026-03-28T11:44:26.783Z</time></trkpt><trkpt lat="46.0685591" lon="11.87592"><ele>727.0</ele><time>2026-03-28T11:44:28.782Z</time></trkpt><trkpt lat="46.0686344" lon="11.8758857"><ele>726.0</ele><time>2026-03-28T11:44:30.782Z</time></trkpt><trkpt lat="46.0687043" lon="11.8758374"><ele>725.0</ele><time>2026-03-28T11:44:32.785Z</time></trkpt><trkpt lat="46.0687719" lon="11.8757902"><ele>724.0</ele><time>2026-03-28T11:44:34.783Z</time></trkpt><trkpt lat="46.0688356" lon="11.8757562"><ele>723.0</ele><time>2026-03-28T11:44:36.783Z</time></trkpt><trkpt lat="46.0689011" lon="11.8757177"><ele>722.0</ele><time>2026-03-28T11:44:38.783Z</time></trkpt><trkpt lat="46.0689707" lon="11.8756487"><ele>721.0</ele><time>2026-03-28T11:44:41.785Z</time></trkpt><trkpt lat="46.0690203" lon="11.8755594"><ele>721.0</ele><time>2026-03-28T11:44:44.782Z</time></trkpt><trkpt lat="46.0690688" lon="11.8754567"><ele>721.0</ele><time>2026-03-28T11:44:47.781Z</time></trkpt><trkpt lat="46.0691138" lon="11.8753783"><ele>721.0</ele><time>2026-03-28T11:44:49.781Z</time></trkpt><trkpt lat="46.0691887" lon="11.8752992"><ele>721.0</ele><time>2026-03-28T11:44:52.785Z</time></trkpt><trkpt lat="46.0692526" lon="11.8752163"><ele>721.0</ele><time>2026-03-28T11:44:55.782Z</time></trkpt><trkpt lat="46.0692935" lon="11.8751119"><ele>721.0</ele><time>2026-03-28T11:44:58.78Z</time></trkpt><trkpt lat="46.0692873" lon="11.8750094"><ele>725.0</ele><time>2026-03-28T11:45:02.783Z</time></trkpt><trkpt lat="46.069233" lon="11.8749401"><ele>725.0</ele><time>2026-03-28T11:45:07.781Z</time></trkpt><trkpt lat="46.0691742" lon="11.874987"><ele>725.0</ele><time>2026-03-28T11:45:15.781Z</time></trkpt><trkpt lat="46.069122" lon="11.8750431"><ele>725.0</ele><time>2026-03-28T11:45:20.783Z</time></trkpt></trkseg><trkseg><trkpt lat="46.0736331" lon="11.8738681"><ele>743.0</ele><time>2026-03-28T11:51:48.782Z</time></trkpt><trkpt lat="46.0737014" lon="11.873855"><ele>743.0</ele><time>2026-03-28T11:51:51.782Z</time></trkpt><trkpt lat="46.0738484" lon="11.8738637"><ele>743.0</ele><time>2026-03-28T11:51:57.782Z</time></trkpt><trkpt lat="46.0739353" lon="11.8739079"><ele>743.0</ele><time>2026-03-28T11:52:01.781Z</time></trkpt><trkpt lat="46.074014" lon="11.8739463"><ele>743.0</ele><time>2026-03-28T11:52:04.782Z</time></trkpt><trkpt lat="46.0740921" lon="11.8739855"><ele>745.0</ele><time>2026-03-28T11:52:07.782Z</time></trkpt><trkpt lat="46.074161" lon="11.8740058"><ele>747.0</ele><time>2026-03-28T11:52:09.781Z</time></trkpt><trkpt lat="46.0742605" lon="11.874012"><ele>749.0</ele><time>2026-03-28T11:52:11.782Z</time></trkpt><trkpt lat="46.0743574" lon="11.8740171"><ele>751.0</ele><time>2026-03-28T11:52:13.783Z</time></trkpt><trkpt lat="46.0744733" lon="11.8740247"><ele>753.0</ele><time>2026-03-28T11:52:15.786Z</time></trkpt><trkpt lat="46.0745618" lon="11.8740331"><ele>753.0</ele><time>2026-03-28T11:52:17.782Z</time></trkpt><trkpt lat="46.0746325" lon="11.8740728"><ele>753.0</ele><time>2026-03-28T11:52:21.781Z</time></trkpt><trkpt lat="46.0747517" lon="11.8740717"><ele>753.0</ele><time>2026-03-28T11:52:26.783Z</time></trkpt><trkpt lat="46.0748476" lon="11.8740283"><ele>753.0</ele><time>2026-03-28T11:52:28.785Z</time></trkpt><trkpt lat="46.0749387" lon="11.8739837"><ele>753.0</ele><time>2026-03-28T11:52:30.785Z</time></trkpt><trkpt lat="46.0750202" lon="11.8739348"><ele>753.6666666666666</ele><time>2026-03-28T11:52:32.783Z</time></trkpt><trkpt lat="46.0751211" lon="11.8738811"><ele>754.3333333333334</ele><time>2026-03-28T11:52:34.783Z</time></trkpt><trkpt lat="46.0751921" lon="11.8738348"><ele>755.0</ele><time>2026-03-28T11:52:36.788Z</time></trkpt><trkpt lat="46.0751991" lon="11.8737149"><ele>755.6666666666667</ele><time>2026-03-28T11:52:38.782Z</time></trkpt><trkpt lat="46.0751811" lon="11.8735915"><ele>756.3333333333334</ele><time>2026-03-28T11:52:40.782Z</time></trkpt><trkpt lat="46.075145" lon="11.873492"><ele>757.0</ele><time>2026-03-28T11:52:42.782Z</time></trkpt><trkpt lat="46.0750872" lon="11.8733844"><ele>757.0</ele><time>2026-03-28T11:52:45.785Z</time></trkpt><trkpt lat="46.0750712" lon="11.8732555"><ele>757.0</ele><time>2026-03-28T11:52:48.782Z</time></trkpt><trkpt lat="46.07507" lon="11.8731464"><ele>757.0</ele><time>2026-03-28T11:52:50.782Z</time></trkpt><trkpt lat="46.0750763" lon="11.8730303"><ele>757.0</ele><time>2026-03-28T11:52:53.786Z</time></trkpt><trkpt lat="46.0750842" lon="11.8729089"><ele>757.0</ele><time>2026-03-28T11:52:56.785Z</time></trkpt><trkpt lat="46.0751182" lon="11.8727909"><ele>757.0</ele><time>2026-03-28T11:52:59.782Z</time></trkpt><trkpt lat="46.0751212" lon="11.8726759"><ele>757.6666666666667</ele><time>2026-03-28T11:53:02.783Z</time></trkpt><trkpt lat="46.0751159" lon="11.8725724"><ele>758.3333333333334</ele><time>2026-03-28T11:53:05.782Z</time></trkpt><trkpt lat="46.0751068" lon="11.8724627"><ele>759.0</ele><time>2026-03-28T11:53:08.783Z</time></trkpt><trkpt lat="46.075104" lon="11.8723287"><ele>759.6666666666666</ele><time>2026-03-28T11:53:11.785Z</time></trkpt><trkpt lat="46.0751205" lon="11.872198"><ele>760.3333333333333</ele><time>2026-03-28T11:53:14.783Z</time></trkpt><trkpt lat="46.0751449" lon="11.8720698"><ele>761.0</ele><time>2026-03-28T11:53:17.781Z</time></trkpt><trkpt lat="46.0751474" lon="11.8719254"><ele>760.9999999999999</ele><time>2026-03-28T11:53:20.783Z</time></trkpt><trkpt lat="46.0751382" lon="11.8718271"><ele>761.0</ele><time>2026-03-28T11:53:24.782Z</time></trkpt><trkpt lat="46.0750927" lon="11.8717495"><ele>761.0</ele><time>2026-03-28T11:53:28.782Z</time></trkpt><trkpt lat="46.0750258" lon="11.8717181"><ele>761.0</ele><time>2026-03-28T11:53:31.781Z</time></trkpt><trkpt lat="46.0749585" lon="11.8717289"><ele>761.0</ele><time>2026-03-28T11:53:34.781Z</time></trkpt><trkpt lat="46.0748862" lon="11.8717571"><ele>760.9999999999999</ele><time>2026-03-28T11:53:37.782Z</time></trkpt><trkpt lat="46.0748195" lon="11.8717328"><ele>761.0</ele><time>2026-03-28T11:53:40.781Z</time></trkpt><trkpt lat="46.0747422" lon="11.8717495"><ele>760.0</ele><time>2026-03-28T11:53:44.783Z</time></trkpt><trkpt lat="46.0746825" lon="11.8717859"><ele>759.0</ele><time>2026-03-28T11:53:46.782Z</time></trkpt><trkpt lat="46.0746231" lon="11.871837"><ele>758.0</ele><time>2026-03-28T11:53:48.782Z</time></trkpt><trkpt lat="46.0745412" lon="11.8718369"><ele>757.0</ele><time>2026-03-28T11:53:51.781Z</time></trkpt><trkpt lat="46.0744562" lon="11.8718061"><ele>756.0</ele><time>2026-03-28T11:53:54.782Z</time></trkpt><trkpt lat="46.0743925" lon="11.8717705"><ele>755.0</ele><time>2026-03-28T11:53:57.788Z</time></trkpt><trkpt lat="46.0743148" lon="11.8717196"><ele>755.0</ele><time>2026-03-28T11:54:00.785Z</time></trkpt><trkpt lat="46.0742335" lon="11.871687"><ele>755.0</ele><time>2026-03-28T11:54:03.785Z</time></trkpt><trkpt lat="46.0741624" lon="11.8716889"><ele>755.0</ele><time>2026-03-28T11:54:05.781Z</time></trkpt><trkpt lat="46.0740828" lon="11.8716682"><ele>755.0</ele><time>2026-03-28T11:54:07.782Z</time></trkpt><trkpt lat="46.0740116" lon="11.8716238"><ele>755.0</ele><time>2026-03-28T11:54:09.785Z</time></trkpt><trkpt lat="46.0739393" lon="11.871586"><ele>755.0</ele><time>2026-03-28T11:54:11.781Z</time></trkpt><trkpt lat="46.073876" lon="11.8715432"><ele>752.3333333333333</ele><time>2026-03-28T11:54:13.783Z</time></trkpt><trkpt lat="46.0738193" lon="11.8715004"><ele>749.6666666666666</ele><time>2026-03-28T11:54:15.785Z</time></trkpt><trkpt lat="46.0737439" lon="11.8714223"><ele>747.0</ele><time>2026-03-28T11:54:18.783Z</time></trkpt><trkpt lat="46.0736735" lon="11.8713301"><ele>744.3333333333334</ele><time>2026-03-28T11:54:21.787Z</time></trkpt><trkpt lat="46.0736271" lon="11.8712506"><ele>741.6666666666667</ele><time>2026-03-28T11:54:23.785Z</time></trkpt><trkpt lat="46.0735714" lon="11.871159"><ele>739.0</ele><time>2026-03-28T11:54:25.785Z</time></trkpt><trkpt lat="46.0735163" lon="11.8710853"><ele>739.0</ele><time>2026-03-28T11:54:28.781Z</time></trkpt><trkpt lat="46.0734778" lon="11.8709815"><ele>739.0</ele><time>2026-03-28T11:54:32.783Z</time></trkpt><trkpt lat="46.0734351" lon="11.8709077"><ele>739.0</ele><time>2026-03-28T11:54:35.785Z</time></trkpt><trkpt lat="46.0733855" lon="11.8708298"><ele>739.0</ele><time>2026-03-28T11:54:37.785Z</time></trkpt><trkpt lat="46.0733263" lon="11.870757"><ele>739.0</ele><time>2026-03-28T11:54:39.783Z</time></trkpt><trkpt lat="46.0732664" lon="11.8707054"><ele>739.0</ele><time>2026-03-28T11:54:41.782Z</time></trkpt><trkpt lat="46.0731974" lon="11.8706483"><ele>739.0</ele><time>2026-03-28T11:54:43.782Z</time></trkpt><trkpt lat="46.0731314" lon="11.8705949"><ele>738.3333333333334</ele><time>2026-03-28T11:54:45.781Z</time></trkpt><trkpt lat="46.0730686" lon="11.870561"><ele>737.6666666666667</ele><time>2026-03-28T11:54:47.782Z</time></trkpt><trkpt lat="46.0729893" lon="11.870482"><ele>737.0</ele><time>2026-03-28T11:54:50.782Z</time></trkpt><trkpt lat="46.0729314" lon="11.8704201"><ele>736.3333333333334</ele><time>2026-03-28T11:54:52.782Z</time></trkpt><trkpt lat="46.0728831" lon="11.8703566"><ele>735.6666666666666</ele><time>2026-03-28T11:54:54.782Z</time></trkpt><trkpt lat="46.0728314" lon="11.8702829"><ele>735.0</ele><time>2026-03-28T11:54:56.783Z</time></trkpt><trkpt lat="46.0727771" lon="11.8701831"><ele>735.0</ele><time>2026-03-28T11:54:59.784Z</time></trkpt><trkpt lat="46.0727379" lon="11.8701084"><ele>735.0</ele><time>2026-03-28T11:55:01.783Z</time></trkpt><trkpt lat="46.0726762" lon="11.870052"><ele>735.0</ele><time>2026-03-28T11:55:03.782Z</time></trkpt><trkpt lat="46.072593" lon="11.8700169"><ele>735.0</ele><time>2026-03-28T11:55:06.782Z</time></trkpt><trkpt lat="46.0725249" lon="11.8700506"><ele>735.0</ele><time>2026-03-28T11:55:10.781Z</time></trkpt><trkpt lat="46.0724508" lon="11.8700876"><ele>735.0</ele><time>2026-03-28T11:55:13.782Z</time></trkpt><trkpt lat="46.0723988" lon="11.870139"><ele>735.0</ele><time>2026-03-28T11:55:15.782Z</time></trkpt><trkpt lat="46.0723414" lon="11.8701823"><ele>734.5714285714286</ele><time>2026-03-28T11:55:17.783Z</time></trkpt><trkpt lat="46.0722699" lon="11.8702227"><ele>734.1428571428571</ele><time>2026-03-28T11:55:20.78Z</time></trkpt><trkpt lat="46.0722046" lon="11.8702511"><ele>733.7142857142858</ele><time>2026-03-28T11:55:23.78Z</time></trkpt><trkpt lat="46.0721412" lon="11.8702984"><ele>733.2857142857142</ele><time>2026-03-28T11:55:26.782Z</time></trkpt><trkpt lat="46.0720684" lon="11.8703151"><ele>732.8571428571429</ele><time>2026-03-28T11:55:30.785Z</time></trkpt><trkpt lat="46.0720029" lon="11.8703456"><ele>732.4285714285714</ele><time>2026-03-28T11:55:34.782Z</time></trkpt><trkpt lat="46.0719296" lon="11.8703857"><ele>732.0</ele><time>2026-03-28T11:55:37.78Z</time></trkpt><trkpt lat="46.0718625" lon="11.8704089"><ele>732.0</ele><time>2026-03-28T11:55:39.785Z</time></trkpt><trkpt lat="46.0717913" lon="11.8704223"><ele>732.0</ele><time>2026-03-28T11:55:42.781Z</time></trkpt><trkpt lat="46.0717229" lon="11.870405"><ele>732.0</ele><time>2026-03-28T11:55:45.782Z</time></trkpt><trkpt lat="46.0716548" lon="11.870398"><ele>732.0</ele><time>2026-03-28T11:55:49.782Z</time></trkpt><trkpt lat="46.0715905" lon="11.8704028"><ele>732.0</ele><time>2026-03-28T11:55:52.783Z</time></trkpt><trkpt lat="46.0715139" lon="11.8703834"><ele>732.0</ele><time>2026-03-28T11:55:56.782Z</time></trkpt><trkpt lat="46.0714276" lon="11.8703664"><ele>732.0</ele><time>2026-03-28T11:56:00.78Z</time></trkpt><trkpt lat="46.0713525" lon="11.8703342"><ele>731.1428571428571</ele><time>2026-03-28T11:56:04.78Z</time></trkpt><trkpt lat="46.0712683" lon="11.8703149"><ele>730.2857142857143</ele><time>2026-03-28T11:56:08.781Z</time></trkpt><trkpt lat="46.071204" lon="11.8702859"><ele>729.4285714285713</ele><time>2026-03-28T11:56:11.781Z</time></trkpt><trkpt lat="46.0711493" lon="11.870228"><ele>728.5714285714286</ele><time>2026-03-28T11:56:15.784Z</time></trkpt><trkpt lat="46.0710812" lon="11.8701822"><ele>727.7142857142857</ele><time>2026-03-28T11:56:19.782Z</time></trkpt><trkpt lat="46.0710193" lon="11.8701613"><ele>726.8571428571428</ele><time>2026-03-28T11:56:22.782Z</time></trkpt><trkpt lat="46.0709429" lon="11.870118"><ele>726.0</ele><time>2026-03-28T11:56:26.783Z</time></trkpt><trkpt lat="46.0708851" lon="11.8700728"><ele>732.1428571428571</ele><time>2026-03-28T11:56:29.782Z</time></trkpt><trkpt lat="46.0708256" lon="11.8700338"><ele>738.2857142857142</ele><time>2026-03-28T11:56:32.783Z</time></trkpt><trkpt lat="46.0707576" lon="11.8700166"><ele>744.4285714285713</ele><time>2026-03-28T11:56:35.784Z</time></trkpt><trkpt lat="46.0706809" lon="11.8699959"><ele>750.5714285714286</ele><time>2026-03-28T11:56:38.782Z</time></trkpt><trkpt lat="46.0706038" lon="11.8699798"><ele>756.7142857142858</ele><time>2026-03-28T11:56:41.781Z</time></trkpt><trkpt lat="46.0705273" lon="11.8699915"><ele>762.8571428571428</ele><time>2026-03-28T11:56:44.783Z</time></trkpt><trkpt lat="46.0704585" lon="11.8699943"><ele>769.0</ele><time>2026-03-28T11:56:47.782Z</time></trkpt><trkpt lat="46.0703754" lon="11.8699839"><ele>769.3333333333333</ele><time>2026-03-28T11:56:51.783Z</time></trkpt><trkpt lat="46.0703068" lon="11.8699653"><ele>769.6666666666666</ele><time>2026-03-28T11:56:54.783Z</time></trkpt><trkpt lat="46.0702361" lon="11.8699308"><ele>770.0</ele><time>2026-03-28T11:56:58.781Z</time></trkpt><trkpt lat="46.0701642" lon="11.8698716"><ele>770.3333333333333</ele><time>2026-03-28T11:57:01.785Z</time></trkpt><trkpt lat="46.0700991" lon="11.8697965"><ele>770.6666666666666</ele><time>2026-03-28T11:57:05.781Z</time></trkpt><trkpt lat="46.0700423" lon="11.8697434"><ele>771.0</ele><time>2026-03-28T11:57:08.784Z</time></trkpt><trkpt lat="46.0699852" lon="11.8696616"><ele>768.3333333333334</ele><time>2026-03-28T11:57:12.784Z</time></trkpt><trkpt lat="46.0699263" lon="11.8695739"><ele>765.6666666666666</ele><time>2026-03-28T11:57:16.782Z</time></trkpt><trkpt lat="46.0698785" lon="11.8694735"><ele>763.0</ele><time>2026-03-28T11:57:19.783Z</time></trkpt><trkpt lat="46.0698456" lon="11.8693832"><ele>760.3333333333333</ele><time>2026-03-28T11:57:22.782Z</time></trkpt><trkpt lat="46.0698088" lon="11.8692895"><ele>757.6666666666666</ele><time>2026-03-28T11:57:25.782Z</time></trkpt><trkpt lat="46.0697718" lon="11.8691869"><ele>755.0</ele><time>2026-03-28T11:57:28.78Z</time></trkpt><trkpt lat="46.0697306" lon="11.8690935"><ele>755.0</ele><time>2026-03-28T11:57:31.78Z</time></trkpt><trkpt lat="46.0696872" lon="11.8689982"><ele>755.0</ele><time>2026-03-28T11:57:34.78Z</time></trkpt><trkpt lat="46.0696459" lon="11.8689041"><ele>755.0</ele><time>2026-03-28T11:57:39.78Z</time></trkpt><trkpt lat="46.0696366" lon="11.8688073"><ele>755.0</ele><time>2026-03-28T11:57:43.784Z</time></trkpt><trkpt lat="46.0696224" lon="11.8687098"><ele>755.0</ele><time>2026-03-28T11:57:48.782Z</time></trkpt><trkpt lat="46.0695897" lon="11.8686116"><ele>755.0</ele><time>2026-03-28T11:57:51.782Z</time></trkpt><trkpt lat="46.0695507" lon="11.8685271"><ele>755.0</ele><time>2026-03-28T11:57:54.782Z</time></trkpt><trkpt lat="46.06952" lon="11.8684236"><ele>758.8333333333333</ele><time>2026-03-28T11:57:57.78Z</time></trkpt><trkpt lat="46.0694809" lon="11.8683034"><ele>762.6666666666666</ele><time>2026-03-28T11:58:00.783Z</time></trkpt><trkpt lat="46.0694705" lon="11.8681817"><ele>766.5</ele><time>2026-03-28T11:58:03.782Z</time></trkpt><trkpt lat="46.0694619" lon="11.8680825"><ele>770.3333333333333</ele><time>2026-03-28T11:58:06.781Z</time></trkpt><trkpt lat="46.0694298" lon="11.8679912"><ele>774.1666666666666</ele><time>2026-03-28T11:58:09.782Z</time></trkpt><trkpt lat="46.0693629" lon="11.8679043"><ele>778.0</ele><time>2026-03-28T11:58:12.784Z</time></trkpt><trkpt lat="46.0693166" lon="11.8678349"><ele>777.9999999999999</ele><time>2026-03-28T11:58:14.785Z</time></trkpt><trkpt lat="46.0692714" lon="11.8677685"><ele>778.0</ele><time>2026-03-28T11:58:16.783Z</time></trkpt><trkpt lat="46.0692228" lon="11.8676679"><ele>778.0</ele><time>2026-03-28T11:58:19.78Z</time></trkpt><trkpt lat="46.0691874" lon="11.8675728"><ele>778.0</ele><time>2026-03-28T11:58:22.783Z</time></trkpt><trkpt lat="46.0691388" lon="11.8674827"><ele>777.9999999999999</ele><time>2026-03-28T11:58:25.784Z</time></trkpt><trkpt lat="46.0691046" lon="11.8673858"><ele>778.0</ele><time>2026-03-28T11:58:28.782Z</time></trkpt><trkpt lat="46.0690667" lon="11.8672836"><ele>779.1428571428572</ele><time>2026-03-28T11:58:32.784Z</time></trkpt><trkpt lat="46.0690368" lon="11.8672033"><ele>780.2857142857142</ele><time>2026-03-28T11:58:35.783Z</time></trkpt><trkpt lat="46.0689765" lon="11.8670779"><ele>781.4285714285714</ele><time>2026-03-28T11:58:38.784Z</time></trkpt><trkpt lat="46.0689359" lon="11.8670057"><ele>782.5714285714287</ele><time>2026-03-28T11:58:40.783Z</time></trkpt><trkpt lat="46.0688935" lon="11.8669209"><ele>783.7142857142858</ele><time>2026-03-28T11:58:43.785Z</time></trkpt><trkpt lat="46.0688535" lon="11.8668443"><ele>784.8571428571429</ele><time>2026-03-28T11:58:46.784Z</time></trkpt><trkpt lat="46.0687988" lon="11.8667682"><ele>786.0</ele><time>2026-03-28T11:58:51.783Z</time></trkpt><trkpt lat="46.0687452" lon="11.8667109"><ele>786.0000000000001</ele><time>2026-03-28T11:58:55.785Z</time></trkpt><trkpt lat="46.0686879" lon="11.8666686"><ele>786.0</ele><time>2026-03-28T11:59:01.782Z</time></trkpt><trkpt lat="46.0686424" lon="11.8665991"><ele>786.0</ele><time>2026-03-28T11:59:08.783Z</time></trkpt><trkpt lat="46.0686281" lon="11.8664951"><ele>786.0</ele><time>2026-03-28T11:59:17.783Z</time></trkpt><trkpt lat="46.0686201" lon="11.8663736"><ele>786.0</ele><time>2026-03-28T11:59:22.782Z</time></trkpt><trkpt lat="46.0686082" lon="11.8662815"><ele>786.0000000000001</ele><time>2026-03-28T11:59:26.782Z</time></trkpt><trkpt lat="46.0685729" lon="11.866202"><ele>786.0</ele><time>2026-03-28T11:59:31.783Z</time></trkpt><trkpt lat="46.0685204" lon="11.8661484"><ele>786.0</ele><time>2026-03-28T11:59:34.783Z</time></trkpt><trkpt lat="46.0684625" lon="11.8660685"><ele>786.0</ele><time>2026-03-28T11:59:37.784Z</time></trkpt><trkpt lat="46.0684055" lon="11.8660001"><ele>786.0</ele><time>2026-03-28T11:59:40.783Z</time></trkpt><trkpt lat="46.0683556" lon="11.8659275"><ele>786.0</ele><time>2026-03-28T11:59:44.784Z</time></trkpt><trkpt lat="46.0683162" lon="11.8658379"><ele>786.0</ele><time>2026-03-28T11:59:48.785Z</time></trkpt><trkpt lat="46.0682791" lon="11.8657425"><ele>786.0</ele><time>2026-03-28T11:59:52.783Z</time></trkpt><trkpt lat="46.0682258" lon="11.865661"><ele>785.0</ele><time>2026-03-28T11:59:56.784Z</time></trkpt><trkpt lat="46.0681771" lon="11.8655772"><ele>784.0</ele><time>2026-03-28T12:00:00.783Z</time></trkpt><trkpt lat="46.0681282" lon="11.8655174"><ele>783.0</ele><time>2026-03-28T12:00:03.784Z</time></trkpt><trkpt lat="46.0680506" lon="11.865446"><ele>782.0</ele><time>2026-03-28T12:00:06.785Z</time></trkpt><trkpt lat="46.0679941" lon="11.8653632"><ele>781.0</ele><time>2026-03-28T12:00:10.783Z</time></trkpt><trkpt lat="46.0679439" lon="11.8652933"><ele>780.0</ele><time>2026-03-28T12:00:14.783Z</time></trkpt><trkpt lat="46.0678846" lon="11.8652037"><ele>780.0</ele><time>2026-03-28T12:00:17.783Z</time></trkpt><trkpt lat="46.0678371" lon="11.8651206"><ele>780.0</ele><time>2026-03-28T12:00:20.785Z</time></trkpt><trkpt lat="46.0677992" lon="11.865035"><ele>780.0</ele><time>2026-03-28T12:00:23.782Z</time></trkpt><trkpt lat="46.0677397" lon="11.8649524"><ele>780.0</ele><time>2026-03-28T12:00:26.783Z</time></trkpt><trkpt lat="46.0676968" lon="11.8648787"><ele>780.0</ele><time>2026-03-28T12:00:29.782Z</time></trkpt><trkpt lat="46.0676678" lon="11.864787"><ele>780.0</ele><time>2026-03-28T12:00:34.785Z</time></trkpt><trkpt lat="46.0676247" lon="11.8647094"><ele>780.0</ele><time>2026-03-28T12:00:38.783Z</time></trkpt><trkpt lat="46.0675581" lon="11.8646371"><ele>780.8571428571429</ele><time>2026-03-28T12:00:41.782Z</time></trkpt><trkpt lat="46.067505" lon="11.8645877"><ele>781.7142857142857</ele><time>2026-03-28T12:00:44.786Z</time></trkpt><trkpt lat="46.0674667" lon="11.8644941"><ele>782.5714285714287</ele><time>2026-03-28T12:00:47.782Z</time></trkpt><trkpt lat="46.0674376" lon="11.8644065"><ele>783.4285714285714</ele><time>2026-03-28T12:00:51.785Z</time></trkpt><trkpt lat="46.0673856" lon="11.8643453"><ele>784.2857142857143</ele><time>2026-03-28T12:00:55.783Z</time></trkpt><trkpt lat="46.0673339" lon="11.8642815"><ele>785.1428571428572</ele><time>2026-03-28T12:00:58.783Z</time></trkpt><trkpt lat="46.0672894" lon="11.8642069"><ele>786.0</ele><time>2026-03-28T12:01:02.784Z</time></trkpt><trkpt lat="46.0672271" lon="11.8641254"><ele>790.8571428571429</ele><time>2026-03-28T12:01:06.785Z</time></trkpt><trkpt lat="46.0671927" lon="11.8640375"><ele>795.7142857142858</ele><time>2026-03-28T12:01:11.783Z</time></trkpt><trkpt lat="46.0671304" lon="11.8639619"><ele>800.5714285714287</ele><time>2026-03-28T12:01:15.783Z</time></trkpt><trkpt lat="46.0670884" lon="11.863872"><ele>805.4285714285714</ele><time>2026-03-28T12:01:19.785Z</time></trkpt><trkpt lat="46.0670605" lon="11.8637725"><ele>810.2857142857142</ele><time>2026-03-28T12:01:24.786Z</time></trkpt><trkpt lat="46.0670398" lon="11.8636774"><ele>815.1428571428572</ele><time>2026-03-28T12:01:30.784Z</time></trkpt><trkpt lat="46.0670103" lon="11.863593"><ele>820.0</ele><time>2026-03-28T12:01:36.785Z</time></trkpt><trkpt lat="46.0670068" lon="11.8634882"><ele>824.4999999999999</ele><time>2026-03-28T12:01:43.782Z</time></trkpt><trkpt lat="46.0669759" lon="11.8633934"><ele>829.0</ele><time>2026-03-28T12:01:49.784Z</time></trkpt><trkpt lat="46.0669194" lon="11.8633067"><ele>833.5</ele><time>2026-03-28T12:01:54.782Z</time></trkpt><trkpt lat="46.0668721" lon="11.863243"><ele>838.0</ele><time>2026-03-28T12:01:57.785Z</time></trkpt><trkpt lat="46.0668264" lon="11.8631574"><ele>842.4999999999999</ele><time>2026-03-28T12:02:01.783Z</time></trkpt><trkpt lat="46.066774" lon="11.8630706"><ele>847.0</ele><time>2026-03-28T12:02:06.785Z</time></trkpt><trkpt lat="46.0667325" lon="11.8629767"><ele>847.0</ele><time>2026-03-28T12:02:10.783Z</time></trkpt><trkpt lat="46.0666961" lon="11.8628897"><ele>847.0</ele><time>2026-03-28T12:02:14.783Z</time></trkpt><trkpt lat="46.0666823" lon="11.8627886"><ele>847.0</ele><time>2026-03-28T12:02:20.783Z</time></trkpt><trkpt lat="46.0666403" lon="11.862708"><ele>847.0</ele><time>2026-03-28T12:02:25.783Z</time></trkpt><trkpt lat="46.0665984" lon="11.8626205"><ele>847.0</ele><time>2026-03-28T12:02:30.783Z</time></trkpt><trkpt lat="46.0665669" lon="11.8625396"><ele>847.0</ele><time>2026-03-28T12:02:34.783Z</time></trkpt><trkpt lat="46.0665333" lon="11.8624455"><ele>847.0</ele><time>2026-03-28T12:02:38.783Z</time></trkpt><trkpt lat="46.0665145" lon="11.8623458"><ele>848.1428571428571</ele><time>2026-03-28T12:02:42.784Z</time></trkpt><trkpt lat="46.0664882" lon="11.8622604"><ele>849.2857142857142</ele><time>2026-03-28T12:02:47.783Z</time></trkpt><trkpt lat="46.0664486" lon="11.8621891"><ele>850.4285714285714</ele><time>2026-03-28T12:02:52.783Z</time></trkpt><trkpt lat="46.0663925" lon="11.8621134"><ele>851.5714285714286</ele><time>2026-03-28T12:02:56.783Z</time></trkpt><trkpt lat="46.0663391" lon="11.8620459"><ele>852.7142857142857</ele><time>2026-03-28T12:03:00.785Z</time></trkpt><trkpt lat="46.0663189" lon="11.8619595"><ele>853.8571428571429</ele><time>2026-03-28T12:03:11.785Z</time></trkpt><trkpt lat="46.0662607" lon="11.8619091"><ele>855.0</ele><time>2026-03-28T12:03:23.785Z</time></trkpt><trkpt lat="46.0661887" lon="11.8618683"><ele>855.0</ele><time>2026-03-28T12:03:29.783Z</time></trkpt><trkpt lat="46.0661423" lon="11.8618039"><ele>855.0</ele><time>2026-03-28T12:03:34.783Z</time></trkpt><trkpt lat="46.0661075" lon="11.8617108"><ele>855.0</ele><time>2026-03-28T12:03:40.784Z</time></trkpt><trkpt lat="46.0660579" lon="11.8616391"><ele>855.0</ele><time>2026-03-28T12:03:44.783Z</time></trkpt><trkpt lat="46.0659982" lon="11.8616091"><ele>855.0</ele><time>2026-03-28T12:03:48.785Z</time></trkpt><trkpt lat="46.06593" lon="11.8615524"><ele>855.0</ele><time>2026-03-28T12:03:52.783Z</time></trkpt><trkpt lat="46.0658756" lon="11.8614992"><ele>855.0</ele><time>2026-03-28T12:03:55.785Z</time></trkpt><trkpt lat="46.0658189" lon="11.8614046"><ele>857.1428571428572</ele><time>2026-03-28T12:03:59.783Z</time></trkpt><trkpt lat="46.0657844" lon="11.8613107"><ele>859.2857142857142</ele><time>2026-03-28T12:04:04.783Z</time></trkpt><trkpt lat="46.0657535" lon="11.8612288"><ele>861.4285714285714</ele><time>2026-03-28T12:04:10.782Z</time></trkpt><trkpt lat="46.065724" lon="11.8611435"><ele>863.5714285714287</ele><time>2026-03-28T12:04:15.785Z</time></trkpt><trkpt lat="46.0656727" lon="11.8610714"><ele>865.7142857142858</ele><time>2026-03-28T12:04:19.783Z</time></trkpt><trkpt lat="46.0656372" lon="11.8609918"><ele>867.8571428571429</ele><time>2026-03-28T12:04:23.783Z</time></trkpt><trkpt lat="46.0656073" lon="11.8609097"><ele>870.0</ele><time>2026-03-28T12:04:27.783Z</time></trkpt><trkpt lat="46.0655961" lon="11.8608162"><ele>871.8571428571429</ele><time>2026-03-28T12:04:32.785Z</time></trkpt><trkpt lat="46.0655616" lon="11.8607172"><ele>873.7142857142858</ele><time>2026-03-28T12:04:37.783Z</time></trkpt><trkpt lat="46.0655452" lon="11.8606112"><ele>875.5714285714287</ele><time>2026-03-28T12:04:43.785Z</time></trkpt><trkpt lat="46.0655199" lon="11.8605253"><ele>877.4285714285714</ele><time>2026-03-28T12:04:46.783Z</time></trkpt><trkpt lat="46.0655029" lon="11.8604319"><ele>879.2857142857142</ele><time>2026-03-28T12:04:51.785Z</time></trkpt><trkpt lat="46.0654741" lon="11.8603481"><ele>881.1428571428572</ele><time>2026-03-28T12:04:58.782Z</time></trkpt><trkpt lat="46.0655434" lon="11.8603286"><ele>883.0</ele><time>2026-03-28T12:05:02.782Z</time></trkpt><trkpt lat="46.0657421" lon="11.8603452"><ele>882.9999999999999</ele><time>2026-03-28T12:05:16.783Z</time></trkpt><trkpt lat="46.0658536" lon="11.8602971"><ele>883.0</ele><time>2026-03-28T12:05:31.783Z</time></trkpt><trkpt lat="46.0657869" lon="11.8602751"><ele>883.0</ele><time>2026-03-28T12:06:16.785Z</time></trkpt><trkpt lat="46.0657353" lon="11.8603276"><ele>883.0</ele><time>2026-03-28T12:06:18.785Z</time></trkpt><trkpt lat="46.0656856" lon="11.860387"><ele>882.9999999999999</ele><time>2026-03-28T12:06:20.782Z</time></trkpt><trkpt lat="46.0656212" lon="11.8604023"><ele>883.0</ele><time>2026-03-28T12:06:23.783Z</time></trkpt><trkpt lat="46.0655413" lon="11.86038"><ele>883.0</ele><time>2026-03-28T12:06:27.784Z</time></trkpt><trkpt lat="46.0654758" lon="11.8603657"><ele>883.0</ele><time>2026-03-28T12:06:30.782Z</time></trkpt><trkpt lat="46.0654076" lon="11.860379"><ele>883.0</ele><time>2026-03-28T12:06:34.783Z</time></trkpt><trkpt lat="46.0653395" lon="11.8604007"><ele>883.0</ele><time>2026-03-28T12:06:39.785Z</time></trkpt><trkpt lat="46.0652637" lon="11.8603755"><ele>883.0</ele><time>2026-03-28T12:06:44.782Z</time></trkpt><trkpt lat="46.0651875" lon="11.8603859"><ele>883.0</ele><time>2026-03-28T12:06:48.785Z</time></trkpt><trkpt lat="46.0651122" lon="11.8604387"><ele>883.0</ele><time>2026-03-28T12:06:52.782Z</time></trkpt><trkpt lat="46.0650506" lon="11.8604991"><ele>883.0</ele><time>2026-03-28T12:06:55.782Z</time></trkpt><trkpt lat="46.0649876" lon="11.8605604"><ele>883.0</ele><time>2026-03-28T12:06:58.782Z</time></trkpt><trkpt lat="46.0649311" lon="11.8606078"><ele>883.0</ele><time>2026-03-28T12:07:01.783Z</time></trkpt><trkpt lat="46.0648645" lon="11.860622"><ele>883.0</ele><time>2026-03-28T12:07:05.783Z</time></trkpt><trkpt lat="46.0647962" lon="11.8605586"><ele>883.0</ele><time>2026-03-28T12:07:10.785Z</time></trkpt><trkpt lat="46.064744" lon="11.8604982"><ele>883.0</ele><time>2026-03-28T12:07:15.785Z</time></trkpt><trkpt lat="46.0646761" lon="11.8604741"><ele>883.0</ele><time>2026-03-28T12:07:21.784Z</time></trkpt><trkpt lat="46.0646047" lon="11.8604533"><ele>883.3333333333333</ele><time>2026-03-28T12:07:24.785Z</time></trkpt><trkpt lat="46.0645405" lon="11.86048"><ele>883.6666666666666</ele><time>2026-03-28T12:07:26.785Z</time></trkpt><trkpt lat="46.0644641" lon="11.8605065"><ele>884.0</ele><time>2026-03-28T12:07:29.785Z</time></trkpt><trkpt lat="46.0643866" lon="11.8605249"><ele>884.3333333333333</ele><time>2026-03-28T12:07:32.783Z</time></trkpt><trkpt lat="46.0643164" lon="11.8605433"><ele>884.6666666666666</ele><time>2026-03-28T12:07:34.782Z</time></trkpt><trkpt lat="46.064234" lon="11.8605862"><ele>885.0</ele><time>2026-03-28T12:07:36.785Z</time></trkpt><trkpt lat="46.0641492" lon="11.8606376"><ele>885.0</ele><time>2026-03-28T12:07:38.783Z</time></trkpt><trkpt lat="46.0640758" lon="11.860687"><ele>885.0</ele><time>2026-03-28T12:07:40.782Z</time></trkpt><trkpt lat="46.0640115" lon="11.8607261"><ele>885.0</ele><time>2026-03-28T12:07:42.783Z</time></trkpt><trkpt lat="46.0639467" lon="11.8607775"><ele>885.0</ele><time>2026-03-28T12:07:45.783Z</time></trkpt><trkpt lat="46.0638802" lon="11.8608402"><ele>885.0</ele><time>2026-03-28T12:07:49.784Z</time></trkpt><trkpt lat="46.0638213" lon="11.8609077"><ele>885.0</ele><time>2026-03-28T12:07:55.783Z</time></trkpt><trkpt lat="46.0637567" lon="11.8609446"><ele>885.0</ele><time>2026-03-28T12:07:58.784Z</time></trkpt><trkpt lat="46.0636744" lon="11.8609753"><ele>885.0</ele><time>2026-03-28T12:08:01.785Z</time></trkpt><trkpt lat="46.0636139" lon="11.8610169"><ele>885.0</ele><time>2026-03-28T12:08:04.78Z</time></trkpt><trkpt lat="46.0635522" lon="11.8610506"><ele>885.0</ele><time>2026-03-28T12:08:07.781Z</time></trkpt><trkpt lat="46.0634775" lon="11.8610713"><ele>885.0</ele><time>2026-03-28T12:08:11.783Z</time></trkpt><trkpt lat="46.063404" lon="11.8611109"><ele>885.0</ele><time>2026-03-28T12:08:15.782Z</time></trkpt><trkpt lat="46.0633308" lon="11.8610949"><ele>885.0</ele><time>2026-03-28T12:08:18.781Z</time></trkpt><trkpt lat="46.0632477" lon="11.8610715"><ele>885.0</ele><time>2026-03-28T12:08:21.782Z</time></trkpt><trkpt lat="46.0631741" lon="11.8610336"><ele>885.5714285714286</ele><time>2026-03-28T12:08:25.783Z</time></trkpt><trkpt lat="46.0631009" lon="11.8609824"><ele>886.1428571428571</ele><time>2026-03-28T12:08:29.783Z</time></trkpt><trkpt lat="46.0630347" lon="11.8609588"><ele>886.7142857142858</ele><time>2026-03-28T12:08:33.781Z</time></trkpt><trkpt lat="46.0629736" lon="11.8609298"><ele>887.2857142857142</ele><time>2026-03-28T12:08:37.781Z</time></trkpt><trkpt lat="46.0629043" lon="11.8609289"><ele>887.8571428571429</ele><time>2026-03-28T12:08:45.782Z</time></trkpt><trkpt lat="46.0628421" lon="11.8609631"><ele>888.4285714285714</ele><time>2026-03-28T12:09:16.783Z</time></trkpt><trkpt lat="46.0627688" lon="11.8609255"><ele>889.0</ele><time>2026-03-28T12:09:20.784Z</time></trkpt><trkpt lat="46.0627077" lon="11.8608861"><ele>890.7142857142858</ele><time>2026-03-28T12:09:24.783Z</time></trkpt><trkpt lat="46.0626556" lon="11.8608277"><ele>892.4285714285714</ele><time>2026-03-28T12:09:28.782Z</time></trkpt><trkpt lat="46.0626181" lon="11.8607518"><ele>894.1428571428571</ele><time>2026-03-28T12:09:33.781Z</time></trkpt><trkpt lat="46.0625923" lon="11.8606394"><ele>895.8571428571429</ele><time>2026-03-28T12:09:37.782Z</time></trkpt><trkpt lat="46.062555" lon="11.8605364"><ele>897.5714285714287</ele><time>2026-03-28T12:09:41.781Z</time></trkpt><trkpt lat="46.0625212" lon="11.8604394"><ele>899.2857142857143</ele><time>2026-03-28T12:09:45.784Z</time></trkpt><trkpt lat="46.062488" lon="11.8603353"><ele>901.0</ele><time>2026-03-28T12:09:49.783Z</time></trkpt><trkpt lat="46.062456" lon="11.8602445"><ele>901.6666666666666</ele><time>2026-03-28T12:09:53.781Z</time></trkpt><trkpt lat="46.0624196" lon="11.8601463"><ele>902.3333333333333</ele><time>2026-03-28T12:09:57.784Z</time></trkpt><trkpt lat="46.0623874" lon="11.860049"><ele>903.0</ele><time>2026-03-28T12:10:02.784Z</time></trkpt><trkpt lat="46.0623521" lon="11.8599588"><ele>903.6666666666667</ele><time>2026-03-28T12:10:06.785Z</time></trkpt><trkpt lat="46.0623054" lon="11.8598668"><ele>904.3333333333334</ele><time>2026-03-28T12:10:10.782Z</time></trkpt><trkpt lat="46.0622154" lon="11.8598437"><ele>905.0</ele><time>2026-03-28T12:10:13.781Z</time></trkpt><trkpt lat="46.0621442" lon="11.8598793"><ele>905.0</ele><time>2026-03-28T12:10:16.781Z</time></trkpt><trkpt lat="46.0620757" lon="11.8598484"><ele>904.9999999999999</ele><time>2026-03-28T12:10:21.784Z</time></trkpt><trkpt lat="46.062071" lon="11.8597544"><ele>905.0</ele><time>2026-03-28T12:10:26.783Z</time></trkpt><trkpt lat="46.0621285" lon="11.8597114"><ele>905.0</ele><time>2026-03-28T12:10:38.783Z</time></trkpt><trkpt lat="46.0621691" lon="11.859641"><ele>904.9999999999999</ele><time>2026-03-28T12:10:49.785Z</time></trkpt><trkpt lat="46.0621329" lon="11.8595407"><ele>905.0</ele><time>2026-03-28T12:11:10.782Z</time></trkpt><trkpt lat="46.0620744" lon="11.859492"><ele>905.0</ele><time>2026-03-28T12:11:19.781Z</time></trkpt><trkpt lat="46.0621229" lon="11.8594294"><ele>905.0</ele><time>2026-03-28T12:11:58.782Z</time></trkpt><trkpt lat="46.0621179" lon="11.8593367"><ele>904.9999999999999</ele><time>2026-03-28T12:12:04.782Z</time></trkpt><trkpt lat="46.062134" lon="11.8592403"><ele>905.0</ele><time>2026-03-28T12:12:09.78Z</time></trkpt><trkpt lat="46.0621632" lon="11.8591555"><ele>905.0</ele><time>2026-03-28T12:12:14.784Z</time></trkpt><trkpt lat="46.0621933" lon="11.8590532"><ele>904.9999999999999</ele><time>2026-03-28T12:12:19.783Z</time></trkpt><trkpt lat="46.0622158" lon="11.8589664"><ele>905.0</ele><time>2026-03-28T12:12:28.782Z</time></trkpt><trkpt lat="46.0622074" lon="11.8588591"><ele>905.0</ele><time>2026-03-28T12:12:49.782Z</time></trkpt><trkpt lat="46.0622645" lon="11.8588095"><ele>906.0</ele><time>2026-03-28T12:12:57.783Z</time></trkpt><trkpt lat="46.0622813" lon="11.8587187"><ele>906.9999999999999</ele><time>2026-03-28T12:14:01.784Z</time></trkpt><trkpt lat="46.0623222" lon="11.858639"><ele>908.0</ele><time>2026-03-28T12:14:07.784Z</time></trkpt><trkpt lat="46.0623686" lon="11.8585635"><ele>909.0</ele><time>2026-03-28T12:14:13.784Z</time></trkpt><trkpt lat="46.0624245" lon="11.8585083"><ele>909.9999999999999</ele><time>2026-03-28T12:14:19.783Z</time></trkpt><trkpt lat="46.0624784" lon="11.8584375"><ele>911.0</ele><time>2026-03-28T12:14:25.782Z</time></trkpt><trkpt lat="46.0625349" lon="11.8583833"><ele>912.0</ele><time>2026-03-28T12:14:32.784Z</time></trkpt><trkpt lat="46.0625914" lon="11.8583356"><ele>915.5714285714286</ele><time>2026-03-28T12:14:36.783Z</time></trkpt><trkpt lat="46.0626536" lon="11.8582725"><ele>919.1428571428571</ele><time>2026-03-28T12:14:41.782Z</time></trkpt><trkpt lat="46.0627086" lon="11.8581975"><ele>922.7142857142857</ele><time>2026-03-28T12:14:46.783Z</time></trkpt><trkpt lat="46.0627675" lon="11.8581164"><ele>926.2857142857142</ele><time>2026-03-28T12:14:51.783Z</time></trkpt><trkpt lat="46.0628018" lon="11.8580377"><ele>929.8571428571429</ele><time>2026-03-28T12:14:55.783Z</time></trkpt><trkpt lat="46.0628363" lon="11.8579473"><ele>933.4285714285713</ele><time>2026-03-28T12:15:00.784Z</time></trkpt><trkpt lat="46.0628523" lon="11.8578352"><ele>937.0</ele><time>2026-03-28T12:15:05.783Z</time></trkpt><trkpt lat="46.0628907" lon="11.8577575"><ele>937.0</ele><time>2026-03-28T12:15:09.783Z</time></trkpt><trkpt lat="46.0629314" lon="11.8576838"><ele>937.0</ele><time>2026-03-28T12:15:14.785Z</time></trkpt><trkpt lat="46.0629702" lon="11.8575939"><ele>937.0</ele><time>2026-03-28T12:15:18.785Z</time></trkpt><trkpt lat="46.0629802" lon="11.8574923"><ele>937.0</ele><time>2026-03-28T12:15:24.784Z</time></trkpt><trkpt lat="46.0629887" lon="11.8573915"><ele>937.0</ele><time>2026-03-28T12:15:31.783Z</time></trkpt><trkpt lat="46.0630084" lon="11.8572997"><ele>937.0</ele><time>2026-03-28T12:15:35.786Z</time></trkpt><trkpt lat="46.0630413" lon="11.8571894"><ele>937.0</ele><time>2026-03-28T12:15:39.785Z</time></trkpt><trkpt lat="46.0630633" lon="11.8570933"><ele>937.7142857142857</ele><time>2026-03-28T12:15:43.785Z</time></trkpt><trkpt lat="46.063081" lon="11.8569976"><ele>938.4285714285716</ele><time>2026-03-28T12:15:47.782Z</time></trkpt><trkpt lat="46.0631026" lon="11.8569051"><ele>939.1428571428572</ele><time>2026-03-28T12:15:52.782Z</time></trkpt><trkpt lat="46.0631413" lon="11.8568138"><ele>939.8571428571429</ele><time>2026-03-28T12:15:56.784Z</time></trkpt><trkpt lat="46.0631726" lon="11.8567244"><ele>940.5714285714287</ele><time>2026-03-28T12:16:01.785Z</time></trkpt><trkpt lat="46.0631409" lon="11.856636"><ele>941.2857142857144</ele><time>2026-03-28T12:16:12.782Z</time></trkpt><trkpt lat="46.0632255" lon="11.8566199"><ele>942.0000000000001</ele><time>2026-03-28T12:17:05.785Z</time></trkpt><trkpt lat="46.0632177" lon="11.8565293"><ele>943.4285714285716</ele><time>2026-03-28T12:17:07.781Z</time></trkpt><trkpt lat="46.0632244" lon="11.856422"><ele>944.8571428571429</ele><time>2026-03-28T12:17:12.785Z</time></trkpt><trkpt lat="46.063233" lon="11.8563183"><ele>946.2857142857143</ele><time>2026-03-28T12:17:19.783Z</time></trkpt><trkpt lat="46.0632144" lon="11.8562278"><ele>947.7142857142858</ele><time>2026-03-28T12:17:25.783Z</time></trkpt><trkpt lat="46.0631882" lon="11.8561422"><ele>949.1428571428571</ele><time>2026-03-28T12:17:30.783Z</time></trkpt><trkpt lat="46.0631677" lon="11.8560499"><ele>950.5714285714286</ele><time>2026-03-28T12:17:36.781Z</time></trkpt><trkpt lat="46.0631614" lon="11.8559456"><ele>952.0</ele><time>2026-03-28T12:17:42.782Z</time></trkpt><trkpt lat="46.0631536" lon="11.8558262"><ele>953.2857142857142</ele><time>2026-03-28T12:17:46.782Z</time></trkpt><trkpt lat="46.0631208" lon="11.855719"><ele>954.5714285714286</ele><time>2026-03-28T12:17:50.785Z</time></trkpt><trkpt lat="46.0630961" lon="11.8556222"><ele>955.8571428571429</ele><time>2026-03-28T12:17:54.784Z</time></trkpt><trkpt lat="46.0630861" lon="11.8555273"><ele>957.1428571428571</ele><time>2026-03-28T12:17:59.783Z</time></trkpt><trkpt lat="46.0630442" lon="11.8554263"><ele>958.4285714285713</ele><time>2026-03-28T12:18:03.785Z</time></trkpt><trkpt lat="46.0630291" lon="11.8553344"><ele>959.7142857142857</ele><time>2026-03-28T12:18:10.783Z</time></trkpt><trkpt lat="46.0629832" lon="11.8552434"><ele>961.0</ele><time>2026-03-28T12:19:09.785Z</time></trkpt><trkpt lat="46.0629152" lon="11.8552174"><ele>961.0</ele><time>2026-03-28T12:19:13.781Z</time></trkpt><trkpt lat="46.0628455" lon="11.8551964"><ele>960.9999999999999</ele><time>2026-03-28T12:19:16.782Z</time></trkpt><trkpt lat="46.0627749" lon="11.8551206"><ele>961.0</ele><time>2026-03-28T12:19:19.783Z</time></trkpt><trkpt lat="46.0627158" lon="11.8550396"><ele>961.0</ele><time>2026-03-28T12:19:22.782Z</time></trkpt><trkpt lat="46.0626631" lon="11.8549772"><ele>960.9999999999999</ele><time>2026-03-28T12:19:25.781Z</time></trkpt><trkpt lat="46.0626216" lon="11.8549051"><ele>961.0</ele><time>2026-03-28T12:19:28.782Z</time></trkpt><trkpt lat="46.0625887" lon="11.8548266"><ele>961.0</ele><time>2026-03-28T12:19:37.785Z</time></trkpt><trkpt lat="46.062529" lon="11.8546963"><ele>961.5714285714286</ele><time>2026-03-28T12:20:01.785Z</time></trkpt><trkpt lat="46.0624724" lon="11.8546553"><ele>962.1428571428571</ele><time>2026-03-28T12:20:06.781Z</time></trkpt><trkpt lat="46.0624049" lon="11.8546402"><ele>962.7142857142857</ele><time>2026-03-28T12:20:10.781Z</time></trkpt><trkpt lat="46.0623402" lon="11.8546145"><ele>963.2857142857142</ele><time>2026-03-28T12:20:13.783Z</time></trkpt><trkpt lat="46.0622501" lon="11.8545832"><ele>963.8571428571429</ele><time>2026-03-28T12:20:16.782Z</time></trkpt><trkpt lat="46.0621815" lon="11.8545592"><ele>964.4285714285713</ele><time>2026-03-28T12:20:18.781Z</time></trkpt><trkpt lat="46.0621136" lon="11.8545531"><ele>965.0</ele><time>2026-03-28T12:20:21.784Z</time></trkpt><trkpt lat="46.0620352" lon="11.8545533"><ele>965.0000000000001</ele><time>2026-03-28T12:20:25.781Z</time></trkpt><trkpt lat="46.0619659" lon="11.8545364"><ele>965.0</ele><time>2026-03-28T12:20:28.782Z</time></trkpt><trkpt lat="46.0618716" lon="11.8545226"><ele>965.0</ele><time>2026-03-28T12:20:31.782Z</time></trkpt><trkpt lat="46.0617896" lon="11.8545094"><ele>965.0</ele><time>2026-03-28T12:20:34.783Z</time></trkpt><trkpt lat="46.0617167" lon="11.8544987"><ele>965.0000000000001</ele><time>2026-03-28T12:20:37.783Z</time></trkpt><trkpt lat="46.0616489" lon="11.8544793"><ele>965.0</ele><time>2026-03-28T12:20:40.784Z</time></trkpt><trkpt lat="46.06159" lon="11.8544417"><ele>965.0</ele><time>2026-03-28T12:20:43.782Z</time></trkpt><trkpt lat="46.0615277" lon="11.8544145"><ele>965.0</ele><time>2026-03-28T12:20:46.782Z</time></trkpt><trkpt lat="46.0614617" lon="11.8543851"><ele>965.0</ele><time>2026-03-28T12:20:49.783Z</time></trkpt><trkpt lat="46.061401" lon="11.8543438"><ele>965.0</ele><time>2026-03-28T12:20:52.782Z</time></trkpt><trkpt lat="46.0613356" lon="11.8542966"><ele>965.0</ele><time>2026-03-28T12:20:55.783Z</time></trkpt><trkpt lat="46.0612609" lon="11.8542631"><ele>965.0</ele><time>2026-03-28T12:20:59.783Z</time></trkpt><trkpt lat="46.0611961" lon="11.8542282"><ele>965.0</ele><time>2026-03-28T12:21:02.783Z</time></trkpt><trkpt lat="46.0611356" lon="11.8541605"><ele>965.0000000000001</ele><time>2026-03-28T12:21:06.784Z</time></trkpt><trkpt lat="46.0610676" lon="11.8540712"><ele>965.0</ele><time>2026-03-28T12:21:09.784Z</time></trkpt><trkpt lat="46.0609984" lon="11.8540096"><ele>965.0</ele><time>2026-03-28T12:21:12.783Z</time></trkpt><trkpt lat="46.0609398" lon="11.85396"><ele>965.0</ele><time>2026-03-28T12:21:15.782Z</time></trkpt><trkpt lat="46.0608864" lon="11.8538947"><ele>965.0000000000001</ele><time>2026-03-28T12:21:18.783Z</time></trkpt><trkpt lat="46.0608239" lon="11.8538333"><ele>965.0</ele><time>2026-03-28T12:21:21.785Z</time></trkpt><trkpt lat="46.0607511" lon="11.8537705"><ele>964.8333333333334</ele><time>2026-03-28T12:21:24.784Z</time></trkpt><trkpt lat="46.0606817" lon="11.8536981"><ele>964.6666666666667</ele><time>2026-03-28T12:21:27.783Z</time></trkpt><trkpt lat="46.0606148" lon="11.8536339"><ele>964.5</ele><time>2026-03-28T12:21:30.783Z</time></trkpt><trkpt lat="46.0605568" lon="11.8535762"><ele>964.3333333333333</ele><time>2026-03-28T12:21:33.784Z</time></trkpt><trkpt lat="46.060502" lon="11.853523"><ele>964.1666666666666</ele><time>2026-03-28T12:21:36.784Z</time></trkpt><trkpt lat="46.0604317" lon="11.853463"><ele>964.0</ele><time>2026-03-28T12:21:39.784Z</time></trkpt><trkpt lat="46.0603654" lon="11.8534245"><ele>964.0</ele><time>2026-03-28T12:21:42.783Z</time></trkpt><trkpt lat="46.0603052" lon="11.8533614"><ele>964.0000000000001</ele><time>2026-03-28T12:21:47.783Z</time></trkpt><trkpt lat="46.0602445" lon="11.8532958"><ele>964.0</ele><time>2026-03-28T12:21:50.783Z</time></trkpt><trkpt lat="46.0601789" lon="11.8532432"><ele>964.0</ele><time>2026-03-28T12:21:53.782Z</time></trkpt><trkpt lat="46.0601186" lon="11.8531909"><ele>964.0000000000001</ele><time>2026-03-28T12:21:56.784Z</time></trkpt><trkpt lat="46.0600577" lon="11.8531321"><ele>964.0</ele><time>2026-03-28T12:22:00.785Z</time></trkpt><trkpt lat="46.060006" lon="11.8530654"><ele>964.0</ele><time>2026-03-28T12:22:04.783Z</time></trkpt><trkpt lat="46.0599479" lon="11.8530017"><ele>964.0</ele><time>2026-03-28T12:22:07.784Z</time></trkpt><trkpt lat="46.0598914" lon="11.8529602"><ele>964.0000000000001</ele><time>2026-03-28T12:22:10.785Z</time></trkpt><trkpt lat="46.0598674" lon="11.8528751"><ele>964.0</ele><time>2026-03-28T12:22:17.782Z</time></trkpt><trkpt lat="46.0599282" lon="11.8528481"><ele>964.0</ele><time>2026-03-28T12:22:23.782Z</time></trkpt><trkpt lat="46.0599893" lon="11.8528071"><ele>964.0000000000001</ele><time>2026-03-28T12:22:29.781Z</time></trkpt><trkpt lat="46.0600518" lon="11.8527714"><ele>964.0</ele><time>2026-03-28T12:22:33.784Z</time></trkpt><trkpt lat="46.0601278" lon="11.8527427"><ele>964.0</ele><time>2026-03-28T12:22:37.783Z</time></trkpt><trkpt lat="46.0603586" lon="11.8527328"><ele>964.0</ele><time>2026-03-28T12:22:55.782Z</time></trkpt><trkpt lat="46.0604225" lon="11.8527868"><ele>964.0000000000001</ele><time>2026-03-28T12:22:59.784Z</time></trkpt><trkpt lat="46.0604755" lon="11.8528629"><ele>964.0</ele><time>2026-03-28T12:23:03.784Z</time></trkpt><trkpt lat="46.0605446" lon="11.8529042"><ele>964.0</ele><time>2026-03-28T12:23:06.785Z</time></trkpt><trkpt lat="46.0606033" lon="11.8529425"><ele>964.0000000000001</ele><time>2026-03-28T12:23:10.782Z</time></trkpt><trkpt lat="46.0606796" lon="11.8529783"><ele>964.0</ele><time>2026-03-28T12:23:13.784Z</time></trkpt><trkpt lat="46.0607401" lon="11.8530091"><ele>964.0</ele><time>2026-03-28T12:23:16.781Z</time></trkpt><trkpt lat="46.060826" lon="11.8530025"><ele>966.4999999999999</ele><time>2026-03-28T12:23:21.781Z</time></trkpt><trkpt lat="46.0608926" lon="11.8529741"><ele>969.0</ele><time>2026-03-28T12:23:27.783Z</time></trkpt><trkpt lat="46.0609731" lon="11.8529231"><ele>971.5</ele><time>2026-03-28T12:23:34.782Z</time></trkpt><trkpt lat="46.0611001" lon="11.8529145"><ele>974.0</ele><time>2026-03-28T12:23:42.783Z</time></trkpt><trkpt lat="46.0611743" lon="11.8528885"><ele>976.4999999999999</ele><time>2026-03-28T12:23:46.781Z</time></trkpt><trkpt lat="46.0612414" lon="11.852872"><ele>979.0</ele><time>2026-03-28T12:23:50.783Z</time></trkpt><trkpt lat="46.061309" lon="11.8528608"><ele>978.9999999999999</ele><time>2026-03-28T12:23:54.785Z</time></trkpt><trkpt lat="46.0614089" lon="11.8528613"><ele>979.0</ele><time>2026-03-28T12:24:02.783Z</time></trkpt><trkpt lat="46.0614785" lon="11.8528754"><ele>979.0</ele><time>2026-03-28T12:24:07.78Z</time></trkpt><trkpt lat="46.0616116" lon="11.8528832"><ele>979.0</ele><time>2026-03-28T12:24:15.784Z</time></trkpt><trkpt lat="46.061681" lon="11.8529296"><ele>978.9999999999999</ele><time>2026-03-28T12:24:20.783Z</time></trkpt><trkpt lat="46.0617389" lon="11.8529672"><ele>979.0</ele><time>2026-03-28T12:24:24.784Z</time></trkpt><trkpt lat="46.0617979" lon="11.8530005"><ele>983.2</ele><time>2026-03-28T12:24:28.785Z</time></trkpt><trkpt lat="46.0618664" lon="11.8529816"><ele>987.4000000000001</ele><time>2026-03-28T12:24:34.784Z</time></trkpt><trkpt lat="46.0619809" lon="11.8529449"><ele>991.6</ele><time>2026-03-28T12:24:41.782Z</time></trkpt><trkpt lat="46.0620428" lon="11.8529002"><ele>995.8</ele><time>2026-03-28T12:24:45.782Z</time></trkpt><trkpt lat="46.0621139" lon="11.852863"><ele>1000.0</ele><time>2026-03-28T12:24:50.782Z</time></trkpt><trkpt lat="46.0622552" lon="11.8528625"><ele>1000.0</ele><time>2026-03-28T12:24:59.784Z</time></trkpt><trkpt lat="46.062329" lon="11.8528641"><ele>1000.0</ele><time>2026-03-28T12:25:05.782Z</time></trkpt><trkpt lat="46.0623993" lon="11.8528384"><ele>1000.0</ele><time>2026-03-28T12:25:09.784Z</time></trkpt><trkpt lat="46.0624798" lon="11.8528124"><ele>1000.0</ele><time>2026-03-28T12:25:13.782Z</time></trkpt><trkpt lat="46.0625445" lon="11.8527985"><ele>1000.0</ele><time>2026-03-28T12:25:17.784Z</time></trkpt><trkpt lat="46.0626153" lon="11.8527526"><ele>1000.0</ele><time>2026-03-28T12:25:22.785Z</time></trkpt><trkpt lat="46.0626799" lon="11.8527299"><ele>1000.0</ele><time>2026-03-28T12:25:26.78Z</time></trkpt><trkpt lat="46.0627943" lon="11.8527307"><ele>1001.2857142857142</ele><time>2026-03-28T12:25:34.782Z</time></trkpt><trkpt lat="46.0628543" lon="11.852775"><ele>1002.5714285714287</ele><time>2026-03-28T12:25:39.784Z</time></trkpt><trkpt lat="46.0629163" lon="11.8528089"><ele>1003.8571428571429</ele><time>2026-03-28T12:25:43.782Z</time></trkpt><trkpt lat="46.0629853" lon="11.8528665"><ele>1005.1428571428571</ele><time>2026-03-28T12:25:47.783Z</time></trkpt><trkpt lat="46.0630546" lon="11.8528988"><ele>1006.4285714285713</ele><time>2026-03-28T12:25:50.781Z</time></trkpt><trkpt lat="46.0631316" lon="11.8529441"><ele>1007.7142857142858</ele><time>2026-03-28T12:25:54.782Z</time></trkpt><trkpt lat="46.0631604" lon="11.8530355"><ele>1009.0</ele><time>2026-03-28T12:25:58.783Z</time></trkpt><trkpt lat="46.0631889" lon="11.8531433"><ele>1009.0</ele><time>2026-03-28T12:26:03.782Z</time></trkpt><trkpt lat="46.0632341" lon="11.8532238"><ele>1009.0</ele><time>2026-03-28T12:26:07.782Z</time></trkpt><trkpt lat="46.0632866" lon="11.853297"><ele>1009.0</ele><time>2026-03-28T12:26:13.783Z</time></trkpt><trkpt lat="46.0633112" lon="11.853382"><ele>1009.0</ele><time>2026-03-28T12:26:17.783Z</time></trkpt><trkpt lat="46.0633166" lon="11.853479"><ele>1009.0</ele><time>2026-03-28T12:26:22.782Z</time></trkpt><trkpt lat="46.06333" lon="11.8535746"><ele>1009.0</ele><time>2026-03-28T12:26:26.782Z</time></trkpt><trkpt lat="46.0633526" lon="11.8536733"><ele>1009.0</ele><time>2026-03-28T12:26:30.781Z</time></trkpt><trkpt lat="46.0633901" lon="11.8537645"><ele>1008.2857142857143</ele><time>2026-03-28T12:26:35.782Z</time></trkpt><trkpt lat="46.063431" lon="11.853837"><ele>1007.5714285714284</ele><time>2026-03-28T12:26:39.784Z</time></trkpt><trkpt lat="46.0634713" lon="11.8539313"><ele>1006.8571428571428</ele><time>2026-03-28T12:26:44.784Z</time></trkpt><trkpt lat="46.0634967" lon="11.854016"><ele>1006.1428571428571</ele><time>2026-03-28T12:26:48.785Z</time></trkpt><trkpt lat="46.0635124" lon="11.8541184"><ele>1005.4285714285713</ele><time>2026-03-28T12:26:53.785Z</time></trkpt><trkpt lat="46.0635393" lon="11.8542067"><ele>1004.7142857142856</ele><time>2026-03-28T12:26:58.783Z</time></trkpt><trkpt lat="46.0635725" lon="11.8542898"><ele>1003.9999999999999</ele><time>2026-03-28T12:27:02.782Z</time></trkpt><trkpt lat="46.063603" lon="11.8543724"><ele>1006.1666666666667</ele><time>2026-03-28T12:27:06.785Z</time></trkpt><trkpt lat="46.0635625" lon="11.8542764"><ele>1008.3333333333334</ele><time>2026-03-28T12:28:08.784Z</time></trkpt><trkpt lat="46.0635165" lon="11.8541659"><ele>1010.5</ele><time>2026-03-28T12:28:11.783Z</time></trkpt><trkpt lat="46.0634733" lon="11.8540508"><ele>1012.6666666666667</ele><time>2026-03-28T12:28:14.782Z</time></trkpt><trkpt lat="46.0634496" lon="11.8539653"><ele>1014.8333333333334</ele><time>2026-03-28T12:28:17.783Z</time></trkpt><trkpt lat="46.0634259" lon="11.8538678"><ele>1017.0</ele><time>2026-03-28T12:28:21.783Z</time></trkpt><trkpt lat="46.0633986" lon="11.8537779"><ele>1017.0</ele><time>2026-03-28T12:28:25.785Z</time></trkpt><trkpt lat="46.0633816" lon="11.853677"><ele>1016.9999999999999</ele><time>2026-03-28T12:28:29.783Z</time></trkpt><trkpt lat="46.0633646" lon="11.8535886"><ele>1017.0</ele><time>2026-03-28T12:28:33.786Z</time></trkpt><trkpt lat="46.0633568" lon="11.853495"><ele>1017.0</ele><time>2026-03-28T12:28:37.783Z</time></trkpt><trkpt lat="46.0633552" lon="11.8533929"><ele>1016.9999999999999</ele><time>2026-03-28T12:28:41.783Z</time></trkpt><trkpt lat="46.0633549" lon="11.8532828"><ele>1017.0</ele><time>2026-03-28T12:28:44.783Z</time></trkpt><trkpt lat="46.0633937" lon="11.8531951"><ele>1017.0</ele><time>2026-03-28T12:28:49.783Z</time></trkpt><trkpt lat="46.0634451" lon="11.8531274"><ele>1018.0</ele><time>2026-03-28T12:28:53.784Z</time></trkpt><trkpt lat="46.0634829" lon="11.8530404"><ele>1018.9999999999999</ele><time>2026-03-28T12:28:57.783Z</time></trkpt><trkpt lat="46.0635142" lon="11.8529505"><ele>1020.0</ele><time>2026-03-28T12:29:01.785Z</time></trkpt><trkpt lat="46.0635539" lon="11.8528432"><ele>1021.0</ele><time>2026-03-28T12:29:05.783Z</time></trkpt><trkpt lat="46.0635999" lon="11.8527565"><ele>1021.9999999999999</ele><time>2026-03-28T12:29:09.785Z</time></trkpt><trkpt lat="46.0636493" lon="11.8526847"><ele>1023.0</ele><time>2026-03-28T12:29:13.782Z</time></trkpt><trkpt lat="46.0636937" lon="11.8526086"><ele>1024.0</ele><time>2026-03-28T12:29:17.782Z</time></trkpt><trkpt lat="46.0637247" lon="11.8525142"><ele>1024.2857142857142</ele><time>2026-03-28T12:29:22.782Z</time></trkpt><trkpt lat="46.0637672" lon="11.852428"><ele>1024.5714285714284</ele><time>2026-03-28T12:29:27.784Z</time></trkpt><trkpt lat="46.0637978" lon="11.8523248"><ele>1024.857142857143</ele><time>2026-03-28T12:29:31.785Z</time></trkpt><trkpt lat="46.0638147" lon="11.8522174"><ele>1025.142857142857</ele><time>2026-03-28T12:29:36.785Z</time></trkpt><trkpt lat="46.0638366" lon="11.8521159"><ele>1025.4285714285716</ele><time>2026-03-28T12:29:41.783Z</time></trkpt><trkpt lat="46.0638768" lon="11.8520396"><ele>1025.7142857142858</ele><time>2026-03-28T12:29:46.783Z</time></trkpt><trkpt lat="46.0639255" lon="11.8519697"><ele>1026.0</ele><time>2026-03-28T12:29:51.783Z</time></trkpt><trkpt lat="46.0639578" lon="11.8518907"><ele>1026.0000000000002</ele><time>2026-03-28T12:29:55.783Z</time></trkpt><trkpt lat="46.0639972" lon="11.8518035"><ele>1026.0</ele><time>2026-03-28T12:30:01.784Z</time></trkpt><trkpt lat="46.0640508" lon="11.8517111"><ele>1026.0</ele><time>2026-03-28T12:30:06.782Z</time></trkpt><trkpt lat="46.0640909" lon="11.8516227"><ele>1026.0</ele><time>2026-03-28T12:30:11.783Z</time></trkpt><trkpt lat="46.0641282" lon="11.8515307"><ele>1026.0</ele><time>2026-03-28T12:30:17.783Z</time></trkpt><trkpt lat="46.0641566" lon="11.8514485"><ele>1026.0000000000002</ele><time>2026-03-28T12:30:22.782Z</time></trkpt><trkpt lat="46.0642174" lon="11.8513826"><ele>1026.0</ele><time>2026-03-28T12:30:28.784Z</time></trkpt><trkpt lat="46.0642902" lon="11.8513631"><ele>1029.5714285714287</ele><time>2026-03-28T12:30:33.783Z</time></trkpt><trkpt lat="46.0643549" lon="11.8513557"><ele>1033.142857142857</ele><time>2026-03-28T12:30:37.783Z</time></trkpt><trkpt lat="46.0644203" lon="11.8513444"><ele>1036.7142857142858</ele><time>2026-03-28T12:30:42.785Z</time></trkpt><trkpt lat="46.0644912" lon="11.8513416"><ele>1040.2857142857142</ele><time>2026-03-28T12:30:47.784Z</time></trkpt><trkpt lat="46.0645625" lon="11.8513261"><ele>1043.857142857143</ele><time>2026-03-28T12:30:53.783Z</time></trkpt><trkpt lat="46.064626" lon="11.8513117"><ele>1047.4285714285716</ele><time>2026-03-28T12:30:57.783Z</time></trkpt><trkpt lat="46.0646896" lon="11.8512768"><ele>1051.0</ele><time>2026-03-28T12:31:01.783Z</time></trkpt><trkpt lat="46.0647501" lon="11.8512411"><ele>1051.0</ele><time>2026-03-28T12:31:05.783Z</time></trkpt><trkpt lat="46.0648063" lon="11.8511829"><ele>1051.0</ele><time>2026-03-28T12:31:09.785Z</time></trkpt><trkpt lat="46.0648799" lon="11.8511756"><ele>1051.0</ele><time>2026-03-28T12:31:14.783Z</time></trkpt><trkpt lat="46.0649393" lon="11.8511378"><ele>1051.0</ele><time>2026-03-28T12:31:19.785Z</time></trkpt><trkpt lat="46.0650016" lon="11.8510729"><ele>1051.0</ele><time>2026-03-28T12:31:23.783Z</time></trkpt><trkpt lat="46.0650664" lon="11.8510271"><ele>1051.0</ele><time>2026-03-28T12:31:30.785Z</time></trkpt><trkpt lat="46.0651246" lon="11.8509834"><ele>1051.0</ele><time>2026-03-28T12:31:36.785Z</time></trkpt><trkpt lat="46.0651986" lon="11.8509492"><ele>1052.0</ele><time>2026-03-28T12:31:44.783Z</time></trkpt><trkpt lat="46.0652693" lon="11.8509453"><ele>1053.0</ele><time>2026-03-28T12:31:49.783Z</time></trkpt><trkpt lat="46.0653525" lon="11.8509256"><ele>1054.0</ele><time>2026-03-28T12:31:53.782Z</time></trkpt><trkpt lat="46.0654135" lon="11.8508998"><ele>1055.0</ele><time>2026-03-28T12:31:56.785Z</time></trkpt><trkpt lat="46.0654895" lon="11.8508736"><ele>1056.0</ele><time>2026-03-28T12:32:00.785Z</time></trkpt><trkpt lat="46.0655638" lon="11.850855"><ele>1057.0</ele><time>2026-03-28T12:32:04.782Z</time></trkpt><trkpt lat="46.0656349" lon="11.8508305"><ele>1058.0</ele><time>2026-03-28T12:32:08.785Z</time></trkpt><trkpt lat="46.0657163" lon="11.8508102"><ele>1060.857142857143</ele><time>2026-03-28T12:32:12.785Z</time></trkpt><trkpt lat="46.065786" lon="11.8507969"><ele>1063.7142857142858</ele><time>2026-03-28T12:32:15.785Z</time></trkpt><trkpt lat="46.0658564" lon="11.8507518"><ele>1066.5714285714284</ele><time>2026-03-28T12:32:19.783Z</time></trkpt><trkpt lat="46.0659175" lon="11.8507239"><ele>1069.4285714285716</ele><time>2026-03-28T12:32:22.783Z</time></trkpt><trkpt lat="46.0659883" lon="11.8506728"><ele>1072.2857142857142</ele><time>2026-03-28T12:32:25.783Z</time></trkpt><trkpt lat="46.0660546" lon="11.8506251"><ele>1075.142857142857</ele><time>2026-03-28T12:32:30.783Z</time></trkpt><trkpt lat="46.066112" lon="11.8505833"><ele>1078.0</ele><time>2026-03-28T12:32:34.783Z</time></trkpt><trkpt lat="46.0661735" lon="11.8505092"><ele>1078.0</ele><time>2026-03-28T12:32:37.783Z</time></trkpt><trkpt lat="46.0662455" lon="11.8504328"><ele>1078.0</ele><time>2026-03-28T12:32:40.782Z</time></trkpt><trkpt lat="46.0663031" lon="11.8503852"><ele>1078.0</ele><time>2026-03-28T12:32:42.785Z</time></trkpt><trkpt lat="46.0663769" lon="11.850311"><ele>1078.0</ele><time>2026-03-28T12:32:45.785Z</time></trkpt><trkpt lat="46.0664495" lon="11.850223"><ele>1078.0</ele><time>2026-03-28T12:32:48.783Z</time></trkpt><trkpt lat="46.0665037" lon="11.8501572"><ele>1078.0</ele><time>2026-03-28T12:32:51.783Z</time></trkpt><trkpt lat="46.0665582" lon="11.8501026"><ele>1078.0</ele><time>2026-03-28T12:32:55.783Z</time></trkpt><trkpt lat="46.0666126" lon="11.8500357"><ele>1078.0</ele><time>2026-03-28T12:32:59.783Z</time></trkpt><trkpt lat="46.0666646" lon="11.8499596"><ele>1078.0</ele><time>2026-03-28T12:33:02.785Z</time></trkpt><trkpt lat="46.0666971" lon="11.8498765"><ele>1078.0</ele><time>2026-03-28T12:33:05.785Z</time></trkpt><trkpt lat="46.0667447" lon="11.8497904"><ele>1078.0</ele><time>2026-03-28T12:33:08.783Z</time></trkpt><trkpt lat="46.0667941" lon="11.8496894"><ele>1078.0</ele><time>2026-03-28T12:33:11.785Z</time></trkpt><trkpt lat="46.0668352" lon="11.8495824"><ele>1078.0</ele><time>2026-03-28T12:33:14.783Z</time></trkpt><trkpt lat="46.0668525" lon="11.8494696"><ele>1078.0</ele><time>2026-03-28T12:33:17.783Z</time></trkpt><trkpt lat="46.0668554" lon="11.8493703"><ele>1078.0</ele><time>2026-03-28T12:33:20.784Z</time></trkpt><trkpt lat="46.0668303" lon="11.8492715"><ele>1078.0</ele><time>2026-03-28T12:33:23.785Z</time></trkpt><trkpt lat="46.0667802" lon="11.8491646"><ele>1078.0</ele><time>2026-03-28T12:33:26.785Z</time></trkpt><trkpt lat="46.0667214" lon="11.8490799"><ele>1078.0</ele><time>2026-03-28T12:33:29.783Z</time></trkpt><trkpt lat="46.0666554" lon="11.8490215"><ele>1072.0</ele><time>2026-03-28T12:33:32.783Z</time></trkpt><trkpt lat="46.0665781" lon="11.8489337"><ele>1066.0</ele><time>2026-03-28T12:33:35.786Z</time></trkpt><trkpt lat="46.0665255" lon="11.8488715"><ele>1060.0</ele><time>2026-03-28T12:33:37.782Z</time></trkpt><trkpt lat="46.0664725" lon="11.8487862"><ele>1054.0</ele><time>2026-03-28T12:33:39.784Z</time></trkpt><trkpt lat="46.066417" lon="11.8486855"><ele>1048.0</ele><time>2026-03-28T12:33:41.786Z</time></trkpt><trkpt lat="46.0663693" lon="11.8485939"><ele>1042.0</ele><time>2026-03-28T12:33:43.785Z</time></trkpt><trkpt lat="46.0663272" lon="11.8485114"><ele>1043.0</ele><time>2026-03-28T12:33:45.786Z</time></trkpt><trkpt lat="46.0662826" lon="11.8484016"><ele>1044.0</ele><time>2026-03-28T12:33:48.786Z</time></trkpt><trkpt lat="46.0662393" lon="11.8483093"><ele>1045.0</ele><time>2026-03-28T12:33:51.783Z</time></trkpt><trkpt lat="46.0662049" lon="11.8481981"><ele>1046.0</ele><time>2026-03-28T12:33:55.782Z</time></trkpt><trkpt lat="46.0661819" lon="11.8481121"><ele>1047.0</ele><time>2026-03-28T12:33:58.782Z</time></trkpt><trkpt lat="46.0661604" lon="11.848026"><ele>1048.0</ele><time>2026-03-28T12:34:01.782Z</time></trkpt><trkpt lat="46.066136" lon="11.8479303"><ele>1049.0</ele><time>2026-03-28T12:34:04.784Z</time></trkpt><trkpt lat="46.0661029" lon="11.8478223"><ele>1049.0</ele><time>2026-03-28T12:34:07.782Z</time></trkpt><trkpt lat="46.0660657" lon="11.8477445"><ele>1049.0</ele><time>2026-03-28T12:34:12.785Z</time></trkpt><trkpt lat="46.066051" lon="11.8476486"><ele>1049.0</ele><time>2026-03-28T12:34:18.78Z</time></trkpt><trkpt lat="46.0659805" lon="11.8475637"><ele>1049.0</ele><time>2026-03-28T12:35:15.784Z</time></trkpt><trkpt lat="46.0660223" lon="11.8474857"><ele>1049.0</ele><time>2026-03-28T12:35:18.784Z</time></trkpt><trkpt lat="46.066047" lon="11.8473969"><ele>1049.0</ele><time>2026-03-28T12:35:21.783Z</time></trkpt><trkpt lat="46.0660801" lon="11.8473055"><ele>1049.0</ele><time>2026-03-28T12:35:23.782Z</time></trkpt><trkpt lat="46.0661222" lon="11.8471827"><ele>1048.5</ele><time>2026-03-28T12:35:25.784Z</time></trkpt><trkpt lat="46.0661399" lon="11.8470731"><ele>1048.0</ele><time>2026-03-28T12:35:27.782Z</time></trkpt><trkpt lat="46.066148" lon="11.8469728"><ele>1047.5</ele><time>2026-03-28T12:35:29.782Z</time></trkpt><trkpt lat="46.0661807" lon="11.8468425"><ele>1047.0</ele><time>2026-03-28T12:35:31.781Z</time></trkpt><trkpt lat="46.0661948" lon="11.8467286"><ele>1046.5</ele><time>2026-03-28T12:35:33.785Z</time></trkpt><trkpt lat="46.0661951" lon="11.8466049"><ele>1046.0</ele><time>2026-03-28T12:35:35.784Z</time></trkpt><trkpt lat="46.0661989" lon="11.8464858"><ele>1044.3333333333335</ele><time>2026-03-28T12:35:37.783Z</time></trkpt><trkpt lat="46.0662126" lon="11.8463837"><ele>1042.6666666666667</ele><time>2026-03-28T12:35:39.784Z</time></trkpt><trkpt lat="46.0662298" lon="11.846263"><ele>1041.0</ele><time>2026-03-28T12:35:41.782Z</time></trkpt><trkpt lat="46.0662442" lon="11.8461619"><ele>1039.3333333333333</ele><time>2026-03-28T12:35:43.784Z</time></trkpt><trkpt lat="46.0662717" lon="11.8460714"><ele>1037.6666666666665</ele><time>2026-03-28T12:35:45.784Z</time></trkpt><trkpt lat="46.0663132" lon="11.845961"><ele>1036.0</ele><time>2026-03-28T12:35:48.784Z</time></trkpt><trkpt lat="46.0663587" lon="11.8458544"><ele>1034.5</ele><time>2026-03-28T12:35:51.782Z</time></trkpt><trkpt lat="46.0663959" lon="11.8457463"><ele>1033.0</ele><time>2026-03-28T12:35:54.784Z</time></trkpt><trkpt lat="46.0664303" lon="11.8456463"><ele>1031.5</ele><time>2026-03-28T12:35:57.782Z</time></trkpt><trkpt lat="46.0664702" lon="11.8455599"><ele>1030.0</ele><time>2026-03-28T12:36:00.783Z</time></trkpt><trkpt lat="46.0665393" lon="11.8454968"><ele>1028.5</ele><time>2026-03-28T12:36:04.783Z</time></trkpt><trkpt lat="46.0665939" lon="11.8454199"><ele>1027.0</ele><time>2026-03-28T12:36:07.782Z</time></trkpt><trkpt lat="46.0666545" lon="11.8453327"><ele>1029.5714285714287</ele><time>2026-03-28T12:36:10.782Z</time></trkpt><trkpt lat="46.0667222" lon="11.8452386"><ele>1032.1428571428573</ele><time>2026-03-28T12:36:13.782Z</time></trkpt><trkpt lat="46.0667699" lon="11.8451708"><ele>1034.7142857142858</ele><time>2026-03-28T12:36:16.781Z</time></trkpt><trkpt lat="46.0668307" lon="11.8450946"><ele>1037.2857142857142</ele><time>2026-03-28T12:36:19.784Z</time></trkpt><trkpt lat="46.066872" lon="11.845016"><ele>1039.8571428571427</ele><time>2026-03-28T12:36:21.784Z</time></trkpt><trkpt lat="46.0669113" lon="11.8449421"><ele>1042.4285714285713</ele><time>2026-03-28T12:36:23.782Z</time></trkpt><trkpt lat="46.0669512" lon="11.844857"><ele>1045.0</ele><time>2026-03-28T12:36:25.782Z</time></trkpt><trkpt lat="46.0670001" lon="11.8447665"><ele>1045.0</ele><time>2026-03-28T12:36:28.782Z</time></trkpt><trkpt lat="46.0670579" lon="11.8447198"><ele>1045.0</ele><time>2026-03-28T12:36:33.781Z</time></trkpt><trkpt lat="46.0671393" lon="11.8446484"><ele>1045.0</ele><time>2026-03-28T12:36:36.782Z</time></trkpt><trkpt lat="46.0671852" lon="11.8445538"><ele>1045.0</ele><time>2026-03-28T12:36:39.784Z</time></trkpt><trkpt lat="46.0671916" lon="11.8444321"><ele>1045.0</ele><time>2026-03-28T12:36:42.784Z</time></trkpt><trkpt lat="46.0671924" lon="11.844329"><ele>1045.0</ele><time>2026-03-28T12:36:45.784Z</time></trkpt><trkpt lat="46.0671953" lon="11.844191"><ele>1043.7142857142858</ele><time>2026-03-28T12:36:48.782Z</time></trkpt><trkpt lat="46.0672167" lon="11.8440705"><ele>1042.4285714285713</ele><time>2026-03-28T12:36:51.784Z</time></trkpt><trkpt lat="46.067239" lon="11.8439765"><ele>1041.142857142857</ele><time>2026-03-28T12:36:53.784Z</time></trkpt><trkpt lat="46.0672653" lon="11.8438867"><ele>1039.857142857143</ele><time>2026-03-28T12:36:55.782Z</time></trkpt><trkpt lat="46.067291" lon="11.843784"><ele>1038.5714285714284</ele><time>2026-03-28T12:36:57.783Z</time></trkpt><trkpt lat="46.0673099" lon="11.8436917"><ele>1037.2857142857142</ele><time>2026-03-28T12:36:59.782Z</time></trkpt><trkpt lat="46.067303" lon="11.8435898"><ele>1036.0</ele><time>2026-03-28T12:37:01.782Z</time></trkpt><trkpt lat="46.0673032" lon="11.8434881"><ele>1035.8333333333333</ele><time>2026-03-28T12:37:03.782Z</time></trkpt><trkpt lat="46.0672926" lon="11.8433982"><ele>1035.6666666666665</ele><time>2026-03-28T12:37:05.782Z</time></trkpt><trkpt lat="46.0672887" lon="11.8432744"><ele>1035.5</ele><time>2026-03-28T12:37:08.78Z</time></trkpt><trkpt lat="46.0672767" lon="11.8431665"><ele>1035.3333333333333</ele><time>2026-03-28T12:37:11.783Z</time></trkpt><trkpt lat="46.0672689" lon="11.8430463"><ele>1035.1666666666667</ele><time>2026-03-28T12:37:14.78Z</time></trkpt><trkpt lat="46.0672573" lon="11.8429105"><ele>1035.0</ele><time>2026-03-28T12:37:16.782Z</time></trkpt><trkpt lat="46.0672439" lon="11.8427543"><ele>1035.5</ele><time>2026-03-28T12:37:18.785Z</time></trkpt><trkpt lat="46.0672388" lon="11.8426119"><ele>1036.0</ele><time>2026-03-28T12:37:20.783Z</time></trkpt><trkpt lat="46.0672502" lon="11.8424831"><ele>1036.5</ele><time>2026-03-28T12:37:22.783Z</time></trkpt><trkpt lat="46.0672649" lon="11.8423563"><ele>1037.0</ele><time>2026-03-28T12:37:24.784Z</time></trkpt><trkpt lat="46.067289" lon="11.8422468"><ele>1037.5</ele><time>2026-03-28T12:37:26.784Z</time></trkpt><trkpt lat="46.0673138" lon="11.8421323"><ele>1038.0</ele><time>2026-03-28T12:37:28.785Z</time></trkpt><trkpt lat="46.0673244" lon="11.8419975"><ele>1038.0</ele><time>2026-03-28T12:37:30.783Z</time></trkpt><trkpt lat="46.067334" lon="11.8418567"><ele>1038.0</ele><time>2026-03-28T12:37:32.785Z</time></trkpt><trkpt lat="46.0673207" lon="11.8417227"><ele>1038.0</ele><time>2026-03-28T12:37:34.783Z</time></trkpt><trkpt lat="46.0673439" lon="11.8416119"><ele>1038.0</ele><time>2026-03-28T12:37:37.783Z</time></trkpt><trkpt lat="46.0673697" lon="11.8415098"><ele>1038.0</ele><time>2026-03-28T12:37:41.783Z</time></trkpt><trkpt lat="46.0673613" lon="11.8414192"><ele>1038.0</ele><time>2026-03-28T12:37:43.783Z</time></trkpt><trkpt lat="46.0673259" lon="11.8413302"><ele>1037.5</ele><time>2026-03-28T12:37:45.784Z</time></trkpt><trkpt lat="46.0673188" lon="11.8412153"><ele>1037.0</ele><time>2026-03-28T12:37:48.784Z</time></trkpt><trkpt lat="46.0673316" lon="11.8410923"><ele>1036.5</ele><time>2026-03-28T12:37:51.785Z</time></trkpt><trkpt lat="46.0673579" lon="11.8409975"><ele>1036.0</ele><time>2026-03-28T12:37:53.784Z</time></trkpt><trkpt lat="46.0673831" lon="11.8408951"><ele>1035.5</ele><time>2026-03-28T12:37:55.782Z</time></trkpt><trkpt lat="46.067427" lon="11.8407889"><ele>1035.0</ele><time>2026-03-28T12:37:57.783Z</time></trkpt><trkpt lat="46.0674677" lon="11.8406884"><ele>1039.5</ele><time>2026-03-28T12:37:59.783Z</time></trkpt><trkpt lat="46.0675032" lon="11.84059"><ele>1044.0</ele><time>2026-03-28T12:38:01.783Z</time></trkpt><trkpt lat="46.0675231" lon="11.8404831"><ele>1048.5</ele><time>2026-03-28T12:38:04.782Z</time></trkpt><trkpt lat="46.0675466" lon="11.8403869"><ele>1053.0</ele><time>2026-03-28T12:38:07.783Z</time></trkpt><trkpt lat="46.067555" lon="11.8402697"><ele>1057.5</ele><time>2026-03-28T12:38:10.784Z</time></trkpt><trkpt lat="46.0675433" lon="11.8401719"><ele>1062.0</ele><time>2026-03-28T12:38:12.785Z</time></trkpt><trkpt lat="46.0675219" lon="11.8400623"><ele>1062.0</ele><time>2026-03-28T12:38:14.784Z</time></trkpt><trkpt lat="46.0674816" lon="11.8399438"><ele>1062.0</ele><time>2026-03-28T12:38:16.781Z</time></trkpt><trkpt lat="46.0674286" lon="11.8398364"><ele>1062.0</ele><time>2026-03-28T12:38:18.783Z</time></trkpt><trkpt lat="46.0673792" lon="11.839733"><ele>1062.0</ele><time>2026-03-28T12:38:20.783Z</time></trkpt><trkpt lat="46.0673205" lon="11.8396245"><ele>1062.0</ele><time>2026-03-28T12:38:22.782Z</time></trkpt><trkpt lat="46.0672544" lon="11.8395314"><ele>1057.5</ele><time>2026-03-28T12:38:24.784Z</time></trkpt><trkpt lat="46.0672058" lon="11.8394391"><ele>1053.0</ele><time>2026-03-28T12:38:26.782Z</time></trkpt><trkpt lat="46.067172" lon="11.8393167"><ele>1048.5</ele><time>2026-03-28T12:38:29.781Z</time></trkpt><trkpt lat="46.0671618" lon="11.8391902"><ele>1044.0</ele><time>2026-03-28T12:38:32.785Z</time></trkpt><trkpt lat="46.0671629" lon="11.8390747"><ele>1039.5</ele><time>2026-03-28T12:38:35.783Z</time></trkpt><trkpt lat="46.0671618" lon="11.8389768"><ele>1035.0</ele><time>2026-03-28T12:38:38.783Z</time></trkpt><trkpt lat="46.0671275" lon="11.8388656"><ele>1035.0</ele><time>2026-03-28T12:38:42.784Z</time></trkpt><trkpt lat="46.0670596" lon="11.8387926"><ele>1035.0</ele><time>2026-03-28T12:38:45.785Z</time></trkpt><trkpt lat="46.0670102" lon="11.838717"><ele>1035.0</ele><time>2026-03-28T12:38:48.784Z</time></trkpt><trkpt lat="46.0669753" lon="11.838624"><ele>1035.0</ele><time>2026-03-28T12:38:51.782Z</time></trkpt><trkpt lat="46.0669323" lon="11.8385311"><ele>1035.0</ele><time>2026-03-28T12:38:53.779Z</time></trkpt><trkpt lat="46.0668673" lon="11.8383868"><ele>1035.0</ele><time>2026-03-28T12:38:55.78Z</time></trkpt><trkpt lat="46.0668055" lon="11.8382488"><ele>1037.6</ele><time>2026-03-28T12:38:57.78Z</time></trkpt><trkpt lat="46.066739" lon="11.8381396"><ele>1040.2</ele><time>2026-03-28T12:38:59.781Z</time></trkpt><trkpt lat="46.0666575" lon="11.8380485"><ele>1042.8</ele><time>2026-03-28T12:39:01.78Z</time></trkpt><trkpt lat="46.0665856" lon="11.8379491"><ele>1045.4</ele><time>2026-03-28T12:39:03.781Z</time></trkpt><trkpt lat="46.0665407" lon="11.8378811"><ele>1048.0</ele><time>2026-03-28T12:39:05.78Z</time></trkpt><trkpt lat="46.0664957" lon="11.8377624"><ele>1044.7142857142858</ele><time>2026-03-28T12:39:08.782Z</time></trkpt><trkpt lat="46.0664703" lon="11.837679"><ele>1041.4285714285716</ele><time>2026-03-28T12:39:11.78Z</time></trkpt><trkpt lat="46.0664395" lon="11.8375786"><ele>1038.142857142857</ele><time>2026-03-28T12:39:15.78Z</time></trkpt><trkpt lat="46.0664195" lon="11.8374753"><ele>1034.857142857143</ele><time>2026-03-28T12:39:19.781Z</time></trkpt><trkpt lat="46.0664087" lon="11.8373813"><ele>1031.5714285714284</ele><time>2026-03-28T12:39:23.78Z</time></trkpt><trkpt lat="46.0664263" lon="11.8372739"><ele>1028.2857142857142</ele><time>2026-03-28T12:39:27.78Z</time></trkpt><trkpt lat="46.0664504" lon="11.8371657"><ele>1025.0</ele><time>2026-03-28T12:39:30.78Z</time></trkpt><trkpt lat="46.0664655" lon="11.8370739"><ele>1025.0</ele><time>2026-03-28T12:39:32.781Z</time></trkpt><trkpt lat="46.066475" lon="11.8369576"><ele>1025.0</ele><time>2026-03-28T12:39:34.78Z</time></trkpt><trkpt lat="46.0664766" lon="11.83683"><ele>1025.0</ele><time>2026-03-28T12:39:36.781Z</time></trkpt><trkpt lat="46.0664698" lon="11.8367206"><ele>1025.0</ele><time>2026-03-28T12:39:38.78Z</time></trkpt><trkpt lat="46.066466" lon="11.8366294"><ele>1025.0</ele><time>2026-03-28T12:39:40.78Z</time></trkpt><trkpt lat="46.0664406" lon="11.8364978"><ele>1025.0</ele><time>2026-03-28T12:39:43.78Z</time></trkpt><trkpt lat="46.0663942" lon="11.8363906"><ele>1025.6666666666667</ele><time>2026-03-28T12:39:46.781Z</time></trkpt><trkpt lat="46.0663443" lon="11.8363028"><ele>1026.3333333333335</ele><time>2026-03-28T12:39:49.78Z</time></trkpt><trkpt lat="46.0662959" lon="11.8361923"><ele>1027.0</ele><time>2026-03-28T12:39:52.78Z</time></trkpt><trkpt lat="46.0662503" lon="11.8361221"><ele>1027.6666666666667</ele><time>2026-03-28T12:39:54.78Z</time></trkpt><trkpt lat="46.0662012" lon="11.8360437"><ele>1028.3333333333333</ele><time>2026-03-28T12:39:56.781Z</time></trkpt><trkpt lat="46.0661612" lon="11.8359622"><ele>1029.0</ele><time>2026-03-28T12:39:59.78Z</time></trkpt><trkpt lat="46.0661356" lon="11.8358656"><ele>1030.8333333333333</ele><time>2026-03-28T12:40:03.78Z</time></trkpt><trkpt lat="46.0661466" lon="11.8357618"><ele>1032.6666666666667</ele><time>2026-03-28T12:40:06.78Z</time></trkpt><trkpt lat="46.0661821" lon="11.8356743"><ele>1034.5</ele><time>2026-03-28T12:40:10.78Z</time></trkpt><trkpt lat="46.0662078" lon="11.8355381"><ele>1036.3333333333335</ele><time>2026-03-28T12:40:14.78Z</time></trkpt><trkpt lat="46.0662308" lon="11.8354397"><ele>1038.1666666666667</ele><time>2026-03-28T12:40:16.78Z</time></trkpt><trkpt lat="46.0662436" lon="11.8353299"><ele>1040.0</ele><time>2026-03-28T12:40:18.78Z</time></trkpt><trkpt lat="46.0662667" lon="11.8352066"><ele>1040.6666666666667</ele><time>2026-03-28T12:40:21.78Z</time></trkpt><trkpt lat="46.0662406" lon="11.8350863"><ele>1041.3333333333335</ele><time>2026-03-28T12:40:23.78Z</time></trkpt><trkpt lat="46.0662181" lon="11.8349767"><ele>1042.0</ele><time>2026-03-28T12:40:25.781Z</time></trkpt><trkpt lat="46.0661815" lon="11.8348477"><ele>1042.6666666666667</ele><time>2026-03-28T12:40:27.779Z</time></trkpt><trkpt lat="46.0661574" lon="11.8347325"><ele>1043.3333333333333</ele><time>2026-03-28T12:40:29.782Z</time></trkpt><trkpt lat="46.066139" lon="11.8346027"><ele>1044.0</ele><time>2026-03-28T12:40:31.782Z</time></trkpt><trkpt lat="46.0661272" lon="11.8344808"><ele>1044.0</ele><time>2026-03-28T12:40:33.78Z</time></trkpt><trkpt lat="46.0661279" lon="11.8343714"><ele>1044.0</ele><time>2026-03-28T12:40:35.78Z</time></trkpt><trkpt lat="46.0661228" lon="11.8342371"><ele>1044.0</ele><time>2026-03-28T12:40:38.781Z</time></trkpt><trkpt lat="46.0661031" lon="11.8341365"><ele>1044.0</ele><time>2026-03-28T12:40:40.78Z</time></trkpt><trkpt lat="46.0660883" lon="11.8340033"><ele>1044.0</ele><time>2026-03-28T12:40:43.781Z</time></trkpt><trkpt lat="46.0660935" lon="11.8338732"><ele>1044.0</ele><time>2026-03-28T12:40:46.78Z</time></trkpt><trkpt lat="46.066088" lon="11.833744"><ele>1043.8333333333333</ele><time>2026-03-28T12:40:49.78Z</time></trkpt><trkpt lat="46.0661034" lon="11.8336139"><ele>1043.6666666666667</ele><time>2026-03-28T12:40:52.78Z</time></trkpt><trkpt lat="46.0661147" lon="11.833507"><ele>1043.5</ele><time>2026-03-28T12:40:54.78Z</time></trkpt><trkpt lat="46.0661204" lon="11.8333654"><ele>1043.3333333333335</ele><time>2026-03-28T12:40:56.78Z</time></trkpt><trkpt lat="46.0661481" lon="11.8332492"><ele>1043.1666666666667</ele><time>2026-03-28T12:40:58.78Z</time></trkpt><trkpt lat="46.0661743" lon="11.8331172"><ele>1043.0</ele><time>2026-03-28T12:41:01.78Z</time></trkpt><trkpt lat="46.0661626" lon="11.8330249"><ele>1043.0</ele><time>2026-03-28T12:41:03.78Z</time></trkpt><trkpt lat="46.0661359" lon="11.832918"><ele>1043.0</ele><time>2026-03-28T12:41:05.78Z</time></trkpt><trkpt lat="46.066106" lon="11.8328187"><ele>1043.0</ele><time>2026-03-28T12:41:07.78Z</time></trkpt><trkpt lat="46.0660671" lon="11.8327263"><ele>1043.0</ele><time>2026-03-28T12:41:09.78Z</time></trkpt><trkpt lat="46.0660251" lon="11.8326482"><ele>1043.0</ele><time>2026-03-28T12:41:11.779Z</time></trkpt><trkpt lat="46.0659642" lon="11.8325296"><ele>1043.0</ele><time>2026-03-28T12:41:14.781Z</time></trkpt><trkpt lat="46.0659201" lon="11.8324414"><ele>1044.3333333333335</ele><time>2026-03-28T12:41:16.781Z</time></trkpt><trkpt lat="46.0658803" lon="11.8323455"><ele>1045.6666666666667</ele><time>2026-03-28T12:41:18.78Z</time></trkpt><trkpt lat="46.0658447" lon="11.8322606"><ele>1047.0</ele><time>2026-03-28T12:41:20.781Z</time></trkpt><trkpt lat="46.0658011" lon="11.8321606"><ele>1048.3333333333333</ele><time>2026-03-28T12:41:22.78Z</time></trkpt><trkpt lat="46.0657519" lon="11.8320552"><ele>1049.6666666666665</ele><time>2026-03-28T12:41:24.78Z</time></trkpt><trkpt lat="46.0657198" lon="11.8319276"><ele>1051.0</ele><time>2026-03-28T12:41:26.78Z</time></trkpt><trkpt lat="46.0656904" lon="11.831803"><ele>1048.0</ele><time>2026-03-28T12:41:28.781Z</time></trkpt><trkpt lat="46.0656565" lon="11.8316944"><ele>1045.0</ele><time>2026-03-28T12:41:30.78Z</time></trkpt><trkpt lat="46.0656145" lon="11.831585"><ele>1042.0</ele><time>2026-03-28T12:41:32.781Z</time></trkpt><trkpt lat="46.0655841" lon="11.8314824"><ele>1039.0</ele><time>2026-03-28T12:41:34.78Z</time></trkpt><trkpt lat="46.0655605" lon="11.8313979"><ele>1036.0</ele><time>2026-03-28T12:41:36.78Z</time></trkpt><trkpt lat="46.0655422" lon="11.8313065"><ele>1033.0</ele><time>2026-03-28T12:41:38.781Z</time></trkpt><trkpt lat="46.0655286" lon="11.8312016"><ele>1033.0</ele><time>2026-03-28T12:41:40.781Z</time></trkpt><trkpt lat="46.0655189" lon="11.8311107"><ele>1033.0</ele><time>2026-03-28T12:41:42.78Z</time></trkpt><trkpt lat="46.065516" lon="11.8310119"><ele>1033.0</ele><time>2026-03-28T12:41:44.781Z</time></trkpt><trkpt lat="46.0655" lon="11.8309041"><ele>1033.0</ele><time>2026-03-28T12:41:46.781Z</time></trkpt><trkpt lat="46.065456" lon="11.8308084"><ele>1033.0</ele><time>2026-03-28T12:41:48.78Z</time></trkpt><trkpt lat="46.0653909" lon="11.830735"><ele>1033.0</ele><time>2026-03-28T12:41:50.781Z</time></trkpt><trkpt lat="46.0652969" lon="11.8306756"><ele>1033.4</ele><time>2026-03-28T12:41:52.783Z</time></trkpt><trkpt lat="46.0651994" lon="11.8306167"><ele>1033.8</ele><time>2026-03-28T12:41:54.78Z</time></trkpt><trkpt lat="46.0651229" lon="11.8305567"><ele>1034.2</ele><time>2026-03-28T12:41:56.781Z</time></trkpt><trkpt lat="46.0650358" lon="11.8305083"><ele>1034.6</ele><time>2026-03-28T12:41:58.782Z</time></trkpt><trkpt lat="46.0649549" lon="11.8304395"><ele>1035.0</ele><time>2026-03-28T12:42:00.781Z</time></trkpt><trkpt lat="46.0648606" lon="11.8303819"><ele>1035.0</ele><time>2026-03-28T12:42:02.782Z</time></trkpt><trkpt lat="46.0647837" lon="11.8303253"><ele>1035.0</ele><time>2026-03-28T12:42:04.782Z</time></trkpt><trkpt lat="46.0646914" lon="11.8302917"><ele>1035.0</ele><time>2026-03-28T12:42:06.779Z</time></trkpt><trkpt lat="46.0646094" lon="11.8303056"><ele>1035.0</ele><time>2026-03-28T12:42:08.782Z</time></trkpt><trkpt lat="46.064543" lon="11.8303387"><ele>1035.0</ele><time>2026-03-28T12:42:10.781Z</time></trkpt><trkpt lat="46.0644772" lon="11.8303649"><ele>1035.0</ele><time>2026-03-28T12:42:12.78Z</time></trkpt><trkpt lat="46.0643973" lon="11.8304055"><ele>1035.0</ele><time>2026-03-28T12:42:15.78Z</time></trkpt><trkpt lat="46.0643195" lon="11.830439"><ele>1035.0</ele><time>2026-03-28T12:42:18.78Z</time></trkpt><trkpt lat="46.0642426" lon="11.8304606"><ele>1035.0</ele><time>2026-03-28T12:42:21.779Z</time></trkpt><trkpt lat="46.0641586" lon="11.8304579"><ele>1035.0</ele><time>2026-03-28T12:42:24.78Z</time></trkpt><trkpt lat="46.0640721" lon="11.8304313"><ele>1035.0</ele><time>2026-03-28T12:42:27.78Z</time></trkpt><trkpt lat="46.0639827" lon="11.8304039"><ele>1035.0</ele><time>2026-03-28T12:42:30.781Z</time></trkpt><trkpt lat="46.0639087" lon="11.830347"><ele>1034.6</ele><time>2026-03-28T12:42:33.78Z</time></trkpt><trkpt lat="46.0638452" lon="11.8302848"><ele>1034.2</ele><time>2026-03-28T12:42:35.78Z</time></trkpt><trkpt lat="46.0637638" lon="11.8302136"><ele>1033.8</ele><time>2026-03-28T12:42:37.781Z</time></trkpt><trkpt lat="46.0636801" lon="11.8301354"><ele>1033.4</ele><time>2026-03-28T12:42:39.78Z</time></trkpt><trkpt lat="46.0636117" lon="11.8300571"><ele>1033.0</ele><time>2026-03-28T12:42:41.781Z</time></trkpt><trkpt lat="46.0635205" lon="11.8300076"><ele>1033.0</ele><time>2026-03-28T12:42:43.781Z</time></trkpt><trkpt lat="46.0634279" lon="11.8299795"><ele>1033.0</ele><time>2026-03-28T12:42:45.781Z</time></trkpt><trkpt lat="46.063332" lon="11.8299785"><ele>1033.0</ele><time>2026-03-28T12:42:47.781Z</time></trkpt><trkpt lat="46.063245" lon="11.8299857"><ele>1033.0</ele><time>2026-03-28T12:42:49.782Z</time></trkpt><trkpt lat="46.0631628" lon="11.829977"><ele>1033.0</ele><time>2026-03-28T12:42:51.781Z</time></trkpt><trkpt lat="46.0630806" lon="11.8299381"><ele>1033.0</ele><time>2026-03-28T12:42:53.781Z</time></trkpt><trkpt lat="46.0630063" lon="11.8298738"><ele>1031.7142857142858</ele><time>2026-03-28T12:42:55.781Z</time></trkpt><trkpt lat="46.062948" lon="11.8298249"><ele>1030.4285714285716</ele><time>2026-03-28T12:42:57.781Z</time></trkpt><trkpt lat="46.0628805" lon="11.8298341"><ele>1029.142857142857</ele><time>2026-03-28T12:43:00.781Z</time></trkpt><trkpt lat="46.0628696" lon="11.8299345"><ele>1027.857142857143</ele><time>2026-03-28T12:43:04.781Z</time></trkpt><trkpt lat="46.0629132" lon="11.8300047"><ele>1026.5714285714284</ele><time>2026-03-28T12:43:06.781Z</time></trkpt><trkpt lat="46.0629574" lon="11.8300739"><ele>1025.2857142857142</ele><time>2026-03-28T12:43:08.782Z</time></trkpt><trkpt lat="46.0629608" lon="11.8301844"><ele>1024.0</ele><time>2026-03-28T12:43:12.781Z</time></trkpt><trkpt lat="46.062895" lon="11.8302205"><ele>1022.1666666666666</ele><time>2026-03-28T12:43:15.78Z</time></trkpt><trkpt lat="46.062826" lon="11.830214"><ele>1020.3333333333333</ele><time>2026-03-28T12:43:17.781Z</time></trkpt><trkpt lat="46.062754" lon="11.8302041"><ele>1018.5</ele><time>2026-03-28T12:43:19.78Z</time></trkpt><trkpt lat="46.0626672" lon="11.8301899"><ele>1016.6666666666667</ele><time>2026-03-28T12:43:21.78Z</time></trkpt><trkpt lat="46.0625762" lon="11.8301785"><ele>1014.8333333333334</ele><time>2026-03-28T12:43:23.78Z</time></trkpt><trkpt lat="46.0624926" lon="11.8301432"><ele>1013.0</ele><time>2026-03-28T12:43:25.781Z</time></trkpt><trkpt lat="46.06242" lon="11.8300989"><ele>1013.0</ele><time>2026-03-28T12:43:27.78Z</time></trkpt><trkpt lat="46.06236" lon="11.8300473"><ele>1013.0000000000001</ele><time>2026-03-28T12:43:29.781Z</time></trkpt><trkpt lat="46.0623009" lon="11.8300103"><ele>1013.0</ele><time>2026-03-28T12:43:31.779Z</time></trkpt><trkpt lat="46.0622382" lon="11.8299668"><ele>1013.0</ele><time>2026-03-28T12:43:33.781Z</time></trkpt><trkpt lat="46.0621674" lon="11.8299158"><ele>1013.0000000000001</ele><time>2026-03-28T12:43:36.78Z</time></trkpt><trkpt lat="46.0620896" lon="11.8298568"><ele>1013.0</ele><time>2026-03-28T12:43:39.78Z</time></trkpt><trkpt lat="46.0620293" lon="11.8298219"><ele>1013.0</ele><time>2026-03-28T12:43:42.78Z</time></trkpt><trkpt lat="46.0619528" lon="11.8297782"><ele>1013.0000000000001</ele><time>2026-03-28T12:43:45.78Z</time></trkpt><trkpt lat="46.0618717" lon="11.829745"><ele>1013.0</ele><time>2026-03-28T12:43:48.78Z</time></trkpt><trkpt lat="46.0617967" lon="11.829687"><ele>1013.0</ele><time>2026-03-28T12:43:51.78Z</time></trkpt><trkpt lat="46.0617168" lon="11.8296495"><ele>1013.0</ele><time>2026-03-28T12:43:54.78Z</time></trkpt><trkpt lat="46.0616475" lon="11.8295977"><ele>1013.0000000000001</ele><time>2026-03-28T12:43:57.78Z</time></trkpt><trkpt lat="46.0615825" lon="11.8295468"><ele>1013.0</ele><time>2026-03-28T12:44:00.78Z</time></trkpt><trkpt lat="46.06152" lon="11.8294918"><ele>1014.5000000000001</ele><time>2026-03-28T12:44:03.779Z</time></trkpt><trkpt lat="46.0614428" lon="11.8294509"><ele>1016.0</ele><time>2026-03-28T12:44:06.78Z</time></trkpt><trkpt lat="46.0613658" lon="11.8294261"><ele>1017.5</ele><time>2026-03-28T12:44:09.78Z</time></trkpt><trkpt lat="46.0612849" lon="11.8294235"><ele>1019.0</ele><time>2026-03-28T12:44:12.779Z</time></trkpt><trkpt lat="46.0612025" lon="11.8294313"><ele>1020.5000000000001</ele><time>2026-03-28T12:44:15.781Z</time></trkpt><trkpt lat="46.0611333" lon="11.8294633"><ele>1022.0</ele><time>2026-03-28T12:44:19.781Z</time></trkpt><trkpt lat="46.0610679" lon="11.829488"><ele>1022.0</ele><time>2026-03-28T12:44:23.78Z</time></trkpt><trkpt lat="46.0610093" lon="11.8295371"><ele>1022.0</ele><time>2026-03-28T12:44:28.78Z</time></trkpt><trkpt lat="46.0609641" lon="11.8296279"><ele>1022.0</ele><time>2026-03-28T12:45:20.781Z</time></trkpt><trkpt lat="46.0609025" lon="11.8296865"><ele>1022.0</ele><time>2026-03-28T12:45:25.782Z</time></trkpt><trkpt lat="46.0608443" lon="11.8297224"><ele>1022.0</ele><time>2026-03-28T12:45:28.781Z</time></trkpt><trkpt lat="46.0607746" lon="11.8297366"><ele>1022.0</ele><time>2026-03-28T12:45:31.781Z</time></trkpt><trkpt lat="46.0606984" lon="11.8297091"><ele>1022.0</ele><time>2026-03-28T12:45:35.782Z</time></trkpt><trkpt lat="46.0606369" lon="11.8296585"><ele>1023.0</ele><time>2026-03-28T12:45:38.781Z</time></trkpt><trkpt lat="46.0605733" lon="11.8296118"><ele>1024.0</ele><time>2026-03-28T12:45:41.781Z</time></trkpt><trkpt lat="46.0605005" lon="11.8295803"><ele>1025.0</ele><time>2026-03-28T12:45:44.78Z</time></trkpt><trkpt lat="46.0604347" lon="11.8295524"><ele>1026.0</ele><time>2026-03-28T12:45:47.783Z</time></trkpt><trkpt lat="46.0603665" lon="11.829519"><ele>1027.0</ele><time>2026-03-28T12:45:50.782Z</time></trkpt><trkpt lat="46.0602925" lon="11.829518"><ele>1028.0</ele><time>2026-03-28T12:45:53.782Z</time></trkpt><trkpt lat="46.0602203" lon="11.8295489"><ele>1029.0</ele><time>2026-03-28T12:45:56.781Z</time></trkpt><trkpt lat="46.0601495" lon="11.8295796"><ele>1029.0</ele><time>2026-03-28T12:45:59.782Z</time></trkpt><trkpt lat="46.0600717" lon="11.8295991"><ele>1029.0</ele><time>2026-03-28T12:46:02.781Z</time></trkpt><trkpt lat="46.0600498" lon="11.8295079"><ele>1029.0</ele><time>2026-03-28T12:46:07.783Z</time></trkpt><trkpt lat="46.060114" lon="11.8294505"><ele>1029.0</ele><time>2026-03-28T12:46:11.781Z</time></trkpt><trkpt lat="46.0601802" lon="11.8294257"><ele>1029.0</ele><time>2026-03-28T12:46:14.781Z</time></trkpt><trkpt lat="46.0602496" lon="11.8294062"><ele>1029.0</ele><time>2026-03-28T12:46:18.781Z</time></trkpt><trkpt lat="46.0603138" lon="11.8293857"><ele>1029.0</ele><time>2026-03-28T12:46:21.781Z</time></trkpt><trkpt lat="46.0603777" lon="11.8294034"><ele>1029.0</ele><time>2026-03-28T12:46:24.78Z</time></trkpt><trkpt lat="46.0604537" lon="11.8294148"><ele>1029.0</ele><time>2026-03-28T12:46:27.78Z</time></trkpt><trkpt lat="46.060532" lon="11.8294022"><ele>1029.0</ele><time>2026-03-28T12:46:30.78Z</time></trkpt><trkpt lat="46.0605972" lon="11.8293241"><ele>1029.0</ele><time>2026-03-28T12:46:33.78Z</time></trkpt><trkpt lat="46.0605662" lon="11.8292362"><ele>1029.0</ele><time>2026-03-28T12:46:37.781Z</time></trkpt><trkpt lat="46.060489" lon="11.8292104"><ele>1029.0</ele><time>2026-03-28T12:46:40.781Z</time></trkpt><trkpt lat="46.0604113" lon="11.8291969"><ele>1031.857142857143</ele><time>2026-03-28T12:46:43.781Z</time></trkpt><trkpt lat="46.0603421" lon="11.8291802"><ele>1034.7142857142858</ele><time>2026-03-28T12:46:46.78Z</time></trkpt><trkpt lat="46.0602782" lon="11.8291648"><ele>1037.5714285714284</ele><time>2026-03-28T12:46:49.781Z</time></trkpt><trkpt lat="46.0602134" lon="11.8291402"><ele>1040.4285714285716</ele><time>2026-03-28T12:46:52.78Z</time></trkpt><trkpt lat="46.0601466" lon="11.8291376"><ele>1043.2857142857142</ele><time>2026-03-28T12:46:55.783Z</time></trkpt><trkpt lat="46.0600736" lon="11.8291471"><ele>1046.142857142857</ele><time>2026-03-28T12:46:58.781Z</time></trkpt><trkpt lat="46.0599947" lon="11.8291375"><ele>1049.0</ele><time>2026-03-28T12:47:01.781Z</time></trkpt><trkpt lat="46.0599309" lon="11.8291339"><ele>1049.3333333333335</ele><time>2026-03-28T12:47:04.782Z</time></trkpt><trkpt lat="46.0598548" lon="11.8291144"><ele>1049.6666666666667</ele><time>2026-03-28T12:47:07.782Z</time></trkpt><trkpt lat="46.0597905" lon="11.8290812"><ele>1050.0</ele><time>2026-03-28T12:47:10.78Z</time></trkpt><trkpt lat="46.0597171" lon="11.8290404"><ele>1050.3333333333333</ele><time>2026-03-28T12:47:13.78Z</time></trkpt><trkpt lat="46.0596414" lon="11.8289865"><ele>1050.6666666666665</ele><time>2026-03-28T12:47:16.782Z</time></trkpt><trkpt lat="46.0595706" lon="11.8289164"><ele>1051.0</ele><time>2026-03-28T12:47:19.782Z</time></trkpt><trkpt lat="46.0595054" lon="11.8288591"><ele>1051.0</ele><time>2026-03-28T12:47:22.78Z</time></trkpt><trkpt lat="46.0594318" lon="11.8288025"><ele>1051.0</ele><time>2026-03-28T12:47:25.781Z</time></trkpt><trkpt lat="46.0593653" lon="11.8287617"><ele>1051.0</ele><time>2026-03-28T12:47:28.782Z</time></trkpt><trkpt lat="46.0592923" lon="11.8287503"><ele>1051.0</ele><time>2026-03-28T12:47:31.781Z</time></trkpt><trkpt lat="46.0592095" lon="11.8287563"><ele>1051.0</ele><time>2026-03-28T12:47:34.78Z</time></trkpt><trkpt lat="46.0591345" lon="11.8287672"><ele>1051.0</ele><time>2026-03-28T12:47:37.78Z</time></trkpt><trkpt lat="46.0590641" lon="11.8287876"><ele>1052.5714285714287</ele><time>2026-03-28T12:47:40.782Z</time></trkpt><trkpt lat="46.0589889" lon="11.8288182"><ele>1054.142857142857</ele><time>2026-03-28T12:47:43.783Z</time></trkpt><trkpt lat="46.0589125" lon="11.8288521"><ele>1055.7142857142858</ele><time>2026-03-28T12:47:46.78Z</time></trkpt><trkpt lat="46.0588356" lon="11.8288844"><ele>1057.2857142857142</ele><time>2026-03-28T12:47:49.783Z</time></trkpt><trkpt lat="46.0587638" lon="11.8289052"><ele>1058.857142857143</ele><time>2026-03-28T12:47:52.78Z</time></trkpt><trkpt lat="46.0586998" lon="11.8289208"><ele>1060.4285714285716</ele><time>2026-03-28T12:47:55.782Z</time></trkpt><trkpt lat="46.0586364" lon="11.8289314"><ele>1062.0</ele><time>2026-03-28T12:47:58.782Z</time></trkpt><trkpt lat="46.0585605" lon="11.8289658"><ele>1062.0</ele><time>2026-03-28T12:48:01.78Z</time></trkpt><trkpt lat="46.0584885" lon="11.8289837"><ele>1062.0</ele><time>2026-03-28T12:48:04.781Z</time></trkpt><trkpt lat="46.0584934" lon="11.8288729"><ele>1062.0</ele><time>2026-03-28T12:48:10.781Z</time></trkpt><trkpt lat="46.0585475" lon="11.828781"><ele>1062.0</ele><time>2026-03-28T12:48:14.78Z</time></trkpt><trkpt lat="46.0586037" lon="11.8287081"><ele>1062.0</ele><time>2026-03-28T12:48:17.779Z</time></trkpt><trkpt lat="46.0586402" lon="11.8286193"><ele>1062.0</ele><time>2026-03-28T12:48:20.78Z</time></trkpt><trkpt lat="46.0586749" lon="11.8285287"><ele>1063.142857142857</ele><time>2026-03-28T12:48:23.783Z</time></trkpt><trkpt lat="46.0586933" lon="11.8284143"><ele>1064.2857142857144</ele><time>2026-03-28T12:48:26.781Z</time></trkpt><trkpt lat="46.0587025" lon="11.8283046"><ele>1065.4285714285716</ele><time>2026-03-28T12:48:29.781Z</time></trkpt><trkpt lat="46.0586807" lon="11.8282063"><ele>1066.5714285714287</ele><time>2026-03-28T12:48:32.781Z</time></trkpt><trkpt lat="46.0586451" lon="11.8281207"><ele>1067.7142857142858</ele><time>2026-03-28T12:48:36.78Z</time></trkpt><trkpt lat="46.0585771" lon="11.828163"><ele>1068.857142857143</ele><time>2026-03-28T12:50:00.78Z</time></trkpt><trkpt lat="46.0585101" lon="11.828169"><ele>1070.0</ele><time>2026-03-28T12:50:03.779Z</time></trkpt><trkpt lat="46.0584444" lon="11.8282374"><ele>1070.0</ele><time>2026-03-28T12:50:07.78Z</time></trkpt><trkpt lat="46.0583747" lon="11.8283048"><ele>1070.0</ele><time>2026-03-28T12:50:11.78Z</time></trkpt><trkpt lat="46.058304" lon="11.8283682"><ele>1070.0</ele><time>2026-03-28T12:50:15.78Z</time></trkpt><trkpt lat="46.058241" lon="11.8284329"><ele>1070.0</ele><time>2026-03-28T12:50:18.78Z</time></trkpt><trkpt lat="46.0581843" lon="11.8284954"><ele>1070.0</ele><time>2026-03-28T12:50:21.78Z</time></trkpt><trkpt lat="46.0581245" lon="11.8285697"><ele>1070.0</ele><time>2026-03-28T12:50:25.78Z</time></trkpt><trkpt lat="46.0580516" lon="11.8286383"><ele>1071.1666666666667</ele><time>2026-03-28T12:50:29.78Z</time></trkpt><trkpt lat="46.0579813" lon="11.8286783"><ele>1072.3333333333335</ele><time>2026-03-28T12:50:32.781Z</time></trkpt><trkpt lat="46.0579061" lon="11.8287127"><ele>1073.5</ele><time>2026-03-28T12:50:35.781Z</time></trkpt><trkpt lat="46.0578352" lon="11.828748"><ele>1074.6666666666667</ele><time>2026-03-28T12:50:38.783Z</time></trkpt><trkpt lat="46.0577555" lon="11.8287873"><ele>1075.8333333333333</ele><time>2026-03-28T12:50:41.781Z</time></trkpt><trkpt lat="46.0576789" lon="11.8288255"><ele>1077.0</ele><time>2026-03-28T12:50:44.782Z</time></trkpt><trkpt lat="46.0576068" lon="11.8288673"><ele>1077.0</ele><time>2026-03-28T12:50:47.782Z</time></trkpt><trkpt lat="46.0575429" lon="11.828896"><ele>1077.0</ele><time>2026-03-28T12:50:50.781Z</time></trkpt><trkpt lat="46.0574717" lon="11.8289261"><ele>1077.0</ele><time>2026-03-28T12:50:53.782Z</time></trkpt><trkpt lat="46.057392" lon="11.8289269"><ele>1077.0</ele><time>2026-03-28T12:50:56.781Z</time></trkpt><trkpt lat="46.0573092" lon="11.8289111"><ele>1077.0</ele><time>2026-03-28T12:50:59.782Z</time></trkpt><trkpt lat="46.0572262" lon="11.8288906"><ele>1077.0</ele><time>2026-03-28T12:51:02.781Z</time></trkpt><trkpt lat="46.0571545" lon="11.8288721"><ele>1078.4285714285713</ele><time>2026-03-28T12:51:05.781Z</time></trkpt><trkpt lat="46.0570841" lon="11.8288505"><ele>1079.857142857143</ele><time>2026-03-28T12:51:08.782Z</time></trkpt><trkpt lat="46.057014" lon="11.8288232"><ele>1081.2857142857142</ele><time>2026-03-28T12:51:11.782Z</time></trkpt><trkpt lat="46.0569381" lon="11.8287926"><ele>1082.7142857142858</ele><time>2026-03-28T12:51:14.782Z</time></trkpt><trkpt lat="46.056856" lon="11.8287763"><ele>1084.142857142857</ele><time>2026-03-28T12:51:17.781Z</time></trkpt><trkpt lat="46.05679" lon="11.8287646"><ele>1085.5714285714284</ele><time>2026-03-28T12:51:20.781Z</time></trkpt><trkpt lat="46.0567216" lon="11.8287456"><ele>1087.0</ele><time>2026-03-28T12:51:23.782Z</time></trkpt><trkpt lat="46.05665" lon="11.8287094"><ele>1087.1666666666665</ele><time>2026-03-28T12:51:26.781Z</time></trkpt><trkpt lat="46.0565789" lon="11.8286824"><ele>1087.3333333333333</ele><time>2026-03-28T12:51:29.783Z</time></trkpt><trkpt lat="46.056503" lon="11.8286594"><ele>1087.5</ele><time>2026-03-28T12:51:32.782Z</time></trkpt><trkpt lat="46.0564296" lon="11.8286122"><ele>1087.6666666666667</ele><time>2026-03-28T12:51:35.779Z</time></trkpt><trkpt lat="46.0563448" lon="11.8285897"><ele>1087.8333333333335</ele><time>2026-03-28T12:51:38.78Z</time></trkpt><trkpt lat="46.0562743" lon="11.8285804"><ele>1088.0</ele><time>2026-03-28T12:51:41.783Z</time></trkpt><trkpt lat="46.0561891" lon="11.8285549"><ele>1088.0</ele><time>2026-03-28T12:51:45.781Z</time></trkpt><trkpt lat="46.0561217" lon="11.8285379"><ele>1088.0</ele><time>2026-03-28T12:51:48.78Z</time></trkpt><trkpt lat="46.0560492" lon="11.8285094"><ele>1088.0</ele><time>2026-03-28T12:51:51.781Z</time></trkpt><trkpt lat="46.055975" lon="11.8284851"><ele>1088.0</ele><time>2026-03-28T12:51:54.78Z</time></trkpt><trkpt lat="46.0558926" lon="11.8284646"><ele>1088.0</ele><time>2026-03-28T12:51:57.781Z</time></trkpt><trkpt lat="46.055815" lon="11.828444"><ele>1088.0</ele><time>2026-03-28T12:52:00.781Z</time></trkpt><trkpt lat="46.0557434" lon="11.8284191"><ele>1090.6666666666667</ele><time>2026-03-28T12:52:03.781Z</time></trkpt><trkpt lat="46.0556732" lon="11.8283952"><ele>1093.3333333333335</ele><time>2026-03-28T12:52:06.781Z</time></trkpt><trkpt lat="46.0556039" lon="11.828381"><ele>1096.0</ele><time>2026-03-28T12:52:09.78Z</time></trkpt><trkpt lat="46.0555325" lon="11.8283444"><ele>1098.6666666666667</ele><time>2026-03-28T12:52:12.781Z</time></trkpt><trkpt lat="46.0554601" lon="11.8283126"><ele>1101.3333333333333</ele><time>2026-03-28T12:52:15.781Z</time></trkpt><trkpt lat="46.055379" lon="11.8282846"><ele>1104.0</ele><time>2026-03-28T12:52:18.782Z</time></trkpt><trkpt lat="46.0553037" lon="11.8282459"><ele>1104.0</ele><time>2026-03-28T12:52:21.78Z</time></trkpt><trkpt lat="46.0552288" lon="11.8282176"><ele>1104.0</ele><time>2026-03-28T12:52:24.781Z</time></trkpt><trkpt lat="46.0551579" lon="11.8282052"><ele>1104.0</ele><time>2026-03-28T12:52:27.78Z</time></trkpt><trkpt lat="46.0550798" lon="11.8281895"><ele>1104.0</ele><time>2026-03-28T12:52:30.781Z</time></trkpt><trkpt lat="46.0550089" lon="11.8281647"><ele>1104.0</ele><time>2026-03-28T12:52:33.781Z</time></trkpt><trkpt lat="46.0549404" lon="11.8281568"><ele>1104.0</ele><time>2026-03-28T12:52:36.781Z</time></trkpt><trkpt lat="46.0548721" lon="11.828157"><ele>1104.0</ele><time>2026-03-28T12:52:39.779Z</time></trkpt><trkpt lat="46.0548008" lon="11.828165"><ele>1107.0</ele><time>2026-03-28T12:52:42.78Z</time></trkpt><trkpt lat="46.0547331" lon="11.8281979"><ele>1110.0</ele><time>2026-03-28T12:52:45.78Z</time></trkpt><trkpt lat="46.0546688" lon="11.8282269"><ele>1113.0</ele><time>2026-03-28T12:52:48.781Z</time></trkpt><trkpt lat="46.054601" lon="11.8282599"><ele>1116.0</ele><time>2026-03-28T12:52:51.78Z</time></trkpt><trkpt lat="46.0545237" lon="11.8283099"><ele>1119.0</ele><time>2026-03-28T12:52:55.78Z</time></trkpt><trkpt lat="46.0544519" lon="11.8283458"><ele>1122.0</ele><time>2026-03-28T12:52:58.78Z</time></trkpt><trkpt lat="46.0543776" lon="11.8283747"><ele>1125.0</ele><time>2026-03-28T12:53:02.781Z</time></trkpt><trkpt lat="46.0542981" lon="11.8284108"><ele>1125.0</ele><time>2026-03-28T12:53:06.781Z</time></trkpt><trkpt lat="46.0542304" lon="11.8284537"><ele>1125.0</ele><time>2026-03-28T12:53:10.782Z</time></trkpt><trkpt lat="46.0541653" lon="11.8285187"><ele>1125.0</ele><time>2026-03-28T12:53:14.783Z</time></trkpt><trkpt lat="46.05409" lon="11.8285809"><ele>1125.0</ele><time>2026-03-28T12:53:17.782Z</time></trkpt><trkpt lat="46.0540288" lon="11.8286146"><ele>1125.0</ele><time>2026-03-28T12:53:19.783Z</time></trkpt><trkpt lat="46.0539629" lon="11.8286585"><ele>1125.0</ele><time>2026-03-28T12:53:22.781Z</time></trkpt><trkpt lat="46.0539" lon="11.8286954"><ele>1125.0</ele><time>2026-03-28T12:53:25.782Z</time></trkpt><trkpt lat="46.0538423" lon="11.8287363"><ele>1124.857142857143</ele><time>2026-03-28T12:53:28.782Z</time></trkpt><trkpt lat="46.0537727" lon="11.8287745"><ele>1124.7142857142858</ele><time>2026-03-28T12:53:32.782Z</time></trkpt><trkpt lat="46.0537123" lon="11.8288242"><ele>1124.5714285714287</ele><time>2026-03-28T12:53:35.781Z</time></trkpt><trkpt lat="46.0536402" lon="11.8288851"><ele>1124.4285714285716</ele><time>2026-03-28T12:53:38.781Z</time></trkpt><trkpt lat="46.0535808" lon="11.8289153"><ele>1124.2857142857142</ele><time>2026-03-28T12:53:40.781Z</time></trkpt><trkpt lat="46.0535058" lon="11.8289604"><ele>1124.1428571428573</ele><time>2026-03-28T12:53:43.782Z</time></trkpt><trkpt lat="46.053438" lon="11.8289858"><ele>1124.0</ele><time>2026-03-28T12:53:46.781Z</time></trkpt><trkpt lat="46.053356" lon="11.8290552"><ele>1125.1666666666667</ele><time>2026-03-28T12:53:49.781Z</time></trkpt><trkpt lat="46.0532821" lon="11.8291087"><ele>1126.3333333333335</ele><time>2026-03-28T12:53:51.78Z</time></trkpt><trkpt lat="46.0532053" lon="11.8291724"><ele>1127.5</ele><time>2026-03-28T12:53:53.781Z</time></trkpt><trkpt lat="46.0531388" lon="11.8292274"><ele>1128.6666666666667</ele><time>2026-03-28T12:53:55.783Z</time></trkpt><trkpt lat="46.0530728" lon="11.82929"><ele>1129.8333333333333</ele><time>2026-03-28T12:53:57.78Z</time></trkpt><trkpt lat="46.0529927" lon="11.8293243"><ele>1131.0</ele><time>2026-03-28T12:53:59.781Z</time></trkpt><trkpt lat="46.0529128" lon="11.8293537"><ele>1126.8333333333333</ele><time>2026-03-28T12:54:01.781Z</time></trkpt><trkpt lat="46.0528371" lon="11.8293843"><ele>1122.6666666666667</ele><time>2026-03-28T12:54:03.78Z</time></trkpt><trkpt lat="46.0527738" lon="11.8294087"><ele>1118.5</ele><time>2026-03-28T12:54:05.78Z</time></trkpt><trkpt lat="46.0526956" lon="11.8294713"><ele>1114.3333333333335</ele><time>2026-03-28T12:54:08.782Z</time></trkpt><trkpt lat="46.0526354" lon="11.8295197"><ele>1110.1666666666667</ele><time>2026-03-28T12:54:10.781Z</time></trkpt><trkpt lat="46.0525882" lon="11.8295835"><ele>1106.0</ele><time>2026-03-28T12:54:12.78Z</time></trkpt><trkpt lat="46.0525282" lon="11.829672"><ele>1106.0</ele><time>2026-03-28T12:54:15.78Z</time></trkpt><trkpt lat="46.0524635" lon="11.8297696"><ele>1106.0</ele><time>2026-03-28T12:54:18.78Z</time></trkpt><trkpt lat="46.0524064" lon="11.8298501"><ele>1106.0</ele><time>2026-03-28T12:54:21.782Z</time></trkpt><trkpt lat="46.0523369" lon="11.8298939"><ele>1106.0</ele><time>2026-03-28T12:54:24.779Z</time></trkpt><trkpt lat="46.0522548" lon="11.8299223"><ele>1106.0</ele><time>2026-03-28T12:54:27.78Z</time></trkpt><trkpt lat="46.0521688" lon="11.8299966"><ele>1106.0</ele><time>2026-03-28T12:54:30.782Z</time></trkpt><trkpt lat="46.0520962" lon="11.8300726"><ele>1103.3333333333335</ele><time>2026-03-28T12:54:32.784Z</time></trkpt><trkpt lat="46.0520293" lon="11.8301487"><ele>1100.6666666666667</ele><time>2026-03-28T12:54:34.781Z</time></trkpt><trkpt lat="46.0519557" lon="11.830243"><ele>1098.0</ele><time>2026-03-28T12:54:36.784Z</time></trkpt><trkpt lat="46.0518971" lon="11.8302876"><ele>1095.3333333333333</ele><time>2026-03-28T12:54:38.785Z</time></trkpt><trkpt lat="46.0518215" lon="11.830388"><ele>1092.6666666666665</ele><time>2026-03-28T12:54:41.782Z</time></trkpt><trkpt lat="46.0517446" lon="11.8304558"><ele>1090.0</ele><time>2026-03-28T12:54:44.782Z</time></trkpt><trkpt lat="46.051686" lon="11.8305179"><ele>1093.3333333333333</ele><time>2026-03-28T12:54:46.781Z</time></trkpt><trkpt lat="46.0516173" lon="11.8305951"><ele>1096.6666666666665</ele><time>2026-03-28T12:54:49.782Z</time></trkpt><trkpt lat="46.0515619" lon="11.8306579"><ele>1100.0</ele><time>2026-03-28T12:54:51.78Z</time></trkpt><trkpt lat="46.0514945" lon="11.8306997"><ele>1103.3333333333333</ele><time>2026-03-28T12:54:53.781Z</time></trkpt><trkpt lat="46.051426" lon="11.8307523"><ele>1106.6666666666667</ele><time>2026-03-28T12:54:55.78Z</time></trkpt><trkpt lat="46.0513628" lon="11.8308554"><ele>1110.0</ele><time>2026-03-28T12:54:57.78Z</time></trkpt><trkpt lat="46.0513081" lon="11.8309532"><ele>1107.2857142857144</ele><time>2026-03-28T12:54:59.78Z</time></trkpt><trkpt lat="46.0512877" lon="11.8310671"><ele>1104.5714285714287</ele><time>2026-03-28T12:55:05.781Z</time></trkpt><trkpt lat="46.051279" lon="11.8311619"><ele>1101.857142857143</ele><time>2026-03-28T12:55:08.783Z</time></trkpt><trkpt lat="46.0512712" lon="11.831262"><ele>1099.1428571428573</ele><time>2026-03-28T12:55:12.781Z</time></trkpt><trkpt lat="46.0512167" lon="11.8312164"><ele>1096.4285714285716</ele><time>2026-03-28T12:55:29.78Z</time></trkpt><trkpt lat="46.0511486" lon="11.8312157"><ele>1093.7142857142858</ele><time>2026-03-28T12:55:42.782Z</time></trkpt><trkpt lat="46.0510772" lon="11.8312765"><ele>1091.0</ele><time>2026-03-28T12:56:02.781Z</time></trkpt><trkpt lat="46.0510183" lon="11.8313159"><ele>1091.0</ele><time>2026-03-28T12:56:05.781Z</time></trkpt><trkpt lat="46.0509532" lon="11.8313612"><ele>1091.0</ele><time>2026-03-28T12:56:09.78Z</time></trkpt><trkpt lat="46.0508899" lon="11.8313989"><ele>1091.0</ele><time>2026-03-28T12:56:14.781Z</time></trkpt><trkpt lat="46.0508151" lon="11.831441"><ele>1091.0</ele><time>2026-03-28T12:56:18.78Z</time></trkpt><trkpt lat="46.0507394" lon="11.8314708"><ele>1091.0</ele><time>2026-03-28T12:56:23.78Z</time></trkpt><trkpt lat="46.0506803" lon="11.8315072"><ele>1091.0</ele><time>2026-03-28T12:56:26.781Z</time></trkpt><trkpt lat="46.0506169" lon="11.8315478"><ele>1091.0</ele><time>2026-03-28T12:56:30.78Z</time></trkpt><trkpt lat="46.0505579" lon="11.8315965"><ele>1090.0</ele><time>2026-03-28T12:56:33.78Z</time></trkpt><trkpt lat="46.0504864" lon="11.831636"><ele>1089.0</ele><time>2026-03-28T12:56:37.78Z</time></trkpt><trkpt lat="46.0504265" lon="11.8316922"><ele>1088.0</ele><time>2026-03-28T12:56:40.78Z</time></trkpt><trkpt lat="46.0503529" lon="11.831755"><ele>1087.0</ele><time>2026-03-28T12:56:43.781Z</time></trkpt><trkpt lat="46.0502946" lon="11.8317997"><ele>1086.0</ele><time>2026-03-28T12:56:46.781Z</time></trkpt><trkpt lat="46.0502319" lon="11.8318842"><ele>1085.0</ele><time>2026-03-28T12:56:49.78Z</time></trkpt><trkpt lat="46.0501449" lon="11.8319446"><ele>1085.0</ele><time>2026-03-28T12:56:52.782Z</time></trkpt><trkpt lat="46.0500858" lon="11.8320218"><ele>1085.0</ele><time>2026-03-28T12:56:54.781Z</time></trkpt><trkpt lat="46.0500195" lon="11.8320731"><ele>1085.0</ele><time>2026-03-28T12:56:57.78Z</time></trkpt><trkpt lat="46.0499571" lon="11.8321192"><ele>1085.0</ele><time>2026-03-28T12:57:00.78Z</time></trkpt><trkpt lat="46.049899" lon="11.8321585"><ele>1085.0</ele><time>2026-03-28T12:57:03.781Z</time></trkpt><trkpt lat="46.0498382" lon="11.8321934"><ele>1085.0</ele><time>2026-03-28T12:57:06.779Z</time></trkpt><trkpt lat="46.0497718" lon="11.8322266"><ele>1085.0</ele><time>2026-03-28T12:57:09.78Z</time></trkpt><trkpt lat="46.0497025" lon="11.8322509"><ele>1086.0</ele><time>2026-03-28T12:57:12.781Z</time></trkpt><trkpt lat="46.0496514" lon="11.8323089"><ele>1087.0</ele><time>2026-03-28T12:57:19.78Z</time></trkpt><trkpt lat="46.0495838" lon="11.8323406"><ele>1088.0</ele><time>2026-03-28T12:57:27.78Z</time></trkpt><trkpt lat="46.0495214" lon="11.8323792"><ele>1089.0</ele><time>2026-03-28T12:57:30.78Z</time></trkpt><trkpt lat="46.0494418" lon="11.8324283"><ele>1090.0</ele><time>2026-03-28T12:57:33.781Z</time></trkpt><trkpt lat="46.0493753" lon="11.8324569"><ele>1091.0</ele><time>2026-03-28T12:57:37.781Z</time></trkpt><trkpt lat="46.0493069" lon="11.832472"><ele>1092.0</ele><time>2026-03-28T12:57:40.78Z</time></trkpt><trkpt lat="46.0492269" lon="11.8324889"><ele>1092.0</ele><time>2026-03-28T12:57:43.781Z</time></trkpt><trkpt lat="46.0491515" lon="11.8325084"><ele>1092.0</ele><time>2026-03-28T12:57:46.78Z</time></trkpt><trkpt lat="46.0490829" lon="11.8325338"><ele>1092.0</ele><time>2026-03-28T12:57:49.78Z</time></trkpt><trkpt lat="46.049009" lon="11.8325918"><ele>1092.0</ele><time>2026-03-28T12:57:52.78Z</time></trkpt><trkpt lat="46.0489412" lon="11.8326771"><ele>1092.0</ele><time>2026-03-28T12:57:55.781Z</time></trkpt><trkpt lat="46.0488789" lon="11.8327335"><ele>1092.0</ele><time>2026-03-28T12:57:58.78Z</time></trkpt><trkpt lat="46.0487925" lon="11.8327632"><ele>1090.7142857142858</ele><time>2026-03-28T12:58:01.779Z</time></trkpt><trkpt lat="46.0487154" lon="11.832746"><ele>1089.4285714285716</ele><time>2026-03-28T12:58:04.781Z</time></trkpt><trkpt lat="46.0486428" lon="11.8327381"><ele>1088.142857142857</ele><time>2026-03-28T12:58:07.781Z</time></trkpt><trkpt lat="46.0485744" lon="11.8327289"><ele>1086.857142857143</ele><time>2026-03-28T12:58:10.781Z</time></trkpt><trkpt lat="46.0485125" lon="11.8327489"><ele>1085.5714285714287</ele><time>2026-03-28T12:58:13.78Z</time></trkpt><trkpt lat="46.0484352" lon="11.8327495"><ele>1084.2857142857142</ele><time>2026-03-28T12:58:16.781Z</time></trkpt><trkpt lat="46.0483481" lon="11.8327479"><ele>1083.0</ele><time>2026-03-28T12:58:19.782Z</time></trkpt><trkpt lat="46.0482788" lon="11.8327378"><ele>1083.0</ele><time>2026-03-28T12:58:28.784Z</time></trkpt><trkpt lat="46.0482172" lon="11.8327641"><ele>1083.0</ele><time>2026-03-28T12:58:35.781Z</time></trkpt><trkpt lat="46.0481792" lon="11.8328429"><ele>1083.0</ele><time>2026-03-28T12:58:41.781Z</time></trkpt><trkpt lat="46.0481432" lon="11.8329199"><ele>1083.0</ele><time>2026-03-28T12:58:54.782Z</time></trkpt><trkpt lat="46.048102" lon="11.8329932"><ele>1083.0</ele><time>2026-03-28T12:59:06.779Z</time></trkpt><trkpt lat="46.048029" lon="11.8330781"><ele>1083.0</ele><time>2026-03-28T12:59:30.782Z</time></trkpt><trkpt lat="46.0480167" lon="11.8331692"><ele>1083.0</ele><time>2026-03-28T12:59:47.783Z</time></trkpt><trkpt lat="46.0479825" lon="11.8332567"><ele>1083.0</ele><time>2026-03-28T12:59:52.785Z</time></trkpt><trkpt lat="46.0479146" lon="11.8332489"><ele>1083.0</ele><time>2026-03-28T13:00:31.785Z</time></trkpt><trkpt lat="46.0478517" lon="11.8333204"><ele>1083.0</ele><time>2026-03-28T13:00:34.781Z</time></trkpt><trkpt lat="46.0478004" lon="11.833375"><ele>1083.0</ele><time>2026-03-28T13:00:36.785Z</time></trkpt><trkpt lat="46.04773" lon="11.833435"><ele>1083.0</ele><time>2026-03-28T13:00:39.784Z</time></trkpt><trkpt lat="46.0476683" lon="11.8334742"><ele>1083.0</ele><time>2026-03-28T13:00:41.783Z</time></trkpt><trkpt lat="46.0475989" lon="11.8334823"><ele>1083.0</ele><time>2026-03-28T13:00:44.783Z</time></trkpt><trkpt lat="46.0475209" lon="11.833492"><ele>1082.142857142857</ele><time>2026-03-28T13:00:47.783Z</time></trkpt><trkpt lat="46.0474438" lon="11.8335249"><ele>1081.2857142857144</ele><time>2026-03-28T13:00:50.783Z</time></trkpt><trkpt lat="46.0473667" lon="11.8335273"><ele>1080.4285714285716</ele><time>2026-03-28T13:00:53.783Z</time></trkpt><trkpt lat="46.0473025" lon="11.8335364"><ele>1079.5714285714287</ele><time>2026-03-28T13:00:56.785Z</time></trkpt><trkpt lat="46.0472388" lon="11.8335405"><ele>1078.7142857142858</ele><time>2026-03-28T13:00:59.785Z</time></trkpt><trkpt lat="46.0471742" lon="11.833523"><ele>1077.857142857143</ele><time>2026-03-28T13:01:02.782Z</time></trkpt><trkpt lat="46.0471102" lon="11.8335179"><ele>1077.0</ele><time>2026-03-28T13:01:04.783Z</time></trkpt><trkpt lat="46.0470409" lon="11.8335062"><ele>1077.0</ele><time>2026-03-28T13:01:06.783Z</time></trkpt><trkpt lat="46.0469694" lon="11.8335119"><ele>1077.0</ele><time>2026-03-28T13:01:08.783Z</time></trkpt><trkpt lat="46.0468862" lon="11.8335008"><ele>1077.0</ele><time>2026-03-28T13:01:11.782Z</time></trkpt><trkpt lat="46.0468219" lon="11.8334867"><ele>1077.0</ele><time>2026-03-28T13:01:13.783Z</time></trkpt><trkpt lat="46.0467586" lon="11.8334567"><ele>1077.0</ele><time>2026-03-28T13:01:16.782Z</time></trkpt><trkpt lat="46.0466861" lon="11.8334305"><ele>1077.0</ele><time>2026-03-28T13:01:19.781Z</time></trkpt><trkpt lat="46.046608" lon="11.8334611"><ele>1077.0</ele><time>2026-03-28T13:01:21.784Z</time></trkpt><trkpt lat="46.046553" lon="11.833517"><ele>1077.0</ele><time>2026-03-28T13:01:23.785Z</time></trkpt><trkpt lat="46.0465091" lon="11.833597"><ele>1077.0</ele><time>2026-03-28T13:01:27.785Z</time></trkpt><trkpt lat="46.0465137" lon="11.8336987"><ele>1077.0</ele><time>2026-03-28T13:01:31.782Z</time></trkpt><trkpt lat="46.0465396" lon="11.8337841"><ele>1077.0</ele><time>2026-03-28T13:01:33.783Z</time></trkpt><trkpt lat="46.0465641" lon="11.8338801"><ele>1077.0</ele><time>2026-03-28T13:01:35.781Z</time></trkpt><trkpt lat="46.046603" lon="11.8339882"><ele>1077.0</ele><time>2026-03-28T13:01:38.782Z</time></trkpt><trkpt lat="46.046631" lon="11.8340766"><ele>1077.0</ele><time>2026-03-28T13:01:40.782Z</time></trkpt><trkpt lat="46.0466519" lon="11.8342038"><ele>1075.7142857142858</ele><time>2026-03-28T13:01:43.785Z</time></trkpt><trkpt lat="46.0466681" lon="11.8343073"><ele>1074.4285714285716</ele><time>2026-03-28T13:01:46.782Z</time></trkpt><trkpt lat="46.0466845" lon="11.8344358"><ele>1073.1428571428573</ele><time>2026-03-28T13:01:49.784Z</time></trkpt><trkpt lat="46.0466794" lon="11.834536"><ele>1071.857142857143</ele><time>2026-03-28T13:01:55.783Z</time></trkpt><trkpt lat="46.0467222" lon="11.8346058"><ele>1070.5714285714287</ele><time>2026-03-28T13:02:34.784Z</time></trkpt><trkpt lat="46.046705" lon="11.8347002"><ele>1069.2857142857144</ele><time>2026-03-28T13:02:45.782Z</time></trkpt><trkpt lat="46.0466702" lon="11.8347884"><ele>1068.0</ele><time>2026-03-28T13:02:53.784Z</time></trkpt><trkpt lat="46.0466346" lon="11.8348985"><ele>1071.1666666666667</ele><time>2026-03-28T13:02:56.784Z</time></trkpt><trkpt lat="46.0465978" lon="11.8350026"><ele>1074.3333333333333</ele><time>2026-03-28T13:02:59.781Z</time></trkpt><trkpt lat="46.0465566" lon="11.8351144"><ele>1077.5</ele><time>2026-03-28T13:03:02.782Z</time></trkpt><trkpt lat="46.0465125" lon="11.8352145"><ele>1080.6666666666665</ele><time>2026-03-28T13:03:05.784Z</time></trkpt><trkpt lat="46.0464688" lon="11.8353105"><ele>1083.8333333333333</ele><time>2026-03-28T13:03:08.785Z</time></trkpt><trkpt lat="46.0464162" lon="11.8353993"><ele>1087.0</ele><time>2026-03-28T13:03:11.782Z</time></trkpt><trkpt lat="46.0463569" lon="11.8354585"><ele>1087.0</ele><time>2026-03-28T13:03:14.784Z</time></trkpt><trkpt lat="46.046299" lon="11.8355085"><ele>1087.0</ele><time>2026-03-28T13:03:17.786Z</time></trkpt><trkpt lat="46.0462382" lon="11.8355742"><ele>1087.0</ele><time>2026-03-28T13:03:20.785Z</time></trkpt><trkpt lat="46.0461806" lon="11.835625"><ele>1087.0</ele><time>2026-03-28T13:03:23.784Z</time></trkpt><trkpt lat="46.0461186" lon="11.8356645"><ele>1087.0</ele><time>2026-03-28T13:03:26.784Z</time></trkpt><trkpt lat="46.0460561" lon="11.8356861"><ele>1087.0</ele><time>2026-03-28T13:03:29.783Z</time></trkpt><trkpt lat="46.0459741" lon="11.8357038"><ele>1087.0</ele><time>2026-03-28T13:03:33.781Z</time></trkpt><trkpt lat="46.0459103" lon="11.8357046"><ele>1087.0</ele><time>2026-03-28T13:03:36.783Z</time></trkpt><trkpt lat="46.045838" lon="11.835739"><ele>1087.0</ele><time>2026-03-28T13:03:40.783Z</time></trkpt><trkpt lat="46.0458167" lon="11.8358654"><ele>1087.0</ele><time>2026-03-28T13:03:43.779Z</time></trkpt><trkpt lat="46.045808" lon="11.8359667"><ele>1087.0</ele><time>2026-03-28T13:03:45.779Z</time></trkpt><trkpt lat="46.0458228" lon="11.8361063"><ele>1087.0</ele><time>2026-03-28T13:03:48.783Z</time></trkpt><trkpt lat="46.0458188" lon="11.836206"><ele>1087.0</ele><time>2026-03-28T13:03:51.78Z</time></trkpt><trkpt lat="46.0457809" lon="11.8363045"><ele>1086.2857142857142</ele><time>2026-03-28T13:03:53.784Z</time></trkpt><trkpt lat="46.045746" lon="11.8363821"><ele>1085.5714285714284</ele><time>2026-03-28T13:03:55.784Z</time></trkpt><trkpt lat="46.0457188" lon="11.8364781"><ele>1084.857142857143</ele><time>2026-03-28T13:03:58.783Z</time></trkpt><trkpt lat="46.0457696" lon="11.836571"><ele>1084.142857142857</ele><time>2026-03-28T13:04:02.784Z</time></trkpt><trkpt lat="46.0458346" lon="11.8366158"><ele>1083.4285714285716</ele><time>2026-03-28T13:04:05.782Z</time></trkpt><trkpt lat="46.0458909" lon="11.8366641"><ele>1082.7142857142858</ele><time>2026-03-28T13:04:07.78Z</time></trkpt><trkpt lat="46.0459648" lon="11.8367369"><ele>1082.0</ele><time>2026-03-28T13:04:10.781Z</time></trkpt><trkpt lat="46.0460335" lon="11.8368221"><ele>1082.0</ele><time>2026-03-28T13:04:13.781Z</time></trkpt><trkpt lat="46.0460892" lon="11.8369324"><ele>1082.0</ele><time>2026-03-28T13:04:16.78Z</time></trkpt><trkpt lat="46.0461056" lon="11.8370392"><ele>1082.0</ele><time>2026-03-28T13:04:18.783Z</time></trkpt><trkpt lat="46.0461256" lon="11.8371531"><ele>1082.0</ele><time>2026-03-28T13:04:20.782Z</time></trkpt><trkpt lat="46.0461449" lon="11.8372593"><ele>1082.0</ele><time>2026-03-28T13:04:22.783Z</time></trkpt><trkpt lat="46.0461575" lon="11.8373527"><ele>1082.0</ele><time>2026-03-28T13:04:24.785Z</time></trkpt><trkpt lat="46.0461587" lon="11.8374663"><ele>1082.0</ele><time>2026-03-28T13:04:27.782Z</time></trkpt><trkpt lat="46.0461683" lon="11.8375742"><ele>1082.0</ele><time>2026-03-28T13:04:30.786Z</time></trkpt><trkpt lat="46.0461849" lon="11.8376972"><ele>1082.0</ele><time>2026-03-28T13:04:33.785Z</time></trkpt><trkpt lat="46.0461795" lon="11.8378216"><ele>1082.0</ele><time>2026-03-28T13:04:36.784Z</time></trkpt><trkpt lat="46.0461779" lon="11.8379254"><ele>1082.0</ele><time>2026-03-28T13:04:38.785Z</time></trkpt><trkpt lat="46.046186" lon="11.8380405"><ele>1082.0</ele><time>2026-03-28T13:04:41.783Z</time></trkpt><trkpt lat="46.0461954" lon="11.8381642"><ele>1082.6666666666667</ele><time>2026-03-28T13:04:44.785Z</time></trkpt><trkpt lat="46.0461983" lon="11.8382839"><ele>1083.3333333333335</ele><time>2026-03-28T13:04:47.783Z</time></trkpt><trkpt lat="46.0462003" lon="11.8384269"><ele>1084.0</ele><time>2026-03-28T13:04:50.783Z</time></trkpt><trkpt lat="46.0462058" lon="11.8385401"><ele>1084.6666666666667</ele><time>2026-03-28T13:04:52.783Z</time></trkpt><trkpt lat="46.0462154" lon="11.8386857"><ele>1085.3333333333333</ele><time>2026-03-28T13:04:55.785Z</time></trkpt><trkpt lat="46.046226" lon="11.8387945"><ele>1086.0</ele><time>2026-03-28T13:04:57.784Z</time></trkpt><trkpt lat="46.0462393" lon="11.8389024"><ele>1086.0</ele><time>2026-03-28T13:04:59.786Z</time></trkpt><trkpt lat="46.04625" lon="11.8390131"><ele>1086.0</ele><time>2026-03-28T13:05:01.785Z</time></trkpt><trkpt lat="46.0462472" lon="11.8391315"><ele>1086.0</ele><time>2026-03-28T13:05:03.786Z</time></trkpt><trkpt lat="46.0462334" lon="11.8392692"><ele>1086.0</ele><time>2026-03-28T13:05:06.785Z</time></trkpt><trkpt lat="46.0462131" lon="11.8393678"><ele>1086.0</ele><time>2026-03-28T13:05:08.784Z</time></trkpt><trkpt lat="46.0461908" lon="11.8394574"><ele>1086.0</ele><time>2026-03-28T13:05:10.786Z</time></trkpt><trkpt lat="46.0461661" lon="11.8395419"><ele>1085.1666666666667</ele><time>2026-03-28T13:05:12.784Z</time></trkpt><trkpt lat="46.0461606" lon="11.8396668"><ele>1084.3333333333333</ele><time>2026-03-28T13:05:15.786Z</time></trkpt><trkpt lat="46.0461929" lon="11.8397872"><ele>1083.5</ele><time>2026-03-28T13:05:18.786Z</time></trkpt><trkpt lat="46.0462107" lon="11.8398795"><ele>1082.6666666666665</ele><time>2026-03-28T13:05:20.783Z</time></trkpt><trkpt lat="46.0462231" lon="11.8399876"><ele>1081.8333333333333</ele><time>2026-03-28T13:05:22.783Z</time></trkpt><trkpt lat="46.0462358" lon="11.8401209"><ele>1081.0</ele><time>2026-03-28T13:05:24.785Z</time></trkpt><trkpt lat="46.0462453" lon="11.8402454"><ele>1081.0</ele><time>2026-03-28T13:05:26.783Z</time></trkpt><trkpt lat="46.0462346" lon="11.8403404"><ele>1081.0</ele><time>2026-03-28T13:05:28.784Z</time></trkpt><trkpt lat="46.0462206" lon="11.8404331"><ele>1081.0</ele><time>2026-03-28T13:05:30.784Z</time></trkpt><trkpt lat="46.0462154" lon="11.8405357"><ele>1081.0</ele><time>2026-03-28T13:05:32.783Z</time></trkpt><trkpt lat="46.0462019" lon="11.8406317"><ele>1081.0</ele><time>2026-03-28T13:05:34.785Z</time></trkpt><trkpt lat="46.0461853" lon="11.8407535"><ele>1081.0</ele><time>2026-03-28T13:05:37.784Z</time></trkpt><trkpt lat="46.0461605" lon="11.8408839"><ele>1080.3333333333333</ele><time>2026-03-28T13:05:40.783Z</time></trkpt><trkpt lat="46.0461517" lon="11.8409767"><ele>1079.6666666666665</ele><time>2026-03-28T13:05:42.782Z</time></trkpt><trkpt lat="46.0461305" lon="11.8410855"><ele>1079.0</ele><time>2026-03-28T13:05:44.785Z</time></trkpt><trkpt lat="46.0461209" lon="11.8412197"><ele>1078.3333333333333</ele><time>2026-03-28T13:05:46.783Z</time></trkpt><trkpt lat="46.0461179" lon="11.8413576"><ele>1077.6666666666667</ele><time>2026-03-28T13:05:48.782Z</time></trkpt><trkpt lat="46.0461172" lon="11.8414919"><ele>1077.0</ele><time>2026-03-28T13:05:50.782Z</time></trkpt><trkpt lat="46.0461109" lon="11.8416107"><ele>1077.0</ele><time>2026-03-28T13:05:52.782Z</time></trkpt><trkpt lat="46.0460996" lon="11.8417214"><ele>1077.0</ele><time>2026-03-28T13:05:54.786Z</time></trkpt><trkpt lat="46.0460891" lon="11.8418212"><ele>1077.0</ele><time>2026-03-28T13:05:56.785Z</time></trkpt><trkpt lat="46.0460764" lon="11.8419186"><ele>1077.0</ele><time>2026-03-28T13:05:58.786Z</time></trkpt><trkpt lat="46.0460639" lon="11.8420254"><ele>1077.0</ele><time>2026-03-28T13:06:00.786Z</time></trkpt><trkpt lat="46.0460502" lon="11.8421277"><ele>1077.0</ele><time>2026-03-28T13:06:02.784Z</time></trkpt><trkpt lat="46.0460231" lon="11.84225"><ele>1074.3333333333333</ele><time>2026-03-28T13:06:05.785Z</time></trkpt><trkpt lat="46.0459938" lon="11.8423644"><ele>1071.6666666666667</ele><time>2026-03-28T13:06:08.786Z</time></trkpt><trkpt lat="46.0459726" lon="11.8424725"><ele>1069.0</ele><time>2026-03-28T13:06:11.786Z</time></trkpt><trkpt lat="46.0459278" lon="11.8425779"><ele>1066.3333333333335</ele><time>2026-03-28T13:06:14.785Z</time></trkpt><trkpt lat="46.0458883" lon="11.8426885"><ele>1063.6666666666667</ele><time>2026-03-28T13:06:17.786Z</time></trkpt><trkpt lat="46.0458628" lon="11.8428119"><ele>1061.0</ele><time>2026-03-28T13:06:20.783Z</time></trkpt><trkpt lat="46.0458373" lon="11.842906"><ele>1059.0000000000002</ele><time>2026-03-28T13:06:22.782Z</time></trkpt><trkpt lat="46.0457801" lon="11.8429987"><ele>1057.0</ele><time>2026-03-28T13:06:25.783Z</time></trkpt><trkpt lat="46.0457211" lon="11.8430429"><ele>1055.0</ele><time>2026-03-28T13:06:27.783Z</time></trkpt><trkpt lat="46.0456486" lon="11.8430669"><ele>1053.0</ele><time>2026-03-28T13:06:29.785Z</time></trkpt><trkpt lat="46.0455861" lon="11.8430883"><ele>1051.0</ele><time>2026-03-28T13:06:31.785Z</time></trkpt><trkpt lat="46.0455249" lon="11.8431129"><ele>1049.0000000000002</ele><time>2026-03-28T13:06:33.785Z</time></trkpt><trkpt lat="46.0454656" lon="11.843146"><ele>1047.0</ele><time>2026-03-28T13:06:35.785Z</time></trkpt><trkpt lat="46.0453757" lon="11.8431849"><ele>1047.0</ele><time>2026-03-28T13:06:38.784Z</time></trkpt><trkpt lat="46.0453066" lon="11.843221"><ele>1047.0</ele><time>2026-03-28T13:06:40.783Z</time></trkpt><trkpt lat="46.045239" lon="11.8432505"><ele>1047.0</ele><time>2026-03-28T13:06:42.783Z</time></trkpt><trkpt lat="46.0451634" lon="11.8432783"><ele>1047.0</ele><time>2026-03-28T13:06:44.782Z</time></trkpt><trkpt lat="46.0450818" lon="11.8433103"><ele>1047.0</ele><time>2026-03-28T13:06:46.782Z</time></trkpt><trkpt lat="46.0449956" lon="11.843351"><ele>1047.0</ele><time>2026-03-28T13:06:48.784Z</time></trkpt><trkpt lat="46.0449006" lon="11.8434099"><ele>1045.0</ele><time>2026-03-28T13:06:50.783Z</time></trkpt><trkpt lat="46.0447887" lon="11.8434809"><ele>1043.0</ele><time>2026-03-28T13:06:52.885Z</time></trkpt><trkpt lat="46.0446632" lon="11.8435415"><ele>1041.0</ele><time>2026-03-28T13:06:54.782Z</time></trkpt><trkpt lat="46.0446011" lon="11.8435726"><ele>1039.0</ele><time>2026-03-28T13:06:55.782Z</time></trkpt><trkpt lat="46.0444829" lon="11.8436251"><ele>1037.0</ele><time>2026-03-28T13:06:57.783Z</time></trkpt><trkpt lat="46.0443579" lon="11.843663"><ele>1037.0</ele><time>2026-03-28T13:06:59.784Z</time></trkpt><trkpt lat="46.0442426" lon="11.8437149"><ele>1037.0</ele><time>2026-03-28T13:07:01.785Z</time></trkpt><trkpt lat="46.0441524" lon="11.8437653"><ele>1037.0</ele><time>2026-03-28T13:07:03.783Z</time></trkpt><trkpt lat="46.0440706" lon="11.8438127"><ele>1037.0</ele><time>2026-03-28T13:07:05.786Z</time></trkpt><trkpt lat="46.0440008" lon="11.8438498"><ele>1037.0</ele><time>2026-03-28T13:07:07.782Z</time></trkpt><trkpt lat="46.0439161" lon="11.843876"><ele>1036.0</ele><time>2026-03-28T13:07:09.785Z</time></trkpt><trkpt lat="46.0438521" lon="11.8438854"><ele>1035.0</ele><time>2026-03-28T13:07:10.783Z</time></trkpt><trkpt lat="46.0437861" lon="11.8438815"><ele>1034.0</ele><time>2026-03-28T13:07:11.784Z</time></trkpt><trkpt lat="46.0436939" lon="11.8438351"><ele>1033.0</ele><time>2026-03-28T13:07:13.783Z</time></trkpt><trkpt lat="46.043631" lon="11.8437805"><ele>1032.0</ele><time>2026-03-28T13:07:15.785Z</time></trkpt><trkpt lat="46.0435572" lon="11.8437188"><ele>1031.0</ele><time>2026-03-28T13:07:17.782Z</time></trkpt><trkpt lat="46.0434875" lon="11.8436461"><ele>1031.0</ele><time>2026-03-28T13:07:20.785Z</time></trkpt><trkpt lat="46.0434221" lon="11.8435587"><ele>1031.0</ele><time>2026-03-28T13:07:23.782Z</time></trkpt><trkpt lat="46.0433748" lon="11.843473"><ele>1031.0</ele><time>2026-03-28T13:07:27.785Z</time></trkpt><trkpt lat="46.0433282" lon="11.843412"><ele>1031.0</ele><time>2026-03-28T13:07:30.784Z</time></trkpt><trkpt lat="46.0432749" lon="11.8433426"><ele>1031.0</ele><time>2026-03-28T13:07:33.783Z</time></trkpt><trkpt lat="46.0432246" lon="11.843265"><ele>1031.0</ele><time>2026-03-28T13:07:36.785Z</time></trkpt><trkpt lat="46.0431725" lon="11.843183"><ele>1033.1666666666667</ele><time>2026-03-28T13:07:39.783Z</time></trkpt><trkpt lat="46.0431097" lon="11.8431182"><ele>1035.3333333333335</ele><time>2026-03-28T13:07:42.783Z</time></trkpt><trkpt lat="46.0430382" lon="11.843075"><ele>1037.5</ele><time>2026-03-28T13:07:45.781Z</time></trkpt><trkpt lat="46.0429717" lon="11.8430164"><ele>1039.6666666666667</ele><time>2026-03-28T13:07:48.785Z</time></trkpt><trkpt lat="46.0429123" lon="11.8429599"><ele>1041.8333333333333</ele><time>2026-03-28T13:07:51.785Z</time></trkpt><trkpt lat="46.0428357" lon="11.8429043"><ele>1044.0</ele><time>2026-03-28T13:07:54.782Z</time></trkpt><trkpt lat="46.0427424" lon="11.8428715"><ele>1044.0</ele><time>2026-03-28T13:07:57.783Z</time></trkpt><trkpt lat="46.042667" lon="11.842828"><ele>1044.0</ele><time>2026-03-28T13:08:00.783Z</time></trkpt><trkpt lat="46.0426018" lon="11.8427747"><ele>1044.0</ele><time>2026-03-28T13:08:03.782Z</time></trkpt><trkpt lat="46.0425291" lon="11.8427299"><ele>1044.0</ele><time>2026-03-28T13:08:06.783Z</time></trkpt><trkpt lat="46.0424556" lon="11.8426895"><ele>1044.0</ele><time>2026-03-28T13:08:09.783Z</time></trkpt><trkpt lat="46.0423883" lon="11.8426356"><ele>1044.0</ele><time>2026-03-28T13:08:12.785Z</time></trkpt><trkpt lat="46.0423188" lon="11.8425877"><ele>1047.5</ele><time>2026-03-28T13:08:15.783Z</time></trkpt><trkpt lat="46.0422381" lon="11.8425473"><ele>1051.0</ele><time>2026-03-28T13:08:18.783Z</time></trkpt><trkpt lat="46.0421684" lon="11.8425412"><ele>1054.5</ele><time>2026-03-28T13:08:20.783Z</time></trkpt><trkpt lat="46.0420951" lon="11.8425471"><ele>1058.0</ele><time>2026-03-28T13:08:22.782Z</time></trkpt><trkpt lat="46.0420035" lon="11.8425212"><ele>1061.5</ele><time>2026-03-28T13:08:25.785Z</time></trkpt><trkpt lat="46.041931" lon="11.8424938"><ele>1065.0</ele><time>2026-03-28T13:08:28.783Z</time></trkpt><trkpt lat="46.0418506" lon="11.8424625"><ele>1065.0</ele><time>2026-03-28T13:08:31.783Z</time></trkpt><trkpt lat="46.041783" lon="11.8424744"><ele>1065.0</ele><time>2026-03-28T13:08:33.783Z</time></trkpt><trkpt lat="46.0417199" lon="11.8424845"><ele>1065.0</ele><time>2026-03-28T13:08:35.782Z</time></trkpt><trkpt lat="46.0416388" lon="11.8424844"><ele>1065.0</ele><time>2026-03-28T13:08:38.783Z</time></trkpt><trkpt lat="46.0415704" lon="11.8424591"><ele>1065.0</ele><time>2026-03-28T13:08:41.782Z</time></trkpt><trkpt lat="46.0414902" lon="11.8424326"><ele>1065.0</ele><time>2026-03-28T13:08:45.783Z</time></trkpt><trkpt lat="46.041417" lon="11.8423898"><ele>1065.0</ele><time>2026-03-28T13:08:49.782Z</time></trkpt><trkpt lat="46.0413525" lon="11.8423386"><ele>1064.1666666666667</ele><time>2026-03-28T13:08:52.784Z</time></trkpt><trkpt lat="46.0412749" lon="11.8422898"><ele>1063.3333333333333</ele><time>2026-03-28T13:08:55.782Z</time></trkpt><trkpt lat="46.0412204" lon="11.8422333"><ele>1062.5</ele><time>2026-03-28T13:08:58.783Z</time></trkpt><trkpt lat="46.0411631" lon="11.8421706"><ele>1061.6666666666665</ele><time>2026-03-28T13:09:01.783Z</time></trkpt><trkpt lat="46.0411002" lon="11.8421126"><ele>1060.8333333333333</ele><time>2026-03-28T13:09:04.786Z</time></trkpt><trkpt lat="46.0410304" lon="11.8420534"><ele>1060.0</ele><time>2026-03-28T13:09:07.785Z</time></trkpt><trkpt lat="46.0409605" lon="11.8419915"><ele>1060.0</ele><time>2026-03-28T13:09:10.781Z</time></trkpt><trkpt lat="46.0408781" lon="11.8419242"><ele>1060.0</ele><time>2026-03-28T13:09:13.784Z</time></trkpt><trkpt lat="46.0408146" lon="11.8418909"><ele>1060.0</ele><time>2026-03-28T13:09:15.785Z</time></trkpt><trkpt lat="46.0407436" lon="11.8418235"><ele>1060.0</ele><time>2026-03-28T13:09:18.782Z</time></trkpt><trkpt lat="46.0406694" lon="11.8417583"><ele>1060.0</ele><time>2026-03-28T13:09:21.781Z</time></trkpt><trkpt lat="46.0406095" lon="11.8416923"><ele>1060.0</ele><time>2026-03-28T13:09:24.782Z</time></trkpt><trkpt lat="46.0405369" lon="11.8416422"><ele>1061.1666666666665</ele><time>2026-03-28T13:09:27.782Z</time></trkpt><trkpt lat="46.0404651" lon="11.8415804"><ele>1062.3333333333333</ele><time>2026-03-28T13:09:30.783Z</time></trkpt><trkpt lat="46.0404073" lon="11.841512"><ele>1063.5</ele><time>2026-03-28T13:09:33.785Z</time></trkpt><trkpt lat="46.0403395" lon="11.8414582"><ele>1064.6666666666667</ele><time>2026-03-28T13:09:36.783Z</time></trkpt><trkpt lat="46.0402666" lon="11.8414101"><ele>1065.8333333333335</ele><time>2026-03-28T13:09:39.785Z</time></trkpt><trkpt lat="46.0401937" lon="11.8413586"><ele>1067.0</ele><time>2026-03-28T13:09:42.785Z</time></trkpt><trkpt lat="46.0401337" lon="11.8413017"><ele>1067.0</ele><time>2026-03-28T13:09:45.783Z</time></trkpt><trkpt lat="46.0400733" lon="11.8412439"><ele>1067.0</ele><time>2026-03-28T13:09:48.782Z</time></trkpt><trkpt lat="46.0400222" lon="11.8411817"><ele>1067.0</ele><time>2026-03-28T13:09:50.782Z</time></trkpt><trkpt lat="46.0399642" lon="11.8410849"><ele>1067.0</ele><time>2026-03-28T13:09:53.782Z</time></trkpt><trkpt lat="46.0399334" lon="11.8409684"><ele>1067.0</ele><time>2026-03-28T13:09:57.783Z</time></trkpt><trkpt lat="46.0398894" lon="11.8408628"><ele>1067.0</ele><time>2026-03-28T13:10:01.782Z</time></trkpt><trkpt lat="46.0398586" lon="11.8407664"><ele>1069.6666666666667</ele><time>2026-03-28T13:10:05.785Z</time></trkpt><trkpt lat="46.039816" lon="11.8406675"><ele>1072.3333333333335</ele><time>2026-03-28T13:10:09.781Z</time></trkpt><trkpt lat="46.0397529" lon="11.8406123"><ele>1075.0</ele><time>2026-03-28T13:10:11.782Z</time></trkpt><trkpt lat="46.039661" lon="11.8405502"><ele>1077.6666666666667</ele><time>2026-03-28T13:10:13.785Z</time></trkpt><trkpt lat="46.0395975" lon="11.8404861"><ele>1080.3333333333333</ele><time>2026-03-28T13:10:15.782Z</time></trkpt><trkpt lat="46.039532" lon="11.8404551"><ele>1083.0</ele><time>2026-03-28T13:10:17.782Z</time></trkpt><trkpt lat="46.0394432" lon="11.8404549"><ele>1083.0</ele><time>2026-03-28T13:10:20.786Z</time></trkpt><trkpt lat="46.0393556" lon="11.8404487"><ele>1083.0</ele><time>2026-03-28T13:10:22.786Z</time></trkpt><trkpt lat="46.0392738" lon="11.8404591"><ele>1083.0</ele><time>2026-03-28T13:10:24.785Z</time></trkpt><trkpt lat="46.0391865" lon="11.8405084"><ele>1083.0</ele><time>2026-03-28T13:10:26.786Z</time></trkpt><trkpt lat="46.0391107" lon="11.8405688"><ele>1083.0</ele><time>2026-03-28T13:10:28.783Z</time></trkpt><trkpt lat="46.0390478" lon="11.8405965"><ele>1083.0</ele><time>2026-03-28T13:10:30.782Z</time></trkpt><trkpt lat="46.0389682" lon="11.8406644"><ele>1084.857142857143</ele><time>2026-03-28T13:10:33.783Z</time></trkpt><trkpt lat="46.038902" lon="11.8407115"><ele>1086.7142857142858</ele><time>2026-03-28T13:10:36.785Z</time></trkpt><trkpt lat="46.0388279" lon="11.8407252"><ele>1088.5714285714287</ele><time>2026-03-28T13:10:39.784Z</time></trkpt><trkpt lat="46.0387627" lon="11.8407645"><ele>1090.4285714285716</ele><time>2026-03-28T13:10:42.785Z</time></trkpt><trkpt lat="46.0386958" lon="11.8407977"><ele>1092.2857142857142</ele><time>2026-03-28T13:10:46.782Z</time></trkpt><trkpt lat="46.0386334" lon="11.8407323"><ele>1094.1428571428573</ele><time>2026-03-28T13:12:31.785Z</time></trkpt><trkpt lat="46.0385634" lon="11.840695"><ele>1096.0</ele><time>2026-03-28T13:12:34.783Z</time></trkpt><trkpt lat="46.0384897" lon="11.8406623"><ele>1096.0000000000002</ele><time>2026-03-28T13:12:38.786Z</time></trkpt><trkpt lat="46.0384264" lon="11.8406519"><ele>1096.0</ele><time>2026-03-28T13:12:40.786Z</time></trkpt><trkpt lat="46.0383558" lon="11.8406271"><ele>1096.0</ele><time>2026-03-28T13:12:42.784Z</time></trkpt><trkpt lat="46.0382919" lon="11.8406247"><ele>1096.0</ele><time>2026-03-28T13:12:44.784Z</time></trkpt><trkpt lat="46.0382313" lon="11.8406635"><ele>1096.0</ele><time>2026-03-28T13:12:46.783Z</time></trkpt><trkpt lat="46.0381413" lon="11.8407147"><ele>1096.0000000000002</ele><time>2026-03-28T13:12:49.782Z</time></trkpt><trkpt lat="46.0380682" lon="11.8407711"><ele>1096.0</ele><time>2026-03-28T13:12:52.782Z</time></trkpt><trkpt lat="46.0380109" lon="11.8408102"><ele>1098.3333333333333</ele><time>2026-03-28T13:12:54.785Z</time></trkpt><trkpt lat="46.0379326" lon="11.840877"><ele>1100.6666666666665</ele><time>2026-03-28T13:12:57.782Z</time></trkpt><trkpt lat="46.0378761" lon="11.8409348"><ele>1103.0</ele><time>2026-03-28T13:12:59.784Z</time></trkpt><trkpt lat="46.037809" lon="11.8409804"><ele>1105.3333333333333</ele><time>2026-03-28T13:13:02.782Z</time></trkpt><trkpt lat="46.0377307" lon="11.8410145"><ele>1107.6666666666667</ele><time>2026-03-28T13:13:05.782Z</time></trkpt><trkpt lat="46.0376432" lon="11.8410429"><ele>1110.0</ele><time>2026-03-28T13:13:08.785Z</time></trkpt><trkpt lat="46.0375443" lon="11.8410662"><ele>1107.8333333333333</ele><time>2026-03-28T13:13:11.784Z</time></trkpt><trkpt lat="46.0374757" lon="11.8410651"><ele>1105.6666666666667</ele><time>2026-03-28T13:13:13.783Z</time></trkpt><trkpt lat="46.0374108" lon="11.8410684"><ele>1103.5</ele><time>2026-03-28T13:13:15.782Z</time></trkpt><trkpt lat="46.0373215" lon="11.8410498"><ele>1101.3333333333335</ele><time>2026-03-28T13:13:18.782Z</time></trkpt><trkpt lat="46.0372626" lon="11.8410144"><ele>1099.1666666666667</ele><time>2026-03-28T13:13:20.782Z</time></trkpt><trkpt lat="46.0371763" lon="11.8409762"><ele>1097.0</ele><time>2026-03-28T13:13:23.782Z</time></trkpt><trkpt lat="46.037096" lon="11.8409195"><ele>1097.0</ele><time>2026-03-28T13:13:26.782Z</time></trkpt><trkpt lat="46.0370241" lon="11.8408975"><ele>1097.0</ele><time>2026-03-28T13:13:28.782Z</time></trkpt><trkpt lat="46.0369486" lon="11.8408638"><ele>1097.0</ele><time>2026-03-28T13:13:30.782Z</time></trkpt><trkpt lat="46.0368786" lon="11.8408354"><ele>1097.0</ele><time>2026-03-28T13:13:32.782Z</time></trkpt><trkpt lat="46.0367912" lon="11.8407969"><ele>1097.0</ele><time>2026-03-28T13:13:34.782Z</time></trkpt><trkpt lat="46.0366831" lon="11.8407539"><ele>1097.0</ele><time>2026-03-28T13:13:36.784Z</time></trkpt><trkpt lat="46.036596" lon="11.8407412"><ele>1096.8333333333335</ele><time>2026-03-28T13:13:38.782Z</time></trkpt><trkpt lat="46.0364988" lon="11.8407391"><ele>1096.6666666666667</ele><time>2026-03-28T13:13:40.782Z</time></trkpt><trkpt lat="46.0364006" lon="11.8407289"><ele>1096.5</ele><time>2026-03-28T13:13:42.782Z</time></trkpt><trkpt lat="46.0363272" lon="11.8407095"><ele>1096.3333333333333</ele><time>2026-03-28T13:13:44.783Z</time></trkpt><trkpt lat="46.0362604" lon="11.8406868"><ele>1096.1666666666665</ele><time>2026-03-28T13:13:46.783Z</time></trkpt><trkpt lat="46.0361758" lon="11.8406524"><ele>1096.0</ele><time>2026-03-28T13:13:49.785Z</time></trkpt><trkpt lat="46.0361112" lon="11.8405974"><ele>1096.0</ele><time>2026-03-28T13:13:52.785Z</time></trkpt><trkpt lat="46.0360575" lon="11.8405252"><ele>1096.0</ele><time>2026-03-28T13:13:54.786Z</time></trkpt><trkpt lat="46.0359908" lon="11.8404364"><ele>1096.0</ele><time>2026-03-28T13:13:57.785Z</time></trkpt><trkpt lat="46.035893" lon="11.8403932"><ele>1096.0</ele><time>2026-03-28T13:14:00.784Z</time></trkpt><trkpt lat="46.0358003" lon="11.8404229"><ele>1096.0</ele><time>2026-03-28T13:14:02.784Z</time></trkpt><trkpt lat="46.0357153" lon="11.8404423"><ele>1096.0</ele><time>2026-03-28T13:14:05.783Z</time></trkpt><trkpt lat="46.0356341" lon="11.8404669"><ele>1096.3333333333333</ele><time>2026-03-28T13:14:08.784Z</time></trkpt><trkpt lat="46.0355728" lon="11.8405015"><ele>1096.6666666666665</ele><time>2026-03-28T13:14:10.784Z</time></trkpt><trkpt lat="46.0354973" lon="11.8405198"><ele>1097.0</ele><time>2026-03-28T13:14:13.782Z</time></trkpt><trkpt lat="46.0354259" lon="11.8405088"><ele>1097.3333333333333</ele><time>2026-03-28T13:14:16.785Z</time></trkpt><trkpt lat="46.0353441" lon="11.8405101"><ele>1097.6666666666667</ele><time>2026-03-28T13:14:19.785Z</time></trkpt><trkpt lat="46.035249" lon="11.8405071"><ele>1098.0</ele><time>2026-03-28T13:14:22.782Z</time></trkpt><trkpt lat="46.0351619" lon="11.8405021"><ele>1098.0</ele><time>2026-03-28T13:14:25.783Z</time></trkpt><trkpt lat="46.0350728" lon="11.8405189"><ele>1098.0</ele><time>2026-03-28T13:14:28.783Z</time></trkpt><trkpt lat="46.034988" lon="11.8405105"><ele>1098.0</ele><time>2026-03-28T13:14:31.786Z</time></trkpt><trkpt lat="46.0349082" lon="11.8405023"><ele>1098.0</ele><time>2026-03-28T13:14:34.783Z</time></trkpt><trkpt lat="46.0348355" lon="11.8405226"><ele>1098.0</ele><time>2026-03-28T13:14:37.783Z</time></trkpt><trkpt lat="46.0347693" lon="11.8405555"><ele>1098.0</ele><time>2026-03-28T13:14:39.783Z</time></trkpt><trkpt lat="46.0347019" lon="11.8405879"><ele>1099.2857142857142</ele><time>2026-03-28T13:14:41.783Z</time></trkpt><trkpt lat="46.0346336" lon="11.840623"><ele>1100.5714285714287</ele><time>2026-03-28T13:14:43.783Z</time></trkpt><trkpt lat="46.0345685" lon="11.8406587"><ele>1101.857142857143</ele><time>2026-03-28T13:14:45.786Z</time></trkpt><trkpt lat="46.0344865" lon="11.8406602"><ele>1103.142857142857</ele><time>2026-03-28T13:14:48.783Z</time></trkpt><trkpt lat="46.0344392" lon="11.8405876"><ele>1104.4285714285713</ele><time>2026-03-28T13:14:51.785Z</time></trkpt><trkpt lat="46.0343808" lon="11.8405273"><ele>1105.7142857142858</ele><time>2026-03-28T13:14:54.783Z</time></trkpt><trkpt lat="46.0343008" lon="11.8405572"><ele>1107.0</ele><time>2026-03-28T13:14:57.783Z</time></trkpt><trkpt lat="46.034245" lon="11.8406491"><ele>1107.0</ele><time>2026-03-28T13:15:00.786Z</time></trkpt><trkpt lat="46.034195" lon="11.8407262"><ele>1107.0</ele><time>2026-03-28T13:15:03.783Z</time></trkpt><trkpt lat="46.0341541" lon="11.8408039"><ele>1107.0</ele><time>2026-03-28T13:15:07.783Z</time></trkpt><trkpt lat="46.0341311" lon="11.8409143"><ele>1107.0</ele><time>2026-03-28T13:15:10.783Z</time></trkpt><trkpt lat="46.0340863" lon="11.8410188"><ele>1107.0</ele><time>2026-03-28T13:15:13.785Z</time></trkpt><trkpt lat="46.0340243" lon="11.8410802"><ele>1107.0</ele><time>2026-03-28T13:15:16.783Z</time></trkpt><trkpt lat="46.0339542" lon="11.8411271"><ele>1106.5</ele><time>2026-03-28T13:15:20.783Z</time></trkpt><trkpt lat="46.0338888" lon="11.8411417"><ele>1106.0</ele><time>2026-03-28T13:15:24.782Z</time></trkpt><trkpt lat="46.0338277" lon="11.8411195"><ele>1105.5</ele><time>2026-03-28T13:15:28.785Z</time></trkpt><trkpt lat="46.0337671" lon="11.841071"><ele>1105.0</ele><time>2026-03-28T13:15:32.782Z</time></trkpt><trkpt lat="46.0337011" lon="11.841038"><ele>1104.5</ele><time>2026-03-28T13:15:36.783Z</time></trkpt><trkpt lat="46.0336403" lon="11.8409939"><ele>1104.0</ele><time>2026-03-28T13:15:40.783Z</time></trkpt><trkpt lat="46.0335157" lon="11.8408923"><ele>1104.0</ele><time>2026-03-28T13:15:52.783Z</time></trkpt><trkpt lat="46.0334458" lon="11.840897"><ele>1104.0</ele><time>2026-03-28T13:15:54.783Z</time></trkpt><trkpt lat="46.03336" lon="11.8408923"><ele>1104.0</ele><time>2026-03-28T13:15:57.783Z</time></trkpt><trkpt lat="46.0332932" lon="11.8408833"><ele>1104.0</ele><time>2026-03-28T13:15:59.783Z</time></trkpt><trkpt lat="46.0332237" lon="11.8408699"><ele>1104.0</ele><time>2026-03-28T13:16:01.783Z</time></trkpt><trkpt lat="46.0331468" lon="11.8408078"><ele>1104.0</ele><time>2026-03-28T13:16:08.783Z</time></trkpt><trkpt lat="46.0330816" lon="11.8407868"><ele>1104.0</ele><time>2026-03-28T13:16:12.785Z</time></trkpt><trkpt lat="46.0329974" lon="11.8407754"><ele>1102.857142857143</ele><time>2026-03-28T13:16:16.783Z</time></trkpt><trkpt lat="46.0329339" lon="11.8407423"><ele>1101.7142857142858</ele><time>2026-03-28T13:16:19.782Z</time></trkpt><trkpt lat="46.03287" lon="11.8406911"><ele>1100.5714285714287</ele><time>2026-03-28T13:16:24.785Z</time></trkpt><trkpt lat="46.0328134" lon="11.8406171"><ele>1099.4285714285716</ele><time>2026-03-28T13:16:28.783Z</time></trkpt><trkpt lat="46.0327554" lon="11.8405526"><ele>1098.2857142857142</ele><time>2026-03-28T13:16:31.781Z</time></trkpt><trkpt lat="46.0326968" lon="11.840488"><ele>1097.1428571428573</ele><time>2026-03-28T13:16:35.783Z</time></trkpt><trkpt lat="46.0326339" lon="11.8404172"><ele>1096.0</ele><time>2026-03-28T13:16:40.785Z</time></trkpt><trkpt lat="46.0325783" lon="11.8403425"><ele>1096.0000000000002</ele><time>2026-03-28T13:16:43.783Z</time></trkpt><trkpt lat="46.0325417" lon="11.8402664"><ele>1096.0</ele><time>2026-03-28T13:16:47.783Z</time></trkpt><trkpt lat="46.0324929" lon="11.8401895"><ele>1096.0</ele><time>2026-03-28T13:16:52.783Z</time></trkpt><trkpt lat="46.0324399" lon="11.8401161"><ele>1096.0</ele><time>2026-03-28T13:16:57.785Z</time></trkpt><trkpt lat="46.0323876" lon="11.8400626"><ele>1096.0</ele><time>2026-03-28T13:17:01.785Z</time></trkpt><trkpt lat="46.0323265" lon="11.8400053"><ele>1096.0000000000002</ele><time>2026-03-28T13:17:04.782Z</time></trkpt><trkpt lat="46.0322571" lon="11.8399658"><ele>1096.0</ele><time>2026-03-28T13:17:08.782Z</time></trkpt><trkpt lat="46.0321882" lon="11.8399027"><ele>1098.0000000000002</ele><time>2026-03-28T13:17:13.783Z</time></trkpt><trkpt lat="46.0321289" lon="11.8398529"><ele>1100.0</ele><time>2026-03-28T13:17:17.783Z</time></trkpt><trkpt lat="46.0320679" lon="11.8398154"><ele>1102.0</ele><time>2026-03-28T13:17:21.783Z</time></trkpt><trkpt lat="46.0319933" lon="11.8397838"><ele>1104.0</ele><time>2026-03-28T13:17:25.783Z</time></trkpt><trkpt lat="46.0319226" lon="11.839764"><ele>1106.0</ele><time>2026-03-28T13:17:29.783Z</time></trkpt><trkpt lat="46.0318559" lon="11.8397384"><ele>1108.0000000000002</ele><time>2026-03-28T13:17:34.783Z</time></trkpt><trkpt lat="46.0318018" lon="11.8396821"><ele>1110.0</ele><time>2026-03-28T13:17:38.783Z</time></trkpt><trkpt lat="46.0317358" lon="11.839629"><ele>1110.0</ele><time>2026-03-28T13:17:42.783Z</time></trkpt><trkpt lat="46.0316663" lon="11.8395679"><ele>1110.0</ele><time>2026-03-28T13:17:47.783Z</time></trkpt><trkpt lat="46.0315613" lon="11.8394934"><ele>1110.0</ele><time>2026-03-28T13:17:55.782Z</time></trkpt><trkpt lat="46.0314945" lon="11.839449"><ele>1110.0</ele><time>2026-03-28T13:18:00.784Z</time></trkpt><trkpt lat="46.0314225" lon="11.8394047"><ele>1110.0</ele><time>2026-03-28T13:18:06.783Z</time></trkpt><trkpt lat="46.0313615" lon="11.839322"><ele>1110.0</ele><time>2026-03-28T13:18:10.782Z</time></trkpt><trkpt lat="46.0312933" lon="11.8392468"><ele>1111.4285714285716</ele><time>2026-03-28T13:18:15.783Z</time></trkpt><trkpt lat="46.0312396" lon="11.8391789"><ele>1112.857142857143</ele><time>2026-03-28T13:18:19.784Z</time></trkpt><trkpt lat="46.0311852" lon="11.839128"><ele>1114.2857142857142</ele><time>2026-03-28T13:18:23.783Z</time></trkpt><trkpt lat="46.031114" lon="11.839077"><ele>1115.7142857142858</ele><time>2026-03-28T13:18:27.785Z</time></trkpt><trkpt lat="46.0310661" lon="11.8389995"><ele>1117.142857142857</ele><time>2026-03-28T13:18:32.785Z</time></trkpt><trkpt lat="46.0310293" lon="11.838923"><ele>1118.5714285714287</ele><time>2026-03-28T13:18:36.783Z</time></trkpt><trkpt lat="46.0309743" lon="11.8388634"><ele>1120.0</ele><time>2026-03-28T13:18:42.783Z</time></trkpt><trkpt lat="46.0309071" lon="11.8387901"><ele>1120.0</ele><time>2026-03-28T13:18:46.783Z</time></trkpt><trkpt lat="46.0308543" lon="11.8387254"><ele>1120.0</ele><time>2026-03-28T13:18:49.783Z</time></trkpt><trkpt lat="46.0307833" lon="11.8386617"><ele>1120.0</ele><time>2026-03-28T13:18:52.785Z</time></trkpt><trkpt lat="46.0307168" lon="11.8386414"><ele>1120.0</ele><time>2026-03-28T13:18:56.783Z</time></trkpt><trkpt lat="46.0306567" lon="11.8385782"><ele>1120.0</ele><time>2026-03-28T13:19:00.783Z</time></trkpt><trkpt lat="46.0305995" lon="11.8385391"><ele>1120.0</ele><time>2026-03-28T13:19:03.783Z</time></trkpt><trkpt lat="46.030524" lon="11.8385099"><ele>1120.0</ele><time>2026-03-28T13:19:06.782Z</time></trkpt><trkpt lat="46.0304491" lon="11.8384599"><ele>1120.6666666666665</ele><time>2026-03-28T13:19:09.784Z</time></trkpt><trkpt lat="46.0303789" lon="11.8384135"><ele>1121.3333333333333</ele><time>2026-03-28T13:19:12.783Z</time></trkpt><trkpt lat="46.0303077" lon="11.8383868"><ele>1122.0</ele><time>2026-03-28T13:19:15.783Z</time></trkpt><trkpt lat="46.0302177" lon="11.8383893"><ele>1122.6666666666667</ele><time>2026-03-28T13:19:18.782Z</time></trkpt><trkpt lat="46.0301549" lon="11.8384144"><ele>1123.3333333333335</ele><time>2026-03-28T13:19:21.784Z</time></trkpt><trkpt lat="46.0300834" lon="11.8384119"><ele>1124.0</ele><time>2026-03-28T13:19:24.782Z</time></trkpt><trkpt lat="46.0300108" lon="11.8384129"><ele>1122.1666666666667</ele><time>2026-03-28T13:19:27.784Z</time></trkpt><trkpt lat="46.0299313" lon="11.8383808"><ele>1120.3333333333335</ele><time>2026-03-28T13:19:30.785Z</time></trkpt><trkpt lat="46.0298394" lon="11.838334"><ele>1118.5</ele><time>2026-03-28T13:19:32.784Z</time></trkpt><trkpt lat="46.0297575" lon="11.8382864"><ele>1116.6666666666667</ele><time>2026-03-28T13:19:34.782Z</time></trkpt><trkpt lat="46.0296758" lon="11.8382553"><ele>1114.8333333333333</ele><time>2026-03-28T13:19:36.782Z</time></trkpt><trkpt lat="46.0295896" lon="11.8382196"><ele>1113.0</ele><time>2026-03-28T13:19:38.783Z</time></trkpt><trkpt lat="46.0295014" lon="11.8381752"><ele>1113.0</ele><time>2026-03-28T13:19:40.784Z</time></trkpt><trkpt lat="46.0294004" lon="11.8381617"><ele>1113.0</ele><time>2026-03-28T13:19:42.784Z</time></trkpt><trkpt lat="46.0292999" lon="11.8381411"><ele>1113.0</ele><time>2026-03-28T13:19:44.785Z</time></trkpt><trkpt lat="46.0291966" lon="11.8380942"><ele>1113.0</ele><time>2026-03-28T13:19:46.783Z</time></trkpt><trkpt lat="46.0290853" lon="11.8380494"><ele>1113.0</ele><time>2026-03-28T13:19:48.784Z</time></trkpt><trkpt lat="46.0289761" lon="11.8380229"><ele>1109.6666666666667</ele><time>2026-03-28T13:19:50.782Z</time></trkpt><trkpt lat="46.0288817" lon="11.8379996"><ele>1106.3333333333333</ele><time>2026-03-28T13:19:52.782Z</time></trkpt><trkpt lat="46.0287995" lon="11.8379963"><ele>1103.0</ele><time>2026-03-28T13:19:54.782Z</time></trkpt><trkpt lat="46.0287313" lon="11.8379767"><ele>1099.6666666666665</ele><time>2026-03-28T13:19:56.783Z</time></trkpt><trkpt lat="46.0286537" lon="11.8379585"><ele>1096.3333333333333</ele><time>2026-03-28T13:19:59.782Z</time></trkpt><trkpt lat="46.028583" lon="11.8379989"><ele>1093.0</ele><time>2026-03-28T13:20:01.782Z</time></trkpt><trkpt lat="46.0284949" lon="11.8380047"><ele>1093.0</ele><time>2026-03-28T13:20:04.781Z</time></trkpt><trkpt lat="46.0284107" lon="11.8380107"><ele>1093.0</ele><time>2026-03-28T13:20:07.782Z</time></trkpt><trkpt lat="46.0283343" lon="11.8380125"><ele>1093.0</ele><time>2026-03-28T13:20:11.783Z</time></trkpt><trkpt lat="46.0282527" lon="11.8380058"><ele>1093.0</ele><time>2026-03-28T13:20:15.782Z</time></trkpt><trkpt lat="46.0281786" lon="11.8380053"><ele>1093.0</ele><time>2026-03-28T13:20:20.783Z</time></trkpt><trkpt lat="46.0281093" lon="11.8380285"><ele>1093.0</ele><time>2026-03-28T13:20:24.785Z</time></trkpt><trkpt lat="46.0280351" lon="11.8380392"><ele>1088.6666666666665</ele><time>2026-03-28T13:20:29.782Z</time></trkpt><trkpt lat="46.0279691" lon="11.8380224"><ele>1084.3333333333333</ele><time>2026-03-28T13:20:33.783Z</time></trkpt><trkpt lat="46.027903" lon="11.8380197"><ele>1080.0</ele><time>2026-03-28T13:20:37.786Z</time></trkpt><trkpt lat="46.0278401" lon="11.8379922"><ele>1075.6666666666667</ele><time>2026-03-28T13:20:41.784Z</time></trkpt><trkpt lat="46.0277798" lon="11.8379434"><ele>1071.3333333333335</ele><time>2026-03-28T13:20:45.783Z</time></trkpt><trkpt lat="46.0276767" lon="11.8379763"><ele>1067.0</ele><time>2026-03-28T13:20:54.78Z</time></trkpt><trkpt lat="46.0276715" lon="11.8380984"><ele>1066.9999999999998</ele><time>2026-03-28T13:21:28.779Z</time></trkpt><trkpt lat="46.0276685" lon="11.8382081"><ele>1067.0</ele><time>2026-03-28T13:21:31.782Z</time></trkpt><trkpt lat="46.0275958" lon="11.8382002"><ele>1067.0</ele><time>2026-03-28T13:21:36.781Z</time></trkpt><trkpt lat="46.0275336" lon="11.8381713"><ele>1067.0</ele><time>2026-03-28T13:21:40.783Z</time></trkpt><trkpt lat="46.0274661" lon="11.8381922"><ele>1067.0</ele><time>2026-03-28T13:21:45.782Z</time></trkpt><trkpt lat="46.0274033" lon="11.8382552"><ele>1066.9999999999998</ele><time>2026-03-28T13:21:49.784Z</time></trkpt><trkpt lat="46.0274325" lon="11.8383444"><ele>1067.0</ele><time>2026-03-28T13:21:53.783Z</time></trkpt><trkpt lat="46.0274924" lon="11.8384107"><ele>1061.3333333333335</ele><time>2026-03-28T13:21:57.784Z</time></trkpt><trkpt lat="46.0275454" lon="11.8384739"><ele>1055.6666666666667</ele><time>2026-03-28T13:22:07.784Z</time></trkpt><trkpt lat="46.0276134" lon="11.8385734"><ele>1050.0</ele><time>2026-03-28T13:22:10.782Z</time></trkpt><trkpt lat="46.0276658" lon="11.8386291"><ele>1044.3333333333333</ele><time>2026-03-28T13:22:12.783Z</time></trkpt><trkpt lat="46.0277433" lon="11.8386892"><ele>1038.6666666666665</ele><time>2026-03-28T13:22:15.782Z</time></trkpt><trkpt lat="46.0278021" lon="11.8387344"><ele>1033.0</ele><time>2026-03-28T13:22:17.784Z</time></trkpt><trkpt lat="46.0278853" lon="11.8387871"><ele>1033.0</ele><time>2026-03-28T13:22:20.783Z</time></trkpt><trkpt lat="46.0279477" lon="11.8388513"><ele>1033.0</ele><time>2026-03-28T13:22:22.782Z</time></trkpt><trkpt lat="46.0280258" lon="11.8389938"><ele>1033.0</ele><time>2026-03-28T13:22:24.783Z</time></trkpt><trkpt lat="46.0281178" lon="11.8391262"><ele>1033.0</ele><time>2026-03-28T13:22:26.783Z</time></trkpt><trkpt lat="46.0281746" lon="11.839191"><ele>1033.0</ele><time>2026-03-28T13:22:27.782Z</time></trkpt><trkpt lat="46.0282305" lon="11.8392601"><ele>1032.3333333333333</ele><time>2026-03-28T13:22:28.782Z</time></trkpt><trkpt lat="46.0282811" lon="11.8393315"><ele>1031.6666666666665</ele><time>2026-03-28T13:22:29.784Z</time></trkpt><trkpt lat="46.0283291" lon="11.8394021"><ele>1031.0</ele><time>2026-03-28T13:22:30.783Z</time></trkpt><trkpt lat="46.0283807" lon="11.8394757"><ele>1030.3333333333333</ele><time>2026-03-28T13:22:31.782Z</time></trkpt><trkpt lat="46.0284381" lon="11.8395493"><ele>1029.6666666666667</ele><time>2026-03-28T13:22:32.783Z</time></trkpt><trkpt lat="46.0284946" lon="11.8396041"><ele>1029.0</ele><time>2026-03-28T13:22:33.784Z</time></trkpt><trkpt lat="46.0285972" lon="11.8396657"><ele>1029.0</ele><time>2026-03-28T13:22:35.782Z</time></trkpt><trkpt lat="46.0286705" lon="11.8396818"><ele>1029.0</ele><time>2026-03-28T13:22:39.782Z</time></trkpt><trkpt lat="46.0287616" lon="11.8396986"><ele>1029.0</ele><time>2026-03-28T13:22:42.782Z</time></trkpt><trkpt lat="46.0288302" lon="11.8397292"><ele>1029.0</ele><time>2026-03-28T13:22:44.783Z</time></trkpt><trkpt lat="46.0289187" lon="11.8397874"><ele>1029.0</ele><time>2026-03-28T13:22:46.784Z</time></trkpt><trkpt lat="46.0290119" lon="11.8398531"><ele>1029.0</ele><time>2026-03-28T13:22:48.782Z</time></trkpt><trkpt lat="46.0290949" lon="11.8399076"><ele>1032.0</ele><time>2026-03-28T13:22:50.783Z</time></trkpt><trkpt lat="46.0291854" lon="11.8399541"><ele>1035.0</ele><time>2026-03-28T13:22:52.783Z</time></trkpt><trkpt lat="46.0292857" lon="11.8399866"><ele>1038.0</ele><time>2026-03-28T13:22:54.785Z</time></trkpt><trkpt lat="46.0293811" lon="11.8399941"><ele>1041.0</ele><time>2026-03-28T13:22:56.785Z</time></trkpt><trkpt lat="46.029475" lon="11.8400132"><ele>1044.0</ele><time>2026-03-28T13:22:58.782Z</time></trkpt><trkpt lat="46.0295733" lon="11.8400264"><ele>1044.0</ele><time>2026-03-28T13:23:00.784Z</time></trkpt><trkpt lat="46.0296815" lon="11.8400711"><ele>1044.0</ele><time>2026-03-28T13:23:02.784Z</time></trkpt><trkpt lat="46.0297552" lon="11.8401633"><ele>1044.0</ele><time>2026-03-28T13:23:04.785Z</time></trkpt><trkpt lat="46.0297874" lon="11.8402535"><ele>1044.0</ele><time>2026-03-28T13:23:06.781Z</time></trkpt><trkpt lat="46.0298338" lon="11.8403524"><ele>1044.0</ele><time>2026-03-28T13:23:09.785Z</time></trkpt><trkpt lat="46.0298718" lon="11.8404252"><ele>1044.0</ele><time>2026-03-28T13:23:11.783Z</time></trkpt><trkpt lat="46.0299155" lon="11.8405122"><ele>1042.4285714285716</ele><time>2026-03-28T13:23:13.783Z</time></trkpt><trkpt lat="46.0299911" lon="11.8405884"><ele>1040.857142857143</ele><time>2026-03-28T13:23:16.783Z</time></trkpt><trkpt lat="46.0300497" lon="11.8406409"><ele>1039.2857142857142</ele><time>2026-03-28T13:23:18.781Z</time></trkpt><trkpt lat="46.0300956" lon="11.840703"><ele>1037.7142857142858</ele><time>2026-03-28T13:23:20.783Z</time></trkpt><trkpt lat="46.0301356" lon="11.8407777"><ele>1036.142857142857</ele><time>2026-03-28T13:23:22.783Z</time></trkpt><trkpt lat="46.0301739" lon="11.8408625"><ele>1034.5714285714287</ele><time>2026-03-28T13:23:24.785Z</time></trkpt><trkpt lat="46.0302204" lon="11.8409397"><ele>1033.0</ele><time>2026-03-28T13:23:26.783Z</time></trkpt><trkpt lat="46.0302855" lon="11.8410061"><ele>1028.6666666666665</ele><time>2026-03-28T13:23:29.785Z</time></trkpt><trkpt lat="46.0303498" lon="11.8410819"><ele>1024.3333333333333</ele><time>2026-03-28T13:23:34.782Z</time></trkpt><trkpt lat="46.030285" lon="11.8410841"><ele>1020.0</ele><time>2026-03-28T13:24:00.783Z</time></trkpt><trkpt lat="46.0302158" lon="11.841045"><ele>1015.6666666666667</ele><time>2026-03-28T13:24:04.78Z</time></trkpt><trkpt lat="46.0301817" lon="11.8411488"><ele>1011.3333333333334</ele><time>2026-03-28T13:24:09.78Z</time></trkpt><trkpt lat="46.0301889" lon="11.8412763"><ele>1007.0</ele><time>2026-03-28T13:24:12.783Z</time></trkpt><trkpt lat="46.0301999" lon="11.8413832"><ele>1007.0000000000001</ele><time>2026-03-28T13:24:15.783Z</time></trkpt><trkpt lat="46.0302167" lon="11.8414729"><ele>1007.0</ele><time>2026-03-28T13:24:39.782Z</time></trkpt><trkpt lat="46.0302432" lon="11.841557"><ele>1007.0</ele><time>2026-03-28T13:24:41.785Z</time></trkpt><trkpt lat="46.0302897" lon="11.8416554"><ele>1007.0</ele><time>2026-03-28T13:24:44.784Z</time></trkpt><trkpt lat="46.0303554" lon="11.841738"><ele>1007.0000000000001</ele><time>2026-03-28T13:24:47.782Z</time></trkpt><trkpt lat="46.030406" lon="11.8417942"><ele>1007.0</ele><time>2026-03-28T13:24:49.784Z</time></trkpt><trkpt lat="46.030483" lon="11.8418625"><ele>1007.0000000000001</ele><time>2026-03-28T13:24:52.782Z</time></trkpt><trkpt lat="46.030558" lon="11.8419262"><ele>1007.0</ele><time>2026-03-28T13:24:55.782Z</time></trkpt><trkpt lat="46.0306395" lon="11.8419918"><ele>1007.0</ele><time>2026-03-28T13:24:58.782Z</time></trkpt><trkpt lat="46.0307193" lon="11.8420611"><ele>1007.0</ele><time>2026-03-28T13:25:01.784Z</time></trkpt><trkpt lat="46.0307908" lon="11.8421131"><ele>1007.0000000000001</ele><time>2026-03-28T13:25:04.785Z</time></trkpt><trkpt lat="46.0308572" lon="11.8421672"><ele>1007.0</ele><time>2026-03-28T13:25:08.785Z</time></trkpt><trkpt lat="46.0308049" lon="11.8422434"><ele>1004.0000000000001</ele><time>2026-03-28T13:25:12.784Z</time></trkpt><trkpt lat="46.0307337" lon="11.8422517"><ele>1001.0</ele><time>2026-03-28T13:25:16.783Z</time></trkpt><trkpt lat="46.03066" lon="11.8422418"><ele>998.0</ele><time>2026-03-28T13:25:20.783Z</time></trkpt><trkpt lat="46.0305904" lon="11.8422345"><ele>995.0</ele><time>2026-03-28T13:25:23.783Z</time></trkpt><trkpt lat="46.0305074" lon="11.8422201"><ele>992.0000000000001</ele><time>2026-03-28T13:25:26.785Z</time></trkpt><trkpt lat="46.0304185" lon="11.8422243"><ele>989.0</ele><time>2026-03-28T13:25:29.783Z</time></trkpt><trkpt lat="46.0303371" lon="11.8422146"><ele>989.0000000000001</ele><time>2026-03-28T13:25:32.782Z</time></trkpt><trkpt lat="46.0302569" lon="11.8422091"><ele>989.0</ele><time>2026-03-28T13:25:35.781Z</time></trkpt><trkpt lat="46.0301762" lon="11.8421951"><ele>989.0</ele><time>2026-03-28T13:25:37.785Z</time></trkpt><trkpt lat="46.0301093" lon="11.8421588"><ele>989.0</ele><time>2026-03-28T13:25:39.781Z</time></trkpt><trkpt lat="46.0300445" lon="11.842137"><ele>989.0000000000001</ele><time>2026-03-28T13:25:41.782Z</time></trkpt><trkpt lat="46.0299764" lon="11.8420839"><ele>989.0</ele><time>2026-03-28T13:25:44.782Z</time></trkpt><trkpt lat="46.029917" lon="11.8420129"><ele>987.0000000000001</ele><time>2026-03-28T13:25:46.781Z</time></trkpt><trkpt lat="46.0298487" lon="11.8419132"><ele>985.0</ele><time>2026-03-28T13:25:48.781Z</time></trkpt><trkpt lat="46.0297723" lon="11.8418485"><ele>983.0</ele><time>2026-03-28T13:25:50.785Z</time></trkpt><trkpt lat="46.0297237" lon="11.8417605"><ele>981.0</ele><time>2026-03-28T13:25:52.781Z</time></trkpt><trkpt lat="46.0296477" lon="11.841688"><ele>979.0000000000001</ele><time>2026-03-28T13:25:55.783Z</time></trkpt><trkpt lat="46.0295826" lon="11.8416543"><ele>977.0</ele><time>2026-03-28T13:25:57.783Z</time></trkpt><trkpt lat="46.0295135" lon="11.8415986"><ele>977.0</ele><time>2026-03-28T13:25:59.783Z</time></trkpt><trkpt lat="46.0294291" lon="11.8415345"><ele>977.0</ele><time>2026-03-28T13:26:01.783Z</time></trkpt><trkpt lat="46.0293553" lon="11.8414511"><ele>977.0</ele><time>2026-03-28T13:26:03.783Z</time></trkpt><trkpt lat="46.0292703" lon="11.8413841"><ele>977.0</ele><time>2026-03-28T13:26:05.783Z</time></trkpt><trkpt lat="46.0291644" lon="11.8413389"><ele>977.0</ele><time>2026-03-28T13:26:07.783Z</time></trkpt><trkpt lat="46.0290767" lon="11.8413197"><ele>973.2</ele><time>2026-03-28T13:26:09.782Z</time></trkpt><trkpt lat="46.0289756" lon="11.8413085"><ele>969.4000000000001</ele><time>2026-03-28T13:26:11.783Z</time></trkpt><trkpt lat="46.0288758" lon="11.8412969"><ele>965.5999999999999</ele><time>2026-03-28T13:26:13.783Z</time></trkpt><trkpt lat="46.0287847" lon="11.8412865"><ele>961.8</ele><time>2026-03-28T13:26:15.783Z</time></trkpt><trkpt lat="46.0287061" lon="11.8412508"><ele>958.0</ele><time>2026-03-28T13:26:17.785Z</time></trkpt><trkpt lat="46.0286313" lon="11.841199"><ele>958.0</ele><time>2026-03-28T13:26:19.782Z</time></trkpt><trkpt lat="46.0285485" lon="11.8411456"><ele>958.0</ele><time>2026-03-28T13:26:21.783Z</time></trkpt><trkpt lat="46.0284399" lon="11.8411005"><ele>958.0</ele><time>2026-03-28T13:26:23.783Z</time></trkpt><trkpt lat="46.0283374" lon="11.8410591"><ele>958.0</ele><time>2026-03-28T13:26:25.782Z</time></trkpt><trkpt lat="46.0282347" lon="11.8410155"><ele>958.0</ele><time>2026-03-28T13:26:27.782Z</time></trkpt><trkpt lat="46.0281153" lon="11.8409803"><ele>955.0</ele><time>2026-03-28T13:26:29.782Z</time></trkpt><trkpt lat="46.0280512" lon="11.84097"><ele>952.0</ele><time>2026-03-28T13:26:30.782Z</time></trkpt><trkpt lat="46.0279366" lon="11.8409478"><ele>949.0</ele><time>2026-03-28T13:26:32.783Z</time></trkpt><trkpt lat="46.0278282" lon="11.8409417"><ele>946.0</ele><time>2026-03-28T13:26:34.783Z</time></trkpt><trkpt lat="46.0277453" lon="11.8409071"><ele>943.0</ele><time>2026-03-28T13:26:36.784Z</time></trkpt><trkpt lat="46.027653" lon="11.8408672"><ele>943.4999999999999</ele><time>2026-03-28T13:26:38.783Z</time></trkpt><trkpt lat="46.0275658" lon="11.8408187"><ele>944.0</ele><time>2026-03-28T13:26:40.785Z</time></trkpt><trkpt lat="46.0275077" lon="11.8407526"><ele>944.5</ele><time>2026-03-28T13:26:42.785Z</time></trkpt><trkpt lat="46.0274231" lon="11.8406923"><ele>945.0</ele><time>2026-03-28T13:26:45.785Z</time></trkpt><trkpt lat="46.0273337" lon="11.8406532"><ele>945.4999999999999</ele><time>2026-03-28T13:26:47.785Z</time></trkpt><trkpt lat="46.0272524" lon="11.8406239"><ele>946.0</ele><time>2026-03-28T13:26:49.783Z</time></trkpt><trkpt lat="46.0271898" lon="11.8405992"><ele>945.9999999999999</ele><time>2026-03-28T13:26:51.783Z</time></trkpt><trkpt lat="46.0271134" lon="11.8405734"><ele>946.0</ele><time>2026-03-28T13:26:54.783Z</time></trkpt><trkpt lat="46.0270342" lon="11.8405485"><ele>946.0</ele><time>2026-03-28T13:26:57.784Z</time></trkpt><trkpt lat="46.026948" lon="11.8405294"><ele>946.0</ele><time>2026-03-28T13:27:00.785Z</time></trkpt><trkpt lat="46.0268691" lon="11.8405185"><ele>945.9999999999999</ele><time>2026-03-28T13:27:03.782Z</time></trkpt><trkpt lat="46.0267844" lon="11.8405162"><ele>946.0</ele><time>2026-03-28T13:27:06.786Z</time></trkpt><trkpt lat="46.026717" lon="11.8405049"><ele>941.6666666666666</ele><time>2026-03-28T13:27:08.784Z</time></trkpt><trkpt lat="46.0266387" lon="11.8404842"><ele>937.3333333333333</ele><time>2026-03-28T13:27:10.781Z</time></trkpt><trkpt lat="46.0265641" lon="11.8404587"><ele>933.0</ele><time>2026-03-28T13:27:12.783Z</time></trkpt><trkpt lat="46.0264891" lon="11.840437"><ele>928.6666666666667</ele><time>2026-03-28T13:27:15.783Z</time></trkpt><trkpt lat="46.0264389" lon="11.8405203"><ele>924.3333333333334</ele><time>2026-03-28T13:27:19.785Z</time></trkpt><trkpt lat="46.0264391" lon="11.8406126"><ele>920.0</ele><time>2026-03-28T13:27:22.782Z</time></trkpt><trkpt lat="46.0264497" lon="11.8407404"><ele>920.0000000000001</ele><time>2026-03-28T13:27:25.785Z</time></trkpt><trkpt lat="46.0264119" lon="11.8408609"><ele>920.0</ele><time>2026-03-28T13:27:28.78Z</time></trkpt><trkpt lat="46.0263497" lon="11.8409425"><ele>920.0</ele><time>2026-03-28T13:27:31.783Z</time></trkpt><trkpt lat="46.0262728" lon="11.8409507"><ele>920.0</ele><time>2026-03-28T13:27:35.782Z</time></trkpt><trkpt lat="46.0262108" lon="11.8409107"><ele>920.0000000000001</ele><time>2026-03-28T13:27:38.783Z</time></trkpt><trkpt lat="46.0261284" lon="11.8408791"><ele>920.0</ele><time>2026-03-28T13:27:41.782Z</time></trkpt><trkpt lat="46.0260547" lon="11.8408782"><ele>920.0000000000001</ele><time>2026-03-28T13:27:43.784Z</time></trkpt><trkpt lat="46.0259643" lon="11.840839"><ele>920.0</ele><time>2026-03-28T13:27:46.784Z</time></trkpt><trkpt lat="46.0259088" lon="11.8407852"><ele>920.0</ele><time>2026-03-28T13:27:48.784Z</time></trkpt><trkpt lat="46.0258318" lon="11.8407037"><ele>920.0</ele><time>2026-03-28T13:27:51.784Z</time></trkpt><trkpt lat="46.0257666" lon="11.8406642"><ele>920.0000000000001</ele><time>2026-03-28T13:27:53.782Z</time></trkpt><trkpt lat="46.0256955" lon="11.8406054"><ele>920.0</ele><time>2026-03-28T13:27:56.783Z</time></trkpt><trkpt lat="46.0256061" lon="11.8405745"><ele>913.6666666666667</ele><time>2026-03-28T13:27:59.783Z</time></trkpt><trkpt lat="46.0255198" lon="11.8405487"><ele>907.3333333333334</ele><time>2026-03-28T13:28:02.785Z</time></trkpt><trkpt lat="46.0254328" lon="11.8405179"><ele>901.0</ele><time>2026-03-28T13:28:05.785Z</time></trkpt><trkpt lat="46.0253584" lon="11.8404808"><ele>894.6666666666667</ele><time>2026-03-28T13:28:07.783Z</time></trkpt><trkpt lat="46.0252911" lon="11.8404388"><ele>888.3333333333334</ele><time>2026-03-28T13:28:09.785Z</time></trkpt><trkpt lat="46.0252324" lon="11.8403782"><ele>882.0</ele><time>2026-03-28T13:28:11.784Z</time></trkpt><trkpt lat="46.025184" lon="11.8403133"><ele>882.0</ele><time>2026-03-28T13:28:13.785Z</time></trkpt><trkpt lat="46.025121" lon="11.8402248"><ele>882.0</ele><time>2026-03-28T13:28:16.783Z</time></trkpt><trkpt lat="46.0250564" lon="11.8401507"><ele>882.0</ele><time>2026-03-28T13:28:18.784Z</time></trkpt><trkpt lat="46.0250035" lon="11.8400887"><ele>882.0</ele><time>2026-03-28T13:28:20.782Z</time></trkpt><trkpt lat="46.0249434" lon="11.8400244"><ele>882.0</ele><time>2026-03-28T13:28:22.782Z</time></trkpt><trkpt lat="46.0248856" lon="11.8399612"><ele>882.0</ele><time>2026-03-28T13:28:24.785Z</time></trkpt><trkpt lat="46.0248215" lon="11.8398691"><ele>878.6666666666666</ele><time>2026-03-28T13:28:27.785Z</time></trkpt><trkpt lat="46.0247595" lon="11.8397723"><ele>875.3333333333333</ele><time>2026-03-28T13:28:30.783Z</time></trkpt><trkpt lat="46.024698" lon="11.8396821"><ele>872.0</ele><time>2026-03-28T13:28:33.785Z</time></trkpt><trkpt lat="46.0246448" lon="11.8396034"><ele>868.6666666666666</ele><time>2026-03-28T13:28:36.783Z</time></trkpt><trkpt lat="46.0246065" lon="11.8395288"><ele>865.3333333333333</ele><time>2026-03-28T13:28:38.785Z</time></trkpt><trkpt lat="46.0245461" lon="11.8394313"><ele>862.0</ele><time>2026-03-28T13:28:41.783Z</time></trkpt><trkpt lat="46.0244792" lon="11.8393593"><ele>861.9999999999999</ele><time>2026-03-28T13:28:44.783Z</time></trkpt><trkpt lat="46.0244137" lon="11.839275"><ele>862.0</ele><time>2026-03-28T13:28:47.782Z</time></trkpt><trkpt lat="46.0243495" lon="11.8392618"><ele>862.0</ele><time>2026-03-28T13:28:49.783Z</time></trkpt><trkpt lat="46.0242679" lon="11.83924"><ele>862.0</ele><time>2026-03-28T13:28:52.782Z</time></trkpt><trkpt lat="46.0242201" lon="11.8393397"><ele>861.9999999999999</ele><time>2026-03-28T13:28:57.783Z</time></trkpt><trkpt lat="46.0242287" lon="11.8394448"><ele>862.0</ele><time>2026-03-28T13:29:00.785Z</time></trkpt><trkpt lat="46.0242407" lon="11.8395584"><ele>861.9999999999999</ele><time>2026-03-28T13:29:03.784Z</time></trkpt><trkpt lat="46.0242471" lon="11.8396846"><ele>862.0</ele><time>2026-03-28T13:29:07.783Z</time></trkpt><trkpt lat="46.0242459" lon="11.8397915"><ele>862.0</ele><time>2026-03-28T13:29:10.781Z</time></trkpt><trkpt lat="46.0242496" lon="11.8399162"><ele>862.0</ele><time>2026-03-28T13:29:13.785Z</time></trkpt><trkpt lat="46.0242553" lon="11.8400195"><ele>861.9999999999999</ele><time>2026-03-28T13:29:16.785Z</time></trkpt><trkpt lat="46.0242792" lon="11.8401306"><ele>862.0</ele><time>2026-03-28T13:29:19.781Z</time></trkpt><trkpt lat="46.0242932" lon="11.8402288"><ele>857.6666666666666</ele><time>2026-03-28T13:29:21.783Z</time></trkpt><trkpt lat="46.0243108" lon="11.8403194"><ele>853.3333333333333</ele><time>2026-03-28T13:29:23.783Z</time></trkpt><trkpt lat="46.0243118" lon="11.8404126"><ele>849.0</ele><time>2026-03-28T13:29:25.782Z</time></trkpt><trkpt lat="46.0243175" lon="11.8405396"><ele>844.6666666666667</ele><time>2026-03-28T13:29:28.782Z</time></trkpt><trkpt lat="46.0243191" lon="11.8406846"><ele>840.3333333333334</ele><time>2026-03-28T13:29:31.782Z</time></trkpt><trkpt lat="46.024353" lon="11.8408148"><ele>836.0</ele><time>2026-03-28T13:29:34.785Z</time></trkpt><trkpt lat="46.0243798" lon="11.8409168"><ele>831.3333333333334</ele><time>2026-03-28T13:29:36.783Z</time></trkpt><trkpt lat="46.0244069" lon="11.8410163"><ele>826.6666666666667</ele><time>2026-03-28T13:29:38.783Z</time></trkpt><trkpt lat="46.0244332" lon="11.841101"><ele>822.0</ele><time>2026-03-28T13:29:40.784Z</time></trkpt><trkpt lat="46.0244452" lon="11.8412102"><ele>817.3333333333333</ele><time>2026-03-28T13:29:42.784Z</time></trkpt><trkpt lat="46.0244889" lon="11.8413228"><ele>812.6666666666666</ele><time>2026-03-28T13:29:45.783Z</time></trkpt><trkpt lat="46.0245392" lon="11.8414115"><ele>808.0</ele><time>2026-03-28T13:29:48.782Z</time></trkpt><trkpt lat="46.024583" lon="11.8414841"><ele>807.9999999999999</ele><time>2026-03-28T13:29:50.782Z</time></trkpt><trkpt lat="46.0246281" lon="11.8415716"><ele>808.0</ele><time>2026-03-28T13:29:54.784Z</time></trkpt><trkpt lat="46.0245468" lon="11.8416862"><ele>808.0</ele><time>2026-03-28T13:30:27.782Z</time></trkpt><trkpt lat="46.0244693" lon="11.8416378"><ele>808.0</ele><time>2026-03-28T13:30:30.783Z</time></trkpt><trkpt lat="46.024391" lon="11.8416197"><ele>807.9999999999999</ele><time>2026-03-28T13:30:33.784Z</time></trkpt><trkpt lat="46.0243086" lon="11.8415861"><ele>808.0</ele><time>2026-03-28T13:30:36.783Z</time></trkpt><trkpt lat="46.0242419" lon="11.8415558"><ele>807.9999999999999</ele><time>2026-03-28T13:30:38.78Z</time></trkpt><trkpt lat="46.0241762" lon="11.8414963"><ele>808.0</ele><time>2026-03-28T13:30:40.784Z</time></trkpt><trkpt lat="46.0241101" lon="11.8414507"><ele>808.0</ele><time>2026-03-28T13:30:42.784Z</time></trkpt><trkpt lat="46.0240409" lon="11.8413817"><ele>808.0</ele><time>2026-03-28T13:30:44.783Z</time></trkpt><trkpt lat="46.0239514" lon="11.8413246"><ele>807.9999999999999</ele><time>2026-03-28T13:30:46.781Z</time></trkpt><trkpt lat="46.0238628" lon="11.8412744"><ele>808.0</ele><time>2026-03-28T13:30:48.782Z</time></trkpt><trkpt lat="46.023794" lon="11.8412118"><ele>805.6666666666666</ele><time>2026-03-28T13:30:50.783Z</time></trkpt><trkpt lat="46.0237217" lon="11.8411482"><ele>803.3333333333333</ele><time>2026-03-28T13:30:52.781Z</time></trkpt><trkpt lat="46.0236653" lon="11.8410715"><ele>801.0</ele><time>2026-03-28T13:30:54.782Z</time></trkpt><trkpt lat="46.0236234" lon="11.8410007"><ele>798.6666666666667</ele><time>2026-03-28T13:30:56.783Z</time></trkpt><trkpt lat="46.0235777" lon="11.8409373"><ele>796.3333333333334</ele><time>2026-03-28T13:30:58.783Z</time></trkpt><trkpt lat="46.0235197" lon="11.8408598"><ele>794.0</ele><time>2026-03-28T13:31:01.783Z</time></trkpt><trkpt lat="46.0234618" lon="11.840758"><ele>794.0</ele><time>2026-03-28T13:31:04.783Z</time></trkpt><trkpt lat="46.0233873" lon="11.8406655"><ele>794.0</ele><time>2026-03-28T13:31:07.781Z</time></trkpt><trkpt lat="46.02334" lon="11.8405773"><ele>794.0</ele><time>2026-03-28T13:31:09.784Z</time></trkpt><trkpt lat="46.0232777" lon="11.8405016"><ele>794.0</ele><time>2026-03-28T13:31:11.782Z</time></trkpt><trkpt lat="46.023202" lon="11.8404051"><ele>794.0</ele><time>2026-03-28T13:31:13.785Z</time></trkpt><trkpt lat="46.0231181" lon="11.8402966"><ele>789.5000000000001</ele><time>2026-03-28T13:31:15.783Z</time></trkpt><trkpt lat="46.0230719" lon="11.8402322"><ele>785.0</ele><time>2026-03-28T13:31:16.782Z</time></trkpt><trkpt lat="46.0230234" lon="11.8401631"><ele>780.5</ele><time>2026-03-28T13:31:17.782Z</time></trkpt><trkpt lat="46.0229796" lon="11.8400898"><ele>776.0</ele><time>2026-03-28T13:31:18.783Z</time></trkpt><trkpt lat="46.0229222" lon="11.839978"><ele>771.5</ele><time>2026-03-28T13:31:20.782Z</time></trkpt><trkpt lat="46.0228437" lon="11.8399178"><ele>767.0</ele><time>2026-03-28T13:31:22.78Z</time></trkpt><trkpt lat="46.0227813" lon="11.8398671"><ele>767.0</ele><time>2026-03-28T13:31:24.783Z</time></trkpt><trkpt lat="46.022696" lon="11.8397946"><ele>767.0</ele><time>2026-03-28T13:31:26.781Z</time></trkpt><trkpt lat="46.0226021" lon="11.8397178"><ele>767.0</ele><time>2026-03-28T13:31:28.78Z</time></trkpt><trkpt lat="46.0225179" lon="11.8396447"><ele>767.0</ele><time>2026-03-28T13:31:30.783Z</time></trkpt><trkpt lat="46.022436" lon="11.8395746"><ele>767.0</ele><time>2026-03-28T13:31:32.781Z</time></trkpt><trkpt lat="46.0223633" lon="11.8395192"><ele>761.8333333333333</ele><time>2026-03-28T13:31:34.781Z</time></trkpt><trkpt lat="46.022301" lon="11.8394588"><ele>756.6666666666666</ele><time>2026-03-28T13:31:36.782Z</time></trkpt><trkpt lat="46.0222577" lon="11.8393788"><ele>751.5</ele><time>2026-03-28T13:31:38.783Z</time></trkpt><trkpt lat="46.0222225" lon="11.839294"><ele>746.3333333333334</ele><time>2026-03-28T13:31:40.784Z</time></trkpt><trkpt lat="46.0221933" lon="11.8391925"><ele>741.1666666666667</ele><time>2026-03-28T13:31:42.784Z</time></trkpt><trkpt lat="46.0221687" lon="11.8390707"><ele>736.0</ele><time>2026-03-28T13:31:44.786Z</time></trkpt><trkpt lat="46.0221267" lon="11.8389607"><ele>736.0</ele><time>2026-03-28T13:31:47.786Z</time></trkpt><trkpt lat="46.022102" lon="11.8390761"><ele>736.0</ele><time>2026-03-28T13:31:56.783Z</time></trkpt><trkpt lat="46.0220784" lon="11.8391602"><ele>736.0</ele><time>2026-03-28T13:31:58.782Z</time></trkpt><trkpt lat="46.0220392" lon="11.8392773"><ele>736.0</ele><time>2026-03-28T13:32:01.783Z</time></trkpt><trkpt lat="46.0220085" lon="11.8393903"><ele>736.0</ele><time>2026-03-28T13:32:04.784Z</time></trkpt><trkpt lat="46.0219967" lon="11.8395213"><ele>736.0</ele><time>2026-03-28T13:32:07.784Z</time></trkpt><trkpt lat="46.0219944" lon="11.8396399"><ele>733.3333333333334</ele><time>2026-03-28T13:32:10.783Z</time></trkpt><trkpt lat="46.0219949" lon="11.8397322"><ele>730.6666666666667</ele><time>2026-03-28T13:32:12.784Z</time></trkpt><trkpt lat="46.0220069" lon="11.8398356"><ele>728.0</ele><time>2026-03-28T13:32:14.78Z</time></trkpt><trkpt lat="46.0220342" lon="11.8399379"><ele>725.3333333333334</ele><time>2026-03-28T13:32:16.781Z</time></trkpt><trkpt lat="46.0220781" lon="11.8400389"><ele>722.6666666666666</ele><time>2026-03-28T13:32:18.782Z</time></trkpt><trkpt lat="46.0221341" lon="11.8401278"><ele>720.0</ele><time>2026-03-28T13:32:20.784Z</time></trkpt><trkpt lat="46.0221884" lon="11.8402012"><ele>717.5</ele><time>2026-03-28T13:32:22.782Z</time></trkpt><trkpt lat="46.0222364" lon="11.8403002"><ele>715.0</ele><time>2026-03-28T13:32:24.782Z</time></trkpt><trkpt lat="46.0222602" lon="11.8404319"><ele>712.5</ele><time>2026-03-28T13:32:26.784Z</time></trkpt><trkpt lat="46.0222769" lon="11.8405576"><ele>710.0</ele><time>2026-03-28T13:32:28.784Z</time></trkpt><trkpt lat="46.022301" lon="11.8406911"><ele>707.5</ele><time>2026-03-28T13:32:30.785Z</time></trkpt><trkpt lat="46.022309" lon="11.8408133"><ele>705.0</ele><time>2026-03-28T13:32:32.784Z</time></trkpt><trkpt lat="46.0223211" lon="11.8409291"><ele>702.4</ele><time>2026-03-28T13:32:34.786Z</time></trkpt><trkpt lat="46.0223207" lon="11.8410339"><ele>699.8</ele><time>2026-03-28T13:32:36.785Z</time></trkpt><trkpt lat="46.0223275" lon="11.8411351"><ele>697.2</ele><time>2026-03-28T13:32:38.784Z</time></trkpt><trkpt lat="46.0223377" lon="11.8412503"><ele>694.6</ele><time>2026-03-28T13:32:40.785Z</time></trkpt><trkpt lat="46.0223548" lon="11.8413897"><ele>692.0</ele><time>2026-03-28T13:32:42.785Z</time></trkpt><trkpt lat="46.0223771" lon="11.8415707"><ele>692.0</ele><time>2026-03-28T13:32:44.784Z</time></trkpt><trkpt lat="46.0223851" lon="11.8416673"><ele>692.0</ele><time>2026-03-28T13:32:45.783Z</time></trkpt><trkpt lat="46.0224025" lon="11.8417553"><ele>692.0</ele><time>2026-03-28T13:32:46.783Z</time></trkpt><trkpt lat="46.0224606" lon="11.8419121"><ele>692.0</ele><time>2026-03-28T13:32:48.785Z</time></trkpt><trkpt lat="46.0225265" lon="11.8420487"><ele>692.0</ele><time>2026-03-28T13:32:50.783Z</time></trkpt><trkpt lat="46.0225856" lon="11.8421749"><ele>694.4000000000001</ele><time>2026-03-28T13:32:52.784Z</time></trkpt><trkpt lat="46.022631" lon="11.8423063"><ele>696.8000000000001</ele><time>2026-03-28T13:32:54.783Z</time></trkpt><trkpt lat="46.022668" lon="11.8424394"><ele>699.2</ele><time>2026-03-28T13:32:56.783Z</time></trkpt><trkpt lat="46.0227291" lon="11.8425768"><ele>701.6</ele><time>2026-03-28T13:32:58.783Z</time></trkpt><trkpt lat="46.0227973" lon="11.8426962"><ele>704.0</ele><time>2026-03-28T13:33:00.784Z</time></trkpt><trkpt lat="46.022846" lon="11.8428091"><ele>704.0</ele><time>2026-03-28T13:33:02.783Z</time></trkpt><trkpt lat="46.0229176" lon="11.8428819"><ele>704.0</ele><time>2026-03-28T13:33:04.784Z</time></trkpt><trkpt lat="46.0229946" lon="11.8429617"><ele>704.0</ele><time>2026-03-28T13:33:06.785Z</time></trkpt><trkpt lat="46.0230746" lon="11.8430816"><ele>704.0</ele><time>2026-03-28T13:33:08.783Z</time></trkpt><trkpt lat="46.0231247" lon="11.8431525"><ele>704.0</ele><time>2026-03-28T13:33:09.782Z</time></trkpt><trkpt lat="46.0231735" lon="11.8432343"><ele>704.0</ele><time>2026-03-28T13:33:10.783Z</time></trkpt><trkpt lat="46.0232246" lon="11.8433252"><ele>704.0</ele><time>2026-03-28T13:33:11.783Z</time></trkpt><trkpt lat="46.0232675" lon="11.8434194"><ele>704.0</ele><time>2026-03-28T13:33:12.785Z</time></trkpt><trkpt lat="46.0233114" lon="11.843506"><ele>704.0</ele><time>2026-03-28T13:33:13.783Z</time></trkpt><trkpt lat="46.0233648" lon="11.8436711"><ele>704.0</ele><time>2026-03-28T13:33:15.784Z</time></trkpt><trkpt lat="46.0233926" lon="11.8437532"><ele>704.0</ele><time>2026-03-28T13:33:16.785Z</time></trkpt><trkpt lat="46.0234671" lon="11.8439005"><ele>704.8000000000001</ele><time>2026-03-28T13:33:18.785Z</time></trkpt><trkpt lat="46.0235119" lon="11.8439713"><ele>705.6</ele><time>2026-03-28T13:33:19.785Z</time></trkpt><trkpt lat="46.023593" lon="11.8441081"><ele>706.4</ele><time>2026-03-28T13:33:21.784Z</time></trkpt><trkpt lat="46.0236218" lon="11.8442524"><ele>707.2</ele><time>2026-03-28T13:33:23.783Z</time></trkpt><trkpt lat="46.0236487" lon="11.8443974"><ele>708.0</ele><time>2026-03-28T13:33:25.784Z</time></trkpt><trkpt lat="46.0236763" lon="11.8445376"><ele>704.8</ele><time>2026-03-28T13:33:27.781Z</time></trkpt><trkpt lat="46.0237165" lon="11.8446801"><ele>701.5999999999999</ele><time>2026-03-28T13:33:29.782Z</time></trkpt><trkpt lat="46.0237681" lon="11.8448131"><ele>698.4000000000001</ele><time>2026-03-28T13:33:31.786Z</time></trkpt><trkpt lat="46.0238041" lon="11.8448894"><ele>695.2</ele><time>2026-03-28T13:33:32.783Z</time></trkpt><trkpt lat="46.0238646" lon="11.8450293"><ele>692.0</ele><time>2026-03-28T13:33:34.782Z</time></trkpt><trkpt lat="46.0238969" lon="11.8451612"><ele>688.6666666666666</ele><time>2026-03-28T13:33:36.785Z</time></trkpt><trkpt lat="46.0239185" lon="11.8452747"><ele>685.3333333333333</ele><time>2026-03-28T13:33:38.784Z</time></trkpt><trkpt lat="46.0239368" lon="11.8453893"><ele>682.0</ele><time>2026-03-28T13:33:40.782Z</time></trkpt><trkpt lat="46.0239135" lon="11.8454891"><ele>678.6666666666666</ele><time>2026-03-28T13:33:42.785Z</time></trkpt><trkpt lat="46.0238436" lon="11.8455448"><ele>675.3333333333334</ele><time>2026-03-28T13:33:44.783Z</time></trkpt><trkpt lat="46.0237649" lon="11.8455696"><ele>672.0</ele><time>2026-03-28T13:33:46.785Z</time></trkpt><trkpt lat="46.0236901" lon="11.8455562"><ele>672.0</ele><time>2026-03-28T13:33:48.783Z</time></trkpt><trkpt lat="46.0236245" lon="11.8455214"><ele>672.0</ele><time>2026-03-28T13:33:50.786Z</time></trkpt><trkpt lat="46.0235589" lon="11.8454854"><ele>672.0</ele><time>2026-03-28T13:33:52.785Z</time></trkpt><trkpt lat="46.0234776" lon="11.8454581"><ele>672.0</ele><time>2026-03-28T13:33:54.784Z</time></trkpt><trkpt lat="46.0233801" lon="11.8454073"><ele>672.0</ele><time>2026-03-28T13:33:56.784Z</time></trkpt><trkpt lat="46.0232909" lon="11.8453446"><ele>672.0</ele><time>2026-03-28T13:33:58.785Z</time></trkpt><trkpt lat="46.0232051" lon="11.8453059"><ele>669.8571428571429</ele><time>2026-03-28T13:34:00.784Z</time></trkpt><trkpt lat="46.0231252" lon="11.8453097"><ele>667.7142857142858</ele><time>2026-03-28T13:34:02.783Z</time></trkpt><trkpt lat="46.0230826" lon="11.8453831"><ele>665.5714285714286</ele><time>2026-03-28T13:34:04.783Z</time></trkpt><trkpt lat="46.0230863" lon="11.8454945"><ele>663.4285714285714</ele><time>2026-03-28T13:34:06.784Z</time></trkpt><trkpt lat="46.0230647" lon="11.8456151"><ele>661.2857142857143</ele><time>2026-03-28T13:34:08.785Z</time></trkpt><trkpt lat="46.0230008" lon="11.8456451"><ele>659.1428571428571</ele><time>2026-03-28T13:34:09.785Z</time></trkpt><trkpt lat="46.0229319" lon="11.8456551"><ele>657.0</ele><time>2026-03-28T13:34:10.784Z</time></trkpt><trkpt lat="46.0228688" lon="11.8456472"><ele>657.0</ele><time>2026-03-28T13:34:11.783Z</time></trkpt><trkpt lat="46.022753" lon="11.845639"><ele>657.0</ele><time>2026-03-28T13:34:13.783Z</time></trkpt><trkpt lat="46.0226559" lon="11.8456512"><ele>657.0</ele><time>2026-03-28T13:34:15.785Z</time></trkpt><trkpt lat="46.0225895" lon="11.8456979"><ele>657.0</ele><time>2026-03-28T13:34:17.783Z</time></trkpt><trkpt lat="46.0225694" lon="11.8457879"><ele>657.0</ele><time>2026-03-28T13:34:19.783Z</time></trkpt><trkpt lat="46.0226244" lon="11.8458974"><ele>657.0</ele><time>2026-03-28T13:34:21.785Z</time></trkpt><trkpt lat="46.0227102" lon="11.8460057"><ele>654.3333333333334</ele><time>2026-03-28T13:34:23.782Z</time></trkpt><trkpt lat="46.0227806" lon="11.8461519"><ele>651.6666666666666</ele><time>2026-03-28T13:34:25.783Z</time></trkpt><trkpt lat="46.0228149" lon="11.8462313"><ele>649.0</ele><time>2026-03-28T13:34:26.785Z</time></trkpt><trkpt lat="46.0228495" lon="11.8463097"><ele>646.3333333333333</ele><time>2026-03-28T13:34:27.783Z</time></trkpt><trkpt lat="46.0229011" lon="11.8464464"><ele>643.6666666666666</ele><time>2026-03-28T13:34:29.783Z</time></trkpt><trkpt lat="46.0229134" lon="11.846565"><ele>641.0</ele><time>2026-03-28T13:34:31.785Z</time></trkpt><trkpt lat="46.022836" lon="11.8466398"><ele>641.0</ele><time>2026-03-28T13:34:33.783Z</time></trkpt><trkpt lat="46.0227656" lon="11.8466587"><ele>641.0</ele><time>2026-03-28T13:34:34.782Z</time></trkpt><trkpt lat="46.0226936" lon="11.846686"><ele>641.0</ele><time>2026-03-28T13:34:35.784Z</time></trkpt><trkpt lat="46.0226304" lon="11.8467172"><ele>641.0</ele><time>2026-03-28T13:34:36.785Z</time></trkpt><trkpt lat="46.0225705" lon="11.8467539"><ele>641.0</ele><time>2026-03-28T13:34:37.783Z</time></trkpt><trkpt lat="46.0224683" lon="11.8468101"><ele>641.0</ele><time>2026-03-28T13:34:39.783Z</time></trkpt><trkpt lat="46.022388" lon="11.8468575"><ele>630.5999999999999</ele><time>2026-03-28T13:34:41.785Z</time></trkpt><trkpt lat="46.0223227" lon="11.8469692"><ele>620.1999999999999</ele><time>2026-03-28T13:34:43.785Z</time></trkpt><trkpt lat="46.0223284" lon="11.8471691"><ele>609.8</ele><time>2026-03-28T13:34:45.783Z</time></trkpt><trkpt lat="46.0223486" lon="11.8472822"><ele>599.4</ele><time>2026-03-28T13:34:46.782Z</time></trkpt><trkpt lat="46.0223673" lon="11.8473906"><ele>589.0</ele><time>2026-03-28T13:34:47.784Z</time></trkpt><trkpt lat="46.0223859" lon="11.8475082"><ele>589.1428571428571</ele><time>2026-03-28T13:34:48.783Z</time></trkpt><trkpt lat="46.0224015" lon="11.8476311"><ele>589.2857142857142</ele><time>2026-03-28T13:34:49.783Z</time></trkpt><trkpt lat="46.0224136" lon="11.8477485"><ele>589.4285714285714</ele><time>2026-03-28T13:34:50.783Z</time></trkpt><trkpt lat="46.0224182" lon="11.8478581"><ele>589.5714285714286</ele><time>2026-03-28T13:34:51.783Z</time></trkpt><trkpt lat="46.0224201" lon="11.8479612"><ele>589.7142857142858</ele><time>2026-03-28T13:34:52.783Z</time></trkpt><trkpt lat="46.0224257" lon="11.8480597"><ele>589.8571428571429</ele><time>2026-03-28T13:34:53.783Z</time></trkpt><trkpt lat="46.0224377" lon="11.8481488"><ele>590.0</ele><time>2026-03-28T13:34:54.783Z</time></trkpt><trkpt lat="46.0224621" lon="11.8482828"><ele>590.0</ele><time>2026-03-28T13:34:56.783Z</time></trkpt><trkpt lat="46.0224749" lon="11.8483809"><ele>590.0</ele><time>2026-03-28T13:34:58.784Z</time></trkpt><trkpt lat="46.0224589" lon="11.8484768"><ele>590.0</ele><time>2026-03-28T13:35:01.786Z</time></trkpt><trkpt lat="46.0223889" lon="11.8483953"><ele>590.0</ele><time>2026-03-28T13:36:03.783Z</time></trkpt><trkpt lat="46.0223331" lon="11.8482998"><ele>590.0</ele><time>2026-03-28T13:36:05.785Z</time></trkpt><trkpt lat="46.0222592" lon="11.8482028"><ele>590.0</ele><time>2026-03-28T13:36:07.785Z</time></trkpt><trkpt lat="46.0221962" lon="11.8480916"><ele>590.0</ele><time>2026-03-28T13:36:09.785Z</time></trkpt><trkpt lat="46.0221526" lon="11.8479836"><ele>590.0</ele><time>2026-03-28T13:36:11.784Z</time></trkpt><trkpt lat="46.0220706" lon="11.8479472"><ele>590.0</ele><time>2026-03-28T13:36:14.784Z</time></trkpt><trkpt lat="46.0220049" lon="11.848013"><ele>590.0</ele><time>2026-03-28T13:36:16.783Z</time></trkpt><trkpt lat="46.021928" lon="11.8481122"><ele>590.0</ele><time>2026-03-28T13:36:18.785Z</time></trkpt><trkpt lat="46.021832" lon="11.8482159"><ele>590.0</ele><time>2026-03-28T13:36:20.783Z</time></trkpt><trkpt lat="46.0217734" lon="11.8482691"><ele>590.0</ele><time>2026-03-28T13:36:21.784Z</time></trkpt><trkpt lat="46.0217042" lon="11.8483055"><ele>590.0</ele><time>2026-03-28T13:36:22.782Z</time></trkpt><trkpt lat="46.0216332" lon="11.848324"><ele>590.0</ele><time>2026-03-28T13:36:23.782Z</time></trkpt><trkpt lat="46.0215671" lon="11.8483442"><ele>590.0</ele><time>2026-03-28T13:36:24.782Z</time></trkpt><trkpt lat="46.0214465" lon="11.8483939"><ele>590.0</ele><time>2026-03-28T13:36:26.783Z</time></trkpt><trkpt lat="46.0213857" lon="11.8484367"><ele>580.0</ele><time>2026-03-28T13:36:27.781Z</time></trkpt><trkpt lat="46.0212813" lon="11.8485119"><ele>570.0</ele><time>2026-03-28T13:36:29.783Z</time></trkpt><trkpt lat="46.021201" lon="11.8485819"><ele>560.0</ele><time>2026-03-28T13:36:31.783Z</time></trkpt><trkpt lat="46.0211527" lon="11.8486608"><ele>550.0</ele><time>2026-03-28T13:36:33.783Z</time></trkpt><trkpt lat="46.021156" lon="11.848783"><ele>540.0</ele><time>2026-03-28T13:36:35.781Z</time></trkpt><trkpt lat="46.0212074" lon="11.8489526"><ele>540.0</ele><time>2026-03-28T13:36:37.785Z</time></trkpt><trkpt lat="46.0212388" lon="11.849039"><ele>540.0</ele><time>2026-03-28T13:36:38.785Z</time></trkpt><trkpt lat="46.0212729" lon="11.8491235"><ele>540.0</ele><time>2026-03-28T13:36:39.783Z</time></trkpt><trkpt lat="46.0213089" lon="11.8492025"><ele>540.0</ele><time>2026-03-28T13:36:40.782Z</time></trkpt><trkpt lat="46.0213487" lon="11.8492744"><ele>540.0</ele><time>2026-03-28T13:36:41.783Z</time></trkpt><trkpt lat="46.0213913" lon="11.8493421"><ele>540.0</ele><time>2026-03-28T13:36:42.782Z</time></trkpt><trkpt lat="46.0214795" lon="11.8494577"><ele>540.0</ele><time>2026-03-28T13:36:44.785Z</time></trkpt><trkpt lat="46.0215708" lon="11.849554"><ele>541.6666666666666</ele><time>2026-03-28T13:36:46.782Z</time></trkpt><trkpt lat="46.0216813" lon="11.8496428"><ele>543.3333333333334</ele><time>2026-03-28T13:36:48.784Z</time></trkpt><trkpt lat="46.0217422" lon="11.8496862"><ele>545.0</ele><time>2026-03-28T13:36:49.785Z</time></trkpt><trkpt lat="46.021811" lon="11.8497256"><ele>546.6666666666667</ele><time>2026-03-28T13:36:50.785Z</time></trkpt><trkpt lat="46.0218758" lon="11.8497761"><ele>548.3333333333334</ele><time>2026-03-28T13:36:51.785Z</time></trkpt><trkpt lat="46.0219403" lon="11.8498287"><ele>550.0</ele><time>2026-03-28T13:36:52.781Z</time></trkpt><trkpt lat="46.0220096" lon="11.8498753"><ele>550.0</ele><time>2026-03-28T13:36:53.786Z</time></trkpt><trkpt lat="46.0220725" lon="11.8499204"><ele>550.0</ele><time>2026-03-28T13:36:54.785Z</time></trkpt><trkpt lat="46.0221319" lon="11.8499583"><ele>550.0</ele><time>2026-03-28T13:36:55.786Z</time></trkpt><trkpt lat="46.022194" lon="11.8499814"><ele>550.0</ele><time>2026-03-28T13:36:56.786Z</time></trkpt><trkpt lat="46.0223104" lon="11.8500338"><ele>550.0</ele><time>2026-03-28T13:36:58.785Z</time></trkpt><trkpt lat="46.0223753" lon="11.8500601"><ele>550.0</ele><time>2026-03-28T13:36:59.784Z</time></trkpt><trkpt lat="46.0224418" lon="11.8500901"><ele>552.6666666666667</ele><time>2026-03-28T13:37:00.786Z</time></trkpt><trkpt lat="46.0225142" lon="11.8501181"><ele>555.3333333333334</ele><time>2026-03-28T13:37:01.785Z</time></trkpt><trkpt lat="46.0225885" lon="11.8501588"><ele>558.0</ele><time>2026-03-28T13:37:02.786Z</time></trkpt><trkpt lat="46.022657" lon="11.8501953"><ele>560.6666666666666</ele><time>2026-03-28T13:37:03.786Z</time></trkpt><trkpt lat="46.022732" lon="11.850224"><ele>563.3333333333333</ele><time>2026-03-28T13:37:04.786Z</time></trkpt><trkpt lat="46.0228048" lon="11.8502595"><ele>566.0</ele><time>2026-03-28T13:37:05.786Z</time></trkpt><trkpt lat="46.022877" lon="11.8502963"><ele>560.5714285714286</ele><time>2026-03-28T13:37:06.784Z</time></trkpt><trkpt lat="46.0229438" lon="11.8503295"><ele>555.1428571428572</ele><time>2026-03-28T13:37:07.786Z</time></trkpt><trkpt lat="46.0230095" lon="11.8503723"><ele>549.7142857142858</ele><time>2026-03-28T13:37:08.784Z</time></trkpt><trkpt lat="46.0230782" lon="11.8503947"><ele>544.2857142857143</ele><time>2026-03-28T13:37:09.786Z</time></trkpt><trkpt lat="46.0231502" lon="11.8504253"><ele>538.8571428571429</ele><time>2026-03-28T13:37:10.782Z</time></trkpt><trkpt lat="46.0232233" lon="11.8504638"><ele>533.4285714285714</ele><time>2026-03-28T13:37:11.784Z</time></trkpt><trkpt lat="46.023302" lon="11.8504855"><ele>528.0</ele><time>2026-03-28T13:37:12.786Z</time></trkpt><trkpt lat="46.0233773" lon="11.8505072"><ele>528.0</ele><time>2026-03-28T13:37:13.786Z</time></trkpt><trkpt lat="46.0234544" lon="11.8505051"><ele>528.0</ele><time>2026-03-28T13:37:14.783Z</time></trkpt><trkpt lat="46.0235338" lon="11.8504964"><ele>528.0</ele><time>2026-03-28T13:37:15.786Z</time></trkpt><trkpt lat="46.0236138" lon="11.8505025"><ele>528.0</ele><time>2026-03-28T13:37:16.786Z</time></trkpt><trkpt lat="46.0236976" lon="11.8504953"><ele>528.0</ele><time>2026-03-28T13:37:17.786Z</time></trkpt><trkpt lat="46.0237805" lon="11.8504994"><ele>528.0</ele><time>2026-03-28T13:37:18.786Z</time></trkpt><trkpt lat="46.0238564" lon="11.8504936"><ele>528.0</ele><time>2026-03-28T13:37:19.786Z</time></trkpt><trkpt lat="46.0239468" lon="11.850491"><ele>528.0</ele><time>2026-03-28T13:37:20.786Z</time></trkpt><trkpt lat="46.0240299" lon="11.8504849"><ele>528.0</ele><time>2026-03-28T13:37:21.782Z</time></trkpt><trkpt lat="46.0241061" lon="11.850479"><ele>528.0</ele><time>2026-03-28T13:37:22.781Z</time></trkpt><trkpt lat="46.0241922" lon="11.8504845"><ele>528.0</ele><time>2026-03-28T13:37:23.785Z</time></trkpt><trkpt lat="46.0242779" lon="11.8504887"><ele>528.0</ele><time>2026-03-28T13:37:24.786Z</time></trkpt><trkpt lat="46.0243609" lon="11.8504854"><ele>526.8333333333334</ele><time>2026-03-28T13:37:25.786Z</time></trkpt><trkpt lat="46.0244315" lon="11.8504897"><ele>525.6666666666666</ele><time>2026-03-28T13:37:26.786Z</time></trkpt><trkpt lat="46.0245115" lon="11.8504829"><ele>524.5</ele><time>2026-03-28T13:37:27.786Z</time></trkpt><trkpt lat="46.0245904" lon="11.8504777"><ele>523.3333333333333</ele><time>2026-03-28T13:37:28.784Z</time></trkpt><trkpt lat="46.02467" lon="11.8504795"><ele>522.1666666666666</ele><time>2026-03-28T13:37:29.786Z</time></trkpt><trkpt lat="46.024747" lon="11.8505056"><ele>521.0</ele><time>2026-03-28T13:37:30.783Z</time></trkpt><trkpt lat="46.0248253" lon="11.8505525"><ele>521.0</ele><time>2026-03-28T13:37:31.786Z</time></trkpt><trkpt lat="46.0248914" lon="11.8506459"><ele>521.0</ele><time>2026-03-28T13:37:32.786Z</time></trkpt><trkpt lat="46.0249444" lon="11.8507621"><ele>521.0</ele><time>2026-03-28T13:37:33.786Z</time></trkpt><trkpt lat="46.0249885" lon="11.8508857"><ele>521.0</ele><time>2026-03-28T13:37:34.785Z</time></trkpt><trkpt lat="46.0250385" lon="11.8510069"><ele>521.0</ele><time>2026-03-28T13:37:35.786Z</time></trkpt><trkpt lat="46.0250842" lon="11.8511166"><ele>517.2857142857142</ele><time>2026-03-28T13:37:36.785Z</time></trkpt><trkpt lat="46.0251338" lon="11.8512136"><ele>513.5714285714286</ele><time>2026-03-28T13:37:37.785Z</time></trkpt><trkpt lat="46.02518" lon="11.8512989"><ele>509.85714285714283</ele><time>2026-03-28T13:37:38.784Z</time></trkpt><trkpt lat="46.0252113" lon="11.8513778"><ele>506.1428571428571</ele><time>2026-03-28T13:37:39.786Z</time></trkpt><trkpt lat="46.0252601" lon="11.851458"><ele>502.42857142857144</ele><time>2026-03-28T13:37:40.785Z</time></trkpt><trkpt lat="46.0253145" lon="11.8515304"><ele>498.71428571428567</ele><time>2026-03-28T13:37:41.784Z</time></trkpt><trkpt lat="46.0253788" lon="11.8515905"><ele>494.99999999999994</ele><time>2026-03-28T13:37:42.782Z</time></trkpt><trkpt lat="46.0254435" lon="11.8516536"><ele>495.0</ele><time>2026-03-28T13:37:43.784Z</time></trkpt><trkpt lat="46.0255041" lon="11.8517173"><ele>495.0</ele><time>2026-03-28T13:37:44.783Z</time></trkpt><trkpt lat="46.025563" lon="11.8517869"><ele>495.0</ele><time>2026-03-28T13:37:45.785Z</time></trkpt><trkpt lat="46.0256149" lon="11.8518565"><ele>495.0</ele><time>2026-03-28T13:37:46.785Z</time></trkpt><trkpt lat="46.025699" lon="11.8519982"><ele>495.0</ele><time>2026-03-28T13:37:48.785Z</time></trkpt><trkpt lat="46.0257515" lon="11.8520653"><ele>495.0</ele><time>2026-03-28T13:37:49.785Z</time></trkpt><trkpt lat="46.0258062" lon="11.8521249"><ele>495.0</ele><time>2026-03-28T13:37:50.785Z</time></trkpt><trkpt lat="46.025899" lon="11.8522331"><ele>495.0</ele><time>2026-03-28T13:37:52.785Z</time></trkpt><trkpt lat="46.025954" lon="11.8522846"><ele>495.0</ele><time>2026-03-28T13:37:53.785Z</time></trkpt><trkpt lat="46.0260131" lon="11.8523396"><ele>495.0</ele><time>2026-03-28T13:37:54.783Z</time></trkpt><trkpt lat="46.0260796" lon="11.8523936"><ele>495.0</ele><time>2026-03-28T13:37:55.783Z</time></trkpt><trkpt lat="46.0261522" lon="11.8524451"><ele>495.0</ele><time>2026-03-28T13:37:56.785Z</time></trkpt><trkpt lat="46.0262269" lon="11.8524986"><ele>495.0</ele><time>2026-03-28T13:37:57.782Z</time></trkpt><trkpt lat="46.0262993" lon="11.8525555"><ele>495.0</ele><time>2026-03-28T13:37:58.783Z</time></trkpt><trkpt lat="46.026372" lon="11.8526141"><ele>495.0</ele><time>2026-03-28T13:37:59.785Z</time></trkpt><trkpt lat="46.0264516" lon="11.8526718"><ele>495.0</ele><time>2026-03-28T13:38:00.785Z</time></trkpt><trkpt lat="46.0265272" lon="11.8527378"><ele>495.0</ele><time>2026-03-28T13:38:01.785Z</time></trkpt><trkpt lat="46.026599" lon="11.8528118"><ele>495.0</ele><time>2026-03-28T13:38:02.785Z</time></trkpt><trkpt lat="46.0266652" lon="11.8528893"><ele>490.8</ele><time>2026-03-28T13:38:03.785Z</time></trkpt><trkpt lat="46.0267288" lon="11.8529651"><ele>486.6</ele><time>2026-03-28T13:38:04.782Z</time></trkpt><trkpt lat="46.0267891" lon="11.8530372"><ele>482.4</ele><time>2026-03-28T13:38:05.782Z</time></trkpt><trkpt lat="46.0268484" lon="11.8530986"><ele>478.2</ele><time>2026-03-28T13:38:06.784Z</time></trkpt><trkpt lat="46.0269326" lon="11.8532171"><ele>474.0</ele><time>2026-03-28T13:38:08.783Z</time></trkpt><trkpt lat="46.0270121" lon="11.8533301"><ele>474.0</ele><time>2026-03-28T13:38:10.784Z</time></trkpt><trkpt lat="46.0270933" lon="11.8534491"><ele>474.0</ele><time>2026-03-28T13:38:12.783Z</time></trkpt><trkpt lat="46.0271451" lon="11.8535085"><ele>474.0</ele><time>2026-03-28T13:38:13.785Z</time></trkpt><trkpt lat="46.0271954" lon="11.8535727"><ele>474.0</ele><time>2026-03-28T13:38:14.783Z</time></trkpt><trkpt lat="46.0272408" lon="11.8536372"><ele>474.0</ele><time>2026-03-28T13:38:15.782Z</time></trkpt><trkpt lat="46.0273268" lon="11.8537798"><ele>474.0</ele><time>2026-03-28T13:38:17.784Z</time></trkpt><trkpt lat="46.0273653" lon="11.8538697"><ele>473.5</ele><time>2026-03-28T13:38:18.782Z</time></trkpt><trkpt lat="46.0274026" lon="11.8539666"><ele>473.0</ele><time>2026-03-28T13:38:19.785Z</time></trkpt><trkpt lat="46.0274307" lon="11.8540666"><ele>472.5</ele><time>2026-03-28T13:38:20.783Z</time></trkpt><trkpt lat="46.0274616" lon="11.8541651"><ele>472.0</ele><time>2026-03-28T13:38:21.784Z</time></trkpt><trkpt lat="46.0275034" lon="11.8542645"><ele>471.5</ele><time>2026-03-28T13:38:22.781Z</time></trkpt><trkpt lat="46.0275422" lon="11.8543654"><ele>471.0</ele><time>2026-03-28T13:38:23.785Z</time></trkpt><trkpt lat="46.0275806" lon="11.8544678"><ele>469.0</ele><time>2026-03-28T13:38:24.783Z</time></trkpt><trkpt lat="46.0276111" lon="11.8545723"><ele>467.0</ele><time>2026-03-28T13:38:25.783Z</time></trkpt><trkpt lat="46.0276394" lon="11.854681"><ele>465.0</ele><time>2026-03-28T13:38:26.785Z</time></trkpt><trkpt lat="46.0276635" lon="11.8547925"><ele>463.0</ele><time>2026-03-28T13:38:27.783Z</time></trkpt><trkpt lat="46.0276894" lon="11.8549042"><ele>461.0</ele><time>2026-03-28T13:38:28.782Z</time></trkpt><trkpt lat="46.0277154" lon="11.8550183"><ele>459.0</ele><time>2026-03-28T13:38:29.785Z</time></trkpt><trkpt lat="46.027745" lon="11.8551335"><ele>456.6666666666667</ele><time>2026-03-28T13:38:30.782Z</time></trkpt><trkpt lat="46.027774" lon="11.8552495"><ele>454.33333333333337</ele><time>2026-03-28T13:38:31.785Z</time></trkpt><trkpt lat="46.0278053" lon="11.8553662"><ele>452.0</ele><time>2026-03-28T13:38:32.784Z</time></trkpt><trkpt lat="46.0278386" lon="11.8554817"><ele>449.6666666666667</ele><time>2026-03-28T13:38:33.783Z</time></trkpt><trkpt lat="46.0278677" lon="11.855598"><ele>447.33333333333337</ele><time>2026-03-28T13:38:34.781Z</time></trkpt><trkpt lat="46.0278943" lon="11.8557188"><ele>445.0</ele><time>2026-03-28T13:38:35.782Z</time></trkpt><trkpt lat="46.027916" lon="11.8558362"><ele>445.00000000000006</ele><time>2026-03-28T13:38:36.783Z</time></trkpt><trkpt lat="46.0279336" lon="11.8559498"><ele>445.0</ele><time>2026-03-28T13:38:37.781Z</time></trkpt><trkpt lat="46.0279475" lon="11.8560606"><ele>445.0</ele><time>2026-03-28T13:38:38.783Z</time></trkpt><trkpt lat="46.0279648" lon="11.8561642"><ele>445.0</ele><time>2026-03-28T13:38:39.783Z</time></trkpt><trkpt lat="46.027994" lon="11.856262"><ele>445.00000000000006</ele><time>2026-03-28T13:38:40.782Z</time></trkpt><trkpt lat="46.0280392" lon="11.8563548"><ele>445.0</ele><time>2026-03-28T13:38:41.784Z</time></trkpt><trkpt lat="46.028093" lon="11.8564553"><ele>444.4</ele><time>2026-03-28T13:38:42.784Z</time></trkpt><trkpt lat="46.0281594" lon="11.8565571"><ele>443.8</ele><time>2026-03-28T13:38:43.783Z</time></trkpt><trkpt lat="46.02823" lon="11.8566562"><ele>443.20000000000005</ele><time>2026-03-28T13:38:44.783Z</time></trkpt><trkpt lat="46.0283101" lon="11.8567505"><ele>442.6</ele><time>2026-03-28T13:38:45.784Z</time></trkpt><trkpt lat="46.0284078" lon="11.8568372"><ele>442.0</ele><time>2026-03-28T13:38:46.781Z</time></trkpt><trkpt lat="46.028499" lon="11.8569166"><ele>439.20000000000005</ele><time>2026-03-28T13:38:47.781Z</time></trkpt><trkpt lat="46.0285911" lon="11.8569896"><ele>436.40000000000003</ele><time>2026-03-28T13:38:48.781Z</time></trkpt><trkpt lat="46.0286786" lon="11.8570618"><ele>433.59999999999997</ele><time>2026-03-28T13:38:49.784Z</time></trkpt><trkpt lat="46.0287588" lon="11.857144"><ele>430.79999999999995</ele><time>2026-03-28T13:38:50.785Z</time></trkpt><trkpt lat="46.0288291" lon="11.8572358"><ele>428.0</ele><time>2026-03-28T13:38:51.782Z</time></trkpt><trkpt lat="46.0288926" lon="11.8573361"><ele>427.99999999999994</ele><time>2026-03-28T13:38:52.783Z</time></trkpt><trkpt lat="46.0289512" lon="11.8574341"><ele>428.0</ele><time>2026-03-28T13:38:53.783Z</time></trkpt><trkpt lat="46.0289988" lon="11.8575264"><ele>428.0</ele><time>2026-03-28T13:38:54.782Z</time></trkpt><trkpt lat="46.0290439" lon="11.8576127"><ele>428.0</ele><time>2026-03-28T13:38:55.784Z</time></trkpt><trkpt lat="46.0290888" lon="11.8577018"><ele>427.99999999999994</ele><time>2026-03-28T13:38:56.783Z</time></trkpt><trkpt lat="46.0291273" lon="11.8577952"><ele>428.0</ele><time>2026-03-28T13:38:57.782Z</time></trkpt><trkpt lat="46.0291614" lon="11.8578928"><ele>428.49999999999994</ele><time>2026-03-28T13:38:58.782Z</time></trkpt><trkpt lat="46.0291888" lon="11.8579887"><ele>429.0</ele><time>2026-03-28T13:38:59.783Z</time></trkpt><trkpt lat="46.0292185" lon="11.8580815"><ele>429.5</ele><time>2026-03-28T13:39:00.785Z</time></trkpt><trkpt lat="46.0292566" lon="11.8581741"><ele>430.0</ele><time>2026-03-28T13:39:01.783Z</time></trkpt><trkpt lat="46.0292983" lon="11.8582671"><ele>430.49999999999994</ele><time>2026-03-28T13:39:02.782Z</time></trkpt><trkpt lat="46.0293469" lon="11.8583612"><ele>431.0</ele><time>2026-03-28T13:39:03.782Z</time></trkpt><trkpt lat="46.0293976" lon="11.8584586"><ele>429.3333333333333</ele><time>2026-03-28T13:39:04.781Z</time></trkpt><trkpt lat="46.0294527" lon="11.8585554"><ele>427.66666666666663</ele><time>2026-03-28T13:39:05.782Z</time></trkpt><trkpt lat="46.0295087" lon="11.8586546"><ele>426.0</ele><time>2026-03-28T13:39:06.784Z</time></trkpt><trkpt lat="46.029562" lon="11.8587556"><ele>424.33333333333337</ele><time>2026-03-28T13:39:07.782Z</time></trkpt><trkpt lat="46.0296174" lon="11.8588512"><ele>422.6666666666667</ele><time>2026-03-28T13:39:08.783Z</time></trkpt><trkpt lat="46.029678" lon="11.8589364"><ele>421.0</ele><time>2026-03-28T13:39:09.782Z</time></trkpt><trkpt lat="46.0297462" lon="11.8590106"><ele>421.00000000000006</ele><time>2026-03-28T13:39:10.783Z</time></trkpt><trkpt lat="46.029816" lon="11.8590759"><ele>421.0</ele><time>2026-03-28T13:39:11.782Z</time></trkpt><trkpt lat="46.0298843" lon="11.8591407"><ele>421.0</ele><time>2026-03-28T13:39:12.781Z</time></trkpt><trkpt lat="46.0299561" lon="11.8592136"><ele>421.0</ele><time>2026-03-28T13:39:13.783Z</time></trkpt><trkpt lat="46.0300178" lon="11.8592936"><ele>421.00000000000006</ele><time>2026-03-28T13:39:14.782Z</time></trkpt><trkpt lat="46.030067" lon="11.8593807"><ele>421.0</ele><time>2026-03-28T13:39:15.783Z</time></trkpt><trkpt lat="46.030116" lon="11.8594727"><ele>421.83333333333337</ele><time>2026-03-28T13:39:16.784Z</time></trkpt><trkpt lat="46.0301604" lon="11.8595701"><ele>422.6666666666667</ele><time>2026-03-28T13:39:17.782Z</time></trkpt><trkpt lat="46.0301988" lon="11.8596741"><ele>423.5</ele><time>2026-03-28T13:39:18.784Z</time></trkpt><trkpt lat="46.030239" lon="11.8597842"><ele>424.33333333333337</ele><time>2026-03-28T13:39:19.782Z</time></trkpt><trkpt lat="46.0302726" lon="11.8598999"><ele>425.1666666666667</ele><time>2026-03-28T13:39:20.783Z</time></trkpt><trkpt lat="46.0303079" lon="11.8600186"><ele>426.0</ele><time>2026-03-28T13:39:21.783Z</time></trkpt><trkpt lat="46.0303351" lon="11.8601399"><ele>426.1666666666667</ele><time>2026-03-28T13:39:22.782Z</time></trkpt><trkpt lat="46.0303551" lon="11.8602548"><ele>426.33333333333337</ele><time>2026-03-28T13:39:23.783Z</time></trkpt><trkpt lat="46.0303828" lon="11.8603648"><ele>426.5</ele><time>2026-03-28T13:39:24.782Z</time></trkpt><trkpt lat="46.0303943" lon="11.8604737"><ele>426.6666666666667</ele><time>2026-03-28T13:39:25.782Z</time></trkpt><trkpt lat="46.0304094" lon="11.8605754"><ele>426.83333333333337</ele><time>2026-03-28T13:39:26.783Z</time></trkpt><trkpt lat="46.0304167" lon="11.8606692"><ele>427.0</ele><time>2026-03-28T13:39:27.783Z</time></trkpt><trkpt lat="46.0304129" lon="11.8608419"><ele>427.00000000000006</ele><time>2026-03-28T13:39:29.783Z</time></trkpt><trkpt lat="46.0304112" lon="11.8609879"><ele>427.0</ele><time>2026-03-28T13:39:31.784Z</time></trkpt><trkpt lat="46.030416" lon="11.8611221"><ele>427.0</ele><time>2026-03-28T13:39:33.782Z</time></trkpt><trkpt lat="46.030425" lon="11.861237"><ele>427.0</ele><time>2026-03-28T13:39:35.785Z</time></trkpt><trkpt lat="46.0304429" lon="11.861335"><ele>427.00000000000006</ele><time>2026-03-28T13:39:37.782Z</time></trkpt><trkpt lat="46.0304683" lon="11.8614218"><ele>427.0</ele><time>2026-03-28T13:39:39.784Z</time></trkpt><trkpt lat="46.0305045" lon="11.8615528"><ele>427.00000000000006</ele><time>2026-03-28T13:39:42.781Z</time></trkpt><trkpt lat="46.0305327" lon="11.8616505"><ele>427.0</ele><time>2026-03-28T13:39:44.783Z</time></trkpt><trkpt lat="46.0305645" lon="11.8617369"><ele>427.0</ele><time>2026-03-28T13:39:46.782Z</time></trkpt><trkpt lat="46.030604" lon="11.8618444"><ele>427.0</ele><time>2026-03-28T13:39:49.782Z</time></trkpt><trkpt lat="46.0306204" lon="11.8619736"><ele>427.00000000000006</ele><time>2026-03-28T13:39:52.782Z</time></trkpt><trkpt lat="46.0306503" lon="11.8620703"><ele>427.0</ele><time>2026-03-28T13:39:54.781Z</time></trkpt><trkpt lat="46.030671" lon="11.862162"><ele>427.33333333333337</ele><time>2026-03-28T13:39:56.78Z</time></trkpt><trkpt lat="46.0307071" lon="11.8622483"><ele>427.6666666666667</ele><time>2026-03-28T13:39:58.784Z</time></trkpt><trkpt lat="46.0307697" lon="11.8623445"><ele>428.0</ele><time>2026-03-28T13:40:01.785Z</time></trkpt><trkpt lat="46.0308117" lon="11.8624338"><ele>428.33333333333337</ele><time>2026-03-28T13:40:04.784Z</time></trkpt><trkpt lat="46.0308308" lon="11.8625439"><ele>428.6666666666667</ele><time>2026-03-28T13:40:08.785Z</time></trkpt><trkpt lat="46.0308177" lon="11.8626494"><ele>429.0</ele><time>2026-03-28T13:40:12.782Z</time></trkpt><trkpt lat="46.0307558" lon="11.8626952"><ele>429.0</ele><time>2026-03-28T13:40:15.785Z</time></trkpt><trkpt lat="46.0306748" lon="11.8627435"><ele>429.0</ele><time>2026-03-28T13:40:18.78Z</time></trkpt><trkpt lat="46.0306006" lon="11.8627664"><ele>429.0</ele><time>2026-03-28T13:40:20.781Z</time></trkpt><trkpt lat="46.0305166" lon="11.8627734"><ele>429.0</ele><time>2026-03-28T13:40:22.782Z</time></trkpt><trkpt lat="46.0304472" lon="11.8627564"><ele>429.0</ele><time>2026-03-28T13:40:24.782Z</time></trkpt><trkpt lat="46.0303743" lon="11.8626987"><ele>429.0</ele><time>2026-03-28T13:40:26.782Z</time></trkpt><trkpt lat="46.0302738" lon="11.8626403"><ele>429.2</ele><time>2026-03-28T13:40:28.782Z</time></trkpt><trkpt lat="46.0301789" lon="11.862598"><ele>429.4</ele><time>2026-03-28T13:40:30.782Z</time></trkpt><trkpt lat="46.0300907" lon="11.8625548"><ele>429.6</ele><time>2026-03-28T13:40:32.783Z</time></trkpt><trkpt lat="46.0300092" lon="11.8625316"><ele>429.8</ele><time>2026-03-28T13:40:34.782Z</time></trkpt><trkpt lat="46.0299147" lon="11.862521"><ele>430.0</ele><time>2026-03-28T13:40:36.784Z</time></trkpt><trkpt lat="46.0298118" lon="11.8625603"><ele>427.2</ele><time>2026-03-28T13:40:38.782Z</time></trkpt><trkpt lat="46.0297055" lon="11.8626193"><ele>424.4</ele><time>2026-03-28T13:40:40.782Z</time></trkpt><trkpt lat="46.0295969" lon="11.8626694"><ele>421.6</ele><time>2026-03-28T13:40:42.784Z</time></trkpt><trkpt lat="46.0294949" lon="11.8627191"><ele>418.8</ele><time>2026-03-28T13:40:44.782Z</time></trkpt><trkpt lat="46.0294109" lon="11.8628174"><ele>416.0</ele><time>2026-03-28T13:40:46.784Z</time></trkpt><trkpt lat="46.0293288" lon="11.8629242"><ele>416.0</ele><time>2026-03-28T13:40:48.784Z</time></trkpt><trkpt lat="46.0292306" lon="11.8630114"><ele>416.0</ele><time>2026-03-28T13:40:50.784Z</time></trkpt><trkpt lat="46.0291366" lon="11.8630741"><ele>416.0</ele><time>2026-03-28T13:40:52.782Z</time></trkpt><trkpt lat="46.0290475" lon="11.8631418"><ele>416.0</ele><time>2026-03-28T13:40:54.784Z</time></trkpt><trkpt lat="46.0289653" lon="11.8632431"><ele>416.0</ele><time>2026-03-28T13:40:56.784Z</time></trkpt><trkpt lat="46.0289176" lon="11.8633109"><ele>413.8333333333333</ele><time>2026-03-28T13:40:57.784Z</time></trkpt><trkpt lat="46.0288651" lon="11.8633846"><ele>411.66666666666663</ele><time>2026-03-28T13:40:58.782Z</time></trkpt><trkpt lat="46.028816" lon="11.8634603"><ele>409.5</ele><time>2026-03-28T13:40:59.782Z</time></trkpt><trkpt lat="46.0287788" lon="11.8635368"><ele>407.33333333333337</ele><time>2026-03-28T13:41:00.781Z</time></trkpt><trkpt lat="46.0287379" lon="11.863687"><ele>405.1666666666667</ele><time>2026-03-28T13:41:02.782Z</time></trkpt><trkpt lat="46.0287339" lon="11.8638366"><ele>403.0</ele><time>2026-03-28T13:41:04.784Z</time></trkpt><trkpt lat="46.0287627" lon="11.8639981"><ele>401.50000000000006</ele><time>2026-03-28T13:41:06.782Z</time></trkpt><trkpt lat="46.0287731" lon="11.8640921"><ele>400.0</ele><time>2026-03-28T13:41:07.78Z</time></trkpt><trkpt lat="46.0287862" lon="11.8641959"><ele>398.5</ele><time>2026-03-28T13:41:08.783Z</time></trkpt><trkpt lat="46.0288027" lon="11.8643108"><ele>397.0</ele><time>2026-03-28T13:41:09.782Z</time></trkpt><trkpt lat="46.0288226" lon="11.8644265"><ele>395.50000000000006</ele><time>2026-03-28T13:41:10.78Z</time></trkpt><trkpt lat="46.0288459" lon="11.8645485"><ele>394.0</ele><time>2026-03-28T13:41:11.782Z</time></trkpt><trkpt lat="46.0288719" lon="11.8646713"><ele>393.0</ele><time>2026-03-28T13:41:12.783Z</time></trkpt><trkpt lat="46.0288963" lon="11.8647877"><ele>392.0</ele><time>2026-03-28T13:41:13.782Z</time></trkpt><trkpt lat="46.0289178" lon="11.8648964"><ele>391.0</ele><time>2026-03-28T13:41:14.783Z</time></trkpt><trkpt lat="46.0289392" lon="11.865004"><ele>390.0</ele><time>2026-03-28T13:41:15.783Z</time></trkpt><trkpt lat="46.0289521" lon="11.865102"><ele>389.0</ele><time>2026-03-28T13:41:16.782Z</time></trkpt><trkpt lat="46.0289432" lon="11.8651943"><ele>388.0</ele><time>2026-03-28T13:41:17.781Z</time></trkpt><trkpt lat="46.0289131" lon="11.8652863"><ele>387.0</ele><time>2026-03-28T13:41:18.782Z</time></trkpt><trkpt lat="46.0288719" lon="11.8653754"><ele>387.0</ele><time>2026-03-28T13:41:19.782Z</time></trkpt><trkpt lat="46.0288266" lon="11.8654652"><ele>387.0</ele><time>2026-03-28T13:41:20.782Z</time></trkpt><trkpt lat="46.0287758" lon="11.8655601"><ele>387.0</ele><time>2026-03-28T13:41:21.781Z</time></trkpt><trkpt lat="46.0287196" lon="11.8656448"><ele>387.0</ele><time>2026-03-28T13:41:22.782Z</time></trkpt><trkpt lat="46.0286592" lon="11.8657158"><ele>387.0</ele><time>2026-03-28T13:41:23.783Z</time></trkpt><trkpt lat="46.0285952" lon="11.8657786"><ele>387.0</ele><time>2026-03-28T13:41:24.781Z</time></trkpt><trkpt lat="46.0285356" lon="11.8658355"><ele>387.0</ele><time>2026-03-28T13:41:25.783Z</time></trkpt><trkpt lat="46.0284787" lon="11.8658968"><ele>387.0</ele><time>2026-03-28T13:41:26.782Z</time></trkpt><trkpt lat="46.0284012" lon="11.8659985"><ele>387.0</ele><time>2026-03-28T13:41:28.784Z</time></trkpt><trkpt lat="46.0283492" lon="11.866078"><ele>387.0</ele><time>2026-03-28T13:41:31.781Z</time></trkpt><trkpt lat="46.0282918" lon="11.8661512"><ele>387.0</ele><time>2026-03-28T13:41:34.78Z</time></trkpt><trkpt lat="46.0282445" lon="11.8662213"><ele>387.0</ele><time>2026-03-28T13:41:36.782Z</time></trkpt><trkpt lat="46.0282066" lon="11.8663116"><ele>385.5</ele><time>2026-03-28T13:41:38.783Z</time></trkpt><trkpt lat="46.0281822" lon="11.8664226"><ele>384.0</ele><time>2026-03-28T13:41:40.78Z</time></trkpt><trkpt lat="46.0281744" lon="11.8665804"><ele>382.5</ele><time>2026-03-28T13:41:42.779Z</time></trkpt><trkpt lat="46.0281466" lon="11.8667244"><ele>381.0</ele><time>2026-03-28T13:41:44.78Z</time></trkpt><trkpt lat="46.0280933" lon="11.8668224"><ele>379.5</ele><time>2026-03-28T13:41:46.779Z</time></trkpt><trkpt lat="46.0280415" lon="11.8668792"><ele>378.0</ele><time>2026-03-28T13:41:48.781Z</time></trkpt><trkpt lat="46.0280247" lon="11.8669735"><ele>375.0</ele><time>2026-03-28T13:41:50.78Z</time></trkpt><trkpt lat="46.0280266" lon="11.867075"><ele>372.0</ele><time>2026-03-28T13:41:52.782Z</time></trkpt><trkpt lat="46.0280306" lon="11.8671945"><ele>369.0</ele><time>2026-03-28T13:41:54.782Z</time></trkpt><trkpt lat="46.0280461" lon="11.8673207"><ele>366.0</ele><time>2026-03-28T13:41:56.781Z</time></trkpt><trkpt lat="46.0280697" lon="11.8674737"><ele>363.0</ele><time>2026-03-28T13:41:58.782Z</time></trkpt><trkpt lat="46.0280869" lon="11.867567"><ele>360.0</ele><time>2026-03-28T13:41:59.782Z</time></trkpt><trkpt lat="46.0281078" lon="11.867657"><ele>359.3333333333333</ele><time>2026-03-28T13:42:00.78Z</time></trkpt><trkpt lat="46.0281349" lon="11.86776"><ele>358.6666666666667</ele><time>2026-03-28T13:42:01.782Z</time></trkpt><trkpt lat="46.0281714" lon="11.8678666"><ele>358.0</ele><time>2026-03-28T13:42:02.781Z</time></trkpt><trkpt lat="46.0282182" lon="11.867976"><ele>357.33333333333337</ele><time>2026-03-28T13:42:03.784Z</time></trkpt><trkpt lat="46.0282729" lon="11.868095"><ele>356.6666666666667</ele><time>2026-03-28T13:42:04.781Z</time></trkpt><trkpt lat="46.0283245" lon="11.868207"><ele>356.0</ele><time>2026-03-28T13:42:05.784Z</time></trkpt><trkpt lat="46.028381" lon="11.8683174"><ele>356.0</ele><time>2026-03-28T13:42:06.782Z</time></trkpt><trkpt lat="46.0284327" lon="11.8684162"><ele>356.0</ele><time>2026-03-28T13:42:07.78Z</time></trkpt><trkpt lat="46.0284766" lon="11.8685004"><ele>356.0</ele><time>2026-03-28T13:42:08.784Z</time></trkpt><trkpt lat="46.0285449" lon="11.8686233"><ele>356.0</ele><time>2026-03-28T13:42:10.782Z</time></trkpt><trkpt lat="46.0285984" lon="11.868706"><ele>356.0</ele><time>2026-03-28T13:42:12.787Z</time></trkpt><trkpt lat="46.0286427" lon="11.8687887"><ele>356.0</ele><time>2026-03-28T13:42:14.782Z</time></trkpt><trkpt lat="46.0287108" lon="11.8689111"><ele>354.5</ele><time>2026-03-28T13:42:16.782Z</time></trkpt><trkpt lat="46.0287986" lon="11.8690332"><ele>353.0</ele><time>2026-03-28T13:42:18.782Z</time></trkpt><trkpt lat="46.0288907" lon="11.8691464"><ele>351.5</ele><time>2026-03-28T13:42:20.783Z</time></trkpt><trkpt lat="46.028942" lon="11.8692"><ele>350.0</ele><time>2026-03-28T13:42:21.783Z</time></trkpt><trkpt lat="46.0289956" lon="11.869258"><ele>348.5</ele><time>2026-03-28T13:42:22.785Z</time></trkpt><trkpt lat="46.0290537" lon="11.8693184"><ele>347.0</ele><time>2026-03-28T13:42:23.783Z</time></trkpt><trkpt lat="46.0291127" lon="11.8693807"><ele>346.6666666666667</ele><time>2026-03-28T13:42:24.783Z</time></trkpt><trkpt lat="46.0291732" lon="11.869452"><ele>346.33333333333337</ele><time>2026-03-28T13:42:25.783Z</time></trkpt><trkpt lat="46.0292256" lon="11.869529"><ele>346.0</ele><time>2026-03-28T13:42:26.784Z</time></trkpt><trkpt lat="46.0292811" lon="11.8696097"><ele>345.6666666666667</ele><time>2026-03-28T13:42:27.783Z</time></trkpt><trkpt lat="46.0293393" lon="11.8696988"><ele>345.3333333333333</ele><time>2026-03-28T13:42:28.783Z</time></trkpt><trkpt lat="46.0293936" lon="11.86979"><ele>345.0</ele><time>2026-03-28T13:42:29.786Z</time></trkpt><trkpt lat="46.0294447" lon="11.8698816"><ele>345.0</ele><time>2026-03-28T13:42:30.786Z</time></trkpt><trkpt lat="46.0294929" lon="11.8699685"><ele>345.0</ele><time>2026-03-28T13:42:31.786Z</time></trkpt><trkpt lat="46.029534" lon="11.8700589"><ele>345.0</ele><time>2026-03-28T13:42:32.786Z</time></trkpt><trkpt lat="46.0295625" lon="11.8701524"><ele>345.0</ele><time>2026-03-28T13:42:33.785Z</time></trkpt><trkpt lat="46.0295823" lon="11.8702539"><ele>345.0</ele><time>2026-03-28T13:42:34.783Z</time></trkpt><trkpt lat="46.0295863" lon="11.8703539"><ele>345.0</ele><time>2026-03-28T13:42:35.785Z</time></trkpt><trkpt lat="46.0295777" lon="11.8704624"><ele>345.0</ele><time>2026-03-28T13:42:36.782Z</time></trkpt><trkpt lat="46.0295584" lon="11.8705715"><ele>344.3333333333333</ele><time>2026-03-28T13:42:37.783Z</time></trkpt><trkpt lat="46.0295378" lon="11.8706795"><ele>343.6666666666667</ele><time>2026-03-28T13:42:38.782Z</time></trkpt><trkpt lat="46.0295187" lon="11.8707929"><ele>343.0</ele><time>2026-03-28T13:42:39.781Z</time></trkpt><trkpt lat="46.0295016" lon="11.870911"><ele>342.33333333333337</ele><time>2026-03-28T13:42:40.785Z</time></trkpt><trkpt lat="46.0294853" lon="11.8710295"><ele>341.6666666666667</ele><time>2026-03-28T13:42:41.783Z</time></trkpt><trkpt lat="46.0294707" lon="11.8711493"><ele>341.0</ele><time>2026-03-28T13:42:42.784Z</time></trkpt><trkpt lat="46.0294555" lon="11.8712714"><ele>340.33333333333337</ele><time>2026-03-28T13:42:43.783Z</time></trkpt><trkpt lat="46.0294344" lon="11.8713912"><ele>339.6666666666667</ele><time>2026-03-28T13:42:44.784Z</time></trkpt><trkpt lat="46.0294047" lon="11.8715091"><ele>339.0</ele><time>2026-03-28T13:42:45.783Z</time></trkpt><trkpt lat="46.0293658" lon="11.8716224"><ele>338.3333333333333</ele><time>2026-03-28T13:42:46.779Z</time></trkpt><trkpt lat="46.0293146" lon="11.8717221"><ele>337.66666666666663</ele><time>2026-03-28T13:42:47.779Z</time></trkpt><trkpt lat="46.0292567" lon="11.8718262"><ele>337.0</ele><time>2026-03-28T13:42:48.78Z</time></trkpt><trkpt lat="46.0291902" lon="11.8719093"><ele>336.66666666666663</ele><time>2026-03-28T13:42:49.782Z</time></trkpt><trkpt lat="46.029125" lon="11.8719899"><ele>336.3333333333333</ele><time>2026-03-28T13:42:50.781Z</time></trkpt><trkpt lat="46.0290567" lon="11.8720619"><ele>336.0</ele><time>2026-03-28T13:42:51.78Z</time></trkpt><trkpt lat="46.0289817" lon="11.8721211"><ele>335.6666666666667</ele><time>2026-03-28T13:42:52.785Z</time></trkpt><trkpt lat="46.028904" lon="11.8721759"><ele>335.33333333333337</ele><time>2026-03-28T13:42:53.781Z</time></trkpt><trkpt lat="46.0288308" lon="11.8722339"><ele>335.0</ele><time>2026-03-28T13:42:54.781Z</time></trkpt><trkpt lat="46.028765" lon="11.8723067"><ele>335.0</ele><time>2026-03-28T13:42:55.78Z</time></trkpt><trkpt lat="46.0287252" lon="11.8723862"><ele>335.0</ele><time>2026-03-28T13:42:56.781Z</time></trkpt><trkpt lat="46.0286674" lon="11.8725341"><ele>335.0</ele><time>2026-03-28T13:42:58.781Z</time></trkpt><trkpt lat="46.0286131" lon="11.8726399"><ele>335.0</ele><time>2026-03-28T13:43:00.781Z</time></trkpt><trkpt lat="46.0285763" lon="11.8727348"><ele>335.0</ele><time>2026-03-28T13:43:02.78Z</time></trkpt><trkpt lat="46.0285448" lon="11.8728444"><ele>335.0</ele><time>2026-03-28T13:43:04.783Z</time></trkpt><trkpt lat="46.0285482" lon="11.8729669"><ele>334.83333333333337</ele><time>2026-03-28T13:43:07.785Z</time></trkpt><trkpt lat="46.0285832" lon="11.873064"><ele>334.6666666666667</ele><time>2026-03-28T13:43:10.783Z</time></trkpt><trkpt lat="46.0286022" lon="11.8731546"><ele>334.5</ele><time>2026-03-28T13:43:12.783Z</time></trkpt><trkpt lat="46.0286411" lon="11.8732785"><ele>334.3333333333333</ele><time>2026-03-28T13:43:14.782Z</time></trkpt><trkpt lat="46.0286719" lon="11.8734109"><ele>334.16666666666663</ele><time>2026-03-28T13:43:16.783Z</time></trkpt><trkpt lat="46.0287075" lon="11.8735162"><ele>334.0</ele><time>2026-03-28T13:43:18.782Z</time></trkpt><trkpt lat="46.0287842" lon="11.8735844"><ele>333.0</ele><time>2026-03-28T13:43:21.783Z</time></trkpt><trkpt lat="46.0288373" lon="11.8736407"><ele>332.0</ele><time>2026-03-28T13:43:24.781Z</time></trkpt><trkpt lat="46.0288202" lon="11.8737282"><ele>331.0</ele><time>2026-03-28T13:43:26.782Z</time></trkpt><trkpt lat="46.02878" lon="11.8738583"><ele>330.0</ele><time>2026-03-28T13:43:28.783Z</time></trkpt><trkpt lat="46.0287344" lon="11.8740115"><ele>329.0</ele><time>2026-03-28T13:43:30.785Z</time></trkpt><trkpt lat="46.0286816" lon="11.8741781"><ele>329.0</ele><time>2026-03-28T13:43:32.783Z</time></trkpt><trkpt lat="46.0286556" lon="11.8742674"><ele>329.0</ele><time>2026-03-28T13:43:33.783Z</time></trkpt><trkpt lat="46.0286279" lon="11.8743671"><ele>329.0</ele><time>2026-03-28T13:43:34.783Z</time></trkpt><trkpt lat="46.028597" lon="11.8744728"><ele>329.0</ele><time>2026-03-28T13:43:35.785Z</time></trkpt><trkpt lat="46.0285689" lon="11.8745915"><ele>329.0</ele><time>2026-03-28T13:43:36.783Z</time></trkpt><trkpt lat="46.0285529" lon="11.8747276"><ele>329.0</ele><time>2026-03-28T13:43:37.785Z</time></trkpt><trkpt lat="46.0285575" lon="11.8748637"><ele>327.2</ele><time>2026-03-28T13:43:38.783Z</time></trkpt><trkpt lat="46.0285791" lon="11.8750028"><ele>325.4</ele><time>2026-03-28T13:43:39.782Z</time></trkpt><trkpt lat="46.0286067" lon="11.8751395"><ele>323.6</ele><time>2026-03-28T13:43:40.783Z</time></trkpt><trkpt lat="46.0286312" lon="11.8752789"><ele>321.8</ele><time>2026-03-28T13:43:41.781Z</time></trkpt><trkpt lat="46.028647" lon="11.8754211"><ele>320.0</ele><time>2026-03-28T13:43:42.783Z</time></trkpt><trkpt lat="46.0286475" lon="11.8755573"><ele>319.5</ele><time>2026-03-28T13:43:43.783Z</time></trkpt><trkpt lat="46.0286313" lon="11.8756851"><ele>319.0</ele><time>2026-03-28T13:43:44.786Z</time></trkpt><trkpt lat="46.0286051" lon="11.8758026"><ele>318.5</ele><time>2026-03-28T13:43:45.783Z</time></trkpt><trkpt lat="46.0285667" lon="11.8758983"><ele>318.0</ele><time>2026-03-28T13:43:46.783Z</time></trkpt><trkpt lat="46.028515" lon="11.8759778"><ele>317.5</ele><time>2026-03-28T13:43:47.783Z</time></trkpt><trkpt lat="46.0284627" lon="11.8760488"><ele>317.0</ele><time>2026-03-28T13:43:48.784Z</time></trkpt><trkpt lat="46.0284113" lon="11.8761101"><ele>317.83333333333337</ele><time>2026-03-28T13:43:49.783Z</time></trkpt><trkpt lat="46.0283144" lon="11.8762058"><ele>318.6666666666667</ele><time>2026-03-28T13:43:51.785Z</time></trkpt><trkpt lat="46.0282325" lon="11.8762592"><ele>319.5</ele><time>2026-03-28T13:43:53.783Z</time></trkpt><trkpt lat="46.0281572" lon="11.8762985"><ele>320.3333333333333</ele><time>2026-03-28T13:43:55.783Z</time></trkpt><trkpt lat="46.0280938" lon="11.8763441"><ele>321.16666666666663</ele><time>2026-03-28T13:43:57.783Z</time></trkpt><trkpt lat="46.0280359" lon="11.8763945"><ele>322.0</ele><time>2026-03-28T13:43:59.785Z</time></trkpt><trkpt lat="46.0279785" lon="11.8764583"><ele>322.0</ele><time>2026-03-28T13:44:01.784Z</time></trkpt><trkpt lat="46.0279191" lon="11.8765245"><ele>322.0</ele><time>2026-03-28T13:44:03.785Z</time></trkpt><trkpt lat="46.0278566" lon="11.8766127"><ele>322.0</ele><time>2026-03-28T13:44:05.782Z</time></trkpt><trkpt lat="46.0278158" lon="11.8766987"><ele>322.0</ele><time>2026-03-28T13:44:07.785Z</time></trkpt><trkpt lat="46.0277777" lon="11.8767918"><ele>322.0</ele><time>2026-03-28T13:44:09.785Z</time></trkpt><trkpt lat="46.0277486" lon="11.8768858"><ele>322.0</ele><time>2026-03-28T13:44:11.783Z</time></trkpt><trkpt lat="46.0277292" lon="11.8769805"><ele>323.5</ele><time>2026-03-28T13:44:13.785Z</time></trkpt><trkpt lat="46.0277163" lon="11.8770722"><ele>325.0</ele><time>2026-03-28T13:44:15.781Z</time></trkpt><trkpt lat="46.0277042" lon="11.8772072"><ele>326.5</ele><time>2026-03-28T13:44:18.783Z</time></trkpt><trkpt lat="46.0276845" lon="11.8773238"><ele>328.0</ele><time>2026-03-28T13:44:21.785Z</time></trkpt><trkpt lat="46.0276545" lon="11.8774387"><ele>329.5</ele><time>2026-03-28T13:44:24.785Z</time></trkpt><trkpt lat="46.0276221" lon="11.8775247"><ele>331.0</ele><time>2026-03-28T13:44:28.783Z</time></trkpt><trkpt lat="46.0275753" lon="11.8775884"><ele>332.16666666666663</ele><time>2026-03-28T13:44:31.783Z</time></trkpt><trkpt lat="46.0275196" lon="11.8776685"><ele>333.3333333333333</ele><time>2026-03-28T13:44:34.785Z</time></trkpt><trkpt lat="46.0274501" lon="11.8777518"><ele>334.5</ele><time>2026-03-28T13:44:37.783Z</time></trkpt><trkpt lat="46.0273733" lon="11.877835"><ele>335.6666666666667</ele><time>2026-03-28T13:44:40.784Z</time></trkpt><trkpt lat="46.0273031" lon="11.8779089"><ele>336.83333333333337</ele><time>2026-03-28T13:44:43.785Z</time></trkpt><trkpt lat="46.0272522" lon="11.8779673"><ele>338.0</ele><time>2026-03-28T13:44:45.782Z</time></trkpt><trkpt lat="46.0271994" lon="11.8780245"><ele>338.0</ele><time>2026-03-28T13:44:47.784Z</time></trkpt><trkpt lat="46.0271459" lon="11.8780839"><ele>338.0</ele><time>2026-03-28T13:44:49.784Z</time></trkpt><trkpt lat="46.0271" lon="11.8781625"><ele>338.0</ele><time>2026-03-28T13:44:51.784Z</time></trkpt><trkpt lat="46.0270571" lon="11.8782432"><ele>338.0</ele><time>2026-03-28T13:44:53.783Z</time></trkpt><trkpt lat="46.0270228" lon="11.8783252"><ele>338.0</ele><time>2026-03-28T13:44:55.785Z</time></trkpt><trkpt lat="46.0269782" lon="11.8784314"><ele>338.0</ele><time>2026-03-28T13:44:58.782Z</time></trkpt><trkpt lat="46.026925" lon="11.8785372"><ele>337.5</ele><time>2026-03-28T13:45:01.783Z</time></trkpt><trkpt lat="46.0268963" lon="11.8786198"><ele>337.0</ele><time>2026-03-28T13:45:03.782Z</time></trkpt><trkpt lat="46.0268807" lon="11.8787428"><ele>336.5</ele><time>2026-03-28T13:45:06.785Z</time></trkpt><trkpt lat="46.0268906" lon="11.8788776"><ele>336.0</ele><time>2026-03-28T13:45:09.782Z</time></trkpt><trkpt lat="46.0269057" lon="11.8789831"><ele>335.5</ele><time>2026-03-28T13:45:11.782Z</time></trkpt><trkpt lat="46.0269203" lon="11.8790877"><ele>335.0</ele><time>2026-03-28T13:45:13.783Z</time></trkpt><trkpt lat="46.0269442" lon="11.8791767"><ele>334.4285714285714</ele><time>2026-03-28T13:45:15.783Z</time></trkpt><trkpt lat="46.0269655" lon="11.8792856"><ele>333.85714285714283</ele><time>2026-03-28T13:45:17.785Z</time></trkpt><trkpt lat="46.0269853" lon="11.8793963"><ele>333.2857142857143</ele><time>2026-03-28T13:45:19.783Z</time></trkpt><trkpt lat="46.0270159" lon="11.8795121"><ele>332.71428571428567</ele><time>2026-03-28T13:45:21.783Z</time></trkpt><trkpt lat="46.0270652" lon="11.8795768"><ele>332.1428571428571</ele><time>2026-03-28T13:45:23.783Z</time></trkpt><trkpt lat="46.0271141" lon="11.8796415"><ele>331.57142857142856</ele><time>2026-03-28T13:45:25.783Z</time></trkpt><trkpt lat="46.0271669" lon="11.8797005"><ele>331.0</ele><time>2026-03-28T13:45:27.783Z</time></trkpt><trkpt lat="46.0272419" lon="11.8796842"><ele>331.0</ele><time>2026-03-28T13:45:30.783Z</time></trkpt><trkpt lat="46.027261" lon="11.8795681"><ele>331.0</ele><time>2026-03-28T13:45:33.785Z</time></trkpt><trkpt lat="46.0272668" lon="11.8794357"><ele>331.0</ele><time>2026-03-28T13:45:36.783Z</time></trkpt><trkpt lat="46.0272765" lon="11.8793408"><ele>331.0</ele><time>2026-03-28T13:45:38.783Z</time></trkpt><trkpt lat="46.027298" lon="11.8792141"><ele>331.0</ele><time>2026-03-28T13:45:41.785Z</time></trkpt><trkpt lat="46.0273423" lon="11.8791089"><ele>331.0</ele><time>2026-03-28T13:45:44.786Z</time></trkpt><trkpt lat="46.0274117" lon="11.8790404"><ele>332.5</ele><time>2026-03-28T13:45:47.782Z</time></trkpt><trkpt lat="46.0274975" lon="11.8790185"><ele>334.0</ele><time>2026-03-28T13:45:50.783Z</time></trkpt><trkpt lat="46.0275962" lon="11.8790184"><ele>335.5</ele><time>2026-03-28T13:45:53.782Z</time></trkpt><trkpt lat="46.0276699" lon="11.8790497"><ele>337.0</ele><time>2026-03-28T13:45:55.781Z</time></trkpt><trkpt lat="46.0277391" lon="11.8790762"><ele>338.5</ele><time>2026-03-28T13:45:57.782Z</time></trkpt><trkpt lat="46.0278011" lon="11.8791061"><ele>340.0</ele><time>2026-03-28T13:45:59.783Z</time></trkpt><trkpt lat="46.0278663" lon="11.8791216"><ele>340.0</ele><time>2026-03-28T13:46:01.784Z</time></trkpt><trkpt lat="46.0279546" lon="11.8791466"><ele>340.0</ele><time>2026-03-28T13:46:03.783Z</time></trkpt><trkpt lat="46.0280297" lon="11.8791746"><ele>340.0</ele><time>2026-03-28T13:46:05.783Z</time></trkpt><trkpt lat="46.0281042" lon="11.8791894"><ele>340.0</ele><time>2026-03-28T13:46:07.785Z</time></trkpt><trkpt lat="46.0281785" lon="11.8791981"><ele>340.0</ele><time>2026-03-28T13:46:09.783Z</time></trkpt><trkpt lat="46.0282479" lon="11.8791995"><ele>340.0</ele><time>2026-03-28T13:46:11.785Z</time></trkpt><trkpt lat="46.028337" lon="11.8791928"><ele>340.8571428571429</ele><time>2026-03-28T13:46:14.785Z</time></trkpt><trkpt lat="46.028403" lon="11.8791897"><ele>341.71428571428567</ele><time>2026-03-28T13:46:16.784Z</time></trkpt><trkpt lat="46.0284788" lon="11.8791612"><ele>342.57142857142856</ele><time>2026-03-28T13:46:18.784Z</time></trkpt><trkpt lat="46.0285545" lon="11.8791217"><ele>343.42857142857144</ele><time>2026-03-28T13:46:20.783Z</time></trkpt><trkpt lat="46.0286234" lon="11.8790905"><ele>344.28571428571433</ele><time>2026-03-28T13:46:22.783Z</time></trkpt><trkpt lat="46.0286897" lon="11.8790607"><ele>345.1428571428571</ele><time>2026-03-28T13:46:24.783Z</time></trkpt><trkpt lat="46.0287552" lon="11.8790284"><ele>346.0</ele><time>2026-03-28T13:46:26.783Z</time></trkpt><trkpt lat="46.0288306" lon="11.8789841"><ele>346.0</ele><time>2026-03-28T13:46:29.785Z</time></trkpt><trkpt lat="46.0289157" lon="11.8789269"><ele>346.0</ele><time>2026-03-28T13:46:32.783Z</time></trkpt><trkpt lat="46.0289787" lon="11.8789102"><ele>346.0</ele><time>2026-03-28T13:46:34.785Z</time></trkpt><trkpt lat="46.0290466" lon="11.8789249"><ele>346.0</ele><time>2026-03-28T13:46:36.785Z</time></trkpt><trkpt lat="46.0291167" lon="11.87895"><ele>346.0</ele><time>2026-03-28T13:46:38.785Z</time></trkpt><trkpt lat="46.0291774" lon="11.8789775"><ele>346.0</ele><time>2026-03-28T13:46:40.785Z</time></trkpt><trkpt lat="46.0292403" lon="11.8790055"><ele>346.0</ele><time>2026-03-28T13:46:42.785Z</time></trkpt><trkpt lat="46.0293295" lon="11.8790381"><ele>346.2857142857143</ele><time>2026-03-28T13:46:45.782Z</time></trkpt><trkpt lat="46.0294117" lon="11.879061"><ele>346.5714285714286</ele><time>2026-03-28T13:46:48.785Z</time></trkpt><trkpt lat="46.0294765" lon="11.8790807"><ele>346.8571428571429</ele><time>2026-03-28T13:46:51.781Z</time></trkpt><trkpt lat="46.0295422" lon="11.8790843"><ele>347.1428571428571</ele><time>2026-03-28T13:46:53.785Z</time></trkpt><trkpt lat="46.0296079" lon="11.8790811"><ele>347.42857142857144</ele><time>2026-03-28T13:46:55.782Z</time></trkpt><trkpt lat="46.0296753" lon="11.8790668"><ele>347.7142857142857</ele><time>2026-03-28T13:46:57.785Z</time></trkpt><trkpt lat="46.029739" lon="11.8790508"><ele>348.0</ele><time>2026-03-28T13:46:59.785Z</time></trkpt><trkpt lat="46.0298214" lon="11.8790268"><ele>348.0</ele><time>2026-03-28T13:47:02.782Z</time></trkpt><trkpt lat="46.0299075" lon="11.879017"><ele>348.0</ele><time>2026-03-28T13:47:05.783Z</time></trkpt><trkpt lat="46.0300013" lon="11.8790236"><ele>348.0</ele><time>2026-03-28T13:47:08.785Z</time></trkpt><trkpt lat="46.0300905" lon="11.8790259"><ele>348.0</ele><time>2026-03-28T13:47:11.781Z</time></trkpt><trkpt lat="46.0301586" lon="11.8790292"><ele>348.0</ele><time>2026-03-28T13:47:13.785Z</time></trkpt><trkpt lat="46.0302466" lon="11.8790424"><ele>348.0</ele><time>2026-03-28T13:47:16.784Z</time></trkpt><trkpt lat="46.0303132" lon="11.8790501"><ele>348.7142857142857</ele><time>2026-03-28T13:47:18.783Z</time></trkpt><trkpt lat="46.0303767" lon="11.8790528"><ele>349.42857142857144</ele><time>2026-03-28T13:47:20.782Z</time></trkpt><trkpt lat="46.0304689" lon="11.8790528"><ele>350.1428571428571</ele><time>2026-03-28T13:47:23.785Z</time></trkpt><trkpt lat="46.0305349" lon="11.8790589"><ele>350.8571428571429</ele><time>2026-03-28T13:47:25.782Z</time></trkpt><trkpt lat="46.0306005" lon="11.8790567"><ele>351.5714285714286</ele><time>2026-03-28T13:47:27.784Z</time></trkpt><trkpt lat="46.030668" lon="11.8790597"><ele>352.2857142857143</ele><time>2026-03-28T13:47:29.784Z</time></trkpt><trkpt lat="46.0307378" lon="11.8790594"><ele>353.0</ele><time>2026-03-28T13:47:31.785Z</time></trkpt><trkpt lat="46.0308018" lon="11.8790583"><ele>353.83333333333337</ele><time>2026-03-28T13:47:33.783Z</time></trkpt><trkpt lat="46.0308932" lon="11.8790829"><ele>354.6666666666667</ele><time>2026-03-28T13:47:36.784Z</time></trkpt><trkpt lat="46.030971" lon="11.8791156"><ele>355.5</ele><time>2026-03-28T13:47:39.784Z</time></trkpt><trkpt lat="46.031055" lon="11.8791716"><ele>356.3333333333333</ele><time>2026-03-28T13:47:42.784Z</time></trkpt><trkpt lat="46.0311228" lon="11.8791848"><ele>357.16666666666663</ele><time>2026-03-28T13:47:45.78Z</time></trkpt><trkpt lat="46.0311775" lon="11.8791341"><ele>358.0</ele><time>2026-03-28T13:47:47.78Z</time></trkpt><trkpt lat="46.031224" lon="11.8790674"><ele>358.0</ele><time>2026-03-28T13:47:49.781Z</time></trkpt><trkpt lat="46.0313056" lon="11.879041"><ele>358.0</ele><time>2026-03-28T13:47:53.782Z</time></trkpt><trkpt lat="46.0313676" lon="11.8790896"><ele>358.0</ele><time>2026-03-28T13:47:56.784Z</time></trkpt><trkpt lat="46.0313181" lon="11.8790188"><ele>358.0</ele><time>2026-03-28T14:06:49.785Z</time></trkpt><trkpt lat="46.0312412" lon="11.8790373"><ele>358.0</ele><time>2026-03-28T14:06:52.783Z</time></trkpt><trkpt lat="46.0311701" lon="11.8791081"><ele>358.0</ele><time>2026-03-28T14:06:55.783Z</time></trkpt><trkpt lat="46.0311176" lon="11.87921"><ele>357.5</ele><time>2026-03-28T14:06:58.783Z</time></trkpt><trkpt lat="46.0311315" lon="11.8793371"><ele>357.0</ele><time>2026-03-28T14:07:01.783Z</time></trkpt><trkpt lat="46.0311985" lon="11.8794169"><ele>356.5</ele><time>2026-03-28T14:07:04.784Z</time></trkpt><trkpt lat="46.0312483" lon="11.8794841"><ele>356.0</ele><time>2026-03-28T14:07:06.783Z</time></trkpt><trkpt lat="46.031303" lon="11.8795531"><ele>355.5</ele><time>2026-03-28T14:07:08.785Z</time></trkpt><trkpt lat="46.0313679" lon="11.8796254"><ele>355.0</ele><time>2026-03-28T14:07:10.783Z</time></trkpt><trkpt lat="46.0314426" lon="11.8796835"><ele>355.0</ele><time>2026-03-28T14:07:12.783Z</time></trkpt><trkpt lat="46.0315184" lon="11.879747"><ele>355.0</ele><time>2026-03-28T14:07:14.782Z</time></trkpt><trkpt lat="46.0315932" lon="11.8798253"><ele>355.0</ele><time>2026-03-28T14:07:16.782Z</time></trkpt><trkpt lat="46.0316681" lon="11.879899"><ele>355.0</ele><time>2026-03-28T14:07:18.783Z</time></trkpt><trkpt lat="46.0317299" lon="11.8799793"><ele>355.0</ele><time>2026-03-28T14:07:20.784Z</time></trkpt><trkpt lat="46.0317768" lon="11.8800548"><ele>355.0</ele><time>2026-03-28T14:07:22.783Z</time></trkpt><trkpt lat="46.0318388" lon="11.8800957"><ele>353.4</ele><time>2026-03-28T14:07:28.783Z</time></trkpt><trkpt lat="46.0319158" lon="11.8801877"><ele>351.8</ele><time>2026-03-28T14:07:36.783Z</time></trkpt><trkpt lat="46.0319925" lon="11.8802713"><ele>350.20000000000005</ele><time>2026-03-28T14:07:38.783Z</time></trkpt><trkpt lat="46.0320926" lon="11.8803445"><ele>348.6</ele><time>2026-03-28T14:07:40.782Z</time></trkpt><trkpt lat="46.0321944" lon="11.8803934"><ele>347.0</ele><time>2026-03-28T14:07:42.783Z</time></trkpt><trkpt lat="46.0322884" lon="11.8803951"><ele>347.0</ele><time>2026-03-28T14:07:44.783Z</time></trkpt><trkpt lat="46.0323497" lon="11.8804605"><ele>347.0</ele><time>2026-03-28T14:07:46.783Z</time></trkpt><trkpt lat="46.0323591" lon="11.8805648"><ele>347.0</ele><time>2026-03-28T14:07:48.783Z</time></trkpt><trkpt lat="46.0323514" lon="11.8806812"><ele>347.0</ele><time>2026-03-28T14:07:51.781Z</time></trkpt><trkpt lat="46.032384" lon="11.8807636"><ele>347.0</ele><time>2026-03-28T14:07:53.783Z</time></trkpt><trkpt lat="46.0324268" lon="11.8808825"><ele>347.0</ele><time>2026-03-28T14:07:56.786Z</time></trkpt><trkpt lat="46.0324537" lon="11.8809685"><ele>346.5</ele><time>2026-03-28T14:07:58.785Z</time></trkpt><trkpt lat="46.0324854" lon="11.8810576"><ele>346.0</ele><time>2026-03-28T14:08:00.782Z</time></trkpt><trkpt lat="46.0325132" lon="11.8811462"><ele>345.5</ele><time>2026-03-28T14:08:02.784Z</time></trkpt><trkpt lat="46.0325447" lon="11.8812476"><ele>345.0</ele><time>2026-03-28T14:08:04.783Z</time></trkpt><trkpt lat="46.0325743" lon="11.8813529"><ele>344.5</ele><time>2026-03-28T14:08:06.783Z</time></trkpt><trkpt lat="46.0325984" lon="11.8814565"><ele>344.0</ele><time>2026-03-28T14:08:08.785Z</time></trkpt><trkpt lat="46.0326146" lon="11.8815777"><ele>344.0</ele><time>2026-03-28T14:08:10.781Z</time></trkpt><trkpt lat="46.0326254" lon="11.8817112"><ele>344.0</ele><time>2026-03-28T14:08:12.784Z</time></trkpt><trkpt lat="46.0326329" lon="11.8818494"><ele>344.0</ele><time>2026-03-28T14:08:14.783Z</time></trkpt><trkpt lat="46.0326354" lon="11.881987"><ele>344.0</ele><time>2026-03-28T14:08:16.783Z</time></trkpt><trkpt lat="46.0326366" lon="11.8821241"><ele>344.0</ele><time>2026-03-28T14:08:18.782Z</time></trkpt><trkpt lat="46.0326418" lon="11.8822545"><ele>344.0</ele><time>2026-03-28T14:08:20.783Z</time></trkpt><trkpt lat="46.0326428" lon="11.8823829"><ele>344.0</ele><time>2026-03-28T14:08:22.785Z</time></trkpt><trkpt lat="46.0326488" lon="11.8825167"><ele>344.0</ele><time>2026-03-28T14:08:24.785Z</time></trkpt><trkpt lat="46.0326549" lon="11.882646"><ele>344.0</ele><time>2026-03-28T14:08:26.783Z</time></trkpt><trkpt lat="46.0326644" lon="11.8827697"><ele>344.0</ele><time>2026-03-28T14:08:28.782Z</time></trkpt><trkpt lat="46.0326757" lon="11.8828929"><ele>344.0</ele><time>2026-03-28T14:08:30.783Z</time></trkpt><trkpt lat="46.0326993" lon="11.8830216"><ele>343.2</ele><time>2026-03-28T14:08:32.781Z</time></trkpt><trkpt lat="46.0327249" lon="11.8831452"><ele>342.4</ele><time>2026-03-28T14:08:34.785Z</time></trkpt><trkpt lat="46.0327509" lon="11.8832777"><ele>341.6</ele><time>2026-03-28T14:08:36.783Z</time></trkpt><trkpt lat="46.0327735" lon="11.8834068"><ele>340.8</ele><time>2026-03-28T14:08:38.785Z</time></trkpt><trkpt lat="46.0327672" lon="11.883562"><ele>340.0</ele><time>2026-03-28T14:08:40.783Z</time></trkpt><trkpt lat="46.0327507" lon="11.8837269"><ele>339.5</ele><time>2026-03-28T14:08:42.783Z</time></trkpt><trkpt lat="46.0327596" lon="11.8838746"><ele>339.0</ele><time>2026-03-28T14:08:44.784Z</time></trkpt><trkpt lat="46.0328005" lon="11.8839927"><ele>338.5</ele><time>2026-03-28T14:08:46.783Z</time></trkpt><trkpt lat="46.0328578" lon="11.8840512"><ele>338.0</ele><time>2026-03-28T14:08:48.783Z</time></trkpt><trkpt lat="46.0329303" lon="11.884076"><ele>337.5</ele><time>2026-03-28T14:08:50.783Z</time></trkpt><trkpt lat="46.0330141" lon="11.8840784"><ele>337.0</ele><time>2026-03-28T14:08:52.782Z</time></trkpt><trkpt lat="46.0331187" lon="11.8840515"><ele>337.0</ele><time>2026-03-28T14:08:54.782Z</time></trkpt><trkpt lat="46.0332048" lon="11.8840231"><ele>337.0</ele><time>2026-03-28T14:08:56.785Z</time></trkpt><trkpt lat="46.0332975" lon="11.8839954"><ele>337.0</ele><time>2026-03-28T14:08:58.783Z</time></trkpt><trkpt lat="46.0333912" lon="11.8839673"><ele>337.0</ele><time>2026-03-28T14:09:00.784Z</time></trkpt><trkpt lat="46.0334954" lon="11.8839273"><ele>337.0</ele><time>2026-03-28T14:09:02.783Z</time></trkpt><trkpt lat="46.0335833" lon="11.8839"><ele>336.8</ele><time>2026-03-28T14:09:04.782Z</time></trkpt><trkpt lat="46.0336781" lon="11.8838583"><ele>336.6</ele><time>2026-03-28T14:09:06.783Z</time></trkpt><trkpt lat="46.0337715" lon="11.8838233"><ele>336.40000000000003</ele><time>2026-03-28T14:09:08.782Z</time></trkpt><trkpt lat="46.0338422" lon="11.8837782"><ele>336.20000000000005</ele><time>2026-03-28T14:09:10.781Z</time></trkpt><trkpt lat="46.0339247" lon="11.8837343"><ele>336.0</ele><time>2026-03-28T14:09:12.785Z</time></trkpt><trkpt lat="46.0340177" lon="11.8836863"><ele>336.0</ele><time>2026-03-28T14:09:14.783Z</time></trkpt><trkpt lat="46.0341044" lon="11.8836102"><ele>336.0</ele><time>2026-03-28T14:09:16.783Z</time></trkpt><trkpt lat="46.034175" lon="11.8835107"><ele>336.0</ele><time>2026-03-28T14:09:18.783Z</time></trkpt><trkpt lat="46.0342266" lon="11.8834321"><ele>336.0</ele><time>2026-03-28T14:09:20.783Z</time></trkpt><trkpt lat="46.0342462" lon="11.883525"><ele>336.0</ele><time>2026-03-28T14:09:32.783Z</time></trkpt><trkpt lat="46.0341898" lon="11.8836008"><ele>336.0</ele><time>2026-03-28T14:09:34.784Z</time></trkpt><trkpt lat="46.0341272" lon="11.8837079"><ele>336.0</ele><time>2026-03-28T14:09:36.783Z</time></trkpt><trkpt lat="46.0340354" lon="11.8838326"><ele>336.0</ele><time>2026-03-28T14:09:38.785Z</time></trkpt><trkpt lat="46.0339867" lon="11.8839032"><ele>336.0</ele><time>2026-03-28T14:09:39.783Z</time></trkpt><trkpt lat="46.033941" lon="11.88397"><ele>336.0</ele><time>2026-03-28T14:09:40.783Z</time></trkpt><trkpt lat="46.0338893" lon="11.8840426"><ele>336.0</ele><time>2026-03-28T14:09:41.783Z</time></trkpt><trkpt lat="46.0338397" lon="11.8841135"><ele>336.0</ele><time>2026-03-28T14:09:42.783Z</time></trkpt><trkpt lat="46.0337828" lon="11.8841701"><ele>336.0</ele><time>2026-03-28T14:09:43.781Z</time></trkpt><trkpt lat="46.0337223" lon="11.8842379"><ele>336.0</ele><time>2026-03-28T14:09:44.783Z</time></trkpt><trkpt lat="46.0336684" lon="11.8843083"><ele>336.0</ele><time>2026-03-28T14:09:45.783Z</time></trkpt><trkpt lat="46.0336058" lon="11.8843764"><ele>336.0</ele><time>2026-03-28T14:09:46.782Z</time></trkpt><trkpt lat="46.0335377" lon="11.8844442"><ele>336.0</ele><time>2026-03-28T14:09:47.783Z</time></trkpt><trkpt lat="46.0334901" lon="11.8845039"><ele>336.0</ele><time>2026-03-28T14:09:48.785Z</time></trkpt><trkpt lat="46.0334192" lon="11.8845731"><ele>335.0</ele><time>2026-03-28T14:09:49.785Z</time></trkpt><trkpt lat="46.0333452" lon="11.8846391"><ele>334.0</ele><time>2026-03-28T14:09:50.783Z</time></trkpt><trkpt lat="46.0332602" lon="11.8847106"><ele>333.0</ele><time>2026-03-28T14:09:51.783Z</time></trkpt><trkpt lat="46.0331745" lon="11.8847829"><ele>332.0</ele><time>2026-03-28T14:09:52.783Z</time></trkpt><trkpt lat="46.0330859" lon="11.8848587"><ele>331.0</ele><time>2026-03-28T14:09:53.784Z</time></trkpt><trkpt lat="46.0330002" lon="11.8849326"><ele>331.0</ele><time>2026-03-28T14:09:54.785Z</time></trkpt><trkpt lat="46.0329138" lon="11.8849896"><ele>331.0</ele><time>2026-03-28T14:09:55.785Z</time></trkpt><trkpt lat="46.032831" lon="11.8850454"><ele>331.0</ele><time>2026-03-28T14:09:56.783Z</time></trkpt><trkpt lat="46.0327525" lon="11.8851069"><ele>331.0</ele><time>2026-03-28T14:09:57.784Z</time></trkpt><trkpt lat="46.0326745" lon="11.8851668"><ele>331.0</ele><time>2026-03-28T14:09:58.782Z</time></trkpt><trkpt lat="46.0326054" lon="11.8852452"><ele>330.16666666666663</ele><time>2026-03-28T14:09:59.782Z</time></trkpt><trkpt lat="46.0325411" lon="11.8853214"><ele>329.3333333333333</ele><time>2026-03-28T14:10:00.783Z</time></trkpt><trkpt lat="46.0324868" lon="11.8853839"><ele>328.5</ele><time>2026-03-28T14:10:01.783Z</time></trkpt><trkpt lat="46.0324119" lon="11.885454"><ele>327.6666666666667</ele><time>2026-03-28T14:10:03.783Z</time></trkpt><trkpt lat="46.0323662" lon="11.8855298"><ele>326.83333333333337</ele><time>2026-03-28T14:10:04.785Z</time></trkpt><trkpt lat="46.032319" lon="11.8856126"><ele>326.0</ele><time>2026-03-28T14:10:05.783Z</time></trkpt><trkpt lat="46.0322677" lon="11.885692"><ele>326.0</ele><time>2026-03-28T14:10:06.785Z</time></trkpt><trkpt lat="46.0322171" lon="11.8857867"><ele>326.0</ele><time>2026-03-28T14:10:07.785Z</time></trkpt><trkpt lat="46.0321639" lon="11.8858758"><ele>326.0</ele><time>2026-03-28T14:10:08.785Z</time></trkpt><trkpt lat="46.0321083" lon="11.8859873"><ele>326.0</ele><time>2026-03-28T14:10:09.785Z</time></trkpt><trkpt lat="46.0320624" lon="11.8861077"><ele>326.0</ele><time>2026-03-28T14:10:10.782Z</time></trkpt><trkpt lat="46.0320154" lon="11.8862427"><ele>325.0</ele><time>2026-03-28T14:10:11.785Z</time></trkpt><trkpt lat="46.0319774" lon="11.8863732"><ele>324.0</ele><time>2026-03-28T14:10:12.783Z</time></trkpt><trkpt lat="46.0319488" lon="11.8865061"><ele>323.0</ele><time>2026-03-28T14:10:13.783Z</time></trkpt><trkpt lat="46.0319255" lon="11.8866442"><ele>322.0</ele><time>2026-03-28T14:10:14.783Z</time></trkpt><trkpt lat="46.0318986" lon="11.8867635"><ele>321.0</ele><time>2026-03-28T14:10:15.785Z</time></trkpt><trkpt lat="46.0318753" lon="11.8868638"><ele>320.6666666666667</ele><time>2026-03-28T14:10:16.782Z</time></trkpt><trkpt lat="46.0318417" lon="11.8869871"><ele>320.3333333333333</ele><time>2026-03-28T14:10:17.785Z</time></trkpt><trkpt lat="46.0318149" lon="11.8871087"><ele>320.0</ele><time>2026-03-28T14:10:18.783Z</time></trkpt><trkpt lat="46.0317886" lon="11.8872292"><ele>319.66666666666663</ele><time>2026-03-28T14:10:19.784Z</time></trkpt><trkpt lat="46.0317629" lon="11.8873408"><ele>319.3333333333333</ele><time>2026-03-28T14:10:20.784Z</time></trkpt><trkpt lat="46.0317416" lon="11.8874413"><ele>319.0</ele><time>2026-03-28T14:10:21.785Z</time></trkpt><trkpt lat="46.0317239" lon="11.8875312"><ele>318.2</ele><time>2026-03-28T14:10:22.783Z</time></trkpt><trkpt lat="46.0317194" lon="11.8876992"><ele>317.4</ele><time>2026-03-28T14:10:24.784Z</time></trkpt><trkpt lat="46.0317679" lon="11.887855"><ele>316.6</ele><time>2026-03-28T14:10:26.783Z</time></trkpt><trkpt lat="46.0318442" lon="11.8879702"><ele>315.8</ele><time>2026-03-28T14:10:28.782Z</time></trkpt><trkpt lat="46.031903" lon="11.8880502"><ele>315.0</ele><time>2026-03-28T14:10:30.783Z</time></trkpt><trkpt lat="46.0319504" lon="11.8881452"><ele>315.0</ele><time>2026-03-28T14:10:33.781Z</time></trkpt><trkpt lat="46.0318954" lon="11.8882543"><ele>315.0</ele><time>2026-03-28T14:10:36.785Z</time></trkpt><trkpt lat="46.0318552" lon="11.8883324"><ele>315.0</ele><time>2026-03-28T14:10:38.782Z</time></trkpt><trkpt lat="46.031789" lon="11.8884159"><ele>315.0</ele><time>2026-03-28T14:10:40.782Z</time></trkpt><trkpt lat="46.0317229" lon="11.8885208"><ele>315.0</ele><time>2026-03-28T14:10:42.783Z</time></trkpt><trkpt lat="46.0316487" lon="11.8886026"><ele>315.0</ele><time>2026-03-28T14:10:44.783Z</time></trkpt><trkpt lat="46.0315777" lon="11.8886886"><ele>314.2</ele><time>2026-03-28T14:10:46.781Z</time></trkpt><trkpt lat="46.0314959" lon="11.8888233"><ele>313.4</ele><time>2026-03-28T14:10:48.78Z</time></trkpt><trkpt lat="46.0314541" lon="11.8888985"><ele>312.6</ele><time>2026-03-28T14:10:49.781Z</time></trkpt><trkpt lat="46.0313764" lon="11.8890117"><ele>311.8</ele><time>2026-03-28T14:10:51.78Z</time></trkpt><trkpt lat="46.0313287" lon="11.8890965"><ele>311.0</ele><time>2026-03-28T14:10:52.78Z</time></trkpt><trkpt lat="46.031283" lon="11.8891774"><ele>311.0</ele><time>2026-03-28T14:10:53.781Z</time></trkpt><trkpt lat="46.0312179" lon="11.8892379"><ele>311.0</ele><time>2026-03-28T14:10:55.784Z</time></trkpt><trkpt lat="46.031159" lon="11.8893031"><ele>311.0</ele><time>2026-03-28T14:10:57.782Z</time></trkpt><trkpt lat="46.0310877" lon="11.8893687"><ele>311.0</ele><time>2026-03-28T14:10:59.784Z</time></trkpt><trkpt lat="46.0310401" lon="11.8894441"><ele>311.0</ele><time>2026-03-28T14:11:00.784Z</time></trkpt><trkpt lat="46.0309884" lon="11.8895313"><ele>311.0</ele><time>2026-03-28T14:11:01.783Z</time></trkpt><trkpt lat="46.0309113" lon="11.8896226"><ele>311.1666666666667</ele><time>2026-03-28T14:11:03.783Z</time></trkpt><trkpt lat="46.0308587" lon="11.8897106"><ele>311.33333333333337</ele><time>2026-03-28T14:11:04.782Z</time></trkpt><trkpt lat="46.0308076" lon="11.8897867"><ele>311.5</ele><time>2026-03-28T14:11:05.784Z</time></trkpt><trkpt lat="46.0307513" lon="11.8898781"><ele>311.6666666666667</ele><time>2026-03-28T14:11:06.782Z</time></trkpt><trkpt lat="46.030704" lon="11.8899523"><ele>311.8333333333333</ele><time>2026-03-28T14:11:07.783Z</time></trkpt><trkpt lat="46.030623" lon="11.8900659"><ele>312.0</ele><time>2026-03-28T14:11:09.785Z</time></trkpt><trkpt lat="46.0305375" lon="11.8901948"><ele>311.3333333333333</ele><time>2026-03-28T14:11:11.785Z</time></trkpt><trkpt lat="46.0304898" lon="11.8902796"><ele>310.6666666666667</ele><time>2026-03-28T14:11:12.783Z</time></trkpt><trkpt lat="46.0304423" lon="11.8903616"><ele>310.0</ele><time>2026-03-28T14:11:13.784Z</time></trkpt><trkpt lat="46.030397" lon="11.8904453"><ele>309.33333333333337</ele><time>2026-03-28T14:11:14.783Z</time></trkpt><trkpt lat="46.0303265" lon="11.890565"><ele>308.6666666666667</ele><time>2026-03-28T14:11:16.783Z</time></trkpt><trkpt lat="46.0302825" lon="11.8906424"><ele>308.0</ele><time>2026-03-28T14:11:17.782Z</time></trkpt><trkpt lat="46.0302414" lon="11.8907206"><ele>308.0</ele><time>2026-03-28T14:11:18.785Z</time></trkpt><trkpt lat="46.0301998" lon="11.8907976"><ele>308.0</ele><time>2026-03-28T14:11:19.781Z</time></trkpt><trkpt lat="46.0301615" lon="11.8908793"><ele>308.0</ele><time>2026-03-28T14:11:20.785Z</time></trkpt><trkpt lat="46.0301232" lon="11.8909616"><ele>308.0</ele><time>2026-03-28T14:11:21.785Z</time></trkpt><trkpt lat="46.0300849" lon="11.8910424"><ele>308.0</ele><time>2026-03-28T14:11:22.782Z</time></trkpt><trkpt lat="46.0300495" lon="11.8911233"><ele>308.0</ele><time>2026-03-28T14:11:23.783Z</time></trkpt><trkpt lat="46.0299878" lon="11.8912748"><ele>306.6</ele><time>2026-03-28T14:11:25.783Z</time></trkpt><trkpt lat="46.0299543" lon="11.8913617"><ele>305.20000000000005</ele><time>2026-03-28T14:11:26.783Z</time></trkpt><trkpt lat="46.0298955" lon="11.8915126"><ele>303.8</ele><time>2026-03-28T14:11:28.783Z</time></trkpt><trkpt lat="46.0298376" lon="11.8916795"><ele>302.40000000000003</ele><time>2026-03-28T14:11:30.785Z</time></trkpt><trkpt lat="46.029809" lon="11.8917665"><ele>301.0</ele><time>2026-03-28T14:11:31.783Z</time></trkpt><trkpt lat="46.0297545" lon="11.8919106"><ele>300.6</ele><time>2026-03-28T14:11:33.783Z</time></trkpt><trkpt lat="46.0296962" lon="11.892057"><ele>300.20000000000005</ele><time>2026-03-28T14:11:35.783Z</time></trkpt><trkpt lat="46.0296498" lon="11.8921534"><ele>299.79999999999995</ele><time>2026-03-28T14:11:37.785Z</time></trkpt><trkpt lat="46.0296201" lon="11.8922386"><ele>299.4</ele><time>2026-03-28T14:11:38.785Z</time></trkpt><trkpt lat="46.0295617" lon="11.8923951"><ele>299.0</ele><time>2026-03-28T14:11:40.783Z</time></trkpt><trkpt lat="46.0295284" lon="11.8924901"><ele>299.0</ele><time>2026-03-28T14:11:41.785Z</time></trkpt><trkpt lat="46.0294924" lon="11.8925858"><ele>299.0</ele><time>2026-03-28T14:11:42.785Z</time></trkpt><trkpt lat="46.0294552" lon="11.8926702"><ele>299.0</ele><time>2026-03-28T14:11:43.783Z</time></trkpt><trkpt lat="46.0294155" lon="11.892753"><ele>299.0</ele><time>2026-03-28T14:11:44.783Z</time></trkpt><trkpt lat="46.0293388" lon="11.8928902"><ele>299.0</ele><time>2026-03-28T14:11:46.784Z</time></trkpt><trkpt lat="46.0292916" lon="11.8929599"><ele>299.0</ele><time>2026-03-28T14:11:47.784Z</time></trkpt><trkpt lat="46.0291922" lon="11.8930793"><ele>298.7142857142857</ele><time>2026-03-28T14:11:49.783Z</time></trkpt><trkpt lat="46.0291422" lon="11.893139"><ele>298.42857142857144</ele><time>2026-03-28T14:11:50.781Z</time></trkpt><trkpt lat="46.0290881" lon="11.893195"><ele>298.14285714285717</ele><time>2026-03-28T14:11:51.784Z</time></trkpt><trkpt lat="46.0290314" lon="11.8932579"><ele>297.8571428571429</ele><time>2026-03-28T14:11:52.782Z</time></trkpt><trkpt lat="46.0289789" lon="11.8933107"><ele>297.5714285714286</ele><time>2026-03-28T14:11:53.783Z</time></trkpt><trkpt lat="46.0289265" lon="11.893366"><ele>297.2857142857143</ele><time>2026-03-28T14:11:54.784Z</time></trkpt><trkpt lat="46.0288433" lon="11.8934596"><ele>297.0</ele><time>2026-03-28T14:11:56.784Z</time></trkpt><trkpt lat="46.0288269" lon="11.8935473"><ele>297.0</ele><time>2026-03-28T14:11:58.781Z</time></trkpt><trkpt lat="46.0288595" lon="11.8936273"><ele>297.0</ele><time>2026-03-28T14:12:00.785Z</time></trkpt><trkpt lat="46.02891" lon="11.8937261"><ele>297.0</ele><time>2026-03-28T14:12:02.783Z</time></trkpt><trkpt lat="46.028956" lon="11.893846"><ele>297.0</ele><time>2026-03-28T14:12:04.782Z</time></trkpt><trkpt lat="46.0290014" lon="11.8939849"><ele>297.0</ele><time>2026-03-28T14:12:06.782Z</time></trkpt><trkpt lat="46.0290482" lon="11.8940936"><ele>297.0</ele><time>2026-03-28T14:12:08.784Z</time></trkpt><trkpt lat="46.0290858" lon="11.8941876"><ele>297.0</ele><time>2026-03-28T14:12:10.784Z</time></trkpt><trkpt lat="46.0291126" lon="11.8942822"><ele>297.0</ele><time>2026-03-28T14:12:12.781Z</time></trkpt><trkpt lat="46.0290316" lon="11.8943743"><ele>297.0</ele><time>2026-03-28T14:12:15.785Z</time></trkpt><trkpt lat="46.0289254" lon="11.8944617"><ele>297.0</ele><time>2026-03-28T14:12:17.783Z</time></trkpt><trkpt lat="46.0288216" lon="11.8945218"><ele>297.0</ele><time>2026-03-28T14:12:19.783Z</time></trkpt><trkpt lat="46.0287118" lon="11.894575"><ele>297.0</ele><time>2026-03-28T14:12:21.783Z</time></trkpt><trkpt lat="46.0286268" lon="11.8946203"><ele>297.0</ele><time>2026-03-28T14:12:23.784Z</time></trkpt><trkpt lat="46.0285591" lon="11.8946714"><ele>297.0</ele><time>2026-03-28T14:12:33.782Z</time></trkpt><trkpt lat="46.0285658" lon="11.8947862"><ele>297.0</ele><time>2026-03-28T14:12:36.782Z</time></trkpt><trkpt lat="46.0285885" lon="11.8948908"><ele>297.0</ele><time>2026-03-28T14:12:38.785Z</time></trkpt><trkpt lat="46.0285993" lon="11.8950016"><ele>297.0</ele><time>2026-03-28T14:12:40.784Z</time></trkpt><trkpt lat="46.0285663" lon="11.8951093"><ele>297.0</ele><time>2026-03-28T14:12:42.784Z</time></trkpt><trkpt lat="46.0285089" lon="11.8952083"><ele>297.0</ele><time>2026-03-28T14:12:44.783Z</time></trkpt><trkpt lat="46.0284505" lon="11.8953164"><ele>297.0</ele><time>2026-03-28T14:12:46.784Z</time></trkpt><trkpt lat="46.0283958" lon="11.8953733"><ele>297.0</ele><time>2026-03-28T14:12:48.783Z</time></trkpt><trkpt lat="46.0283213" lon="11.8954481"><ele>297.0</ele><time>2026-03-28T14:12:50.783Z</time></trkpt><trkpt lat="46.028252" lon="11.8955266"><ele>297.0</ele><time>2026-03-28T14:12:52.783Z</time></trkpt><trkpt lat="46.0282211" lon="11.8956627"><ele>296.0</ele><time>2026-03-28T14:12:54.785Z</time></trkpt><trkpt lat="46.0281767" lon="11.8958019"><ele>295.0</ele><time>2026-03-28T14:12:56.781Z</time></trkpt><trkpt lat="46.0281491" lon="11.8958839"><ele>294.0</ele><time>2026-03-28T14:12:57.782Z</time></trkpt><trkpt lat="46.0280961" lon="11.8960381"><ele>293.0</ele><time>2026-03-28T14:12:59.783Z</time></trkpt><trkpt lat="46.0280415" lon="11.8961985"><ele>292.0</ele><time>2026-03-28T14:13:01.781Z</time></trkpt><trkpt lat="46.027996" lon="11.8963581"><ele>291.8</ele><time>2026-03-28T14:13:03.782Z</time></trkpt><trkpt lat="46.0279581" lon="11.8965026"><ele>291.6</ele><time>2026-03-28T14:13:05.783Z</time></trkpt><trkpt lat="46.0279174" lon="11.8966567"><ele>291.40000000000003</ele><time>2026-03-28T14:13:07.784Z</time></trkpt><trkpt lat="46.0278691" lon="11.8967992"><ele>291.2</ele><time>2026-03-28T14:13:09.784Z</time></trkpt><trkpt lat="46.0277987" lon="11.8969289"><ele>291.0</ele><time>2026-03-28T14:13:11.784Z</time></trkpt><trkpt lat="46.0277139" lon="11.8970099"><ele>291.0</ele><time>2026-03-28T14:13:13.783Z</time></trkpt><trkpt lat="46.0276121" lon="11.8970745"><ele>291.0</ele><time>2026-03-28T14:13:15.784Z</time></trkpt><trkpt lat="46.0275105" lon="11.8971417"><ele>291.0</ele><time>2026-03-28T14:13:17.783Z</time></trkpt><trkpt lat="46.0274048" lon="11.8972025"><ele>291.0</ele><time>2026-03-28T14:13:19.783Z</time></trkpt><trkpt lat="46.0273161" lon="11.8972673"><ele>291.0</ele><time>2026-03-28T14:13:21.782Z</time></trkpt><trkpt lat="46.0272729" lon="11.8973861"><ele>290.8</ele><time>2026-03-28T14:13:23.781Z</time></trkpt><trkpt lat="46.027272" lon="11.8975393"><ele>290.6</ele><time>2026-03-28T14:13:25.782Z</time></trkpt><trkpt lat="46.0272803" lon="11.8976965"><ele>290.4</ele><time>2026-03-28T14:13:27.784Z</time></trkpt><trkpt lat="46.0272833" lon="11.8978633"><ele>290.2</ele><time>2026-03-28T14:13:29.784Z</time></trkpt><trkpt lat="46.0272933" lon="11.8980273"><ele>290.0</ele><time>2026-03-28T14:13:31.785Z</time></trkpt><trkpt lat="46.0273132" lon="11.8981834"><ele>289.6</ele><time>2026-03-28T14:13:33.785Z</time></trkpt><trkpt lat="46.0273292" lon="11.8983242"><ele>289.2</ele><time>2026-03-28T14:13:35.781Z</time></trkpt><trkpt lat="46.0273219" lon="11.8984846"><ele>288.8</ele><time>2026-03-28T14:13:37.781Z</time></trkpt><trkpt lat="46.0272844" lon="11.8986452"><ele>288.4</ele><time>2026-03-28T14:13:39.782Z</time></trkpt><trkpt lat="46.027223" lon="11.8987741"><ele>288.0</ele><time>2026-03-28T14:13:41.784Z</time></trkpt><trkpt lat="46.0271497" lon="11.8988906"><ele>287.8</ele><time>2026-03-28T14:13:43.782Z</time></trkpt><trkpt lat="46.0270697" lon="11.8990034"><ele>287.6</ele><time>2026-03-28T14:13:45.784Z</time></trkpt><trkpt lat="46.0269949" lon="11.8991081"><ele>287.4</ele><time>2026-03-28T14:13:47.783Z</time></trkpt><trkpt lat="46.0269074" lon="11.8992239"><ele>287.2</ele><time>2026-03-28T14:13:49.784Z</time></trkpt><trkpt lat="46.0268177" lon="11.8993061"><ele>287.0</ele><time>2026-03-28T14:13:51.784Z</time></trkpt><trkpt lat="46.026714" lon="11.8993766"><ele>286.25</ele><time>2026-03-28T14:13:53.782Z</time></trkpt><trkpt lat="46.0266039" lon="11.899435"><ele>285.5</ele><time>2026-03-28T14:13:55.784Z</time></trkpt><trkpt lat="46.0264948" lon="11.8994949"><ele>284.75</ele><time>2026-03-28T14:13:57.784Z</time></trkpt><trkpt lat="46.0263857" lon="11.8995432"><ele>284.0</ele><time>2026-03-28T14:13:59.783Z</time></trkpt><trkpt lat="46.0262832" lon="11.8995926"><ele>284.0</ele><time>2026-03-28T14:14:01.782Z</time></trkpt><trkpt lat="46.0261769" lon="11.8996365"><ele>284.0</ele><time>2026-03-28T14:14:03.78Z</time></trkpt><trkpt lat="46.0260639" lon="11.8996872"><ele>284.0</ele><time>2026-03-28T14:14:05.782Z</time></trkpt><trkpt lat="46.0259569" lon="11.8997427"><ele>284.0</ele><time>2026-03-28T14:14:07.781Z</time></trkpt><trkpt lat="46.025853" lon="11.8997845"><ele>284.0</ele><time>2026-03-28T14:14:09.782Z</time></trkpt><trkpt lat="46.0257517" lon="11.8998162"><ele>284.0</ele><time>2026-03-28T14:14:11.784Z</time></trkpt><trkpt lat="46.0256589" lon="11.8998568"><ele>284.0</ele><time>2026-03-28T14:14:13.782Z</time></trkpt><trkpt lat="46.0255725" lon="11.8998841"><ele>284.0</ele><time>2026-03-28T14:14:15.783Z</time></trkpt><trkpt lat="46.0254755" lon="11.8998467"><ele>284.0</ele><time>2026-03-28T14:14:17.782Z</time></trkpt><trkpt lat="46.0253903" lon="11.8997576"><ele>284.0</ele><time>2026-03-28T14:14:19.783Z</time></trkpt><trkpt lat="46.0252968" lon="11.8996662"><ele>284.0</ele><time>2026-03-28T14:14:21.784Z</time></trkpt><trkpt lat="46.0252016" lon="11.899569"><ele>284.0</ele><time>2026-03-28T14:14:23.784Z</time></trkpt><trkpt lat="46.0251093" lon="11.8994579"><ele>284.0</ele><time>2026-03-28T14:14:25.784Z</time></trkpt><trkpt lat="46.025026" lon="11.8993556"><ele>283.8</ele><time>2026-03-28T14:14:27.784Z</time></trkpt><trkpt lat="46.0249481" lon="11.8992833"><ele>283.59999999999997</ele><time>2026-03-28T14:14:29.782Z</time></trkpt><trkpt lat="46.024859" lon="11.8992218"><ele>283.4</ele><time>2026-03-28T14:14:31.782Z</time></trkpt><trkpt lat="46.024763" lon="11.8991579"><ele>283.2</ele><time>2026-03-28T14:14:33.785Z</time></trkpt><trkpt lat="46.0246878" lon="11.8991115"><ele>283.0</ele><time>2026-03-28T14:14:35.783Z</time></trkpt><trkpt lat="46.0246072" lon="11.8991023"><ele>283.0</ele><time>2026-03-28T14:14:37.784Z</time></trkpt><trkpt lat="46.0245273" lon="11.8991488"><ele>283.0</ele><time>2026-03-28T14:14:40.782Z</time></trkpt><trkpt lat="46.0245037" lon="11.8992463"><ele>283.0</ele><time>2026-03-28T14:14:42.783Z</time></trkpt><trkpt lat="46.0245118" lon="11.8993642"><ele>283.0</ele><time>2026-03-28T14:14:44.781Z</time></trkpt><trkpt lat="46.0245468" lon="11.8994949"><ele>283.0</ele><time>2026-03-28T14:14:46.784Z</time></trkpt><trkpt lat="46.0245789" lon="11.8996282"><ele>283.0</ele><time>2026-03-28T14:14:48.785Z</time></trkpt><trkpt lat="46.0246086" lon="11.8997685"><ele>283.0</ele><time>2026-03-28T14:14:50.782Z</time></trkpt><trkpt lat="46.024637" lon="11.8999112"><ele>283.0</ele><time>2026-03-28T14:14:52.783Z</time></trkpt><trkpt lat="46.0246674" lon="11.9000498"><ele>283.0</ele><time>2026-03-28T14:14:54.781Z</time></trkpt><trkpt lat="46.0247058" lon="11.9002004"><ele>283.0</ele><time>2026-03-28T14:14:56.784Z</time></trkpt><trkpt lat="46.0247436" lon="11.9003517"><ele>283.0</ele><time>2026-03-28T14:14:58.781Z</time></trkpt><trkpt lat="46.0247829" lon="11.9004974"><ele>282.75</ele><time>2026-03-28T14:15:00.782Z</time></trkpt><trkpt lat="46.0248198" lon="11.9006514"><ele>282.5</ele><time>2026-03-28T14:15:02.785Z</time></trkpt><trkpt lat="46.0248553" lon="11.9008022"><ele>282.25</ele><time>2026-03-28T14:15:04.781Z</time></trkpt><trkpt lat="46.0248836" lon="11.9009552"><ele>282.0</ele><time>2026-03-28T14:15:06.782Z</time></trkpt><trkpt lat="46.0249084" lon="11.90112"><ele>282.0</ele><time>2026-03-28T14:15:08.786Z</time></trkpt><trkpt lat="46.0249346" lon="11.9012603"><ele>282.0</ele><time>2026-03-28T14:15:10.784Z</time></trkpt><trkpt lat="46.0249555" lon="11.9014001"><ele>282.0</ele><time>2026-03-28T14:15:12.784Z</time></trkpt><trkpt lat="46.0249761" lon="11.901537"><ele>282.0</ele><time>2026-03-28T14:15:14.783Z</time></trkpt><trkpt lat="46.0249942" lon="11.9016716"><ele>282.0</ele><time>2026-03-28T14:15:16.783Z</time></trkpt><trkpt lat="46.0250078" lon="11.9017623"><ele>282.3333333333333</ele><time>2026-03-28T14:15:18.783Z</time></trkpt><trkpt lat="46.0250244" lon="11.9018707"><ele>282.6666666666667</ele><time>2026-03-28T14:15:23.783Z</time></trkpt><trkpt lat="46.0250422" lon="11.9020066"><ele>283.0</ele><time>2026-03-28T14:15:26.783Z</time></trkpt><trkpt lat="46.02505" lon="11.9021171"><ele>283.33333333333337</ele><time>2026-03-28T14:15:28.785Z</time></trkpt><trkpt lat="46.0250568" lon="11.9022486"><ele>283.6666666666667</ele><time>2026-03-28T14:15:30.783Z</time></trkpt><trkpt lat="46.0250689" lon="11.9023849"><ele>284.0</ele><time>2026-03-28T14:15:32.785Z</time></trkpt><trkpt lat="46.0250877" lon="11.9025052"><ele>283.8</ele><time>2026-03-28T14:15:34.783Z</time></trkpt><trkpt lat="46.0251001" lon="11.9026488"><ele>283.59999999999997</ele><time>2026-03-28T14:15:36.785Z</time></trkpt><trkpt lat="46.0251156" lon="11.9027988"><ele>283.4</ele><time>2026-03-28T14:15:38.784Z</time></trkpt><trkpt lat="46.0251364" lon="11.9029552"><ele>283.2</ele><time>2026-03-28T14:15:40.785Z</time></trkpt><trkpt lat="46.0251677" lon="11.9031116"><ele>283.0</ele><time>2026-03-28T14:15:42.782Z</time></trkpt><trkpt lat="46.0251982" lon="11.9032684"><ele>282.8</ele><time>2026-03-28T14:15:44.784Z</time></trkpt><trkpt lat="46.0252055" lon="11.9034185"><ele>282.6</ele><time>2026-03-28T14:15:46.784Z</time></trkpt><trkpt lat="46.0252237" lon="11.9035675"><ele>282.4</ele><time>2026-03-28T14:15:48.781Z</time></trkpt><trkpt lat="46.0252328" lon="11.90371"><ele>282.2</ele><time>2026-03-28T14:15:50.785Z</time></trkpt><trkpt lat="46.0252484" lon="11.9038538"><ele>282.0</ele><time>2026-03-28T14:15:52.785Z</time></trkpt><trkpt lat="46.0252685" lon="11.9040008"><ele>282.0</ele><time>2026-03-28T14:15:54.784Z</time></trkpt><trkpt lat="46.0252917" lon="11.9041384"><ele>282.0</ele><time>2026-03-28T14:15:56.784Z</time></trkpt><trkpt lat="46.0253065" lon="11.9042698"><ele>282.0</ele><time>2026-03-28T14:15:58.783Z</time></trkpt><trkpt lat="46.0253012" lon="11.9044028"><ele>282.0</ele><time>2026-03-28T14:16:00.783Z</time></trkpt><trkpt lat="46.0253156" lon="11.904555"><ele>282.0</ele><time>2026-03-28T14:16:02.783Z</time></trkpt><trkpt lat="46.0253663" lon="11.9046742"><ele>282.4</ele><time>2026-03-28T14:16:04.783Z</time></trkpt><trkpt lat="46.0254105" lon="11.9048035"><ele>282.79999999999995</ele><time>2026-03-28T14:16:06.785Z</time></trkpt><trkpt lat="46.0254343" lon="11.9049427"><ele>283.2</ele><time>2026-03-28T14:16:08.783Z</time></trkpt><trkpt lat="46.0254439" lon="11.9050933"><ele>283.59999999999997</ele><time>2026-03-28T14:16:10.783Z</time></trkpt><trkpt lat="46.0254542" lon="11.9052496"><ele>284.0</ele><time>2026-03-28T14:16:12.783Z</time></trkpt><trkpt lat="46.0254711" lon="11.9054077"><ele>284.0</ele><time>2026-03-28T14:16:14.785Z</time></trkpt><trkpt lat="46.0254855" lon="11.9055703"><ele>284.0</ele><time>2026-03-28T14:16:16.785Z</time></trkpt><trkpt lat="46.0255014" lon="11.9057227"><ele>284.0</ele><time>2026-03-28T14:16:18.783Z</time></trkpt><trkpt lat="46.0255163" lon="11.9058888"><ele>284.0</ele><time>2026-03-28T14:16:20.783Z</time></trkpt><trkpt lat="46.0255365" lon="11.9060473"><ele>284.0</ele><time>2026-03-28T14:16:22.783Z</time></trkpt><trkpt lat="46.0255556" lon="11.9062115"><ele>283.4</ele><time>2026-03-28T14:16:24.785Z</time></trkpt><trkpt lat="46.0255727" lon="11.9063593"><ele>282.79999999999995</ele><time>2026-03-28T14:16:26.782Z</time></trkpt><trkpt lat="46.0255859" lon="11.9065098"><ele>282.20000000000005</ele><time>2026-03-28T14:16:28.782Z</time></trkpt><trkpt lat="46.0256009" lon="11.9066605"><ele>281.6</ele><time>2026-03-28T14:16:30.786Z</time></trkpt><trkpt lat="46.0256044" lon="11.9068137"><ele>281.0</ele><time>2026-03-28T14:16:32.783Z</time></trkpt><trkpt lat="46.0256025" lon="11.9069722"><ele>281.0</ele><time>2026-03-28T14:16:34.782Z</time></trkpt><trkpt lat="46.0255898" lon="11.9071174"><ele>281.0</ele><time>2026-03-28T14:16:36.785Z</time></trkpt><trkpt lat="46.0255676" lon="11.9072425"><ele>281.0</ele><time>2026-03-28T14:16:38.785Z</time></trkpt><trkpt lat="46.0255385" lon="11.9073854"><ele>281.0</ele><time>2026-03-28T14:16:40.783Z</time></trkpt><trkpt lat="46.0255101" lon="11.9075243"><ele>281.0</ele><time>2026-03-28T14:16:42.784Z</time></trkpt><trkpt lat="46.0254815" lon="11.9076597"><ele>280.6666666666667</ele><time>2026-03-28T14:16:44.782Z</time></trkpt><trkpt lat="46.0254558" lon="11.9077859"><ele>280.33333333333337</ele><time>2026-03-28T14:16:46.783Z</time></trkpt><trkpt lat="46.0254432" lon="11.9079045"><ele>280.0</ele><time>2026-03-28T14:16:48.784Z</time></trkpt><trkpt lat="46.0254553" lon="11.9080259"><ele>279.6666666666667</ele><time>2026-03-28T14:16:50.784Z</time></trkpt><trkpt lat="46.025449" lon="11.9081477"><ele>279.3333333333333</ele><time>2026-03-28T14:16:52.783Z</time></trkpt><trkpt lat="46.0254093" lon="11.9082586"><ele>279.0</ele><time>2026-03-28T14:16:54.783Z</time></trkpt><trkpt lat="46.0253516" lon="11.9083702"><ele>279.0</ele><time>2026-03-28T14:16:56.783Z</time></trkpt><trkpt lat="46.0253098" lon="11.9084951"><ele>279.0</ele><time>2026-03-28T14:16:58.784Z</time></trkpt><trkpt lat="46.0252742" lon="11.9086286"><ele>279.0</ele><time>2026-03-28T14:17:00.783Z</time></trkpt><trkpt lat="46.0252437" lon="11.9087703"><ele>279.0</ele><time>2026-03-28T14:17:02.783Z</time></trkpt><trkpt lat="46.0252168" lon="11.9088878"><ele>279.0</ele><time>2026-03-28T14:17:04.785Z</time></trkpt><trkpt lat="46.0251861" lon="11.9090317"><ele>279.0</ele><time>2026-03-28T14:17:06.786Z</time></trkpt><trkpt lat="46.0251517" lon="11.9091799"><ele>279.0</ele><time>2026-03-28T14:17:08.786Z</time></trkpt><trkpt lat="46.0251184" lon="11.9093201"><ele>279.0</ele><time>2026-03-28T14:17:10.783Z</time></trkpt><trkpt lat="46.025085" lon="11.909466"><ele>279.0</ele><time>2026-03-28T14:17:12.783Z</time></trkpt><trkpt lat="46.0250525" lon="11.9096103"><ele>279.0</ele><time>2026-03-28T14:17:14.786Z</time></trkpt><trkpt lat="46.0250179" lon="11.9097545"><ele>279.4</ele><time>2026-03-28T14:17:16.783Z</time></trkpt><trkpt lat="46.02498" lon="11.9098958"><ele>279.79999999999995</ele><time>2026-03-28T14:17:18.783Z</time></trkpt><trkpt lat="46.0249587" lon="11.9099849"><ele>280.20000000000005</ele><time>2026-03-28T14:17:19.785Z</time></trkpt><trkpt lat="46.024929" lon="11.9101294"><ele>280.6</ele><time>2026-03-28T14:17:21.783Z</time></trkpt><trkpt lat="46.0249004" lon="11.9102664"><ele>281.0</ele><time>2026-03-28T14:17:23.782Z</time></trkpt><trkpt lat="46.0248661" lon="11.9104095"><ele>281.2</ele><time>2026-03-28T14:17:25.785Z</time></trkpt><trkpt lat="46.024833" lon="11.9105436"><ele>281.40000000000003</ele><time>2026-03-28T14:17:27.783Z</time></trkpt><trkpt lat="46.0248007" lon="11.9106816"><ele>281.6</ele><time>2026-03-28T14:17:29.782Z</time></trkpt><trkpt lat="46.0247631" lon="11.9108194"><ele>281.8</ele><time>2026-03-28T14:17:31.783Z</time></trkpt><trkpt lat="46.0247466" lon="11.9109498"><ele>282.0</ele><time>2026-03-28T14:17:33.783Z</time></trkpt><trkpt lat="46.024796" lon="11.9110307"><ele>281.8</ele><time>2026-03-28T14:17:35.783Z</time></trkpt><trkpt lat="46.0248644" lon="11.9110801"><ele>281.6</ele><time>2026-03-28T14:17:37.782Z</time></trkpt><trkpt lat="46.0249394" lon="11.9111171"><ele>281.40000000000003</ele><time>2026-03-28T14:17:39.783Z</time></trkpt><trkpt lat="46.0250266" lon="11.9111228"><ele>281.2</ele><time>2026-03-28T14:17:41.783Z</time></trkpt><trkpt lat="46.0251324" lon="11.9111469"><ele>281.0</ele><time>2026-03-28T14:17:43.784Z</time></trkpt><trkpt lat="46.0252393" lon="11.9111595"><ele>281.0</ele><time>2026-03-28T14:17:45.783Z</time></trkpt><trkpt lat="46.0253553" lon="11.9111379"><ele>281.0</ele><time>2026-03-28T14:17:47.785Z</time></trkpt><trkpt lat="46.0254675" lon="11.9111086"><ele>281.0</ele><time>2026-03-28T14:17:49.783Z</time></trkpt><trkpt lat="46.0255674" lon="11.9110692"><ele>281.0</ele><time>2026-03-28T14:17:51.785Z</time></trkpt><trkpt lat="46.0256524" lon="11.9110226"><ele>281.0</ele><time>2026-03-28T14:17:53.783Z</time></trkpt><trkpt lat="46.0257375" lon="11.9109731"><ele>281.0</ele><time>2026-03-28T14:17:55.783Z</time></trkpt><trkpt lat="46.0258097" lon="11.9109442"><ele>281.0</ele><time>2026-03-28T14:17:57.784Z</time></trkpt><trkpt lat="46.0258838" lon="11.9109259"><ele>281.0</ele><time>2026-03-28T14:17:59.783Z</time></trkpt><trkpt lat="46.0259614" lon="11.9109124"><ele>281.0</ele><time>2026-03-28T14:18:01.783Z</time></trkpt><trkpt lat="46.0260502" lon="11.9109011"><ele>281.0</ele><time>2026-03-28T14:18:03.785Z</time></trkpt><trkpt lat="46.0261311" lon="11.9108982"><ele>281.0</ele><time>2026-03-28T14:18:06.785Z</time></trkpt><trkpt lat="46.0262148" lon="11.9108913"><ele>281.5</ele><time>2026-03-28T14:18:09.785Z</time></trkpt><trkpt lat="46.026343" lon="11.9108964"><ele>282.0</ele><time>2026-03-28T14:18:12.783Z</time></trkpt><trkpt lat="46.0264549" lon="11.9108953"><ele>282.5</ele><time>2026-03-28T14:18:14.783Z</time></trkpt><trkpt lat="46.0265901" lon="11.9108841"><ele>283.0</ele><time>2026-03-28T14:18:16.785Z</time></trkpt><trkpt lat="46.0266759" lon="11.9108706"><ele>284.2</ele><time>2026-03-28T14:18:17.784Z</time></trkpt><trkpt lat="46.0267428" lon="11.9108738"><ele>285.4</ele><time>2026-03-28T14:18:18.783Z</time></trkpt><trkpt lat="46.0268717" lon="11.9108664"><ele>286.59999999999997</ele><time>2026-03-28T14:18:20.783Z</time></trkpt><trkpt lat="46.0269373" lon="11.9108567"><ele>287.8</ele><time>2026-03-28T14:18:21.782Z</time></trkpt><trkpt lat="46.0270053" lon="11.9108502"><ele>289.0</ele><time>2026-03-28T14:18:22.783Z</time></trkpt><trkpt lat="46.0271313" lon="11.9108396"><ele>289.0</ele><time>2026-03-28T14:18:24.783Z</time></trkpt><trkpt lat="46.0272414" lon="11.9108406"><ele>289.0</ele><time>2026-03-28T14:18:26.783Z</time></trkpt><trkpt lat="46.0273601" lon="11.9108385"><ele>289.0</ele><time>2026-03-28T14:18:28.784Z</time></trkpt><trkpt lat="46.0274249" lon="11.9108377"><ele>289.0</ele><time>2026-03-28T14:18:29.785Z</time></trkpt><trkpt lat="46.0275416" lon="11.9108315"><ele>289.0</ele><time>2026-03-28T14:18:31.784Z</time></trkpt><trkpt lat="46.0276753" lon="11.9108218"><ele>287.8</ele><time>2026-03-28T14:18:33.781Z</time></trkpt><trkpt lat="46.0277974" lon="11.9108179"><ele>286.59999999999997</ele><time>2026-03-28T14:18:35.783Z</time></trkpt><trkpt lat="46.0278613" lon="11.9108235"><ele>285.4</ele><time>2026-03-28T14:18:36.781Z</time></trkpt><trkpt lat="46.0279816" lon="11.9108356"><ele>284.2</ele><time>2026-03-28T14:18:38.785Z</time></trkpt><trkpt lat="46.0280909" lon="11.9108537"><ele>283.0</ele><time>2026-03-28T14:18:40.785Z</time></trkpt><trkpt lat="46.0281924" lon="11.9108943"><ele>283.5</ele><time>2026-03-28T14:18:42.783Z</time></trkpt><trkpt lat="46.0282902" lon="11.9109337"><ele>284.0</ele><time>2026-03-28T14:18:44.783Z</time></trkpt><trkpt lat="46.0283832" lon="11.9109577"><ele>284.5</ele><time>2026-03-28T14:18:46.783Z</time></trkpt><trkpt lat="46.028446" lon="11.9109913"><ele>285.0</ele><time>2026-03-28T14:18:48.782Z</time></trkpt><trkpt lat="46.0285042" lon="11.9110793"><ele>285.5</ele><time>2026-03-28T14:18:50.783Z</time></trkpt><trkpt lat="46.0285236" lon="11.9111978"><ele>286.0</ele><time>2026-03-28T14:18:52.782Z</time></trkpt><trkpt lat="46.0285306" lon="11.9113255"><ele>286.16666666666663</ele><time>2026-03-28T14:18:54.783Z</time></trkpt><trkpt lat="46.0285531" lon="11.9114563"><ele>286.3333333333333</ele><time>2026-03-28T14:18:56.784Z</time></trkpt><trkpt lat="46.0285759" lon="11.9115878"><ele>286.5</ele><time>2026-03-28T14:18:58.783Z</time></trkpt><trkpt lat="46.0286001" lon="11.911711"><ele>286.6666666666667</ele><time>2026-03-28T14:19:00.783Z</time></trkpt><trkpt lat="46.0286208" lon="11.9118224"><ele>286.83333333333337</ele><time>2026-03-28T14:19:02.785Z</time></trkpt><trkpt lat="46.0286309" lon="11.9119403"><ele>287.0</ele><time>2026-03-28T14:19:04.785Z</time></trkpt><trkpt lat="46.0286439" lon="11.9120503"><ele>287.0</ele><time>2026-03-28T14:19:06.784Z</time></trkpt><trkpt lat="46.0286524" lon="11.912147"><ele>287.0</ele><time>2026-03-28T14:19:08.782Z</time></trkpt><trkpt lat="46.0286537" lon="11.9122422"><ele>287.0</ele><time>2026-03-28T14:19:11.785Z</time></trkpt><trkpt lat="46.0286568" lon="11.9123693"><ele>287.0</ele><time>2026-03-28T14:19:15.782Z</time></trkpt><trkpt lat="46.0285857" lon="11.9124242"><ele>287.0</ele><time>2026-03-28T14:19:18.782Z</time></trkpt><trkpt lat="46.0285001" lon="11.9124164"><ele>287.0</ele><time>2026-03-28T14:19:20.785Z</time></trkpt><trkpt lat="46.0284024" lon="11.9124223"><ele>287.0</ele><time>2026-03-28T14:19:22.782Z</time></trkpt><trkpt lat="46.0282964" lon="11.9124248"><ele>287.0</ele><time>2026-03-28T14:19:24.785Z</time></trkpt><trkpt lat="46.0281933" lon="11.9124414"><ele>287.0</ele><time>2026-03-28T14:19:26.783Z</time></trkpt><trkpt lat="46.0280853" lon="11.9124403"><ele>287.0</ele><time>2026-03-28T14:19:28.783Z</time></trkpt><trkpt lat="46.0279742" lon="11.9124616"><ele>287.0</ele><time>2026-03-28T14:19:30.783Z</time></trkpt><trkpt lat="46.0278736" lon="11.9124939"><ele>287.0</ele><time>2026-03-28T14:19:32.783Z</time></trkpt><trkpt lat="46.0277659" lon="11.9125224"><ele>287.0</ele><time>2026-03-28T14:19:34.782Z</time></trkpt><trkpt lat="46.0276623" lon="11.9125533"><ele>287.0</ele><time>2026-03-28T14:19:36.783Z</time></trkpt><trkpt lat="46.0275609" lon="11.9125639"><ele>287.0</ele><time>2026-03-28T14:19:38.785Z</time></trkpt><trkpt lat="46.0274718" lon="11.9125589"><ele>287.0</ele><time>2026-03-28T14:19:40.783Z</time></trkpt><trkpt lat="46.0273911" lon="11.9125974"><ele>286.8</ele><time>2026-03-28T14:19:43.782Z</time></trkpt><trkpt lat="46.0274046" lon="11.9127075"><ele>286.6</ele><time>2026-03-28T14:19:46.783Z</time></trkpt><trkpt lat="46.0274066" lon="11.9128013"><ele>286.40000000000003</ele><time>2026-03-28T14:19:48.783Z</time></trkpt><trkpt lat="46.0273966" lon="11.9129094"><ele>286.2</ele><time>2026-03-28T14:19:51.784Z</time></trkpt><trkpt lat="46.0273673" lon="11.9130979"><ele>286.0</ele><time>2026-03-28T14:20:24.779Z</time></trkpt><trkpt lat="46.0273395" lon="11.913244"><ele>286.0</ele><time>2026-03-28T14:22:08.782Z</time></trkpt><trkpt lat="46.0272858" lon="11.9131934"><ele>286.0</ele><time>2026-03-28T14:23:11.782Z</time></trkpt><trkpt lat="46.0273131" lon="11.913078"><ele>286.0</ele><time>2026-03-28T14:24:16.782Z</time></trkpt><trkpt lat="46.0272582" lon="11.9130264"><ele>286.0</ele><time>2026-03-28T14:24:21.78Z</time></trkpt><trkpt lat="46.0272848" lon="11.9131931"><ele>286.0</ele><time>2026-03-28T14:24:38.78Z</time></trkpt></trkseg></trk></gpx>